<?xml version="1.0" encoding="UTF-8" standalone="no" ?>
<gpx xmlns="http://www.topografix.com/GPX/1/1" xmlns:xsi="http://www.w3.org/2001/XMLSchema-instance" xsi:schemaLocation="http://www.topografix.com/GPX/1/1 http://www.topografix.com/GPX/1/1/gpx.xsd" version="1.1" creator="VisuGPX - https://www.visugpx.com">
  <metadata>
    <name>Pornichet 17/03/2022</name>
    <desc><![CDATA[Sortie jeudi 17 mars 2022]]></desc>
  </metadata>
  <trk>
    <name><![CDATA[Pornichet Cyclisme]]></name>
    <trkseg>
      <trkpt lat="47.26403" lon="-2.31555">
        <ele>9.5</ele>
        <time>2022-03-17T08:15:34.000Z</time>
      </trkpt>
      <trkpt lat="47.26405" lon="-2.31566">
        <ele>9.6</ele>
        <time>2022-03-17T08:15:37.000Z</time>
      </trkpt>
      <trkpt lat="47.26405" lon="-2.31569">
        <ele>-0.80000001192093</ele>
        <time>2022-03-17T08:15:38.000Z</time>
      </trkpt>
      <trkpt lat="47.26405" lon="-2.31573">
        <ele>-1.2000000476837</ele>
        <time>2022-03-17T08:15:39.000Z</time>
      </trkpt>
      <trkpt lat="47.26406" lon="-2.31576">
        <ele>-1.6000000238419</ele>
        <time>2022-03-17T08:15:40.000Z</time>
      </trkpt>
      <trkpt lat="47.26406" lon="-2.3158">
        <ele>-2</ele>
        <time>2022-03-17T08:15:41.000Z</time>
      </trkpt>
      <trkpt lat="47.26407" lon="-2.31608">
        <ele>-2</ele>
        <time>2022-03-17T08:15:48.000Z</time>
      </trkpt>
      <trkpt lat="47.26409" lon="-2.31647">
        <ele>-2</ele>
        <time>2022-03-17T08:15:56.000Z</time>
      </trkpt>
      <trkpt lat="47.26407" lon="-2.31651">
        <ele>-2</ele>
        <time>2022-03-17T08:15:57.000Z</time>
      </trkpt>
      <trkpt lat="47.26404" lon="-2.31653">
        <ele>-2</ele>
        <time>2022-03-17T08:15:58.000Z</time>
      </trkpt>
      <trkpt lat="47.26392" lon="-2.31658">
        <ele>-2</ele>
        <time>2022-03-17T08:16:01.000Z</time>
      </trkpt>
      <trkpt lat="47.26388" lon="-2.3166">
        <ele>-2</ele>
        <time>2022-03-17T08:16:02.000Z</time>
      </trkpt>
      <trkpt lat="47.26376" lon="-2.31667">
        <ele>-2</ele>
        <time>2022-03-17T08:16:05.000Z</time>
      </trkpt>
      <trkpt lat="47.26371" lon="-2.3167">
        <ele>-2.2000000476837</ele>
        <time>2022-03-17T08:16:06.000Z</time>
      </trkpt>
      <trkpt lat="47.26367" lon="-2.31672">
        <ele>-2.2000000476837</ele>
        <time>2022-03-17T08:16:07.000Z</time>
      </trkpt>
      <trkpt lat="47.26363" lon="-2.31675">
        <ele>-2.2000000476837</ele>
        <time>2022-03-17T08:16:08.000Z</time>
      </trkpt>
      <trkpt lat="47.26358" lon="-2.31678">
        <ele>-2.4000000953674</ele>
        <time>2022-03-17T08:16:09.000Z</time>
      </trkpt>
      <trkpt lat="47.26354" lon="-2.3168">
        <ele>-2.4000000953674</ele>
        <time>2022-03-17T08:16:10.000Z</time>
      </trkpt>
      <trkpt lat="47.26334" lon="-2.31689">
        <ele>-2.4000000953674</ele>
        <time>2022-03-17T08:16:15.000Z</time>
      </trkpt>
      <trkpt lat="47.26332" lon="-2.3169">
        <ele>-2.4000000953674</ele>
        <time>2022-03-17T08:16:18.000Z</time>
      </trkpt>
      <trkpt lat="47.26328" lon="-2.31703">
        <ele>-4.4000000953674</ele>
        <time>2022-03-17T08:18:58.000Z</time>
      </trkpt>
      <trkpt lat="47.26318" lon="-2.31709">
        <ele>-4.4000000953674</ele>
        <time>2022-03-17T08:19:03.000Z</time>
      </trkpt>
      <trkpt lat="47.26307" lon="-2.31717">
        <ele>-4.4000000953674</ele>
        <time>2022-03-17T08:19:06.000Z</time>
      </trkpt>
      <trkpt lat="47.26301" lon="-2.31726">
        <ele>-4.4000000953674</ele>
        <time>2022-03-17T08:19:08.000Z</time>
      </trkpt>
      <trkpt lat="47.26301" lon="-2.31745">
        <ele>-4.4000000953674</ele>
        <time>2022-03-17T08:19:11.000Z</time>
      </trkpt>
      <trkpt lat="47.26305" lon="-2.31775">
        <ele>-4.8000001907349</ele>
        <time>2022-03-17T08:19:16.000Z</time>
      </trkpt>
      <trkpt lat="47.26305" lon="-2.31781">
        <ele>-5.1999998092651</ele>
        <time>2022-03-17T08:19:17.000Z</time>
      </trkpt>
      <trkpt lat="47.26305" lon="-2.31786">
        <ele>-5.8000001907349</ele>
        <time>2022-03-17T08:19:18.000Z</time>
      </trkpt>
      <trkpt lat="47.26306" lon="-2.31792">
        <ele>-6.1999998092651</ele>
        <time>2022-03-17T08:19:19.000Z</time>
      </trkpt>
      <trkpt lat="47.26306" lon="-2.31798">
        <ele>-6.5999999046326</ele>
        <time>2022-03-17T08:19:20.000Z</time>
      </trkpt>
      <trkpt lat="47.26305" lon="-2.31805">
        <ele>-6.5999999046326</ele>
        <time>2022-03-17T08:19:21.000Z</time>
      </trkpt>
      <trkpt lat="47.263" lon="-2.31854">
        <ele>-6.5999999046326</ele>
        <time>2022-03-17T08:19:29.000Z</time>
      </trkpt>
      <trkpt lat="47.26298" lon="-2.31886">
        <ele>-6.5999999046326</ele>
        <time>2022-03-17T08:19:35.000Z</time>
      </trkpt>
      <trkpt lat="47.26296" lon="-2.3189">
        <ele>-6.5999999046326</ele>
        <time>2022-03-17T08:19:36.000Z</time>
      </trkpt>
      <trkpt lat="47.2629" lon="-2.31896">
        <ele>-6.5999999046326</ele>
        <time>2022-03-17T08:19:38.000Z</time>
      </trkpt>
      <trkpt lat="47.26272" lon="-2.31917">
        <ele>-6.5999999046326</ele>
        <time>2022-03-17T08:19:44.000Z</time>
      </trkpt>
      <trkpt lat="47.26258" lon="-2.3194">
        <ele>-6.5999999046326</ele>
        <time>2022-03-17T08:19:49.000Z</time>
      </trkpt>
      <trkpt lat="47.26247" lon="-2.3196">
        <ele>-6.5999999046326</ele>
        <time>2022-03-17T08:19:54.000Z</time>
      </trkpt>
      <trkpt lat="47.26242" lon="-2.31972">
        <ele>-6.5999999046326</ele>
        <time>2022-03-17T08:19:58.000Z</time>
      </trkpt>
      <trkpt lat="47.2624" lon="-2.31973">
        <ele>-6.5999999046326</ele>
        <time>2022-03-17T08:19:59.000Z</time>
      </trkpt>
      <trkpt lat="47.26228" lon="-2.31977">
        <ele>-6.5999999046326</ele>
        <time>2022-03-17T08:20:04.000Z</time>
      </trkpt>
      <trkpt lat="47.26227" lon="-2.31978">
        <ele>-6.5999999046326</ele>
        <time>2022-03-17T08:20:05.000Z</time>
      </trkpt>
      <trkpt lat="47.26218" lon="-2.31989">
        <ele>-6.5999999046326</ele>
        <time>2022-03-17T08:20:09.000Z</time>
      </trkpt>
      <trkpt lat="47.26202" lon="-2.32003">
        <ele>-6.5999999046326</ele>
        <time>2022-03-17T08:20:15.000Z</time>
      </trkpt>
      <trkpt lat="47.262" lon="-2.32006">
        <ele>-7</ele>
        <time>2022-03-17T08:20:16.000Z</time>
      </trkpt>
      <trkpt lat="47.26199" lon="-2.32011">
        <ele>-7.4000000953674</ele>
        <time>2022-03-17T08:20:17.000Z</time>
      </trkpt>
      <trkpt lat="47.26199" lon="-2.32014">
        <ele>-7.8000001907349</ele>
        <time>2022-03-17T08:20:18.000Z</time>
      </trkpt>
      <trkpt lat="47.26198" lon="-2.32017">
        <ele>-8.1999998092651</ele>
        <time>2022-03-17T08:20:19.000Z</time>
      </trkpt>
      <trkpt lat="47.26197" lon="-2.32019">
        <ele>-8.8000001907349</ele>
        <time>2022-03-17T08:20:20.000Z</time>
      </trkpt>
      <trkpt lat="47.26196" lon="-2.32021">
        <ele>-8.8000001907349</ele>
        <time>2022-03-17T08:20:21.000Z</time>
      </trkpt>
      <trkpt lat="47.26192" lon="-2.32022">
        <ele>-8.8000001907349</ele>
        <time>2022-03-17T08:20:23.000Z</time>
      </trkpt>
      <trkpt lat="47.2619" lon="-2.32022">
        <ele>-8.8000001907349</ele>
        <time>2022-03-17T08:20:24.000Z</time>
      </trkpt>
      <trkpt lat="47.26183" lon="-2.3202">
        <ele>-8.8000001907349</ele>
        <time>2022-03-17T08:20:27.000Z</time>
      </trkpt>
      <trkpt lat="47.26177" lon="-2.32023">
        <ele>-8.8000001907349</ele>
        <time>2022-03-17T08:20:29.000Z</time>
      </trkpt>
      <trkpt lat="47.26161" lon="-2.32032">
        <ele>-8.8000001907349</ele>
        <time>2022-03-17T08:20:34.000Z</time>
      </trkpt>
      <trkpt lat="47.26153" lon="-2.32052">
        <ele>-8.8000001907349</ele>
        <time>2022-03-17T08:20:38.000Z</time>
      </trkpt>
      <trkpt lat="47.26139" lon="-2.32097">
        <ele>-8.8000001907349</ele>
        <time>2022-03-17T08:20:46.000Z</time>
      </trkpt>
      <trkpt lat="47.2613" lon="-2.32128">
        <ele>-8.8000001907349</ele>
        <time>2022-03-17T08:20:51.000Z</time>
      </trkpt>
      <trkpt lat="47.26128" lon="-2.32134">
        <ele>-8.8000001907349</ele>
        <time>2022-03-17T08:20:52.000Z</time>
      </trkpt>
      <trkpt lat="47.26121" lon="-2.32151">
        <ele>-8.8000001907349</ele>
        <time>2022-03-17T08:20:55.000Z</time>
      </trkpt>
      <trkpt lat="47.2611" lon="-2.3218">
        <ele>-8.8000001907349</ele>
        <time>2022-03-17T08:21:00.000Z</time>
      </trkpt>
      <trkpt lat="47.26098" lon="-2.32208">
        <ele>-8.8000001907349</ele>
        <time>2022-03-17T08:21:05.000Z</time>
      </trkpt>
      <trkpt lat="47.26095" lon="-2.32213">
        <ele>-8.8000001907349</ele>
        <time>2022-03-17T08:21:06.000Z</time>
      </trkpt>
      <trkpt lat="47.26076" lon="-2.32241">
        <ele>-8.8000001907349</ele>
        <time>2022-03-17T08:21:12.000Z</time>
      </trkpt>
      <trkpt lat="47.26073" lon="-2.32245">
        <ele>-8.8000001907349</ele>
        <time>2022-03-17T08:21:13.000Z</time>
      </trkpt>
      <trkpt lat="47.26047" lon="-2.32275">
        <ele>-8.8000001907349</ele>
        <time>2022-03-17T08:21:20.000Z</time>
      </trkpt>
      <trkpt lat="47.26012" lon="-2.32315">
        <ele>-8.8000001907349</ele>
        <time>2022-03-17T08:21:29.000Z</time>
      </trkpt>
      <trkpt lat="47.25979" lon="-2.32357">
        <ele>-8.8000001907349</ele>
        <time>2022-03-17T08:21:38.000Z</time>
      </trkpt>
      <trkpt lat="47.25965" lon="-2.32376">
        <ele>-8.8000001907349</ele>
        <time>2022-03-17T08:21:42.000Z</time>
      </trkpt>
      <trkpt lat="47.25955" lon="-2.3239">
        <ele>-8.8000001907349</ele>
        <time>2022-03-17T08:21:45.000Z</time>
      </trkpt>
      <trkpt lat="47.25923" lon="-2.32431">
        <ele>-8.8000001907349</ele>
        <time>2022-03-17T08:21:54.000Z</time>
      </trkpt>
      <trkpt lat="47.25914" lon="-2.32443">
        <ele>-8.8000001907349</ele>
        <time>2022-03-17T08:21:57.000Z</time>
      </trkpt>
      <trkpt lat="47.25906" lon="-2.32455">
        <ele>-8.8000001907349</ele>
        <time>2022-03-17T08:22:00.000Z</time>
      </trkpt>
      <trkpt lat="47.25903" lon="-2.32464">
        <ele>-8.8000001907349</ele>
        <time>2022-03-17T08:22:02.000Z</time>
      </trkpt>
      <trkpt lat="47.25904" lon="-2.32467">
        <ele>-8.8000001907349</ele>
        <time>2022-03-17T08:22:03.000Z</time>
      </trkpt>
      <trkpt lat="47.25916" lon="-2.3248">
        <ele>-8.8000001907349</ele>
        <time>2022-03-17T08:22:07.000Z</time>
      </trkpt>
      <trkpt lat="47.25926" lon="-2.32502">
        <ele>-8.8000001907349</ele>
        <time>2022-03-17T08:22:11.000Z</time>
      </trkpt>
      <trkpt lat="47.25934" lon="-2.32526">
        <ele>-8.8000001907349</ele>
        <time>2022-03-17T08:22:15.000Z</time>
      </trkpt>
      <trkpt lat="47.2594" lon="-2.32544">
        <ele>-8.8000001907349</ele>
        <time>2022-03-17T08:22:18.000Z</time>
      </trkpt>
      <trkpt lat="47.25942" lon="-2.3255">
        <ele>-8.8000001907349</ele>
        <time>2022-03-17T08:22:19.000Z</time>
      </trkpt>
      <trkpt lat="47.2595" lon="-2.32579">
        <ele>-8.8000001907349</ele>
        <time>2022-03-17T08:22:24.000Z</time>
      </trkpt>
      <trkpt lat="47.25961" lon="-2.3263">
        <ele>-8.8000001907349</ele>
        <time>2022-03-17T08:22:32.000Z</time>
      </trkpt>
      <trkpt lat="47.25962" lon="-2.32653">
        <ele>-8.8000001907349</ele>
        <time>2022-03-17T08:22:36.000Z</time>
      </trkpt>
      <trkpt lat="47.25971" lon="-2.32656">
        <ele>-8.8000001907349</ele>
        <time>2022-03-17T08:22:39.000Z</time>
      </trkpt>
      <trkpt lat="47.25983" lon="-2.32658">
        <ele>-8.8000001907349</ele>
        <time>2022-03-17T08:22:42.000Z</time>
      </trkpt>
      <trkpt lat="47.2599" lon="-2.32658">
        <ele>-8.8000001907349</ele>
        <time>2022-03-17T08:22:44.000Z</time>
      </trkpt>
      <trkpt lat="47.25994" lon="-2.32658">
        <ele>-8.8000001907349</ele>
        <time>2022-03-17T08:22:45.000Z</time>
      </trkpt>
      <trkpt lat="47.26016" lon="-2.32655">
        <ele>-8.8000001907349</ele>
        <time>2022-03-17T08:22:50.000Z</time>
      </trkpt>
      <trkpt lat="47.2603" lon="-2.32653">
        <ele>-8.8000001907349</ele>
        <time>2022-03-17T08:22:53.000Z</time>
      </trkpt>
      <trkpt lat="47.26039" lon="-2.32652">
        <ele>-8.8000001907349</ele>
        <time>2022-03-17T08:22:55.000Z</time>
      </trkpt>
      <trkpt lat="47.26043" lon="-2.32651">
        <ele>-8.8000001907349</ele>
        <time>2022-03-17T08:22:56.000Z</time>
      </trkpt>
      <trkpt lat="47.26074" lon="-2.32644">
        <ele>-8.8000001907349</ele>
        <time>2022-03-17T08:23:03.000Z</time>
      </trkpt>
      <trkpt lat="47.26086" lon="-2.32642">
        <ele>-8.8000001907349</ele>
        <time>2022-03-17T08:23:06.000Z</time>
      </trkpt>
      <trkpt lat="47.26103" lon="-2.32639">
        <ele>-8.8000001907349</ele>
        <time>2022-03-17T08:23:10.000Z</time>
      </trkpt>
      <trkpt lat="47.26136" lon="-2.32641">
        <ele>-8.8000001907349</ele>
        <time>2022-03-17T08:23:18.000Z</time>
      </trkpt>
      <trkpt lat="47.2614" lon="-2.32642">
        <ele>-8.3999996185303</ele>
        <time>2022-03-17T08:23:19.000Z</time>
      </trkpt>
      <trkpt lat="47.26144" lon="-2.32643">
        <ele>-8</ele>
        <time>2022-03-17T08:23:20.000Z</time>
      </trkpt>
      <trkpt lat="47.26148" lon="-2.32645">
        <ele>-7.1999998092651</ele>
        <time>2022-03-17T08:23:21.000Z</time>
      </trkpt>
      <trkpt lat="47.26152" lon="-2.32647">
        <ele>-6.8000001907349</ele>
        <time>2022-03-17T08:23:22.000Z</time>
      </trkpt>
      <trkpt lat="47.26165" lon="-2.32653">
        <ele>-6.8000001907349</ele>
        <time>2022-03-17T08:23:25.000Z</time>
      </trkpt>
      <trkpt lat="47.26169" lon="-2.32656">
        <ele>-6.8000001907349</ele>
        <time>2022-03-17T08:23:26.000Z</time>
      </trkpt>
      <trkpt lat="47.26182" lon="-2.32663">
        <ele>-6.8000001907349</ele>
        <time>2022-03-17T08:23:29.000Z</time>
      </trkpt>
      <trkpt lat="47.26186" lon="-2.32666">
        <ele>-6.8000001907349</ele>
        <time>2022-03-17T08:23:30.000Z</time>
      </trkpt>
      <trkpt lat="47.26207" lon="-2.32691">
        <ele>-6.8000001907349</ele>
        <time>2022-03-17T08:23:36.000Z</time>
      </trkpt>
      <trkpt lat="47.2621" lon="-2.32695">
        <ele>-6.8000001907349</ele>
        <time>2022-03-17T08:23:37.000Z</time>
      </trkpt>
      <trkpt lat="47.26239" lon="-2.32737">
        <ele>-6.8000001907349</ele>
        <time>2022-03-17T08:23:45.000Z</time>
      </trkpt>
      <trkpt lat="47.2626" lon="-2.32771">
        <ele>-6.8000001907349</ele>
        <time>2022-03-17T08:23:51.000Z</time>
      </trkpt>
      <trkpt lat="47.26266" lon="-2.32783">
        <ele>-6.8000001907349</ele>
        <time>2022-03-17T08:23:53.000Z</time>
      </trkpt>
      <trkpt lat="47.26273" lon="-2.32801">
        <ele>-7.1999998092651</ele>
        <time>2022-03-17T08:23:56.000Z</time>
      </trkpt>
      <trkpt lat="47.26276" lon="-2.32808">
        <ele>-7.5999999046326</ele>
        <time>2022-03-17T08:23:57.000Z</time>
      </trkpt>
      <trkpt lat="47.26278" lon="-2.32815">
        <ele>-8</ele>
        <time>2022-03-17T08:23:58.000Z</time>
      </trkpt>
      <trkpt lat="47.2628" lon="-2.32822">
        <ele>-8.3999996185303</ele>
        <time>2022-03-17T08:23:59.000Z</time>
      </trkpt>
      <trkpt lat="47.26281" lon="-2.32828">
        <ele>-8.8000001907349</ele>
        <time>2022-03-17T08:24:00.000Z</time>
      </trkpt>
      <trkpt lat="47.26283" lon="-2.32835">
        <ele>-8.8000001907349</ele>
        <time>2022-03-17T08:24:01.000Z</time>
      </trkpt>
      <trkpt lat="47.26285" lon="-2.32842">
        <ele>-8.8000001907349</ele>
        <time>2022-03-17T08:24:02.000Z</time>
      </trkpt>
      <trkpt lat="47.26299" lon="-2.32859">
        <ele>-8.8000001907349</ele>
        <time>2022-03-17T08:24:06.000Z</time>
      </trkpt>
      <trkpt lat="47.26316" lon="-2.32869">
        <ele>-8.8000001907349</ele>
        <time>2022-03-17T08:24:10.000Z</time>
      </trkpt>
      <trkpt lat="47.26323" lon="-2.32888">
        <ele>-8.8000001907349</ele>
        <time>2022-03-17T08:24:13.000Z</time>
      </trkpt>
      <trkpt lat="47.26326" lon="-2.32894">
        <ele>-8.8000001907349</ele>
        <time>2022-03-17T08:24:14.000Z</time>
      </trkpt>
      <trkpt lat="47.26333" lon="-2.32913">
        <ele>-8.8000001907349</ele>
        <time>2022-03-17T08:24:17.000Z</time>
      </trkpt>
      <trkpt lat="47.26339" lon="-2.32932">
        <ele>-8.8000001907349</ele>
        <time>2022-03-17T08:24:20.000Z</time>
      </trkpt>
      <trkpt lat="47.26352" lon="-2.3297">
        <ele>-8.8000001907349</ele>
        <time>2022-03-17T08:24:26.000Z</time>
      </trkpt>
      <trkpt lat="47.26359" lon="-2.3298">
        <ele>-8.8000001907349</ele>
        <time>2022-03-17T08:24:28.000Z</time>
      </trkpt>
      <trkpt lat="47.26366" lon="-2.33003">
        <ele>-8.8000001907349</ele>
        <time>2022-03-17T08:24:32.000Z</time>
      </trkpt>
      <trkpt lat="47.26366" lon="-2.3301">
        <ele>-8.8000001907349</ele>
        <time>2022-03-17T08:24:33.000Z</time>
      </trkpt>
      <trkpt lat="47.26369" lon="-2.33053">
        <ele>-8.8000001907349</ele>
        <time>2022-03-17T08:24:39.000Z</time>
      </trkpt>
      <trkpt lat="47.26373" lon="-2.33123">
        <ele>-8.8000001907349</ele>
        <time>2022-03-17T08:24:49.000Z</time>
      </trkpt>
      <trkpt lat="47.26377" lon="-2.33192">
        <ele>-8.8000001907349</ele>
        <time>2022-03-17T08:24:59.000Z</time>
      </trkpt>
      <trkpt lat="47.26382" lon="-2.33247">
        <ele>-8.8000001907349</ele>
        <time>2022-03-17T08:25:07.000Z</time>
      </trkpt>
      <trkpt lat="47.26394" lon="-2.33266">
        <ele>-8.8000001907349</ele>
        <time>2022-03-17T08:25:11.000Z</time>
      </trkpt>
      <trkpt lat="47.26408" lon="-2.33269">
        <ele>-8.8000001907349</ele>
        <time>2022-03-17T08:25:14.000Z</time>
      </trkpt>
      <trkpt lat="47.26412" lon="-2.33269">
        <ele>-8.8000001907349</ele>
        <time>2022-03-17T08:25:15.000Z</time>
      </trkpt>
      <trkpt lat="47.26417" lon="-2.33269">
        <ele>-8.8000001907349</ele>
        <time>2022-03-17T08:25:16.000Z</time>
      </trkpt>
      <trkpt lat="47.26458" lon="-2.33275">
        <ele>-8.8000001907349</ele>
        <time>2022-03-17T08:25:25.000Z</time>
      </trkpt>
      <trkpt lat="47.26488" lon="-2.33279">
        <ele>-8.8000001907349</ele>
        <time>2022-03-17T08:25:32.000Z</time>
      </trkpt>
      <trkpt lat="47.26501" lon="-2.33281">
        <ele>-8.8000001907349</ele>
        <time>2022-03-17T08:25:35.000Z</time>
      </trkpt>
      <trkpt lat="47.26509" lon="-2.33287">
        <ele>-8.8000001907349</ele>
        <time>2022-03-17T08:25:37.000Z</time>
      </trkpt>
      <trkpt lat="47.26522" lon="-2.33305">
        <ele>-8.8000001907349</ele>
        <time>2022-03-17T08:25:41.000Z</time>
      </trkpt>
      <trkpt lat="47.26526" lon="-2.33317">
        <ele>-8.8000001907349</ele>
        <time>2022-03-17T08:25:43.000Z</time>
      </trkpt>
      <trkpt lat="47.26527" lon="-2.33338">
        <ele>-8.8000001907349</ele>
        <time>2022-03-17T08:25:46.000Z</time>
      </trkpt>
      <trkpt lat="47.26528" lon="-2.33353">
        <ele>-8.8000001907349</ele>
        <time>2022-03-17T08:25:48.000Z</time>
      </trkpt>
      <trkpt lat="47.26534" lon="-2.33381">
        <ele>-8.8000001907349</ele>
        <time>2022-03-17T08:25:52.000Z</time>
      </trkpt>
      <trkpt lat="47.26538" lon="-2.33394">
        <ele>-8.8000001907349</ele>
        <time>2022-03-17T08:25:54.000Z</time>
      </trkpt>
      <trkpt lat="47.2654" lon="-2.33401">
        <ele>-8.8000001907349</ele>
        <time>2022-03-17T08:25:55.000Z</time>
      </trkpt>
      <trkpt lat="47.26546" lon="-2.33436">
        <ele>-8.8000001907349</ele>
        <time>2022-03-17T08:26:00.000Z</time>
      </trkpt>
      <trkpt lat="47.26554" lon="-2.33485">
        <ele>-8.8000001907349</ele>
        <time>2022-03-17T08:26:07.000Z</time>
      </trkpt>
      <trkpt lat="47.26558" lon="-2.33504">
        <ele>-8.8000001907349</ele>
        <time>2022-03-17T08:26:10.000Z</time>
      </trkpt>
      <trkpt lat="47.26562" lon="-2.33516">
        <ele>-8.8000001907349</ele>
        <time>2022-03-17T08:26:12.000Z</time>
      </trkpt>
      <trkpt lat="47.26565" lon="-2.33541">
        <ele>-8.8000001907349</ele>
        <time>2022-03-17T08:26:16.000Z</time>
      </trkpt>
      <trkpt lat="47.26567" lon="-2.33548">
        <ele>-8.8000001907349</ele>
        <time>2022-03-17T08:26:17.000Z</time>
      </trkpt>
      <trkpt lat="47.26572" lon="-2.33592">
        <ele>-8.8000001907349</ele>
        <time>2022-03-17T08:26:24.000Z</time>
      </trkpt>
      <trkpt lat="47.26572" lon="-2.33605">
        <ele>-8.8000001907349</ele>
        <time>2022-03-17T08:26:26.000Z</time>
      </trkpt>
      <trkpt lat="47.26574" lon="-2.33624">
        <ele>-8.8000001907349</ele>
        <time>2022-03-17T08:26:29.000Z</time>
      </trkpt>
      <trkpt lat="47.26578" lon="-2.33658">
        <ele>-8.8000001907349</ele>
        <time>2022-03-17T08:26:35.000Z</time>
      </trkpt>
      <trkpt lat="47.26588" lon="-2.33675">
        <ele>-8.8000001907349</ele>
        <time>2022-03-17T08:26:39.000Z</time>
      </trkpt>
      <trkpt lat="47.26602" lon="-2.33696">
        <ele>-8.3999996185303</ele>
        <time>2022-03-17T08:26:44.000Z</time>
      </trkpt>
      <trkpt lat="47.26605" lon="-2.337">
        <ele>-8</ele>
        <time>2022-03-17T08:26:45.000Z</time>
      </trkpt>
      <trkpt lat="47.26608" lon="-2.33705">
        <ele>-7.5999999046326</ele>
        <time>2022-03-17T08:26:46.000Z</time>
      </trkpt>
      <trkpt lat="47.2661" lon="-2.33709">
        <ele>-7.1999998092651</ele>
        <time>2022-03-17T08:26:47.000Z</time>
      </trkpt>
      <trkpt lat="47.26613" lon="-2.33714">
        <ele>-6.8000001907349</ele>
        <time>2022-03-17T08:26:48.000Z</time>
      </trkpt>
      <trkpt lat="47.26621" lon="-2.33727">
        <ele>-6.8000001907349</ele>
        <time>2022-03-17T08:26:51.000Z</time>
      </trkpt>
      <trkpt lat="47.26636" lon="-2.33751">
        <ele>-6.8000001907349</ele>
        <time>2022-03-17T08:26:56.000Z</time>
      </trkpt>
      <trkpt lat="47.26639" lon="-2.33756">
        <ele>-6.8000001907349</ele>
        <time>2022-03-17T08:26:57.000Z</time>
      </trkpt>
      <trkpt lat="47.2666" lon="-2.33787">
        <ele>-6.8000001907349</ele>
        <time>2022-03-17T08:27:04.000Z</time>
      </trkpt>
      <trkpt lat="47.26685" lon="-2.33826">
        <ele>-6.8000001907349</ele>
        <time>2022-03-17T08:27:12.000Z</time>
      </trkpt>
      <trkpt lat="47.26709" lon="-2.33864">
        <ele>-6.8000001907349</ele>
        <time>2022-03-17T08:27:20.000Z</time>
      </trkpt>
      <trkpt lat="47.26734" lon="-2.33904">
        <ele>-6.8000001907349</ele>
        <time>2022-03-17T08:27:28.000Z</time>
      </trkpt>
      <trkpt lat="47.26758" lon="-2.33942">
        <ele>-6.8000001907349</ele>
        <time>2022-03-17T08:27:36.000Z</time>
      </trkpt>
      <trkpt lat="47.26761" lon="-2.33947">
        <ele>-6.8000001907349</ele>
        <time>2022-03-17T08:27:37.000Z</time>
      </trkpt>
      <trkpt lat="47.26772" lon="-2.33965">
        <ele>-6.8000001907349</ele>
        <time>2022-03-17T08:27:41.000Z</time>
      </trkpt>
      <trkpt lat="47.26796" lon="-2.34002">
        <ele>-6.8000001907349</ele>
        <time>2022-03-17T08:27:49.000Z</time>
      </trkpt>
      <trkpt lat="47.26821" lon="-2.3404">
        <ele>-6.8000001907349</ele>
        <time>2022-03-17T08:27:57.000Z</time>
      </trkpt>
      <trkpt lat="47.26823" lon="-2.34045">
        <ele>-6.8000001907349</ele>
        <time>2022-03-17T08:27:58.000Z</time>
      </trkpt>
      <trkpt lat="47.26837" lon="-2.34068">
        <ele>-6.8000001907349</ele>
        <time>2022-03-17T08:28:03.000Z</time>
      </trkpt>
      <trkpt lat="47.26847" lon="-2.34082">
        <ele>-6.8000001907349</ele>
        <time>2022-03-17T08:28:06.000Z</time>
      </trkpt>
      <trkpt lat="47.26865" lon="-2.34111">
        <ele>-6.8000001907349</ele>
        <time>2022-03-17T08:28:12.000Z</time>
      </trkpt>
      <trkpt lat="47.26867" lon="-2.34117">
        <ele>-6.8000001907349</ele>
        <time>2022-03-17T08:28:13.000Z</time>
      </trkpt>
      <trkpt lat="47.26873" lon="-2.34127">
        <ele>-6.8000001907349</ele>
        <time>2022-03-17T08:28:15.000Z</time>
      </trkpt>
      <trkpt lat="47.2688" lon="-2.34137">
        <ele>-6.8000001907349</ele>
        <time>2022-03-17T08:28:17.000Z</time>
      </trkpt>
      <trkpt lat="47.26891" lon="-2.3415">
        <ele>-6.4000000953674</ele>
        <time>2022-03-17T08:28:20.000Z</time>
      </trkpt>
      <trkpt lat="47.26894" lon="-2.34155">
        <ele>-6</ele>
        <time>2022-03-17T08:28:21.000Z</time>
      </trkpt>
      <trkpt lat="47.26897" lon="-2.3416">
        <ele>-5.5999999046326</ele>
        <time>2022-03-17T08:28:22.000Z</time>
      </trkpt>
      <trkpt lat="47.269" lon="-2.34166">
        <ele>-5</ele>
        <time>2022-03-17T08:28:23.000Z</time>
      </trkpt>
      <trkpt lat="47.26903" lon="-2.34171">
        <ele>-4.5999999046326</ele>
        <time>2022-03-17T08:28:24.000Z</time>
      </trkpt>
      <trkpt lat="47.26927" lon="-2.34211">
        <ele>-4.5999999046326</ele>
        <time>2022-03-17T08:28:32.000Z</time>
      </trkpt>
      <trkpt lat="47.26957" lon="-2.34256">
        <ele>-4.5999999046326</ele>
        <time>2022-03-17T08:28:41.000Z</time>
      </trkpt>
      <trkpt lat="47.26982" lon="-2.34294">
        <ele>-4.5999999046326</ele>
        <time>2022-03-17T08:28:49.000Z</time>
      </trkpt>
      <trkpt lat="47.26987" lon="-2.34304">
        <ele>-4.5999999046326</ele>
        <time>2022-03-17T08:28:51.000Z</time>
      </trkpt>
      <trkpt lat="47.26995" lon="-2.34314">
        <ele>-4.5999999046326</ele>
        <time>2022-03-17T08:28:54.000Z</time>
      </trkpt>
      <trkpt lat="47.27005" lon="-2.34318">
        <ele>-4.5999999046326</ele>
        <time>2022-03-17T08:28:57.000Z</time>
      </trkpt>
      <trkpt lat="47.27012" lon="-2.34321">
        <ele>-4.5999999046326</ele>
        <time>2022-03-17T08:28:59.000Z</time>
      </trkpt>
      <trkpt lat="47.27036" lon="-2.34328">
        <ele>-4.5999999046326</ele>
        <time>2022-03-17T08:29:05.000Z</time>
      </trkpt>
      <trkpt lat="47.27042" lon="-2.34344">
        <ele>-4.5999999046326</ele>
        <time>2022-03-17T08:29:08.000Z</time>
      </trkpt>
      <trkpt lat="47.27044" lon="-2.34351">
        <ele>-4.5999999046326</ele>
        <time>2022-03-17T08:29:09.000Z</time>
      </trkpt>
      <trkpt lat="47.27045" lon="-2.34357">
        <ele>-4.5999999046326</ele>
        <time>2022-03-17T08:29:10.000Z</time>
      </trkpt>
      <trkpt lat="47.27054" lon="-2.3439">
        <ele>-4.5999999046326</ele>
        <time>2022-03-17T08:29:15.000Z</time>
      </trkpt>
      <trkpt lat="47.27066" lon="-2.34444">
        <ele>-4.5999999046326</ele>
        <time>2022-03-17T08:29:23.000Z</time>
      </trkpt>
      <trkpt lat="47.27076" lon="-2.34489">
        <ele>-4.5999999046326</ele>
        <time>2022-03-17T08:29:30.000Z</time>
      </trkpt>
      <trkpt lat="47.27088" lon="-2.34541">
        <ele>-4.5999999046326</ele>
        <time>2022-03-17T08:29:38.000Z</time>
      </trkpt>
      <trkpt lat="47.271" lon="-2.34591">
        <ele>-4.5999999046326</ele>
        <time>2022-03-17T08:29:46.000Z</time>
      </trkpt>
      <trkpt lat="47.27111" lon="-2.34648">
        <ele>-4.5999999046326</ele>
        <time>2022-03-17T08:29:54.000Z</time>
      </trkpt>
      <trkpt lat="47.27113" lon="-2.34655">
        <ele>-4.5999999046326</ele>
        <time>2022-03-17T08:29:55.000Z</time>
      </trkpt>
      <trkpt lat="47.27122" lon="-2.3469">
        <ele>-4.5999999046326</ele>
        <time>2022-03-17T08:30:00.000Z</time>
      </trkpt>
      <trkpt lat="47.27136" lon="-2.34754">
        <ele>-4.5999999046326</ele>
        <time>2022-03-17T08:30:09.000Z</time>
      </trkpt>
      <trkpt lat="47.27142" lon="-2.34782">
        <ele>-4.5999999046326</ele>
        <time>2022-03-17T08:30:13.000Z</time>
      </trkpt>
      <trkpt lat="47.27145" lon="-2.34797">
        <ele>-4.5999999046326</ele>
        <time>2022-03-17T08:30:15.000Z</time>
      </trkpt>
      <trkpt lat="47.2716" lon="-2.34868">
        <ele>-4.5999999046326</ele>
        <time>2022-03-17T08:30:25.000Z</time>
      </trkpt>
      <trkpt lat="47.27172" lon="-2.34908">
        <ele>-4.5999999046326</ele>
        <time>2022-03-17T08:30:31.000Z</time>
      </trkpt>
      <trkpt lat="47.27187" lon="-2.34954">
        <ele>-4.5999999046326</ele>
        <time>2022-03-17T08:30:38.000Z</time>
      </trkpt>
      <trkpt lat="47.27205" lon="-2.35006">
        <ele>-4.5999999046326</ele>
        <time>2022-03-17T08:30:46.000Z</time>
      </trkpt>
      <trkpt lat="47.27224" lon="-2.35056">
        <ele>-4.5999999046326</ele>
        <time>2022-03-17T08:30:54.000Z</time>
      </trkpt>
      <trkpt lat="47.27239" lon="-2.35093">
        <ele>-4.5999999046326</ele>
        <time>2022-03-17T08:31:00.000Z</time>
      </trkpt>
      <trkpt lat="47.27246" lon="-2.35108">
        <ele>-4.5999999046326</ele>
        <time>2022-03-17T08:31:03.000Z</time>
      </trkpt>
      <trkpt lat="47.27254" lon="-2.35124">
        <ele>-4.5999999046326</ele>
        <time>2022-03-17T08:31:06.000Z</time>
      </trkpt>
      <trkpt lat="47.27264" lon="-2.35128">
        <ele>-4.5999999046326</ele>
        <time>2022-03-17T08:31:09.000Z</time>
      </trkpt>
      <trkpt lat="47.27274" lon="-2.35121">
        <ele>-4.5999999046326</ele>
        <time>2022-03-17T08:31:12.000Z</time>
      </trkpt>
      <trkpt lat="47.27278" lon="-2.35119">
        <ele>-4.5999999046326</ele>
        <time>2022-03-17T08:31:13.000Z</time>
      </trkpt>
      <trkpt lat="47.27288" lon="-2.35113">
        <ele>-4.1999998092651</ele>
        <time>2022-03-17T08:31:16.000Z</time>
      </trkpt>
      <trkpt lat="47.27292" lon="-2.35111">
        <ele>-3.7999999523163</ele>
        <time>2022-03-17T08:31:17.000Z</time>
      </trkpt>
      <trkpt lat="47.27295" lon="-2.35109">
        <ele>-3.4000000953674</ele>
        <time>2022-03-17T08:31:18.000Z</time>
      </trkpt>
      <trkpt lat="47.27299" lon="-2.35107">
        <ele>-3</ele>
        <time>2022-03-17T08:31:19.000Z</time>
      </trkpt>
      <trkpt lat="47.27302" lon="-2.35105">
        <ele>-2.5999999046326</ele>
        <time>2022-03-17T08:31:20.000Z</time>
      </trkpt>
      <trkpt lat="47.2732" lon="-2.35096">
        <ele>-2.5999999046326</ele>
        <time>2022-03-17T08:31:26.000Z</time>
      </trkpt>
      <trkpt lat="47.2733" lon="-2.35091">
        <ele>-2.2000000476837</ele>
        <time>2022-03-17T08:31:29.000Z</time>
      </trkpt>
      <trkpt lat="47.27332" lon="-2.3509">
        <ele>-1.7999999523163</ele>
        <time>2022-03-17T08:31:30.000Z</time>
      </trkpt>
      <trkpt lat="47.27335" lon="-2.35088">
        <ele>-1.3999999761581</ele>
        <time>2022-03-17T08:31:31.000Z</time>
      </trkpt>
      <trkpt lat="47.27337" lon="-2.35087">
        <ele>-1</ele>
        <time>2022-03-17T08:31:32.000Z</time>
      </trkpt>
      <trkpt lat="47.2734" lon="-2.35085">
        <ele>-0.60000002384186</ele>
        <time>2022-03-17T08:31:33.000Z</time>
      </trkpt>
      <trkpt lat="47.27352" lon="-2.35079">
        <ele>17.4</ele>
        <time>2022-03-17T08:31:37.000Z</time>
      </trkpt>
      <trkpt lat="47.27355" lon="-2.35077">
        <ele>0.40000000596046</ele>
        <time>2022-03-17T08:31:38.000Z</time>
      </trkpt>
      <trkpt lat="47.27359" lon="-2.35075">
        <ele>0.80000001192093</ele>
        <time>2022-03-17T08:31:39.000Z</time>
      </trkpt>
      <trkpt lat="47.27362" lon="-2.35072">
        <ele>1.2000000476837</ele>
        <time>2022-03-17T08:31:40.000Z</time>
      </trkpt>
      <trkpt lat="47.27365" lon="-2.3507">
        <ele>1.6000000238419</ele>
        <time>2022-03-17T08:31:41.000Z</time>
      </trkpt>
      <trkpt lat="47.27371" lon="-2.35066">
        <ele>1.6000000238419</ele>
        <time>2022-03-17T08:31:43.000Z</time>
      </trkpt>
      <trkpt lat="47.27393" lon="-2.35058">
        <ele>1.6000000238419</ele>
        <time>2022-03-17T08:31:50.000Z</time>
      </trkpt>
      <trkpt lat="47.27396" lon="-2.3506">
        <ele>2.2000000476837</ele>
        <time>2022-03-17T08:31:51.000Z</time>
      </trkpt>
      <trkpt lat="47.27399" lon="-2.35063">
        <ele>2.5999999046326</ele>
        <time>2022-03-17T08:31:52.000Z</time>
      </trkpt>
      <trkpt lat="47.27401" lon="-2.35067">
        <ele>3</ele>
        <time>2022-03-17T08:31:53.000Z</time>
      </trkpt>
      <trkpt lat="47.27402" lon="-2.35071">
        <ele>3.4000000953674</ele>
        <time>2022-03-17T08:31:54.000Z</time>
      </trkpt>
      <trkpt lat="47.27403" lon="-2.35076">
        <ele>3.7999999523163</ele>
        <time>2022-03-17T08:31:55.000Z</time>
      </trkpt>
      <trkpt lat="47.27405" lon="-2.3508">
        <ele>3.7999999523163</ele>
        <time>2022-03-17T08:31:56.000Z</time>
      </trkpt>
      <trkpt lat="47.27409" lon="-2.35095">
        <ele>3.7999999523163</ele>
        <time>2022-03-17T08:31:59.000Z</time>
      </trkpt>
      <trkpt lat="47.27417" lon="-2.35124">
        <ele>3.7999999523163</ele>
        <time>2022-03-17T08:32:05.000Z</time>
      </trkpt>
      <trkpt lat="47.27424" lon="-2.35158">
        <ele>3.7999999523163</ele>
        <time>2022-03-17T08:32:12.000Z</time>
      </trkpt>
      <trkpt lat="47.27434" lon="-2.35173">
        <ele>3.7999999523163</ele>
        <time>2022-03-17T08:32:16.000Z</time>
      </trkpt>
      <trkpt lat="47.27438" lon="-2.35172">
        <ele>3.7999999523163</ele>
        <time>2022-03-17T08:32:17.000Z</time>
      </trkpt>
      <trkpt lat="47.27447" lon="-2.35167">
        <ele>3.7999999523163</ele>
        <time>2022-03-17T08:32:20.000Z</time>
      </trkpt>
      <trkpt lat="47.27454" lon="-2.35162">
        <ele>3.7999999523163</ele>
        <time>2022-03-17T08:32:22.000Z</time>
      </trkpt>
      <trkpt lat="47.27473" lon="-2.35151">
        <ele>4.1999998092651</ele>
        <time>2022-03-17T08:32:28.000Z</time>
      </trkpt>
      <trkpt lat="47.27476" lon="-2.35149">
        <ele>4.5999999046326</ele>
        <time>2022-03-17T08:32:29.000Z</time>
      </trkpt>
      <trkpt lat="47.2748" lon="-2.35148">
        <ele>5</ele>
        <time>2022-03-17T08:32:30.000Z</time>
      </trkpt>
      <trkpt lat="47.27483" lon="-2.35146">
        <ele>5.4000000953674</ele>
        <time>2022-03-17T08:32:31.000Z</time>
      </trkpt>
      <trkpt lat="47.27487" lon="-2.35145">
        <ele>5.8000001907349</ele>
        <time>2022-03-17T08:32:32.000Z</time>
      </trkpt>
      <trkpt lat="47.27499" lon="-2.35138">
        <ele>5.8000001907349</ele>
        <time>2022-03-17T08:32:36.000Z</time>
      </trkpt>
      <trkpt lat="47.27508" lon="-2.35129">
        <ele>5.8000001907349</ele>
        <time>2022-03-17T08:32:40.000Z</time>
      </trkpt>
      <trkpt lat="47.27516" lon="-2.3513">
        <ele>5.8000001907349</ele>
        <time>2022-03-17T08:32:43.000Z</time>
      </trkpt>
      <trkpt lat="47.27526" lon="-2.35133">
        <ele>5.8000001907349</ele>
        <time>2022-03-17T08:32:46.000Z</time>
      </trkpt>
      <trkpt lat="47.27554" lon="-2.35134">
        <ele>5.8000001907349</ele>
        <time>2022-03-17T08:32:54.000Z</time>
      </trkpt>
      <trkpt lat="47.27572" lon="-2.35132">
        <ele>5.8000001907349</ele>
        <time>2022-03-17T08:32:59.000Z</time>
      </trkpt>
      <trkpt lat="47.27579" lon="-2.35131">
        <ele>5.8000001907349</ele>
        <time>2022-03-17T08:33:01.000Z</time>
      </trkpt>
      <trkpt lat="47.27603" lon="-2.35133">
        <ele>5.8000001907349</ele>
        <time>2022-03-17T08:33:07.000Z</time>
      </trkpt>
      <trkpt lat="47.27611" lon="-2.35153">
        <ele>5.8000001907349</ele>
        <time>2022-03-17T08:33:11.000Z</time>
      </trkpt>
      <trkpt lat="47.27611" lon="-2.3516">
        <ele>5.8000001907349</ele>
        <time>2022-03-17T08:33:12.000Z</time>
      </trkpt>
      <trkpt lat="47.27615" lon="-2.35171">
        <ele>5.8000001907349</ele>
        <time>2022-03-17T08:33:14.000Z</time>
      </trkpt>
      <trkpt lat="47.27619" lon="-2.35174">
        <ele>5.8000001907349</ele>
        <time>2022-03-17T08:33:15.000Z</time>
      </trkpt>
      <trkpt lat="47.27632" lon="-2.35173">
        <ele>5.8000001907349</ele>
        <time>2022-03-17T08:33:18.000Z</time>
      </trkpt>
      <trkpt lat="47.27636" lon="-2.35172">
        <ele>5.8000001907349</ele>
        <time>2022-03-17T08:33:19.000Z</time>
      </trkpt>
      <trkpt lat="47.2764" lon="-2.35171">
        <ele>5.8000001907349</ele>
        <time>2022-03-17T08:33:20.000Z</time>
      </trkpt>
      <trkpt lat="47.27663" lon="-2.35172">
        <ele>5.8000001907349</ele>
        <time>2022-03-17T08:33:25.000Z</time>
      </trkpt>
      <trkpt lat="47.27667" lon="-2.35173">
        <ele>5.8000001907349</ele>
        <time>2022-03-17T08:33:26.000Z</time>
      </trkpt>
      <trkpt lat="47.27673" lon="-2.35184">
        <ele>5.8000001907349</ele>
        <time>2022-03-17T08:33:28.000Z</time>
      </trkpt>
      <trkpt lat="47.27675" lon="-2.35199">
        <ele>5.4000000953674</ele>
        <time>2022-03-17T08:33:30.000Z</time>
      </trkpt>
      <trkpt lat="47.27675" lon="-2.35206">
        <ele>5</ele>
        <time>2022-03-17T08:33:31.000Z</time>
      </trkpt>
      <trkpt lat="47.27675" lon="-2.35213">
        <ele>4.5999999046326</ele>
        <time>2022-03-17T08:33:32.000Z</time>
      </trkpt>
      <trkpt lat="47.27676" lon="-2.35217">
        <ele>4.1999998092651</ele>
        <time>2022-03-17T08:33:33.000Z</time>
      </trkpt>
      <trkpt lat="47.27679" lon="-2.35221">
        <ele>3.7999999523163</ele>
        <time>2022-03-17T08:33:34.000Z</time>
      </trkpt>
      <trkpt lat="47.27691" lon="-2.35219">
        <ele>3.7999999523163</ele>
        <time>2022-03-17T08:33:37.000Z</time>
      </trkpt>
      <trkpt lat="47.277" lon="-2.35216">
        <ele>3.4000000953674</ele>
        <time>2022-03-17T08:33:39.000Z</time>
      </trkpt>
      <trkpt lat="47.27704" lon="-2.35214">
        <ele>3</ele>
        <time>2022-03-17T08:33:40.000Z</time>
      </trkpt>
      <trkpt lat="47.27709" lon="-2.35212">
        <ele>2.5999999046326</ele>
        <time>2022-03-17T08:33:41.000Z</time>
      </trkpt>
      <trkpt lat="47.27714" lon="-2.3521">
        <ele>2.2000000476837</ele>
        <time>2022-03-17T08:33:42.000Z</time>
      </trkpt>
      <trkpt lat="47.27719" lon="-2.35209">
        <ele>1.6000000238419</ele>
        <time>2022-03-17T08:33:43.000Z</time>
      </trkpt>
      <trkpt lat="47.27724" lon="-2.35207">
        <ele>1.6000000238419</ele>
        <time>2022-03-17T08:33:44.000Z</time>
      </trkpt>
      <trkpt lat="47.27755" lon="-2.35201">
        <ele>1.6000000238419</ele>
        <time>2022-03-17T08:33:50.000Z</time>
      </trkpt>
      <trkpt lat="47.27764" lon="-2.352">
        <ele>1.6000000238419</ele>
        <time>2022-03-17T08:33:52.000Z</time>
      </trkpt>
      <trkpt lat="47.2777" lon="-2.35207">
        <ele>1.2000000476837</ele>
        <time>2022-03-17T08:33:54.000Z</time>
      </trkpt>
      <trkpt lat="47.27772" lon="-2.35212">
        <ele>0.80000001192093</ele>
        <time>2022-03-17T08:33:55.000Z</time>
      </trkpt>
      <trkpt lat="47.27775" lon="-2.35218">
        <ele>0.20000000298023</ele>
        <time>2022-03-17T08:33:56.000Z</time>
      </trkpt>
      <trkpt lat="47.27777" lon="-2.35224">
        <ele>-0.20000000298023</ele>
        <time>2022-03-17T08:33:57.000Z</time>
      </trkpt>
      <trkpt lat="47.27778" lon="-2.3523">
        <ele>-0.60000002384186</ele>
        <time>2022-03-17T08:33:58.000Z</time>
      </trkpt>
      <trkpt lat="47.27779" lon="-2.35236">
        <ele>-0.60000002384186</ele>
        <time>2022-03-17T08:33:59.000Z</time>
      </trkpt>
      <trkpt lat="47.27781" lon="-2.35243">
        <ele>-0.60000002384186</ele>
        <time>2022-03-17T08:34:00.000Z</time>
      </trkpt>
      <trkpt lat="47.27787" lon="-2.35276">
        <ele>-0.60000002384186</ele>
        <time>2022-03-17T08:34:05.000Z</time>
      </trkpt>
      <trkpt lat="47.27798" lon="-2.35327">
        <ele>-0.60000002384186</ele>
        <time>2022-03-17T08:34:13.000Z</time>
      </trkpt>
      <trkpt lat="47.27801" lon="-2.35339">
        <ele>-0.60000002384186</ele>
        <time>2022-03-17T08:34:15.000Z</time>
      </trkpt>
      <trkpt lat="47.27809" lon="-2.35355">
        <ele>-0.60000002384186</ele>
        <time>2022-03-17T08:34:18.000Z</time>
      </trkpt>
      <trkpt lat="47.2782" lon="-2.3536">
        <ele>-0.60000002384186</ele>
        <time>2022-03-17T08:34:21.000Z</time>
      </trkpt>
      <trkpt lat="47.27824" lon="-2.3536">
        <ele>-0.60000002384186</ele>
        <time>2022-03-17T08:34:22.000Z</time>
      </trkpt>
      <trkpt lat="47.27848" lon="-2.35359">
        <ele>-0.60000002384186</ele>
        <time>2022-03-17T08:34:28.000Z</time>
      </trkpt>
      <trkpt lat="47.27871" lon="-2.35361">
        <ele>-0.60000002384186</ele>
        <time>2022-03-17T08:34:34.000Z</time>
      </trkpt>
      <trkpt lat="47.27874" lon="-2.35363">
        <ele>-0.60000002384186</ele>
        <time>2022-03-17T08:34:35.000Z</time>
      </trkpt>
      <trkpt lat="47.27884" lon="-2.35372">
        <ele>-0.60000002384186</ele>
        <time>2022-03-17T08:34:38.000Z</time>
      </trkpt>
      <trkpt lat="47.27901" lon="-2.35397">
        <ele>-0.60000002384186</ele>
        <time>2022-03-17T08:34:44.000Z</time>
      </trkpt>
      <trkpt lat="47.27915" lon="-2.35415">
        <ele>-0.60000002384186</ele>
        <time>2022-03-17T08:34:50.000Z</time>
      </trkpt>
      <trkpt lat="47.27915" lon="-2.35418">
        <ele>-0.60000002384186</ele>
        <time>2022-03-17T08:38:01.000Z</time>
      </trkpt>
      <trkpt lat="47.27919" lon="-2.35425">
        <ele>-0.60000002384186</ele>
        <time>2022-03-17T08:38:04.000Z</time>
      </trkpt>
      <trkpt lat="47.27933" lon="-2.3544">
        <ele>-0.60000002384186</ele>
        <time>2022-03-17T08:38:09.000Z</time>
      </trkpt>
      <trkpt lat="47.27958" lon="-2.35462">
        <ele>-0.60000002384186</ele>
        <time>2022-03-17T08:38:16.000Z</time>
      </trkpt>
      <trkpt lat="47.27975" lon="-2.35474">
        <ele>-0.60000002384186</ele>
        <time>2022-03-17T08:38:20.000Z</time>
      </trkpt>
      <trkpt lat="47.27979" lon="-2.35479">
        <ele>-0.60000002384186</ele>
        <time>2022-03-17T08:38:21.000Z</time>
      </trkpt>
      <trkpt lat="47.27991" lon="-2.35502">
        <ele>-0.60000002384186</ele>
        <time>2022-03-17T08:38:25.000Z</time>
      </trkpt>
      <trkpt lat="47.27993" lon="-2.35508">
        <ele>-0.60000002384186</ele>
        <time>2022-03-17T08:38:26.000Z</time>
      </trkpt>
      <trkpt lat="47.28004" lon="-2.35537">
        <ele>-0.60000002384186</ele>
        <time>2022-03-17T08:38:32.000Z</time>
      </trkpt>
      <trkpt lat="47.28009" lon="-2.35554">
        <ele>-0.20000000298023</ele>
        <time>2022-03-17T08:38:36.000Z</time>
      </trkpt>
      <trkpt lat="47.28011" lon="-2.35558">
        <ele>0.20000000298023</ele>
        <time>2022-03-17T08:38:37.000Z</time>
      </trkpt>
      <trkpt lat="47.28012" lon="-2.35562">
        <ele>0.60000002384186</ele>
        <time>2022-03-17T08:38:38.000Z</time>
      </trkpt>
      <trkpt lat="47.28014" lon="-2.35565">
        <ele>1</ele>
        <time>2022-03-17T08:38:39.000Z</time>
      </trkpt>
      <trkpt lat="47.28017" lon="-2.35565">
        <ele>1.3999999761581</ele>
        <time>2022-03-17T08:38:40.000Z</time>
      </trkpt>
      <trkpt lat="47.2802" lon="-2.35565">
        <ele>1.3999999761581</ele>
        <time>2022-03-17T08:38:41.000Z</time>
      </trkpt>
      <trkpt lat="47.28034" lon="-2.35571">
        <ele>1.3999999761581</ele>
        <time>2022-03-17T08:38:45.000Z</time>
      </trkpt>
      <trkpt lat="47.28051" lon="-2.3558">
        <ele>1.3999999761581</ele>
        <time>2022-03-17T08:38:50.000Z</time>
      </trkpt>
      <trkpt lat="47.2806" lon="-2.35584">
        <ele>1.3999999761581</ele>
        <time>2022-03-17T08:38:53.000Z</time>
      </trkpt>
      <trkpt lat="47.28063" lon="-2.35584">
        <ele>1.7999999523163</ele>
        <time>2022-03-17T08:38:54.000Z</time>
      </trkpt>
      <trkpt lat="47.28066" lon="-2.35586">
        <ele>2.4000000953674</ele>
        <time>2022-03-17T08:38:55.000Z</time>
      </trkpt>
      <trkpt lat="47.28068" lon="-2.35589">
        <ele>2.7999999523163</ele>
        <time>2022-03-17T08:38:56.000Z</time>
      </trkpt>
      <trkpt lat="47.2807" lon="-2.35592">
        <ele>3.2000000476837</ele>
        <time>2022-03-17T08:38:57.000Z</time>
      </trkpt>
      <trkpt lat="47.28072" lon="-2.35595">
        <ele>3.5999999046326</ele>
        <time>2022-03-17T08:38:58.000Z</time>
      </trkpt>
      <trkpt lat="47.28081" lon="-2.35611">
        <ele>3.5999999046326</ele>
        <time>2022-03-17T08:39:02.000Z</time>
      </trkpt>
      <trkpt lat="47.28084" lon="-2.35616">
        <ele>3.5999999046326</ele>
        <time>2022-03-17T08:39:06.000Z</time>
      </trkpt>
      <trkpt lat="47.28081" lon="-2.35619">
        <ele>3.5999999046326</ele>
        <time>2022-03-17T08:41:59.000Z</time>
      </trkpt>
      <trkpt lat="47.28079" lon="-2.35621">
        <ele>3.5999999046326</ele>
        <time>2022-03-17T08:42:01.000Z</time>
      </trkpt>
      <trkpt lat="47.28077" lon="-2.35629">
        <ele>3.5999999046326</ele>
        <time>2022-03-17T08:42:04.000Z</time>
      </trkpt>
      <trkpt lat="47.28077" lon="-2.35631">
        <ele>3.5999999046326</ele>
        <time>2022-03-17T08:42:05.000Z</time>
      </trkpt>
      <trkpt lat="47.28078" lon="-2.35641">
        <ele>4</ele>
        <time>2022-03-17T08:42:09.000Z</time>
      </trkpt>
      <trkpt lat="47.28079" lon="-2.35645">
        <ele>4.4000000953674</ele>
        <time>2022-03-17T08:42:10.000Z</time>
      </trkpt>
      <trkpt lat="47.2808" lon="-2.35648">
        <ele>4.8000001907349</ele>
        <time>2022-03-17T08:42:11.000Z</time>
      </trkpt>
      <trkpt lat="47.28081" lon="-2.35652">
        <ele>5.4000000953674</ele>
        <time>2022-03-17T08:42:12.000Z</time>
      </trkpt>
      <trkpt lat="47.28082" lon="-2.35657">
        <ele>5.8000001907349</ele>
        <time>2022-03-17T08:42:13.000Z</time>
      </trkpt>
      <trkpt lat="47.28084" lon="-2.35665">
        <ele>5.8000001907349</ele>
        <time>2022-03-17T08:42:15.000Z</time>
      </trkpt>
      <trkpt lat="47.28088" lon="-2.35683">
        <ele>6.1999998092651</ele>
        <time>2022-03-17T08:42:20.000Z</time>
      </trkpt>
      <trkpt lat="47.28089" lon="-2.35686">
        <ele>6.5999999046326</ele>
        <time>2022-03-17T08:42:21.000Z</time>
      </trkpt>
      <trkpt lat="47.28089" lon="-2.3569">
        <ele>7</ele>
        <time>2022-03-17T08:42:22.000Z</time>
      </trkpt>
      <trkpt lat="47.2809" lon="-2.35693">
        <ele>7.4000000953674</ele>
        <time>2022-03-17T08:42:23.000Z</time>
      </trkpt>
      <trkpt lat="47.28091" lon="-2.35696">
        <ele>8</ele>
        <time>2022-03-17T08:42:24.000Z</time>
      </trkpt>
      <trkpt lat="47.28092" lon="-2.35709">
        <ele>8</ele>
        <time>2022-03-17T08:42:27.000Z</time>
      </trkpt>
      <trkpt lat="47.28089" lon="-2.35726">
        <ele>8</ele>
        <time>2022-03-17T08:42:32.000Z</time>
      </trkpt>
      <trkpt lat="47.28083" lon="-2.35752">
        <ele>8</ele>
        <time>2022-03-17T08:42:36.000Z</time>
      </trkpt>
      <trkpt lat="47.28079" lon="-2.35766">
        <ele>8</ele>
        <time>2022-03-17T08:42:38.000Z</time>
      </trkpt>
      <trkpt lat="47.28075" lon="-2.35775">
        <ele>8</ele>
        <time>2022-03-17T08:42:40.000Z</time>
      </trkpt>
      <trkpt lat="47.28073" lon="-2.35789">
        <ele>7.4000000953674</ele>
        <time>2022-03-17T08:42:43.000Z</time>
      </trkpt>
      <trkpt lat="47.28075" lon="-2.35795">
        <ele>7</ele>
        <time>2022-03-17T08:42:44.000Z</time>
      </trkpt>
      <trkpt lat="47.28076" lon="-2.35801">
        <ele>6.5999999046326</ele>
        <time>2022-03-17T08:42:45.000Z</time>
      </trkpt>
      <trkpt lat="47.28079" lon="-2.35805">
        <ele>6</ele>
        <time>2022-03-17T08:42:46.000Z</time>
      </trkpt>
      <trkpt lat="47.28082" lon="-2.35809">
        <ele>5.5999999046326</ele>
        <time>2022-03-17T08:42:47.000Z</time>
      </trkpt>
      <trkpt lat="47.28085" lon="-2.35814">
        <ele>5.5999999046326</ele>
        <time>2022-03-17T08:42:48.000Z</time>
      </trkpt>
      <trkpt lat="47.28088" lon="-2.35819">
        <ele>5.5999999046326</ele>
        <time>2022-03-17T08:42:49.000Z</time>
      </trkpt>
      <trkpt lat="47.28097" lon="-2.35834">
        <ele>5.5999999046326</ele>
        <time>2022-03-17T08:42:54.000Z</time>
      </trkpt>
      <trkpt lat="47.28106" lon="-2.35846">
        <ele>5.5999999046326</ele>
        <time>2022-03-17T08:43:00.000Z</time>
      </trkpt>
      <trkpt lat="47.28117" lon="-2.35858">
        <ele>5.5999999046326</ele>
        <time>2022-03-17T08:43:05.000Z</time>
      </trkpt>
      <trkpt lat="47.28128" lon="-2.35874">
        <ele>5.5999999046326</ele>
        <time>2022-03-17T08:43:11.000Z</time>
      </trkpt>
      <trkpt lat="47.28143" lon="-2.35897">
        <ele>5.5999999046326</ele>
        <time>2022-03-17T08:43:18.000Z</time>
      </trkpt>
      <trkpt lat="47.28156" lon="-2.35924">
        <ele>5.5999999046326</ele>
        <time>2022-03-17T08:43:24.000Z</time>
      </trkpt>
      <trkpt lat="47.28163" lon="-2.35932">
        <ele>5.1999998092651</ele>
        <time>2022-03-17T08:43:26.000Z</time>
      </trkpt>
      <trkpt lat="47.28166" lon="-2.35936">
        <ele>4.8000001907349</ele>
        <time>2022-03-17T08:43:27.000Z</time>
      </trkpt>
      <trkpt lat="47.28169" lon="-2.35936">
        <ele>4.4000000953674</ele>
        <time>2022-03-17T08:43:28.000Z</time>
      </trkpt>
      <trkpt lat="47.28169" lon="-2.35936">
        <ele>3.7999999523163</ele>
        <time>2022-03-17T08:43:29.000Z</time>
      </trkpt>
      <trkpt lat="47.28171" lon="-2.35937">
        <ele>3.4000000953674</ele>
        <time>2022-03-17T08:43:30.000Z</time>
      </trkpt>
      <trkpt lat="47.28172" lon="-2.35936">
        <ele>3.4000000953674</ele>
        <time>2022-03-17T08:43:31.000Z</time>
      </trkpt>
      <trkpt lat="47.28177" lon="-2.35942">
        <ele>3.4000000953674</ele>
        <time>2022-03-17T08:43:35.000Z</time>
      </trkpt>
      <trkpt lat="47.2818" lon="-2.35959">
        <ele>3</ele>
        <time>2022-03-17T08:43:39.000Z</time>
      </trkpt>
      <trkpt lat="47.28183" lon="-2.35966">
        <ele>2.5999999046326</ele>
        <time>2022-03-17T08:43:40.000Z</time>
      </trkpt>
      <trkpt lat="47.28188" lon="-2.35972">
        <ele>2</ele>
        <time>2022-03-17T08:43:41.000Z</time>
      </trkpt>
      <trkpt lat="47.28189" lon="-2.35978">
        <ele>1.6000000238419</ele>
        <time>2022-03-17T08:43:42.000Z</time>
      </trkpt>
      <trkpt lat="47.28193" lon="-2.35986">
        <ele>1.2000000476837</ele>
        <time>2022-03-17T08:43:43.000Z</time>
      </trkpt>
      <trkpt lat="47.28203" lon="-2.36009">
        <ele>1.2000000476837</ele>
        <time>2022-03-17T08:43:47.000Z</time>
      </trkpt>
      <trkpt lat="47.28208" lon="-2.36024">
        <ele>1.2000000476837</ele>
        <time>2022-03-17T08:43:51.000Z</time>
      </trkpt>
      <trkpt lat="47.28215" lon="-2.3603">
        <ele>1.2000000476837</ele>
        <time>2022-03-17T08:43:54.000Z</time>
      </trkpt>
      <trkpt lat="47.28219" lon="-2.3603">
        <ele>1.2000000476837</ele>
        <time>2022-03-17T08:43:55.000Z</time>
      </trkpt>
      <trkpt lat="47.28234" lon="-2.36021">
        <ele>1.2000000476837</ele>
        <time>2022-03-17T08:43:59.000Z</time>
      </trkpt>
      <trkpt lat="47.28238" lon="-2.36019">
        <ele>1.2000000476837</ele>
        <time>2022-03-17T08:44:00.000Z</time>
      </trkpt>
      <trkpt lat="47.28252" lon="-2.36021">
        <ele>1.2000000476837</ele>
        <time>2022-03-17T08:44:05.000Z</time>
      </trkpt>
      <trkpt lat="47.2825" lon="-2.36027">
        <ele>1.6000000238419</ele>
        <time>2022-03-17T08:44:07.000Z</time>
      </trkpt>
      <trkpt lat="47.28249" lon="-2.3603">
        <ele>2</ele>
        <time>2022-03-17T08:44:08.000Z</time>
      </trkpt>
      <trkpt lat="47.28248" lon="-2.36033">
        <ele>2.4000000953674</ele>
        <time>2022-03-17T08:44:09.000Z</time>
      </trkpt>
      <trkpt lat="47.28247" lon="-2.36037">
        <ele>2.7999999523163</ele>
        <time>2022-03-17T08:44:10.000Z</time>
      </trkpt>
      <trkpt lat="47.28246" lon="-2.36041">
        <ele>3.2000000476837</ele>
        <time>2022-03-17T08:44:11.000Z</time>
      </trkpt>
      <trkpt lat="47.28245" lon="-2.36054">
        <ele>3.2000000476837</ele>
        <time>2022-03-17T08:44:14.000Z</time>
      </trkpt>
      <trkpt lat="47.28243" lon="-2.36068">
        <ele>3.5999999046326</ele>
        <time>2022-03-17T08:44:17.000Z</time>
      </trkpt>
      <trkpt lat="47.28243" lon="-2.36071">
        <ele>4</ele>
        <time>2022-03-17T08:44:18.000Z</time>
      </trkpt>
      <trkpt lat="47.28242" lon="-2.36075">
        <ele>4.5999999046326</ele>
        <time>2022-03-17T08:44:19.000Z</time>
      </trkpt>
      <trkpt lat="47.28241" lon="-2.3608">
        <ele>5</ele>
        <time>2022-03-17T08:44:20.000Z</time>
      </trkpt>
      <trkpt lat="47.2824" lon="-2.36084">
        <ele>5.4000000953674</ele>
        <time>2022-03-17T08:44:21.000Z</time>
      </trkpt>
      <trkpt lat="47.28241" lon="-2.36097">
        <ele>5.4000000953674</ele>
        <time>2022-03-17T08:44:24.000Z</time>
      </trkpt>
      <trkpt lat="47.28244" lon="-2.36107">
        <ele>5.4000000953674</ele>
        <time>2022-03-17T08:44:26.000Z</time>
      </trkpt>
      <trkpt lat="47.28252" lon="-2.36117">
        <ele>5.4000000953674</ele>
        <time>2022-03-17T08:44:28.000Z</time>
      </trkpt>
      <trkpt lat="47.28267" lon="-2.36147">
        <ele>5.4000000953674</ele>
        <time>2022-03-17T08:44:34.000Z</time>
      </trkpt>
      <trkpt lat="47.2827" lon="-2.36168">
        <ele>5.4000000953674</ele>
        <time>2022-03-17T08:44:38.000Z</time>
      </trkpt>
      <trkpt lat="47.28274" lon="-2.36187">
        <ele>5</ele>
        <time>2022-03-17T08:44:42.000Z</time>
      </trkpt>
      <trkpt lat="47.28275" lon="-2.36193">
        <ele>4.5999999046326</ele>
        <time>2022-03-17T08:44:43.000Z</time>
      </trkpt>
      <trkpt lat="47.28277" lon="-2.36199">
        <ele>4.1999998092651</ele>
        <time>2022-03-17T08:44:44.000Z</time>
      </trkpt>
      <trkpt lat="47.28278" lon="-2.36206">
        <ele>3.7999999523163</ele>
        <time>2022-03-17T08:44:45.000Z</time>
      </trkpt>
      <trkpt lat="47.2828" lon="-2.36213">
        <ele>3.4000000953674</ele>
        <time>2022-03-17T08:44:46.000Z</time>
      </trkpt>
      <trkpt lat="47.28285" lon="-2.36227">
        <ele>3.4000000953674</ele>
        <time>2022-03-17T08:44:48.000Z</time>
      </trkpt>
      <trkpt lat="47.2829" lon="-2.3623">
        <ele>3</ele>
        <time>2022-03-17T08:44:49.000Z</time>
      </trkpt>
      <trkpt lat="47.28294" lon="-2.36233">
        <ele>2.5999999046326</ele>
        <time>2022-03-17T08:44:50.000Z</time>
      </trkpt>
      <trkpt lat="47.28298" lon="-2.36235">
        <ele>2.2000000476837</ele>
        <time>2022-03-17T08:44:51.000Z</time>
      </trkpt>
      <trkpt lat="47.28303" lon="-2.36236">
        <ele>1.7999999523163</ele>
        <time>2022-03-17T08:44:52.000Z</time>
      </trkpt>
      <trkpt lat="47.28306" lon="-2.36237">
        <ele>1.3999999761581</ele>
        <time>2022-03-17T08:44:53.000Z</time>
      </trkpt>
      <trkpt lat="47.28323" lon="-2.36248">
        <ele>1.3999999761581</ele>
        <time>2022-03-17T08:44:58.000Z</time>
      </trkpt>
      <trkpt lat="47.28345" lon="-2.36259">
        <ele>1.3999999761581</ele>
        <time>2022-03-17T08:45:04.000Z</time>
      </trkpt>
      <trkpt lat="47.28348" lon="-2.36262">
        <ele>1.7999999523163</ele>
        <time>2022-03-17T08:45:05.000Z</time>
      </trkpt>
      <trkpt lat="47.28352" lon="-2.36263">
        <ele>2.2000000476837</ele>
        <time>2022-03-17T08:45:06.000Z</time>
      </trkpt>
      <trkpt lat="47.28353" lon="-2.36264">
        <ele>2.5999999046326</ele>
        <time>2022-03-17T08:45:07.000Z</time>
      </trkpt>
      <trkpt lat="47.28354" lon="-2.36266">
        <ele>3</ele>
        <time>2022-03-17T08:45:08.000Z</time>
      </trkpt>
      <trkpt lat="47.28355" lon="-2.36268">
        <ele>3.4000000953674</ele>
        <time>2022-03-17T08:45:09.000Z</time>
      </trkpt>
      <trkpt lat="47.28355" lon="-2.36271">
        <ele>3.4000000953674</ele>
        <time>2022-03-17T08:45:10.000Z</time>
      </trkpt>
      <trkpt lat="47.2835" lon="-2.36282">
        <ele>3.4000000953674</ele>
        <time>2022-03-17T08:45:13.000Z</time>
      </trkpt>
      <trkpt lat="47.28352" lon="-2.36292">
        <ele>3.4000000953674</ele>
        <time>2022-03-17T08:45:16.000Z</time>
      </trkpt>
      <trkpt lat="47.28355" lon="-2.36298">
        <ele>3.4000000953674</ele>
        <time>2022-03-17T08:45:18.000Z</time>
      </trkpt>
      <trkpt lat="47.28359" lon="-2.36301">
        <ele>3.7999999523163</ele>
        <time>2022-03-17T08:45:20.000Z</time>
      </trkpt>
      <trkpt lat="47.28361" lon="-2.36302">
        <ele>4.1999998092651</ele>
        <time>2022-03-17T08:45:21.000Z</time>
      </trkpt>
      <trkpt lat="47.28363" lon="-2.36304">
        <ele>4.8000001907349</ele>
        <time>2022-03-17T08:45:22.000Z</time>
      </trkpt>
      <trkpt lat="47.28365" lon="-2.36305">
        <ele>5.1999998092651</ele>
        <time>2022-03-17T08:45:23.000Z</time>
      </trkpt>
      <trkpt lat="47.28368" lon="-2.36307">
        <ele>5.5999999046326</ele>
        <time>2022-03-17T08:45:24.000Z</time>
      </trkpt>
      <trkpt lat="47.28376" lon="-2.36314">
        <ele>5.5999999046326</ele>
        <time>2022-03-17T08:45:27.000Z</time>
      </trkpt>
      <trkpt lat="47.28394" lon="-2.36327">
        <ele>5.5999999046326</ele>
        <time>2022-03-17T08:45:33.000Z</time>
      </trkpt>
      <trkpt lat="47.28399" lon="-2.36334">
        <ele>6</ele>
        <time>2022-03-17T08:45:35.000Z</time>
      </trkpt>
      <trkpt lat="47.28401" lon="-2.36342">
        <ele>6.8000001907349</ele>
        <time>2022-03-17T08:45:36.000Z</time>
      </trkpt>
      <trkpt lat="47.28402" lon="-2.36347">
        <ele>7.4000000953674</ele>
        <time>2022-03-17T08:45:37.000Z</time>
      </trkpt>
      <trkpt lat="47.28404" lon="-2.36351">
        <ele>7.8000001907349</ele>
        <time>2022-03-17T08:45:38.000Z</time>
      </trkpt>
      <trkpt lat="47.28415" lon="-2.36366">
        <ele>7.8000001907349</ele>
        <time>2022-03-17T08:45:42.000Z</time>
      </trkpt>
      <trkpt lat="47.28432" lon="-2.36383">
        <ele>7.8000001907349</ele>
        <time>2022-03-17T08:45:48.000Z</time>
      </trkpt>
      <trkpt lat="47.28454" lon="-2.36396">
        <ele>8.1999998092651</ele>
        <time>2022-03-17T08:45:53.000Z</time>
      </trkpt>
      <trkpt lat="47.28457" lon="-2.36396">
        <ele>8.6000003814697</ele>
        <time>2022-03-17T08:45:54.000Z</time>
      </trkpt>
      <trkpt lat="47.28458" lon="-2.36394">
        <ele>9</ele>
        <time>2022-03-17T08:45:55.000Z</time>
      </trkpt>
      <trkpt lat="47.28459" lon="-2.36392">
        <ele>9.3999996185303</ele>
        <time>2022-03-17T08:45:56.000Z</time>
      </trkpt>
      <trkpt lat="47.2846" lon="-2.36389">
        <ele>9.8000001907349</ele>
        <time>2022-03-17T08:45:57.000Z</time>
      </trkpt>
      <trkpt lat="47.2846" lon="-2.36377">
        <ele>9.8000001907349</ele>
        <time>2022-03-17T08:46:00.000Z</time>
      </trkpt>
      <trkpt lat="47.28461" lon="-2.36373">
        <ele>9.8000001907349</ele>
        <time>2022-03-17T08:46:01.000Z</time>
      </trkpt>
      <trkpt lat="47.28462" lon="-2.36349">
        <ele>9.8000001907349</ele>
        <time>2022-03-17T08:46:06.000Z</time>
      </trkpt>
      <trkpt lat="47.28463" lon="-2.36318">
        <ele>9.8000001907349</ele>
        <time>2022-03-17T08:46:11.000Z</time>
      </trkpt>
      <trkpt lat="47.28461" lon="-2.36281">
        <ele>9.8000001907349</ele>
        <time>2022-03-17T08:46:17.000Z</time>
      </trkpt>
      <trkpt lat="47.28458" lon="-2.36253">
        <ele>9.8000001907349</ele>
        <time>2022-03-17T08:46:22.000Z</time>
      </trkpt>
      <trkpt lat="47.28455" lon="-2.3622">
        <ele>9.8000001907349</ele>
        <time>2022-03-17T08:46:28.000Z</time>
      </trkpt>
      <trkpt lat="47.28457" lon="-2.36203">
        <ele>9.8000001907349</ele>
        <time>2022-03-17T08:46:32.000Z</time>
      </trkpt>
      <trkpt lat="47.28459" lon="-2.36201">
        <ele>10.199999809265</ele>
        <time>2022-03-17T08:46:33.000Z</time>
      </trkpt>
      <trkpt lat="47.28461" lon="-2.36198">
        <ele>10.60000038147</ele>
        <time>2022-03-17T08:46:34.000Z</time>
      </trkpt>
      <trkpt lat="47.28464" lon="-2.36194">
        <ele>11.199999809265</ele>
        <time>2022-03-17T08:46:35.000Z</time>
      </trkpt>
      <trkpt lat="47.28468" lon="-2.3619">
        <ele>11.60000038147</ele>
        <time>2022-03-17T08:46:36.000Z</time>
      </trkpt>
      <trkpt lat="47.28471" lon="-2.36185">
        <ele>12</ele>
        <time>2022-03-17T08:46:37.000Z</time>
      </trkpt>
      <trkpt lat="47.28475" lon="-2.36181">
        <ele>12</ele>
        <time>2022-03-17T08:46:38.000Z</time>
      </trkpt>
      <trkpt lat="47.28484" lon="-2.36167">
        <ele>12.39999961853</ele>
        <time>2022-03-17T08:46:42.000Z</time>
      </trkpt>
      <trkpt lat="47.28486" lon="-2.36165">
        <ele>12.800000190735</ele>
        <time>2022-03-17T08:46:43.000Z</time>
      </trkpt>
      <trkpt lat="47.28489" lon="-2.36161">
        <ele>13.199999809265</ele>
        <time>2022-03-17T08:46:44.000Z</time>
      </trkpt>
      <trkpt lat="47.28492" lon="-2.36158">
        <ele>13.60000038147</ele>
        <time>2022-03-17T08:46:45.000Z</time>
      </trkpt>
      <trkpt lat="47.28495" lon="-2.36155">
        <ele>14.199999809265</ele>
        <time>2022-03-17T08:46:46.000Z</time>
      </trkpt>
      <trkpt lat="47.28502" lon="-2.36153">
        <ele>14.199999809265</ele>
        <time>2022-03-17T08:46:49.000Z</time>
      </trkpt>
      <trkpt lat="47.28508" lon="-2.36154">
        <ele>14.60000038147</ele>
        <time>2022-03-17T08:46:51.000Z</time>
      </trkpt>
      <trkpt lat="47.2851" lon="-2.36156">
        <ele>15</ele>
        <time>2022-03-17T08:46:52.000Z</time>
      </trkpt>
      <trkpt lat="47.28513" lon="-2.36158">
        <ele>15.39999961853</ele>
        <time>2022-03-17T08:46:53.000Z</time>
      </trkpt>
      <trkpt lat="47.28516" lon="-2.36159">
        <ele>15.800000190735</ele>
        <time>2022-03-17T08:46:54.000Z</time>
      </trkpt>
      <trkpt lat="47.28519" lon="-2.3616">
        <ele>16.200000762939</ele>
        <time>2022-03-17T08:46:55.000Z</time>
      </trkpt>
      <trkpt lat="47.28532" lon="-2.36162">
        <ele>16.799999237061</ele>
        <time>2022-03-17T08:47:00.000Z</time>
      </trkpt>
      <trkpt lat="47.28534" lon="-2.36162">
        <ele>17.200000762939</ele>
        <time>2022-03-17T08:47:01.000Z</time>
      </trkpt>
      <trkpt lat="47.28537" lon="-2.36163">
        <ele>17.60000038147</ele>
        <time>2022-03-17T08:47:02.000Z</time>
      </trkpt>
      <trkpt lat="47.28539" lon="-2.36164">
        <ele>18</ele>
        <time>2022-03-17T08:47:03.000Z</time>
      </trkpt>
      <trkpt lat="47.28541" lon="-2.36163">
        <ele>18.39999961853</ele>
        <time>2022-03-17T08:47:04.000Z</time>
      </trkpt>
      <trkpt lat="47.28546" lon="-2.36161">
        <ele>18.39999961853</ele>
        <time>2022-03-17T08:47:06.000Z</time>
      </trkpt>
      <trkpt lat="47.28549" lon="-2.36158">
        <ele>19</ele>
        <time>2022-03-17T08:47:08.000Z</time>
      </trkpt>
      <trkpt lat="47.2855" lon="-2.36157">
        <ele>19.39999961853</ele>
        <time>2022-03-17T08:47:09.000Z</time>
      </trkpt>
      <trkpt lat="47.28552" lon="-2.36155">
        <ele>19.799999237061</ele>
        <time>2022-03-17T08:47:10.000Z</time>
      </trkpt>
      <trkpt lat="47.28553" lon="-2.36155">
        <ele>20.200000762939</ele>
        <time>2022-03-17T08:47:11.000Z</time>
      </trkpt>
      <trkpt lat="47.28555" lon="-2.36155">
        <ele>20.799999237061</ele>
        <time>2022-03-17T08:47:12.000Z</time>
      </trkpt>
      <trkpt lat="47.28559" lon="-2.36152">
        <ele>21.60000038147</ele>
        <time>2022-03-17T08:47:15.000Z</time>
      </trkpt>
      <trkpt lat="47.2856" lon="-2.36151">
        <ele>22</ele>
        <time>2022-03-17T08:47:16.000Z</time>
      </trkpt>
      <trkpt lat="47.28561" lon="-2.3615">
        <ele>22.60000038147</ele>
        <time>2022-03-17T08:47:17.000Z</time>
      </trkpt>
      <trkpt lat="47.28562" lon="-2.36149">
        <ele>23</ele>
        <time>2022-03-17T08:47:18.000Z</time>
      </trkpt>
      <trkpt lat="47.28566" lon="-2.36147">
        <ele>23.39999961853</ele>
        <time>2022-03-17T08:47:21.000Z</time>
      </trkpt>
      <trkpt lat="47.28567" lon="-2.36147">
        <ele>23.799999237061</ele>
        <time>2022-03-17T08:47:22.000Z</time>
      </trkpt>
      <trkpt lat="47.28569" lon="-2.36147">
        <ele>24.200000762939</ele>
        <time>2022-03-17T08:47:23.000Z</time>
      </trkpt>
      <trkpt lat="47.2857" lon="-2.36147">
        <ele>24.799999237061</ele>
        <time>2022-03-17T08:47:24.000Z</time>
      </trkpt>
      <trkpt lat="47.28572" lon="-2.36148">
        <ele>25.200000762939</ele>
        <time>2022-03-17T08:47:25.000Z</time>
      </trkpt>
      <trkpt lat="47.28581" lon="-2.36152">
        <ele>25.200000762939</ele>
        <time>2022-03-17T08:47:28.000Z</time>
      </trkpt>
      <trkpt lat="47.28584" lon="-2.36152">
        <ele>25.200000762939</ele>
        <time>2022-03-17T08:47:29.000Z</time>
      </trkpt>
      <trkpt lat="47.28604" lon="-2.36148">
        <ele>25.200000762939</ele>
        <time>2022-03-17T08:47:35.000Z</time>
      </trkpt>
      <trkpt lat="47.28615" lon="-2.36139">
        <ele>25.200000762939</ele>
        <time>2022-03-17T08:47:40.000Z</time>
      </trkpt>
      <trkpt lat="47.28624" lon="-2.36135">
        <ele>25.200000762939</ele>
        <time>2022-03-17T08:47:44.000Z</time>
      </trkpt>
      <trkpt lat="47.28624" lon="-2.36135">
        <ele>25.200000762939</ele>
        <time>2022-03-17T08:47:45.000Z</time>
      </trkpt>
      <trkpt lat="47.28626" lon="-2.36133">
        <ele>25.200000762939</ele>
        <time>2022-03-17T08:47:46.000Z</time>
      </trkpt>
      <trkpt lat="47.28631" lon="-2.36124">
        <ele>25.200000762939</ele>
        <time>2022-03-17T08:47:49.000Z</time>
      </trkpt>
      <trkpt lat="47.28635" lon="-2.36116">
        <ele>24.799999237061</ele>
        <time>2022-03-17T08:47:51.000Z</time>
      </trkpt>
      <trkpt lat="47.28636" lon="-2.36113">
        <ele>24.39999961853</ele>
        <time>2022-03-17T08:47:52.000Z</time>
      </trkpt>
      <trkpt lat="47.28638" lon="-2.3611">
        <ele>24</ele>
        <time>2022-03-17T08:47:53.000Z</time>
      </trkpt>
      <trkpt lat="47.28639" lon="-2.36108">
        <ele>23.39999961853</ele>
        <time>2022-03-17T08:47:54.000Z</time>
      </trkpt>
      <trkpt lat="47.2864" lon="-2.36106">
        <ele>22.60000038147</ele>
        <time>2022-03-17T08:47:55.000Z</time>
      </trkpt>
      <trkpt lat="47.28642" lon="-2.36103">
        <ele>22</ele>
        <time>2022-03-17T08:47:56.000Z</time>
      </trkpt>
      <trkpt lat="47.28643" lon="-2.36099">
        <ele>21.39999961853</ele>
        <time>2022-03-17T08:47:57.000Z</time>
      </trkpt>
      <trkpt lat="47.28643" lon="-2.36094">
        <ele>20.60000038147</ele>
        <time>2022-03-17T08:47:58.000Z</time>
      </trkpt>
      <trkpt lat="47.28644" lon="-2.36089">
        <ele>19.799999237061</ele>
        <time>2022-03-17T08:47:59.000Z</time>
      </trkpt>
      <trkpt lat="47.28644" lon="-2.36085">
        <ele>19.200000762939</ele>
        <time>2022-03-17T08:48:00.000Z</time>
      </trkpt>
      <trkpt lat="47.28646" lon="-2.36082">
        <ele>18.60000038147</ele>
        <time>2022-03-17T08:48:01.000Z</time>
      </trkpt>
      <trkpt lat="47.28649" lon="-2.36082">
        <ele>18</ele>
        <time>2022-03-17T08:48:02.000Z</time>
      </trkpt>
      <trkpt lat="47.28651" lon="-2.36083">
        <ele>17.39999961853</ele>
        <time>2022-03-17T08:48:03.000Z</time>
      </trkpt>
      <trkpt lat="47.28653" lon="-2.36085">
        <ele>16.799999237061</ele>
        <time>2022-03-17T08:48:04.000Z</time>
      </trkpt>
      <trkpt lat="47.28655" lon="-2.36088">
        <ele>16.200000762939</ele>
        <time>2022-03-17T08:48:05.000Z</time>
      </trkpt>
      <trkpt lat="47.28656" lon="-2.3609">
        <ele>16.200000762939</ele>
        <time>2022-03-17T08:48:06.000Z</time>
      </trkpt>
      <trkpt lat="47.28661" lon="-2.36101">
        <ele>16.200000762939</ele>
        <time>2022-03-17T08:48:09.000Z</time>
      </trkpt>
      <trkpt lat="47.28667" lon="-2.36128">
        <ele>16.200000762939</ele>
        <time>2022-03-17T08:48:16.000Z</time>
      </trkpt>
      <trkpt lat="47.28676" lon="-2.3616">
        <ele>16.200000762939</ele>
        <time>2022-03-17T08:48:24.000Z</time>
      </trkpt>
      <trkpt lat="47.28681" lon="-2.36168">
        <ele>16.200000762939</ele>
        <time>2022-03-17T08:48:29.000Z</time>
      </trkpt>
      <trkpt lat="47.28686" lon="-2.36173">
        <ele>16.200000762939</ele>
        <time>2022-03-17T08:48:33.000Z</time>
      </trkpt>
      <trkpt lat="47.28694" lon="-2.36192">
        <ele>16.200000762939</ele>
        <time>2022-03-17T08:48:39.000Z</time>
      </trkpt>
      <trkpt lat="47.28699" lon="-2.36209">
        <ele>16.200000762939</ele>
        <time>2022-03-17T08:48:44.000Z</time>
      </trkpt>
      <trkpt lat="47.28713" lon="-2.36212">
        <ele>16.200000762939</ele>
        <time>2022-03-17T08:48:49.000Z</time>
      </trkpt>
      <trkpt lat="47.28731" lon="-2.36211">
        <ele>16.200000762939</ele>
        <time>2022-03-17T08:48:56.000Z</time>
      </trkpt>
      <trkpt lat="47.28746" lon="-2.362">
        <ele>16.200000762939</ele>
        <time>2022-03-17T08:49:02.000Z</time>
      </trkpt>
      <trkpt lat="47.28752" lon="-2.36204">
        <ele>16.200000762939</ele>
        <time>2022-03-17T08:49:05.000Z</time>
      </trkpt>
      <trkpt lat="47.28756" lon="-2.36208">
        <ele>16.200000762939</ele>
        <time>2022-03-17T08:49:07.000Z</time>
      </trkpt>
      <trkpt lat="47.28763" lon="-2.36209">
        <ele>16.200000762939</ele>
        <time>2022-03-17T08:49:09.000Z</time>
      </trkpt>
      <trkpt lat="47.28769" lon="-2.36205">
        <ele>16.200000762939</ele>
        <time>2022-03-17T08:49:11.000Z</time>
      </trkpt>
      <trkpt lat="47.28788" lon="-2.36194">
        <ele>16.200000762939</ele>
        <time>2022-03-17T08:49:17.000Z</time>
      </trkpt>
      <trkpt lat="47.28806" lon="-2.36182">
        <ele>15.800000190735</ele>
        <time>2022-03-17T08:49:22.000Z</time>
      </trkpt>
      <trkpt lat="47.28809" lon="-2.36179">
        <ele>15.39999961853</ele>
        <time>2022-03-17T08:49:23.000Z</time>
      </trkpt>
      <trkpt lat="47.28813" lon="-2.36177">
        <ele>15</ele>
        <time>2022-03-17T08:49:24.000Z</time>
      </trkpt>
      <trkpt lat="47.28816" lon="-2.36175">
        <ele>14.39999961853</ele>
        <time>2022-03-17T08:49:25.000Z</time>
      </trkpt>
      <trkpt lat="47.28819" lon="-2.36173">
        <ele>14</ele>
        <time>2022-03-17T08:49:26.000Z</time>
      </trkpt>
      <trkpt lat="47.28826" lon="-2.36165">
        <ele>14</ele>
        <time>2022-03-17T08:49:29.000Z</time>
      </trkpt>
      <trkpt lat="47.28842" lon="-2.3614">
        <ele>14</ele>
        <time>2022-03-17T08:49:36.000Z</time>
      </trkpt>
      <trkpt lat="47.28871" lon="-2.3611">
        <ele>14</ele>
        <time>2022-03-17T08:49:45.000Z</time>
      </trkpt>
      <trkpt lat="47.28886" lon="-2.36097">
        <ele>14</ele>
        <time>2022-03-17T08:49:49.000Z</time>
      </trkpt>
      <trkpt lat="47.28897" lon="-2.36086">
        <ele>14</ele>
        <time>2022-03-17T08:49:52.000Z</time>
      </trkpt>
      <trkpt lat="47.28925" lon="-2.36061">
        <ele>14</ele>
        <time>2022-03-17T08:49:59.000Z</time>
      </trkpt>
      <trkpt lat="47.28929" lon="-2.36058">
        <ele>14</ele>
        <time>2022-03-17T08:50:00.000Z</time>
      </trkpt>
      <trkpt lat="47.28962" lon="-2.36035">
        <ele>14</ele>
        <time>2022-03-17T08:50:08.000Z</time>
      </trkpt>
      <trkpt lat="47.28998" lon="-2.36">
        <ele>14</ele>
        <time>2022-03-17T08:50:17.000Z</time>
      </trkpt>
      <trkpt lat="47.29023" lon="-2.35974">
        <ele>14</ele>
        <time>2022-03-17T08:50:24.000Z</time>
      </trkpt>
      <trkpt lat="47.29045" lon="-2.35949">
        <ele>14</ele>
        <time>2022-03-17T08:50:30.000Z</time>
      </trkpt>
      <trkpt lat="47.29075" lon="-2.35915">
        <ele>14</ele>
        <time>2022-03-17T08:50:38.000Z</time>
      </trkpt>
      <trkpt lat="47.2909" lon="-2.35899">
        <ele>14</ele>
        <time>2022-03-17T08:50:43.000Z</time>
      </trkpt>
      <trkpt lat="47.29102" lon="-2.35886">
        <ele>14</ele>
        <time>2022-03-17T08:50:50.000Z</time>
      </trkpt>
      <trkpt lat="47.29111" lon="-2.35876">
        <ele>14</ele>
        <time>2022-03-17T08:50:55.000Z</time>
      </trkpt>
      <trkpt lat="47.29125" lon="-2.35858">
        <ele>14</ele>
        <time>2022-03-17T08:51:03.000Z</time>
      </trkpt>
      <trkpt lat="47.29143" lon="-2.35839">
        <ele>14</ele>
        <time>2022-03-17T08:51:11.000Z</time>
      </trkpt>
      <trkpt lat="47.29166" lon="-2.35821">
        <ele>14</ele>
        <time>2022-03-17T08:51:19.000Z</time>
      </trkpt>
      <trkpt lat="47.29191" lon="-2.35806">
        <ele>14</ele>
        <time>2022-03-17T08:51:27.000Z</time>
      </trkpt>
      <trkpt lat="47.29207" lon="-2.35797">
        <ele>14</ele>
        <time>2022-03-17T08:51:33.000Z</time>
      </trkpt>
      <trkpt lat="47.29215" lon="-2.35793">
        <ele>14</ele>
        <time>2022-03-17T08:51:38.000Z</time>
      </trkpt>
      <trkpt lat="47.29215" lon="-2.35793">
        <ele>14</ele>
        <time>2022-03-17T08:51:39.000Z</time>
      </trkpt>
      <trkpt lat="47.29214" lon="-2.35788">
        <ele>14</ele>
        <time>2022-03-17T08:52:23.000Z</time>
      </trkpt>
      <trkpt lat="47.29214" lon="-2.35784">
        <ele>14</ele>
        <time>2022-03-17T08:52:25.000Z</time>
      </trkpt>
      <trkpt lat="47.29212" lon="-2.35782">
        <ele>14</ele>
        <time>2022-03-17T08:52:28.000Z</time>
      </trkpt>
      <trkpt lat="47.29211" lon="-2.35783">
        <ele>14</ele>
        <time>2022-03-17T08:52:29.000Z</time>
      </trkpt>
      <trkpt lat="47.29205" lon="-2.35788">
        <ele>14</ele>
        <time>2022-03-17T08:52:34.000Z</time>
      </trkpt>
      <trkpt lat="47.29203" lon="-2.3579">
        <ele>14</ele>
        <time>2022-03-17T08:53:37.000Z</time>
      </trkpt>
      <trkpt lat="47.29199" lon="-2.35795">
        <ele>14</ele>
        <time>2022-03-17T08:53:40.000Z</time>
      </trkpt>
      <trkpt lat="47.29195" lon="-2.35797">
        <ele>14</ele>
        <time>2022-03-17T08:53:42.000Z</time>
      </trkpt>
      <trkpt lat="47.29191" lon="-2.35799">
        <ele>14</ele>
        <time>2022-03-17T08:53:44.000Z</time>
      </trkpt>
      <trkpt lat="47.29183" lon="-2.35804">
        <ele>14</ele>
        <time>2022-03-17T08:53:48.000Z</time>
      </trkpt>
      <trkpt lat="47.29178" lon="-2.35808">
        <ele>14</ele>
        <time>2022-03-17T08:53:53.000Z</time>
      </trkpt>
      <trkpt lat="47.29177" lon="-2.35809">
        <ele>14</ele>
        <time>2022-03-17T08:54:03.000Z</time>
      </trkpt>
      <trkpt lat="47.29175" lon="-2.35817">
        <ele>14</ele>
        <time>2022-03-17T08:54:07.000Z</time>
      </trkpt>
      <trkpt lat="47.29184" lon="-2.35814">
        <ele>14</ele>
        <time>2022-03-17T08:54:11.000Z</time>
      </trkpt>
      <trkpt lat="47.29195" lon="-2.35802">
        <ele>14</ele>
        <time>2022-03-17T08:54:17.000Z</time>
      </trkpt>
      <trkpt lat="47.29202" lon="-2.35794">
        <ele>14</ele>
        <time>2022-03-17T08:54:22.000Z</time>
      </trkpt>
      <trkpt lat="47.29202" lon="-2.35793">
        <ele>14</ele>
        <time>2022-03-17T08:54:23.000Z</time>
      </trkpt>
      <trkpt lat="47.29204" lon="-2.35793">
        <ele>14</ele>
        <time>2022-03-17T08:54:32.000Z</time>
      </trkpt>
      <trkpt lat="47.29208" lon="-2.35791">
        <ele>14</ele>
        <time>2022-03-17T08:54:34.000Z</time>
      </trkpt>
      <trkpt lat="47.29219" lon="-2.3578">
        <ele>14</ele>
        <time>2022-03-17T08:54:39.000Z</time>
      </trkpt>
      <trkpt lat="47.29222" lon="-2.35777">
        <ele>14</ele>
        <time>2022-03-17T08:54:40.000Z</time>
      </trkpt>
      <trkpt lat="47.29241" lon="-2.35756">
        <ele>14</ele>
        <time>2022-03-17T08:54:47.000Z</time>
      </trkpt>
      <trkpt lat="47.2925" lon="-2.35736">
        <ele>14</ele>
        <time>2022-03-17T08:54:52.000Z</time>
      </trkpt>
      <trkpt lat="47.29249" lon="-2.35733">
        <ele>14</ele>
        <time>2022-03-17T08:54:53.000Z</time>
      </trkpt>
      <trkpt lat="47.29245" lon="-2.35722">
        <ele>14</ele>
        <time>2022-03-17T08:54:58.000Z</time>
      </trkpt>
      <trkpt lat="47.29237" lon="-2.35714">
        <ele>14</ele>
        <time>2022-03-17T08:55:01.000Z</time>
      </trkpt>
      <trkpt lat="47.29234" lon="-2.35711">
        <ele>14</ele>
        <time>2022-03-17T08:55:02.000Z</time>
      </trkpt>
      <trkpt lat="47.29217" lon="-2.35696">
        <ele>14</ele>
        <time>2022-03-17T08:55:07.000Z</time>
      </trkpt>
      <trkpt lat="47.2921" lon="-2.35689">
        <ele>14</ele>
        <time>2022-03-17T08:55:09.000Z</time>
      </trkpt>
      <trkpt lat="47.29184" lon="-2.35661">
        <ele>14</ele>
        <time>2022-03-17T08:55:16.000Z</time>
      </trkpt>
      <trkpt lat="47.2918" lon="-2.35658">
        <ele>14</ele>
        <time>2022-03-17T08:55:17.000Z</time>
      </trkpt>
      <trkpt lat="47.29163" lon="-2.3565">
        <ele>14</ele>
        <time>2022-03-17T08:55:21.000Z</time>
      </trkpt>
      <trkpt lat="47.29158" lon="-2.3565">
        <ele>14</ele>
        <time>2022-03-17T08:55:22.000Z</time>
      </trkpt>
      <trkpt lat="47.29143" lon="-2.3565">
        <ele>14</ele>
        <time>2022-03-17T08:55:26.000Z</time>
      </trkpt>
      <trkpt lat="47.29125" lon="-2.35653">
        <ele>14</ele>
        <time>2022-03-17T08:55:30.000Z</time>
      </trkpt>
      <trkpt lat="47.29115" lon="-2.35639">
        <ele>14</ele>
        <time>2022-03-17T08:55:33.000Z</time>
      </trkpt>
      <trkpt lat="47.29118" lon="-2.35619">
        <ele>14</ele>
        <time>2022-03-17T08:55:36.000Z</time>
      </trkpt>
      <trkpt lat="47.29124" lon="-2.35599">
        <ele>14</ele>
        <time>2022-03-17T08:55:39.000Z</time>
      </trkpt>
      <trkpt lat="47.29126" lon="-2.35592">
        <ele>14</ele>
        <time>2022-03-17T08:55:40.000Z</time>
      </trkpt>
      <trkpt lat="47.29127" lon="-2.35584">
        <ele>14</ele>
        <time>2022-03-17T08:55:41.000Z</time>
      </trkpt>
      <trkpt lat="47.29127" lon="-2.35554">
        <ele>14</ele>
        <time>2022-03-17T08:55:45.000Z</time>
      </trkpt>
      <trkpt lat="47.29125" lon="-2.35546">
        <ele>14</ele>
        <time>2022-03-17T08:55:46.000Z</time>
      </trkpt>
      <trkpt lat="47.29117" lon="-2.35509">
        <ele>14</ele>
        <time>2022-03-17T08:55:51.000Z</time>
      </trkpt>
      <trkpt lat="47.29112" lon="-2.3548">
        <ele>14</ele>
        <time>2022-03-17T08:55:55.000Z</time>
      </trkpt>
      <trkpt lat="47.29114" lon="-2.35474">
        <ele>14</ele>
        <time>2022-03-17T08:55:56.000Z</time>
      </trkpt>
      <trkpt lat="47.29125" lon="-2.35463">
        <ele>14</ele>
        <time>2022-03-17T08:55:59.000Z</time>
      </trkpt>
      <trkpt lat="47.29134" lon="-2.35459">
        <ele>14</ele>
        <time>2022-03-17T08:56:01.000Z</time>
      </trkpt>
      <trkpt lat="47.29152" lon="-2.35452">
        <ele>14</ele>
        <time>2022-03-17T08:56:05.000Z</time>
      </trkpt>
      <trkpt lat="47.29187" lon="-2.3544">
        <ele>14</ele>
        <time>2022-03-17T08:56:13.000Z</time>
      </trkpt>
      <trkpt lat="47.29214" lon="-2.3543">
        <ele>14</ele>
        <time>2022-03-17T08:56:19.000Z</time>
      </trkpt>
      <trkpt lat="47.29249" lon="-2.35414">
        <ele>14</ele>
        <time>2022-03-17T08:56:26.000Z</time>
      </trkpt>
      <trkpt lat="47.29264" lon="-2.35406">
        <ele>14</ele>
        <time>2022-03-17T08:56:29.000Z</time>
      </trkpt>
      <trkpt lat="47.29279" lon="-2.35396">
        <ele>14</ele>
        <time>2022-03-17T08:56:32.000Z</time>
      </trkpt>
      <trkpt lat="47.29314" lon="-2.35363">
        <ele>14</ele>
        <time>2022-03-17T08:56:39.000Z</time>
      </trkpt>
      <trkpt lat="47.29341" lon="-2.35333">
        <ele>14</ele>
        <time>2022-03-17T08:56:45.000Z</time>
      </trkpt>
      <trkpt lat="47.2935" lon="-2.35323">
        <ele>14</ele>
        <time>2022-03-17T08:56:47.000Z</time>
      </trkpt>
      <trkpt lat="47.29354" lon="-2.35318">
        <ele>13.60000038147</ele>
        <time>2022-03-17T08:56:48.000Z</time>
      </trkpt>
      <trkpt lat="47.29359" lon="-2.35312">
        <ele>13.199999809265</ele>
        <time>2022-03-17T08:56:49.000Z</time>
      </trkpt>
      <trkpt lat="47.29364" lon="-2.35307">
        <ele>12.800000190735</ele>
        <time>2022-03-17T08:56:50.000Z</time>
      </trkpt>
      <trkpt lat="47.29368" lon="-2.35301">
        <ele>12.39999961853</ele>
        <time>2022-03-17T08:56:51.000Z</time>
      </trkpt>
      <trkpt lat="47.29373" lon="-2.35296">
        <ele>12</ele>
        <time>2022-03-17T08:56:52.000Z</time>
      </trkpt>
      <trkpt lat="47.29399" lon="-2.35263">
        <ele>12</ele>
        <time>2022-03-17T08:56:58.000Z</time>
      </trkpt>
      <trkpt lat="47.29421" lon="-2.35228">
        <ele>12</ele>
        <time>2022-03-17T08:57:04.000Z</time>
      </trkpt>
      <trkpt lat="47.29432" lon="-2.35208">
        <ele>11.60000038147</ele>
        <time>2022-03-17T08:57:07.000Z</time>
      </trkpt>
      <trkpt lat="47.29435" lon="-2.35201">
        <ele>10.800000190735</ele>
        <time>2022-03-17T08:57:08.000Z</time>
      </trkpt>
      <trkpt lat="47.29439" lon="-2.35195">
        <ele>10.39999961853</ele>
        <time>2022-03-17T08:57:09.000Z</time>
      </trkpt>
      <trkpt lat="47.29441" lon="-2.35188">
        <ele>10</ele>
        <time>2022-03-17T08:57:10.000Z</time>
      </trkpt>
      <trkpt lat="47.29444" lon="-2.35181">
        <ele>10</ele>
        <time>2022-03-17T08:57:11.000Z</time>
      </trkpt>
      <trkpt lat="47.29449" lon="-2.35168">
        <ele>10</ele>
        <time>2022-03-17T08:57:13.000Z</time>
      </trkpt>
      <trkpt lat="47.29458" lon="-2.35142">
        <ele>10</ele>
        <time>2022-03-17T08:57:17.000Z</time>
      </trkpt>
      <trkpt lat="47.29468" lon="-2.35104">
        <ele>10</ele>
        <time>2022-03-17T08:57:23.000Z</time>
      </trkpt>
      <trkpt lat="47.2948" lon="-2.35069">
        <ele>10</ele>
        <time>2022-03-17T08:57:29.000Z</time>
      </trkpt>
      <trkpt lat="47.29493" lon="-2.35031">
        <ele>9.3999996185303</ele>
        <time>2022-03-17T08:57:34.000Z</time>
      </trkpt>
      <trkpt lat="47.29496" lon="-2.35023">
        <ele>9</ele>
        <time>2022-03-17T08:57:35.000Z</time>
      </trkpt>
      <trkpt lat="47.29499" lon="-2.35014">
        <ele>8.6000003814697</ele>
        <time>2022-03-17T08:57:36.000Z</time>
      </trkpt>
      <trkpt lat="47.29504" lon="-2.35004">
        <ele>8.1999998092651</ele>
        <time>2022-03-17T08:57:37.000Z</time>
      </trkpt>
      <trkpt lat="47.29509" lon="-2.34993">
        <ele>7.8000001907349</ele>
        <time>2022-03-17T08:57:38.000Z</time>
      </trkpt>
      <trkpt lat="47.29513" lon="-2.34984">
        <ele>7.8000001907349</ele>
        <time>2022-03-17T08:57:39.000Z</time>
      </trkpt>
      <trkpt lat="47.29519" lon="-2.34976">
        <ele>7.4000000953674</ele>
        <time>2022-03-17T08:57:40.000Z</time>
      </trkpt>
      <trkpt lat="47.29524" lon="-2.34968">
        <ele>6.8000001907349</ele>
        <time>2022-03-17T08:57:41.000Z</time>
      </trkpt>
      <trkpt lat="47.2953" lon="-2.3496">
        <ele>6.4000000953674</ele>
        <time>2022-03-17T08:57:42.000Z</time>
      </trkpt>
      <trkpt lat="47.29535" lon="-2.34952">
        <ele>6</ele>
        <time>2022-03-17T08:57:43.000Z</time>
      </trkpt>
      <trkpt lat="47.2954" lon="-2.34944">
        <ele>5.5999999046326</ele>
        <time>2022-03-17T08:57:44.000Z</time>
      </trkpt>
      <trkpt lat="47.29565" lon="-2.34906">
        <ele>5.5999999046326</ele>
        <time>2022-03-17T08:57:50.000Z</time>
      </trkpt>
      <trkpt lat="47.29569" lon="-2.349">
        <ele>6</ele>
        <time>2022-03-17T08:57:51.000Z</time>
      </trkpt>
      <trkpt lat="47.29572" lon="-2.34895">
        <ele>6.4000000953674</ele>
        <time>2022-03-17T08:57:52.000Z</time>
      </trkpt>
      <trkpt lat="47.29576" lon="-2.3489">
        <ele>6.8000001907349</ele>
        <time>2022-03-17T08:57:53.000Z</time>
      </trkpt>
      <trkpt lat="47.29579" lon="-2.34885">
        <ele>7.1999998092651</ele>
        <time>2022-03-17T08:57:54.000Z</time>
      </trkpt>
      <trkpt lat="47.29582" lon="-2.34879">
        <ele>7.5999999046326</ele>
        <time>2022-03-17T08:57:55.000Z</time>
      </trkpt>
      <trkpt lat="47.29585" lon="-2.34873">
        <ele>7.5999999046326</ele>
        <time>2022-03-17T08:57:56.000Z</time>
      </trkpt>
      <trkpt lat="47.29606" lon="-2.34841">
        <ele>7.5999999046326</ele>
        <time>2022-03-17T08:58:02.000Z</time>
      </trkpt>
      <trkpt lat="47.2961" lon="-2.34837">
        <ele>7.5999999046326</ele>
        <time>2022-03-17T08:58:03.000Z</time>
      </trkpt>
      <trkpt lat="47.29627" lon="-2.34835">
        <ele>7.5999999046326</ele>
        <time>2022-03-17T08:58:06.000Z</time>
      </trkpt>
      <trkpt lat="47.29638" lon="-2.34844">
        <ele>7.5999999046326</ele>
        <time>2022-03-17T08:58:08.000Z</time>
      </trkpt>
      <trkpt lat="47.29647" lon="-2.34854">
        <ele>7.5999999046326</ele>
        <time>2022-03-17T08:58:10.000Z</time>
      </trkpt>
      <trkpt lat="47.29652" lon="-2.3486">
        <ele>7.5999999046326</ele>
        <time>2022-03-17T08:58:11.000Z</time>
      </trkpt>
      <trkpt lat="47.29669" lon="-2.34881">
        <ele>7.5999999046326</ele>
        <time>2022-03-17T08:58:15.000Z</time>
      </trkpt>
      <trkpt lat="47.29674" lon="-2.34886">
        <ele>7.5999999046326</ele>
        <time>2022-03-17T08:58:16.000Z</time>
      </trkpt>
      <trkpt lat="47.29695" lon="-2.34895">
        <ele>7.5999999046326</ele>
        <time>2022-03-17T08:58:20.000Z</time>
      </trkpt>
      <trkpt lat="47.29711" lon="-2.34886">
        <ele>7.5999999046326</ele>
        <time>2022-03-17T08:58:23.000Z</time>
      </trkpt>
      <trkpt lat="47.29743" lon="-2.34869">
        <ele>7.5999999046326</ele>
        <time>2022-03-17T08:58:29.000Z</time>
      </trkpt>
      <trkpt lat="47.29768" lon="-2.34861">
        <ele>7.5999999046326</ele>
        <time>2022-03-17T08:58:34.000Z</time>
      </trkpt>
      <trkpt lat="47.29804" lon="-2.34849">
        <ele>7.5999999046326</ele>
        <time>2022-03-17T08:58:40.000Z</time>
      </trkpt>
      <trkpt lat="47.29844" lon="-2.3484">
        <ele>7.5999999046326</ele>
        <time>2022-03-17T08:58:47.000Z</time>
      </trkpt>
      <trkpt lat="47.2988" lon="-2.34834">
        <ele>7.5999999046326</ele>
        <time>2022-03-17T08:58:53.000Z</time>
      </trkpt>
      <trkpt lat="47.29907" lon="-2.34828">
        <ele>7.5999999046326</ele>
        <time>2022-03-17T08:58:58.000Z</time>
      </trkpt>
      <trkpt lat="47.29912" lon="-2.34827">
        <ele>7.5999999046326</ele>
        <time>2022-03-17T08:58:59.000Z</time>
      </trkpt>
      <trkpt lat="47.29916" lon="-2.34827">
        <ele>8</ele>
        <time>2022-03-17T08:59:00.000Z</time>
      </trkpt>
      <trkpt lat="47.29922" lon="-2.34826">
        <ele>8.6000003814697</ele>
        <time>2022-03-17T08:59:01.000Z</time>
      </trkpt>
      <trkpt lat="47.29926" lon="-2.34826">
        <ele>9</ele>
        <time>2022-03-17T08:59:02.000Z</time>
      </trkpt>
      <trkpt lat="47.29931" lon="-2.34825">
        <ele>9.3999996185303</ele>
        <time>2022-03-17T08:59:03.000Z</time>
      </trkpt>
      <trkpt lat="47.29936" lon="-2.34824">
        <ele>9.8000001907349</ele>
        <time>2022-03-17T08:59:04.000Z</time>
      </trkpt>
      <trkpt lat="47.2995" lon="-2.34823">
        <ele>9.8000001907349</ele>
        <time>2022-03-17T08:59:07.000Z</time>
      </trkpt>
      <trkpt lat="47.29954" lon="-2.34822">
        <ele>9.8000001907349</ele>
        <time>2022-03-17T08:59:08.000Z</time>
      </trkpt>
      <trkpt lat="47.29967" lon="-2.3482">
        <ele>9.8000001907349</ele>
        <time>2022-03-17T08:59:11.000Z</time>
      </trkpt>
      <trkpt lat="47.29971" lon="-2.34818">
        <ele>9.8000001907349</ele>
        <time>2022-03-17T08:59:12.000Z</time>
      </trkpt>
      <trkpt lat="47.29976" lon="-2.34801">
        <ele>9.8000001907349</ele>
        <time>2022-03-17T08:59:15.000Z</time>
      </trkpt>
      <trkpt lat="47.29974" lon="-2.34778">
        <ele>9.8000001907349</ele>
        <time>2022-03-17T08:59:18.000Z</time>
      </trkpt>
      <trkpt lat="47.29971" lon="-2.34753">
        <ele>9.8000001907349</ele>
        <time>2022-03-17T08:59:21.000Z</time>
      </trkpt>
      <trkpt lat="47.29962" lon="-2.34676">
        <ele>9.8000001907349</ele>
        <time>2022-03-17T08:59:30.000Z</time>
      </trkpt>
      <trkpt lat="47.29955" lon="-2.34609">
        <ele>9.8000001907349</ele>
        <time>2022-03-17T08:59:38.000Z</time>
      </trkpt>
      <trkpt lat="47.29947" lon="-2.34549">
        <ele>9.8000001907349</ele>
        <time>2022-03-17T08:59:46.000Z</time>
      </trkpt>
      <trkpt lat="47.29941" lon="-2.34495">
        <ele>9.8000001907349</ele>
        <time>2022-03-17T08:59:53.000Z</time>
      </trkpt>
      <trkpt lat="47.29936" lon="-2.34446">
        <ele>9.8000001907349</ele>
        <time>2022-03-17T08:59:59.000Z</time>
      </trkpt>
      <trkpt lat="47.29927" lon="-2.34379">
        <ele>9.8000001907349</ele>
        <time>2022-03-17T09:00:07.000Z</time>
      </trkpt>
      <trkpt lat="47.29917" lon="-2.343">
        <ele>9.8000001907349</ele>
        <time>2022-03-17T09:00:17.000Z</time>
      </trkpt>
      <trkpt lat="47.29912" lon="-2.34271">
        <ele>9.8000001907349</ele>
        <time>2022-03-17T09:00:21.000Z</time>
      </trkpt>
      <trkpt lat="47.29913" lon="-2.34257">
        <ele>9.8000001907349</ele>
        <time>2022-03-17T09:00:23.000Z</time>
      </trkpt>
      <trkpt lat="47.29924" lon="-2.3424">
        <ele>9.8000001907349</ele>
        <time>2022-03-17T09:00:26.000Z</time>
      </trkpt>
      <trkpt lat="47.29928" lon="-2.34235">
        <ele>9.8000001907349</ele>
        <time>2022-03-17T09:00:27.000Z</time>
      </trkpt>
      <trkpt lat="47.29957" lon="-2.34198">
        <ele>9.8000001907349</ele>
        <time>2022-03-17T09:00:34.000Z</time>
      </trkpt>
      <trkpt lat="47.29995" lon="-2.34148">
        <ele>9.8000001907349</ele>
        <time>2022-03-17T09:00:43.000Z</time>
      </trkpt>
      <trkpt lat="47.30031" lon="-2.34103">
        <ele>9.8000001907349</ele>
        <time>2022-03-17T09:00:51.000Z</time>
      </trkpt>
      <trkpt lat="47.30066" lon="-2.34057">
        <ele>9.8000001907349</ele>
        <time>2022-03-17T09:00:59.000Z</time>
      </trkpt>
      <trkpt lat="47.30095" lon="-2.34017">
        <ele>9.8000001907349</ele>
        <time>2022-03-17T09:01:05.000Z</time>
      </trkpt>
      <trkpt lat="47.30122" lon="-2.33984">
        <ele>9.8000001907349</ele>
        <time>2022-03-17T09:01:11.000Z</time>
      </trkpt>
      <trkpt lat="47.30132" lon="-2.33965">
        <ele>9.8000001907349</ele>
        <time>2022-03-17T09:01:14.000Z</time>
      </trkpt>
      <trkpt lat="47.30138" lon="-2.33952">
        <ele>9.8000001907349</ele>
        <time>2022-03-17T09:01:16.000Z</time>
      </trkpt>
      <trkpt lat="47.30141" lon="-2.33945">
        <ele>9.8000001907349</ele>
        <time>2022-03-17T09:01:17.000Z</time>
      </trkpt>
      <trkpt lat="47.30143" lon="-2.33938">
        <ele>9.8000001907349</ele>
        <time>2022-03-17T09:01:18.000Z</time>
      </trkpt>
      <trkpt lat="47.3015" lon="-2.33907">
        <ele>9.8000001907349</ele>
        <time>2022-03-17T09:01:22.000Z</time>
      </trkpt>
      <trkpt lat="47.30159" lon="-2.3385">
        <ele>9.8000001907349</ele>
        <time>2022-03-17T09:01:29.000Z</time>
      </trkpt>
      <trkpt lat="47.3017" lon="-2.3381">
        <ele>9.8000001907349</ele>
        <time>2022-03-17T09:01:34.000Z</time>
      </trkpt>
      <trkpt lat="47.30173" lon="-2.33802">
        <ele>9.8000001907349</ele>
        <time>2022-03-17T09:01:35.000Z</time>
      </trkpt>
      <trkpt lat="47.30196" lon="-2.33763">
        <ele>9.8000001907349</ele>
        <time>2022-03-17T09:01:41.000Z</time>
      </trkpt>
      <trkpt lat="47.30233" lon="-2.33702">
        <ele>9.8000001907349</ele>
        <time>2022-03-17T09:01:50.000Z</time>
      </trkpt>
      <trkpt lat="47.3026" lon="-2.33646">
        <ele>9.8000001907349</ele>
        <time>2022-03-17T09:01:58.000Z</time>
      </trkpt>
      <trkpt lat="47.3027" lon="-2.33615">
        <ele>9.8000001907349</ele>
        <time>2022-03-17T09:02:02.000Z</time>
      </trkpt>
      <trkpt lat="47.30275" lon="-2.33594">
        <ele>9.8000001907349</ele>
        <time>2022-03-17T09:02:05.000Z</time>
      </trkpt>
      <trkpt lat="47.30287" lon="-2.33587">
        <ele>9.8000001907349</ele>
        <time>2022-03-17T09:02:08.000Z</time>
      </trkpt>
      <trkpt lat="47.30291" lon="-2.33588">
        <ele>9.8000001907349</ele>
        <time>2022-03-17T09:02:09.000Z</time>
      </trkpt>
      <trkpt lat="47.30296" lon="-2.33588">
        <ele>9.8000001907349</ele>
        <time>2022-03-17T09:02:10.000Z</time>
      </trkpt>
      <trkpt lat="47.30306" lon="-2.33586">
        <ele>9.8000001907349</ele>
        <time>2022-03-17T09:02:12.000Z</time>
      </trkpt>
      <trkpt lat="47.30311" lon="-2.33585">
        <ele>9.8000001907349</ele>
        <time>2022-03-17T09:02:13.000Z</time>
      </trkpt>
      <trkpt lat="47.30336" lon="-2.3358">
        <ele>9.8000001907349</ele>
        <time>2022-03-17T09:02:18.000Z</time>
      </trkpt>
      <trkpt lat="47.30345" lon="-2.33582">
        <ele>9.8000001907349</ele>
        <time>2022-03-17T09:02:20.000Z</time>
      </trkpt>
      <trkpt lat="47.30352" lon="-2.336">
        <ele>9.8000001907349</ele>
        <time>2022-03-17T09:02:23.000Z</time>
      </trkpt>
      <trkpt lat="47.30353" lon="-2.33614">
        <ele>9.8000001907349</ele>
        <time>2022-03-17T09:02:25.000Z</time>
      </trkpt>
      <trkpt lat="47.30355" lon="-2.33635">
        <ele>9.8000001907349</ele>
        <time>2022-03-17T09:02:28.000Z</time>
      </trkpt>
      <trkpt lat="47.30362" lon="-2.33661">
        <ele>9.8000001907349</ele>
        <time>2022-03-17T09:02:32.000Z</time>
      </trkpt>
      <trkpt lat="47.30365" lon="-2.33667">
        <ele>9.8000001907349</ele>
        <time>2022-03-17T09:02:33.000Z</time>
      </trkpt>
      <trkpt lat="47.30379" lon="-2.33682">
        <ele>9.8000001907349</ele>
        <time>2022-03-17T09:02:37.000Z</time>
      </trkpt>
      <trkpt lat="47.30383" lon="-2.33684">
        <ele>9.8000001907349</ele>
        <time>2022-03-17T09:02:38.000Z</time>
      </trkpt>
      <trkpt lat="47.30402" lon="-2.33692">
        <ele>9.8000001907349</ele>
        <time>2022-03-17T09:02:43.000Z</time>
      </trkpt>
      <trkpt lat="47.30414" lon="-2.33694">
        <ele>9.8000001907349</ele>
        <time>2022-03-17T09:02:46.000Z</time>
      </trkpt>
      <trkpt lat="47.30418" lon="-2.33691">
        <ele>9.8000001907349</ele>
        <time>2022-03-17T09:02:47.000Z</time>
      </trkpt>
      <trkpt lat="47.30439" lon="-2.33681">
        <ele>9.8000001907349</ele>
        <time>2022-03-17T09:02:52.000Z</time>
      </trkpt>
      <trkpt lat="47.30449" lon="-2.33674">
        <ele>9.8000001907349</ele>
        <time>2022-03-17T09:02:54.000Z</time>
      </trkpt>
      <trkpt lat="47.30454" lon="-2.33672">
        <ele>9.8000001907349</ele>
        <time>2022-03-17T09:02:55.000Z</time>
      </trkpt>
      <trkpt lat="47.30463" lon="-2.33667">
        <ele>9.8000001907349</ele>
        <time>2022-03-17T09:02:57.000Z</time>
      </trkpt>
      <trkpt lat="47.30489" lon="-2.33654">
        <ele>9.8000001907349</ele>
        <time>2022-03-17T09:03:02.000Z</time>
      </trkpt>
      <trkpt lat="47.30494" lon="-2.33653">
        <ele>9.8000001907349</ele>
        <time>2022-03-17T09:03:03.000Z</time>
      </trkpt>
      <trkpt lat="47.3051" lon="-2.33647">
        <ele>9.8000001907349</ele>
        <time>2022-03-17T09:03:06.000Z</time>
      </trkpt>
      <trkpt lat="47.30515" lon="-2.33646">
        <ele>9.8000001907349</ele>
        <time>2022-03-17T09:03:07.000Z</time>
      </trkpt>
      <trkpt lat="47.3052" lon="-2.33645">
        <ele>9.8000001907349</ele>
        <time>2022-03-17T09:03:08.000Z</time>
      </trkpt>
      <trkpt lat="47.30535" lon="-2.33643">
        <ele>9.8000001907349</ele>
        <time>2022-03-17T09:03:11.000Z</time>
      </trkpt>
      <trkpt lat="47.30544" lon="-2.33644">
        <ele>9.8000001907349</ele>
        <time>2022-03-17T09:03:13.000Z</time>
      </trkpt>
      <trkpt lat="47.30551" lon="-2.33661">
        <ele>9.8000001907349</ele>
        <time>2022-03-17T09:03:16.000Z</time>
      </trkpt>
      <trkpt lat="47.30553" lon="-2.33667">
        <ele>9.8000001907349</ele>
        <time>2022-03-17T09:03:17.000Z</time>
      </trkpt>
      <trkpt lat="47.30562" lon="-2.33705">
        <ele>10.199999809265</ele>
        <time>2022-03-17T09:03:23.000Z</time>
      </trkpt>
      <trkpt lat="47.30563" lon="-2.33712">
        <ele>10.60000038147</ele>
        <time>2022-03-17T09:03:24.000Z</time>
      </trkpt>
      <trkpt lat="47.30565" lon="-2.33718">
        <ele>11</ele>
        <time>2022-03-17T09:03:25.000Z</time>
      </trkpt>
      <trkpt lat="47.30566" lon="-2.33725">
        <ele>11.39999961853</ele>
        <time>2022-03-17T09:03:26.000Z</time>
      </trkpt>
      <trkpt lat="47.30567" lon="-2.33732">
        <ele>11.800000190735</ele>
        <time>2022-03-17T09:03:27.000Z</time>
      </trkpt>
      <trkpt lat="47.30569" lon="-2.33737">
        <ele>11.800000190735</ele>
        <time>2022-03-17T09:03:28.000Z</time>
      </trkpt>
      <trkpt lat="47.30571" lon="-2.33749">
        <ele>11.800000190735</ele>
        <time>2022-03-17T09:03:30.000Z</time>
      </trkpt>
      <trkpt lat="47.30575" lon="-2.33779">
        <ele>11.800000190735</ele>
        <time>2022-03-17T09:03:35.000Z</time>
      </trkpt>
      <trkpt lat="47.30584" lon="-2.3381">
        <ele>11.800000190735</ele>
        <time>2022-03-17T09:03:40.000Z</time>
      </trkpt>
      <trkpt lat="47.30592" lon="-2.33843">
        <ele>11.800000190735</ele>
        <time>2022-03-17T09:03:46.000Z</time>
      </trkpt>
      <trkpt lat="47.30596" lon="-2.33871">
        <ele>11.800000190735</ele>
        <time>2022-03-17T09:03:51.000Z</time>
      </trkpt>
      <trkpt lat="47.30595" lon="-2.33875">
        <ele>11.800000190735</ele>
        <time>2022-03-17T09:03:52.000Z</time>
      </trkpt>
      <trkpt lat="47.30594" lon="-2.33883">
        <ele>11.800000190735</ele>
        <time>2022-03-17T09:03:54.000Z</time>
      </trkpt>
      <trkpt lat="47.30595" lon="-2.33905">
        <ele>11.800000190735</ele>
        <time>2022-03-17T09:03:58.000Z</time>
      </trkpt>
      <trkpt lat="47.30599" lon="-2.33924">
        <ele>11.800000190735</ele>
        <time>2022-03-17T09:04:02.000Z</time>
      </trkpt>
      <trkpt lat="47.30606" lon="-2.33943">
        <ele>11.800000190735</ele>
        <time>2022-03-17T09:04:06.000Z</time>
      </trkpt>
      <trkpt lat="47.30609" lon="-2.33947">
        <ele>11.800000190735</ele>
        <time>2022-03-17T09:04:07.000Z</time>
      </trkpt>
      <trkpt lat="47.30616" lon="-2.33952">
        <ele>11.800000190735</ele>
        <time>2022-03-17T09:04:09.000Z</time>
      </trkpt>
      <trkpt lat="47.30645" lon="-2.33978">
        <ele>11.800000190735</ele>
        <time>2022-03-17T09:04:16.000Z</time>
      </trkpt>
      <trkpt lat="47.30669" lon="-2.33984">
        <ele>11.800000190735</ele>
        <time>2022-03-17T09:04:21.000Z</time>
      </trkpt>
      <trkpt lat="47.30691" lon="-2.33985">
        <ele>11.800000190735</ele>
        <time>2022-03-17T09:04:26.000Z</time>
      </trkpt>
      <trkpt lat="47.30696" lon="-2.33984">
        <ele>11.800000190735</ele>
        <time>2022-03-17T09:04:27.000Z</time>
      </trkpt>
      <trkpt lat="47.30701" lon="-2.33984">
        <ele>11.800000190735</ele>
        <time>2022-03-17T09:04:28.000Z</time>
      </trkpt>
      <trkpt lat="47.30722" lon="-2.33983">
        <ele>11.800000190735</ele>
        <time>2022-03-17T09:04:32.000Z</time>
      </trkpt>
      <trkpt lat="47.30761" lon="-2.33972">
        <ele>11.800000190735</ele>
        <time>2022-03-17T09:04:40.000Z</time>
      </trkpt>
      <trkpt lat="47.30765" lon="-2.33971">
        <ele>12.199999809265</ele>
        <time>2022-03-17T09:04:41.000Z</time>
      </trkpt>
      <trkpt lat="47.3077" lon="-2.3397">
        <ele>12.60000038147</ele>
        <time>2022-03-17T09:04:42.000Z</time>
      </trkpt>
      <trkpt lat="47.30775" lon="-2.33969">
        <ele>13</ele>
        <time>2022-03-17T09:04:43.000Z</time>
      </trkpt>
      <trkpt lat="47.3078" lon="-2.33969">
        <ele>13.39999961853</ele>
        <time>2022-03-17T09:04:44.000Z</time>
      </trkpt>
      <trkpt lat="47.30785" lon="-2.33968">
        <ele>13.800000190735</ele>
        <time>2022-03-17T09:04:45.000Z</time>
      </trkpt>
      <trkpt lat="47.308" lon="-2.33964">
        <ele>13.800000190735</ele>
        <time>2022-03-17T09:04:48.000Z</time>
      </trkpt>
      <trkpt lat="47.30815" lon="-2.33959">
        <ele>13.800000190735</ele>
        <time>2022-03-17T09:04:51.000Z</time>
      </trkpt>
      <trkpt lat="47.30835" lon="-2.33954">
        <ele>13.800000190735</ele>
        <time>2022-03-17T09:04:55.000Z</time>
      </trkpt>
      <trkpt lat="47.30877" lon="-2.33947">
        <ele>13.800000190735</ele>
        <time>2022-03-17T09:05:03.000Z</time>
      </trkpt>
      <trkpt lat="47.30914" lon="-2.33945">
        <ele>13.800000190735</ele>
        <time>2022-03-17T09:05:10.000Z</time>
      </trkpt>
      <trkpt lat="47.3095" lon="-2.33952">
        <ele>13.800000190735</ele>
        <time>2022-03-17T09:05:17.000Z</time>
      </trkpt>
      <trkpt lat="47.30989" lon="-2.33955">
        <ele>13.800000190735</ele>
        <time>2022-03-17T09:05:24.000Z</time>
      </trkpt>
      <trkpt lat="47.31027" lon="-2.3395">
        <ele>13.800000190735</ele>
        <time>2022-03-17T09:05:31.000Z</time>
      </trkpt>
      <trkpt lat="47.31054" lon="-2.33946">
        <ele>13.800000190735</ele>
        <time>2022-03-17T09:05:36.000Z</time>
      </trkpt>
      <trkpt lat="47.31058" lon="-2.33942">
        <ele>13.39999961853</ele>
        <time>2022-03-17T09:05:37.000Z</time>
      </trkpt>
      <trkpt lat="47.31061" lon="-2.33937">
        <ele>13</ele>
        <time>2022-03-17T09:05:38.000Z</time>
      </trkpt>
      <trkpt lat="47.31064" lon="-2.33931">
        <ele>12.60000038147</ele>
        <time>2022-03-17T09:05:39.000Z</time>
      </trkpt>
      <trkpt lat="47.31064" lon="-2.33924">
        <ele>12.199999809265</ele>
        <time>2022-03-17T09:05:40.000Z</time>
      </trkpt>
      <trkpt lat="47.31064" lon="-2.33917">
        <ele>11.800000190735</ele>
        <time>2022-03-17T09:05:41.000Z</time>
      </trkpt>
      <trkpt lat="47.31063" lon="-2.33909">
        <ele>11.800000190735</ele>
        <time>2022-03-17T09:05:42.000Z</time>
      </trkpt>
      <trkpt lat="47.31064" lon="-2.33902">
        <ele>11.800000190735</ele>
        <time>2022-03-17T09:05:43.000Z</time>
      </trkpt>
      <trkpt lat="47.31065" lon="-2.33863">
        <ele>11.800000190735</ele>
        <time>2022-03-17T09:05:48.000Z</time>
      </trkpt>
      <trkpt lat="47.3107" lon="-2.33808">
        <ele>11.800000190735</ele>
        <time>2022-03-17T09:05:55.000Z</time>
      </trkpt>
      <trkpt lat="47.31072" lon="-2.338">
        <ele>11.800000190735</ele>
        <time>2022-03-17T09:05:56.000Z</time>
      </trkpt>
      <trkpt lat="47.3108" lon="-2.33778">
        <ele>11.800000190735</ele>
        <time>2022-03-17T09:05:59.000Z</time>
      </trkpt>
      <trkpt lat="47.31092" lon="-2.33747">
        <ele>11.800000190735</ele>
        <time>2022-03-17T09:06:03.000Z</time>
      </trkpt>
      <trkpt lat="47.31096" lon="-2.33731">
        <ele>11.800000190735</ele>
        <time>2022-03-17T09:06:05.000Z</time>
      </trkpt>
      <trkpt lat="47.31101" lon="-2.33697">
        <ele>11.800000190735</ele>
        <time>2022-03-17T09:06:09.000Z</time>
      </trkpt>
      <trkpt lat="47.31103" lon="-2.33681">
        <ele>11.800000190735</ele>
        <time>2022-03-17T09:06:11.000Z</time>
      </trkpt>
      <trkpt lat="47.31109" lon="-2.33633">
        <ele>11.800000190735</ele>
        <time>2022-03-17T09:06:17.000Z</time>
      </trkpt>
      <trkpt lat="47.31114" lon="-2.33602">
        <ele>11.800000190735</ele>
        <time>2022-03-17T09:06:21.000Z</time>
      </trkpt>
      <trkpt lat="47.31115" lon="-2.33586">
        <ele>11.800000190735</ele>
        <time>2022-03-17T09:06:23.000Z</time>
      </trkpt>
      <trkpt lat="47.31113" lon="-2.33552">
        <ele>11.800000190735</ele>
        <time>2022-03-17T09:06:28.000Z</time>
      </trkpt>
      <trkpt lat="47.3111" lon="-2.33535">
        <ele>11.800000190735</ele>
        <time>2022-03-17T09:06:30.000Z</time>
      </trkpt>
      <trkpt lat="47.31103" lon="-2.33501">
        <ele>11.800000190735</ele>
        <time>2022-03-17T09:06:34.000Z</time>
      </trkpt>
      <trkpt lat="47.31098" lon="-2.33444">
        <ele>11.39999961853</ele>
        <time>2022-03-17T09:06:40.000Z</time>
      </trkpt>
      <trkpt lat="47.31098" lon="-2.33435">
        <ele>11</ele>
        <time>2022-03-17T09:06:41.000Z</time>
      </trkpt>
      <trkpt lat="47.31098" lon="-2.33426">
        <ele>10.60000038147</ele>
        <time>2022-03-17T09:06:42.000Z</time>
      </trkpt>
      <trkpt lat="47.31098" lon="-2.33417">
        <ele>10.199999809265</ele>
        <time>2022-03-17T09:06:43.000Z</time>
      </trkpt>
      <trkpt lat="47.31098" lon="-2.33409">
        <ele>9.8000001907349</ele>
        <time>2022-03-17T09:06:44.000Z</time>
      </trkpt>
      <trkpt lat="47.31098" lon="-2.33382">
        <ele>9.8000001907349</ele>
        <time>2022-03-17T09:06:47.000Z</time>
      </trkpt>
      <trkpt lat="47.31099" lon="-2.33322">
        <ele>9.8000001907349</ele>
        <time>2022-03-17T09:06:54.000Z</time>
      </trkpt>
      <trkpt lat="47.31101" lon="-2.33277">
        <ele>9</ele>
        <time>2022-03-17T09:06:59.000Z</time>
      </trkpt>
      <trkpt lat="47.31101" lon="-2.33268">
        <ele>8.6000003814697</ele>
        <time>2022-03-17T09:07:00.000Z</time>
      </trkpt>
      <trkpt lat="47.31102" lon="-2.33259">
        <ele>8.1999998092651</ele>
        <time>2022-03-17T09:07:01.000Z</time>
      </trkpt>
      <trkpt lat="47.31102" lon="-2.33251">
        <ele>7.8000001907349</ele>
        <time>2022-03-17T09:07:02.000Z</time>
      </trkpt>
      <trkpt lat="47.31105" lon="-2.33226">
        <ele>7.8000001907349</ele>
        <time>2022-03-17T09:07:05.000Z</time>
      </trkpt>
      <trkpt lat="47.31111" lon="-2.33212">
        <ele>7.8000001907349</ele>
        <time>2022-03-17T09:07:07.000Z</time>
      </trkpt>
      <trkpt lat="47.31126" lon="-2.33199">
        <ele>7.8000001907349</ele>
        <time>2022-03-17T09:07:10.000Z</time>
      </trkpt>
      <trkpt lat="47.31153" lon="-2.33183">
        <ele>7.8000001907349</ele>
        <time>2022-03-17T09:07:15.000Z</time>
      </trkpt>
      <trkpt lat="47.31159" lon="-2.33179">
        <ele>7.8000001907349</ele>
        <time>2022-03-17T09:07:16.000Z</time>
      </trkpt>
      <trkpt lat="47.31181" lon="-2.33165">
        <ele>7.4000000953674</ele>
        <time>2022-03-17T09:07:20.000Z</time>
      </trkpt>
      <trkpt lat="47.31187" lon="-2.33162">
        <ele>6.8000001907349</ele>
        <time>2022-03-17T09:07:21.000Z</time>
      </trkpt>
      <trkpt lat="47.31192" lon="-2.33159">
        <ele>6.4000000953674</ele>
        <time>2022-03-17T09:07:22.000Z</time>
      </trkpt>
      <trkpt lat="47.31199" lon="-2.33156">
        <ele>6</ele>
        <time>2022-03-17T09:07:23.000Z</time>
      </trkpt>
      <trkpt lat="47.31204" lon="-2.33154">
        <ele>5.5999999046326</ele>
        <time>2022-03-17T09:07:24.000Z</time>
      </trkpt>
      <trkpt lat="47.31216" lon="-2.3315">
        <ele>5.5999999046326</ele>
        <time>2022-03-17T09:07:26.000Z</time>
      </trkpt>
      <trkpt lat="47.31228" lon="-2.33149">
        <ele>5.5999999046326</ele>
        <time>2022-03-17T09:07:28.000Z</time>
      </trkpt>
      <trkpt lat="47.3124" lon="-2.3315">
        <ele>5.5999999046326</ele>
        <time>2022-03-17T09:07:30.000Z</time>
      </trkpt>
      <trkpt lat="47.31265" lon="-2.33156">
        <ele>5.5999999046326</ele>
        <time>2022-03-17T09:07:34.000Z</time>
      </trkpt>
      <trkpt lat="47.31271" lon="-2.33159">
        <ele>5.5999999046326</ele>
        <time>2022-03-17T09:07:35.000Z</time>
      </trkpt>
      <trkpt lat="47.31288" lon="-2.33168">
        <ele>5.5999999046326</ele>
        <time>2022-03-17T09:07:38.000Z</time>
      </trkpt>
      <trkpt lat="47.31314" lon="-2.33187">
        <ele>5.5999999046326</ele>
        <time>2022-03-17T09:07:43.000Z</time>
      </trkpt>
      <trkpt lat="47.31318" lon="-2.33191">
        <ele>5.5999999046326</ele>
        <time>2022-03-17T09:07:44.000Z</time>
      </trkpt>
      <trkpt lat="47.31341" lon="-2.33213">
        <ele>5.5999999046326</ele>
        <time>2022-03-17T09:07:49.000Z</time>
      </trkpt>
      <trkpt lat="47.31381" lon="-2.33243">
        <ele>5.5999999046326</ele>
        <time>2022-03-17T09:07:57.000Z</time>
      </trkpt>
      <trkpt lat="47.31411" lon="-2.33265">
        <ele>5.5999999046326</ele>
        <time>2022-03-17T09:08:03.000Z</time>
      </trkpt>
      <trkpt lat="47.31438" lon="-2.33291">
        <ele>5.5999999046326</ele>
        <time>2022-03-17T09:08:09.000Z</time>
      </trkpt>
      <trkpt lat="47.31446" lon="-2.33301">
        <ele>5.5999999046326</ele>
        <time>2022-03-17T09:08:11.000Z</time>
      </trkpt>
      <trkpt lat="47.31453" lon="-2.33312">
        <ele>5.5999999046326</ele>
        <time>2022-03-17T09:08:13.000Z</time>
      </trkpt>
      <trkpt lat="47.31459" lon="-2.33324">
        <ele>5.5999999046326</ele>
        <time>2022-03-17T09:08:15.000Z</time>
      </trkpt>
      <trkpt lat="47.31471" lon="-2.33348">
        <ele>5.5999999046326</ele>
        <time>2022-03-17T09:08:20.000Z</time>
      </trkpt>
      <trkpt lat="47.31478" lon="-2.33362">
        <ele>5.5999999046326</ele>
        <time>2022-03-17T09:08:23.000Z</time>
      </trkpt>
      <trkpt lat="47.31486" lon="-2.33369">
        <ele>5.5999999046326</ele>
        <time>2022-03-17T09:08:25.000Z</time>
      </trkpt>
      <trkpt lat="47.31495" lon="-2.33366">
        <ele>6.1999998092651</ele>
        <time>2022-03-17T09:08:27.000Z</time>
      </trkpt>
      <trkpt lat="47.315" lon="-2.33364">
        <ele>6.5999999046326</ele>
        <time>2022-03-17T09:08:28.000Z</time>
      </trkpt>
      <trkpt lat="47.31504" lon="-2.33362">
        <ele>7</ele>
        <time>2022-03-17T09:08:29.000Z</time>
      </trkpt>
      <trkpt lat="47.31509" lon="-2.33359">
        <ele>7.4000000953674</ele>
        <time>2022-03-17T09:08:30.000Z</time>
      </trkpt>
      <trkpt lat="47.31513" lon="-2.33356">
        <ele>7.8000001907349</ele>
        <time>2022-03-17T09:08:31.000Z</time>
      </trkpt>
      <trkpt lat="47.31523" lon="-2.33351">
        <ele>7.8000001907349</ele>
        <time>2022-03-17T09:08:33.000Z</time>
      </trkpt>
      <trkpt lat="47.31565" lon="-2.33332">
        <ele>7.8000001907349</ele>
        <time>2022-03-17T09:08:41.000Z</time>
      </trkpt>
      <trkpt lat="47.31589" lon="-2.3332">
        <ele>7.8000001907349</ele>
        <time>2022-03-17T09:08:46.000Z</time>
      </trkpt>
      <trkpt lat="47.31599" lon="-2.33315">
        <ele>7.8000001907349</ele>
        <time>2022-03-17T09:08:48.000Z</time>
      </trkpt>
      <trkpt lat="47.31612" lon="-2.33306">
        <ele>7.8000001907349</ele>
        <time>2022-03-17T09:08:51.000Z</time>
      </trkpt>
      <trkpt lat="47.3163" lon="-2.33296">
        <ele>7.8000001907349</ele>
        <time>2022-03-17T09:08:55.000Z</time>
      </trkpt>
      <trkpt lat="47.3166" lon="-2.33279">
        <ele>7.8000001907349</ele>
        <time>2022-03-17T09:09:01.000Z</time>
      </trkpt>
      <trkpt lat="47.317" lon="-2.3326">
        <ele>7.8000001907349</ele>
        <time>2022-03-17T09:09:08.000Z</time>
      </trkpt>
      <trkpt lat="47.31705" lon="-2.33258">
        <ele>7.4000000953674</ele>
        <time>2022-03-17T09:09:09.000Z</time>
      </trkpt>
      <trkpt lat="47.31712" lon="-2.33255">
        <ele>7</ele>
        <time>2022-03-17T09:09:10.000Z</time>
      </trkpt>
      <trkpt lat="47.31718" lon="-2.33253">
        <ele>6.4000000953674</ele>
        <time>2022-03-17T09:09:11.000Z</time>
      </trkpt>
      <trkpt lat="47.31723" lon="-2.3325">
        <ele>6</ele>
        <time>2022-03-17T09:09:12.000Z</time>
      </trkpt>
      <trkpt lat="47.31728" lon="-2.33247">
        <ele>5.5999999046326</ele>
        <time>2022-03-17T09:09:13.000Z</time>
      </trkpt>
      <trkpt lat="47.31738" lon="-2.33245">
        <ele>5.5999999046326</ele>
        <time>2022-03-17T09:09:15.000Z</time>
      </trkpt>
      <trkpt lat="47.31741" lon="-2.33248">
        <ele>5.1999998092651</ele>
        <time>2022-03-17T09:09:16.000Z</time>
      </trkpt>
      <trkpt lat="47.31742" lon="-2.33252">
        <ele>4.8000001907349</ele>
        <time>2022-03-17T09:09:17.000Z</time>
      </trkpt>
      <trkpt lat="47.31743" lon="-2.3326">
        <ele>4.4000000953674</ele>
        <time>2022-03-17T09:09:18.000Z</time>
      </trkpt>
      <trkpt lat="47.31743" lon="-2.33267">
        <ele>3.7999999523163</ele>
        <time>2022-03-17T09:09:19.000Z</time>
      </trkpt>
      <trkpt lat="47.31745" lon="-2.33274">
        <ele>3.4000000953674</ele>
        <time>2022-03-17T09:09:20.000Z</time>
      </trkpt>
      <trkpt lat="47.31752" lon="-2.33302">
        <ele>3.4000000953674</ele>
        <time>2022-03-17T09:09:24.000Z</time>
      </trkpt>
      <trkpt lat="47.31758" lon="-2.33315">
        <ele>3.4000000953674</ele>
        <time>2022-03-17T09:09:26.000Z</time>
      </trkpt>
      <trkpt lat="47.31768" lon="-2.33326">
        <ele>3.4000000953674</ele>
        <time>2022-03-17T09:09:28.000Z</time>
      </trkpt>
      <trkpt lat="47.31773" lon="-2.33329">
        <ele>3</ele>
        <time>2022-03-17T09:09:29.000Z</time>
      </trkpt>
      <trkpt lat="47.31777" lon="-2.3333">
        <ele>2.5999999046326</ele>
        <time>2022-03-17T09:09:30.000Z</time>
      </trkpt>
      <trkpt lat="47.3178" lon="-2.33327">
        <ele>2.2000000476837</ele>
        <time>2022-03-17T09:09:31.000Z</time>
      </trkpt>
      <trkpt lat="47.31784" lon="-2.33325">
        <ele>1.7999999523163</ele>
        <time>2022-03-17T09:09:32.000Z</time>
      </trkpt>
      <trkpt lat="47.31788" lon="-2.33322">
        <ele>1.2000000476837</ele>
        <time>2022-03-17T09:09:33.000Z</time>
      </trkpt>
      <trkpt lat="47.31797" lon="-2.33313">
        <ele>0.80000001192093</ele>
        <time>2022-03-17T09:09:35.000Z</time>
      </trkpt>
      <trkpt lat="47.31801" lon="-2.33309">
        <ele>0.20000000298023</ele>
        <time>2022-03-17T09:09:36.000Z</time>
      </trkpt>
      <trkpt lat="47.31806" lon="-2.33304">
        <ele>-0.20000000298023</ele>
        <time>2022-03-17T09:09:37.000Z</time>
      </trkpt>
      <trkpt lat="47.31811" lon="-2.33299">
        <ele>-0.60000002384186</ele>
        <time>2022-03-17T09:09:38.000Z</time>
      </trkpt>
      <trkpt lat="47.31816" lon="-2.33295">
        <ele>-1.2000000476837</ele>
        <time>2022-03-17T09:09:39.000Z</time>
      </trkpt>
      <trkpt lat="47.31827" lon="-2.33287">
        <ele>-1.6000000238419</ele>
        <time>2022-03-17T09:09:41.000Z</time>
      </trkpt>
      <trkpt lat="47.31832" lon="-2.33282">
        <ele>-2.2000000476837</ele>
        <time>2022-03-17T09:09:42.000Z</time>
      </trkpt>
      <trkpt lat="47.31837" lon="-2.33277">
        <ele>-2.5999999046326</ele>
        <time>2022-03-17T09:09:43.000Z</time>
      </trkpt>
      <trkpt lat="47.31841" lon="-2.33271">
        <ele>-3</ele>
        <time>2022-03-17T09:09:44.000Z</time>
      </trkpt>
      <trkpt lat="47.31845" lon="-2.33264">
        <ele>-3.5999999046326</ele>
        <time>2022-03-17T09:09:45.000Z</time>
      </trkpt>
      <trkpt lat="47.31849" lon="-2.33257">
        <ele>-3.5999999046326</ele>
        <time>2022-03-17T09:09:46.000Z</time>
      </trkpt>
      <trkpt lat="47.31857" lon="-2.33232">
        <ele>-3.5999999046326</ele>
        <time>2022-03-17T09:09:49.000Z</time>
      </trkpt>
      <trkpt lat="47.31859" lon="-2.33214">
        <ele>-4</ele>
        <time>2022-03-17T09:09:51.000Z</time>
      </trkpt>
      <trkpt lat="47.3186" lon="-2.33205">
        <ele>-4.4000000953674</ele>
        <time>2022-03-17T09:09:52.000Z</time>
      </trkpt>
      <trkpt lat="47.31861" lon="-2.33197">
        <ele>-5.1999998092651</ele>
        <time>2022-03-17T09:09:53.000Z</time>
      </trkpt>
      <trkpt lat="47.31862" lon="-2.33187">
        <ele>-5.5999999046326</ele>
        <time>2022-03-17T09:09:54.000Z</time>
      </trkpt>
      <trkpt lat="47.31867" lon="-2.33129">
        <ele>-6.1999998092651</ele>
        <time>2022-03-17T09:10:00.000Z</time>
      </trkpt>
      <trkpt lat="47.31868" lon="-2.33119">
        <ele>-6.5999999046326</ele>
        <time>2022-03-17T09:10:01.000Z</time>
      </trkpt>
      <trkpt lat="47.31869" lon="-2.33108">
        <ele>-7</ele>
        <time>2022-03-17T09:10:02.000Z</time>
      </trkpt>
      <trkpt lat="47.3187" lon="-2.33096">
        <ele>-7.5999999046326</ele>
        <time>2022-03-17T09:10:03.000Z</time>
      </trkpt>
      <trkpt lat="47.3187" lon="-2.33084">
        <ele>-8</ele>
        <time>2022-03-17T09:10:04.000Z</time>
      </trkpt>
      <trkpt lat="47.31874" lon="-2.33048">
        <ele>-8</ele>
        <time>2022-03-17T09:10:07.000Z</time>
      </trkpt>
      <trkpt lat="47.31874" lon="-2.33014">
        <ele>-8.3999996185303</ele>
        <time>2022-03-17T09:10:10.000Z</time>
      </trkpt>
      <trkpt lat="47.31874" lon="-2.33002">
        <ele>-8.8000001907349</ele>
        <time>2022-03-17T09:10:11.000Z</time>
      </trkpt>
      <trkpt lat="47.31874" lon="-2.32992">
        <ele>-9.1999998092651</ele>
        <time>2022-03-17T09:10:12.000Z</time>
      </trkpt>
      <trkpt lat="47.31875" lon="-2.32983">
        <ele>-9.6000003814697</ele>
        <time>2022-03-17T09:10:13.000Z</time>
      </trkpt>
      <trkpt lat="47.31876" lon="-2.32973">
        <ele>-10</ele>
        <time>2022-03-17T09:10:14.000Z</time>
      </trkpt>
      <trkpt lat="47.31881" lon="-2.3294">
        <ele>-10</ele>
        <time>2022-03-17T09:10:18.000Z</time>
      </trkpt>
      <trkpt lat="47.31882" lon="-2.32933">
        <ele>-10</ele>
        <time>2022-03-17T09:10:19.000Z</time>
      </trkpt>
      <trkpt lat="47.31882" lon="-2.32925">
        <ele>-10</ele>
        <time>2022-03-17T09:10:20.000Z</time>
      </trkpt>
      <trkpt lat="47.31881" lon="-2.32891">
        <ele>-10</ele>
        <time>2022-03-17T09:10:24.000Z</time>
      </trkpt>
      <trkpt lat="47.31883" lon="-2.32841">
        <ele>-10</ele>
        <time>2022-03-17T09:10:30.000Z</time>
      </trkpt>
      <trkpt lat="47.31882" lon="-2.32833">
        <ele>-10</ele>
        <time>2022-03-17T09:10:31.000Z</time>
      </trkpt>
      <trkpt lat="47.3188" lon="-2.32808">
        <ele>-10</ele>
        <time>2022-03-17T09:10:34.000Z</time>
      </trkpt>
      <trkpt lat="47.31879" lon="-2.32774">
        <ele>-10</ele>
        <time>2022-03-17T09:10:39.000Z</time>
      </trkpt>
      <trkpt lat="47.31878" lon="-2.32768">
        <ele>-10</ele>
        <time>2022-03-17T09:10:40.000Z</time>
      </trkpt>
      <trkpt lat="47.3187" lon="-2.32744">
        <ele>-10</ele>
        <time>2022-03-17T09:10:45.000Z</time>
      </trkpt>
      <trkpt lat="47.31868" lon="-2.3274">
        <ele>-10</ele>
        <time>2022-03-17T09:10:46.000Z</time>
      </trkpt>
      <trkpt lat="47.31867" lon="-2.32735">
        <ele>-9.6000003814697</ele>
        <time>2022-03-17T09:10:47.000Z</time>
      </trkpt>
      <trkpt lat="47.31865" lon="-2.3273">
        <ele>-9.1999998092651</ele>
        <time>2022-03-17T09:10:48.000Z</time>
      </trkpt>
      <trkpt lat="47.31862" lon="-2.32725">
        <ele>-8.8000001907349</ele>
        <time>2022-03-17T09:10:49.000Z</time>
      </trkpt>
      <trkpt lat="47.3186" lon="-2.3272">
        <ele>-8.3999996185303</ele>
        <time>2022-03-17T09:10:50.000Z</time>
      </trkpt>
      <trkpt lat="47.31859" lon="-2.32715">
        <ele>-8</ele>
        <time>2022-03-17T09:10:51.000Z</time>
      </trkpt>
      <trkpt lat="47.31857" lon="-2.32709">
        <ele>-8</ele>
        <time>2022-03-17T09:10:52.000Z</time>
      </trkpt>
      <trkpt lat="47.31845" lon="-2.3268">
        <ele>-8</ele>
        <time>2022-03-17T09:10:58.000Z</time>
      </trkpt>
      <trkpt lat="47.31838" lon="-2.32647">
        <ele>-8</ele>
        <time>2022-03-17T09:11:04.000Z</time>
      </trkpt>
      <trkpt lat="47.31834" lon="-2.3263">
        <ele>-7.5999999046326</ele>
        <time>2022-03-17T09:11:07.000Z</time>
      </trkpt>
      <trkpt lat="47.31831" lon="-2.32623">
        <ele>-7.1999998092651</ele>
        <time>2022-03-17T09:11:08.000Z</time>
      </trkpt>
      <trkpt lat="47.3183" lon="-2.32617">
        <ele>-6.5999999046326</ele>
        <time>2022-03-17T09:11:09.000Z</time>
      </trkpt>
      <trkpt lat="47.31828" lon="-2.32612">
        <ele>-6.1999998092651</ele>
        <time>2022-03-17T09:11:10.000Z</time>
      </trkpt>
      <trkpt lat="47.31827" lon="-2.32606">
        <ele>-5.8000001907349</ele>
        <time>2022-03-17T09:11:11.000Z</time>
      </trkpt>
      <trkpt lat="47.31821" lon="-2.32577">
        <ele>-5.8000001907349</ele>
        <time>2022-03-17T09:11:17.000Z</time>
      </trkpt>
      <trkpt lat="47.31815" lon="-2.32554">
        <ele>-5.8000001907349</ele>
        <time>2022-03-17T09:11:23.000Z</time>
      </trkpt>
      <trkpt lat="47.31813" lon="-2.32546">
        <ele>-5.4000000953674</ele>
        <time>2022-03-17T09:11:25.000Z</time>
      </trkpt>
      <trkpt lat="47.31813" lon="-2.32542">
        <ele>-5</ele>
        <time>2022-03-17T09:11:26.000Z</time>
      </trkpt>
      <trkpt lat="47.31812" lon="-2.32538">
        <ele>-4.5999999046326</ele>
        <time>2022-03-17T09:11:27.000Z</time>
      </trkpt>
      <trkpt lat="47.31812" lon="-2.32533">
        <ele>-4.1999998092651</ele>
        <time>2022-03-17T09:11:28.000Z</time>
      </trkpt>
      <trkpt lat="47.31811" lon="-2.32528">
        <ele>-3.7999999523163</ele>
        <time>2022-03-17T09:11:29.000Z</time>
      </trkpt>
      <trkpt lat="47.31804" lon="-2.32503">
        <ele>-3.7999999523163</ele>
        <time>2022-03-17T09:11:35.000Z</time>
      </trkpt>
      <trkpt lat="47.31799" lon="-2.32491">
        <ele>-3.2000000476837</ele>
        <time>2022-03-17T09:11:39.000Z</time>
      </trkpt>
      <trkpt lat="47.31798" lon="-2.32489">
        <ele>-2.7999999523163</ele>
        <time>2022-03-17T09:11:40.000Z</time>
      </trkpt>
      <trkpt lat="47.31797" lon="-2.32487">
        <ele>-2.4000000953674</ele>
        <time>2022-03-17T09:11:41.000Z</time>
      </trkpt>
      <trkpt lat="47.31796" lon="-2.32483">
        <ele>-2</ele>
        <time>2022-03-17T09:11:42.000Z</time>
      </trkpt>
      <trkpt lat="47.31795" lon="-2.3248">
        <ele>-1.3999999761581</ele>
        <time>2022-03-17T09:11:43.000Z</time>
      </trkpt>
      <trkpt lat="47.31794" lon="-2.32464">
        <ele>-1</ele>
        <time>2022-03-17T09:11:46.000Z</time>
      </trkpt>
      <trkpt lat="47.31793" lon="-2.32459">
        <ele>-0.60000002384186</ele>
        <time>2022-03-17T09:11:47.000Z</time>
      </trkpt>
      <trkpt lat="47.31793" lon="-2.32453">
        <ele>-0.20000000298023</ele>
        <time>2022-03-17T09:11:48.000Z</time>
      </trkpt>
      <trkpt lat="47.31792" lon="-2.32445">
        <ele>0.20000000298023</ele>
        <time>2022-03-17T09:11:49.000Z</time>
      </trkpt>
      <trkpt lat="47.31791" lon="-2.32439">
        <ele>0.60000002384186</ele>
        <time>2022-03-17T09:11:50.000Z</time>
      </trkpt>
      <trkpt lat="47.31789" lon="-2.32425">
        <ele>0.60000002384186</ele>
        <time>2022-03-17T09:11:52.000Z</time>
      </trkpt>
      <trkpt lat="47.31782" lon="-2.32384">
        <ele>1</ele>
        <time>2022-03-17T09:11:58.000Z</time>
      </trkpt>
      <trkpt lat="47.31781" lon="-2.32378">
        <ele>1.3999999761581</ele>
        <time>2022-03-17T09:11:59.000Z</time>
      </trkpt>
      <trkpt lat="47.3178" lon="-2.32372">
        <ele>1.7999999523163</ele>
        <time>2022-03-17T09:12:00.000Z</time>
      </trkpt>
      <trkpt lat="47.31778" lon="-2.32365">
        <ele>2.4000000953674</ele>
        <time>2022-03-17T09:12:01.000Z</time>
      </trkpt>
      <trkpt lat="47.31777" lon="-2.32358">
        <ele>2.7999999523163</ele>
        <time>2022-03-17T09:12:02.000Z</time>
      </trkpt>
      <trkpt lat="47.31772" lon="-2.32338">
        <ele>2.7999999523163</ele>
        <time>2022-03-17T09:12:05.000Z</time>
      </trkpt>
      <trkpt lat="47.31762" lon="-2.32282">
        <ele>2.7999999523163</ele>
        <time>2022-03-17T09:12:13.000Z</time>
      </trkpt>
      <trkpt lat="47.31755" lon="-2.32257">
        <ele>2.7999999523163</ele>
        <time>2022-03-17T09:12:18.000Z</time>
      </trkpt>
      <trkpt lat="47.31754" lon="-2.32239">
        <ele>2.7999999523163</ele>
        <time>2022-03-17T09:12:23.000Z</time>
      </trkpt>
      <trkpt lat="47.31754" lon="-2.32238">
        <ele>2.7999999523163</ele>
        <time>2022-03-17T09:12:25.000Z</time>
      </trkpt>
      <trkpt lat="47.31757" lon="-2.32235">
        <ele>2.7999999523163</ele>
        <time>2022-03-17T09:12:36.000Z</time>
      </trkpt>
      <trkpt lat="47.31759" lon="-2.32235">
        <ele>2.7999999523163</ele>
        <time>2022-03-17T09:12:37.000Z</time>
      </trkpt>
      <trkpt lat="47.31775" lon="-2.32232">
        <ele>2.7999999523163</ele>
        <time>2022-03-17T09:12:43.000Z</time>
      </trkpt>
      <trkpt lat="47.31796" lon="-2.32227">
        <ele>2.7999999523163</ele>
        <time>2022-03-17T09:12:49.000Z</time>
      </trkpt>
      <trkpt lat="47.31825" lon="-2.32222">
        <ele>2.7999999523163</ele>
        <time>2022-03-17T09:12:55.000Z</time>
      </trkpt>
      <trkpt lat="47.31855" lon="-2.32213">
        <ele>2.2000000476837</ele>
        <time>2022-03-17T09:13:00.000Z</time>
      </trkpt>
      <trkpt lat="47.31862" lon="-2.32211">
        <ele>1.7999999523163</ele>
        <time>2022-03-17T09:13:01.000Z</time>
      </trkpt>
      <trkpt lat="47.31869" lon="-2.32209">
        <ele>1.2000000476837</ele>
        <time>2022-03-17T09:13:02.000Z</time>
      </trkpt>
      <trkpt lat="47.31877" lon="-2.32207">
        <ele>0.80000001192093</ele>
        <time>2022-03-17T09:13:03.000Z</time>
      </trkpt>
      <trkpt lat="47.31885" lon="-2.32205">
        <ele>0.40000000596046</ele>
        <time>2022-03-17T09:13:04.000Z</time>
      </trkpt>
      <trkpt lat="47.31893" lon="-2.32204">
        <ele>0.40000000596046</ele>
        <time>2022-03-17T09:13:05.000Z</time>
      </trkpt>
      <trkpt lat="47.31901" lon="-2.32204">
        <ele>-0.20000000298023</ele>
        <time>2022-03-17T09:13:06.000Z</time>
      </trkpt>
      <trkpt lat="47.31909" lon="-2.32204">
        <ele>-0.60000002384186</ele>
        <time>2022-03-17T09:13:07.000Z</time>
      </trkpt>
      <trkpt lat="47.31917" lon="-2.32205">
        <ele>-1.2000000476837</ele>
        <time>2022-03-17T09:13:08.000Z</time>
      </trkpt>
      <trkpt lat="47.31925" lon="-2.32206">
        <ele>-2.2000000476837</ele>
        <time>2022-03-17T09:13:09.000Z</time>
      </trkpt>
      <trkpt lat="47.31933" lon="-2.32208">
        <ele>-2.7999999523163</ele>
        <time>2022-03-17T09:13:10.000Z</time>
      </trkpt>
      <trkpt lat="47.3194" lon="-2.3221">
        <ele>-3.4000000953674</ele>
        <time>2022-03-17T09:13:11.000Z</time>
      </trkpt>
      <trkpt lat="47.31947" lon="-2.32212">
        <ele>-4</ele>
        <time>2022-03-17T09:13:12.000Z</time>
      </trkpt>
      <trkpt lat="47.31952" lon="-2.32214">
        <ele>-4.5999999046326</ele>
        <time>2022-03-17T09:13:13.000Z</time>
      </trkpt>
      <trkpt lat="47.31956" lon="-2.32218">
        <ele>-5.1999998092651</ele>
        <time>2022-03-17T09:13:14.000Z</time>
      </trkpt>
      <trkpt lat="47.31957" lon="-2.32223">
        <ele>-5.8000001907349</ele>
        <time>2022-03-17T09:13:15.000Z</time>
      </trkpt>
      <trkpt lat="47.31956" lon="-2.32229">
        <ele>-6.5999999046326</ele>
        <time>2022-03-17T09:13:16.000Z</time>
      </trkpt>
      <trkpt lat="47.31954" lon="-2.32234">
        <ele>-7.1999998092651</ele>
        <time>2022-03-17T09:13:17.000Z</time>
      </trkpt>
      <trkpt lat="47.31952" lon="-2.32239">
        <ele>-7.1999998092651</ele>
        <time>2022-03-17T09:13:18.000Z</time>
      </trkpt>
      <trkpt lat="47.3195" lon="-2.32264">
        <ele>-7.5999999046326</ele>
        <time>2022-03-17T09:13:23.000Z</time>
      </trkpt>
      <trkpt lat="47.31954" lon="-2.32264">
        <ele>-8</ele>
        <time>2022-03-17T09:13:24.000Z</time>
      </trkpt>
      <trkpt lat="47.31959" lon="-2.3226">
        <ele>-8.3999996185303</ele>
        <time>2022-03-17T09:13:25.000Z</time>
      </trkpt>
      <trkpt lat="47.31962" lon="-2.32254">
        <ele>-8.8000001907349</ele>
        <time>2022-03-17T09:13:26.000Z</time>
      </trkpt>
      <trkpt lat="47.31966" lon="-2.32248">
        <ele>-9.1999998092651</ele>
        <time>2022-03-17T09:13:27.000Z</time>
      </trkpt>
      <trkpt lat="47.3197" lon="-2.32241">
        <ele>-9.1999998092651</ele>
        <time>2022-03-17T09:13:28.000Z</time>
      </trkpt>
      <trkpt lat="47.31974" lon="-2.32234">
        <ele>-9.8000001907349</ele>
        <time>2022-03-17T09:13:29.000Z</time>
      </trkpt>
      <trkpt lat="47.3198" lon="-2.32228">
        <ele>-10.199999809265</ele>
        <time>2022-03-17T09:13:30.000Z</time>
      </trkpt>
      <trkpt lat="47.31987" lon="-2.32221">
        <ele>-10.60000038147</ele>
        <time>2022-03-17T09:13:31.000Z</time>
      </trkpt>
      <trkpt lat="47.31994" lon="-2.32214">
        <ele>-11</ele>
        <time>2022-03-17T09:13:32.000Z</time>
      </trkpt>
      <trkpt lat="47.32001" lon="-2.32207">
        <ele>-11.39999961853</ele>
        <time>2022-03-17T09:13:33.000Z</time>
      </trkpt>
      <trkpt lat="47.32008" lon="-2.322">
        <ele>-12.199999809265</ele>
        <time>2022-03-17T09:13:34.000Z</time>
      </trkpt>
      <trkpt lat="47.32014" lon="-2.32194">
        <ele>-12.60000038147</ele>
        <time>2022-03-17T09:13:35.000Z</time>
      </trkpt>
      <trkpt lat="47.32035" lon="-2.32183">
        <ele>-13.60000038147</ele>
        <time>2022-03-17T09:13:38.000Z</time>
      </trkpt>
      <trkpt lat="47.32043" lon="-2.32183">
        <ele>-13.60000038147</ele>
        <time>2022-03-17T09:13:39.000Z</time>
      </trkpt>
      <trkpt lat="47.32078" lon="-2.3218">
        <ele>-14</ele>
        <time>2022-03-17T09:13:44.000Z</time>
      </trkpt>
      <trkpt lat="47.32085" lon="-2.3218">
        <ele>-14.39999961853</ele>
        <time>2022-03-17T09:13:45.000Z</time>
      </trkpt>
      <trkpt lat="47.32092" lon="-2.32179">
        <ele>-14.800000190735</ele>
        <time>2022-03-17T09:13:46.000Z</time>
      </trkpt>
      <trkpt lat="47.32099" lon="-2.32179">
        <ele>-15.199999809265</ele>
        <time>2022-03-17T09:13:47.000Z</time>
      </trkpt>
      <trkpt lat="47.32106" lon="-2.32179">
        <ele>-15.60000038147</ele>
        <time>2022-03-17T09:13:48.000Z</time>
      </trkpt>
      <trkpt lat="47.32121" lon="-2.32176">
        <ele>-15.60000038147</ele>
        <time>2022-03-17T09:13:50.000Z</time>
      </trkpt>
      <trkpt lat="47.32141" lon="-2.32167">
        <ele>-15.60000038147</ele>
        <time>2022-03-17T09:13:53.000Z</time>
      </trkpt>
      <trkpt lat="47.32153" lon="-2.32157">
        <ele>-16.200000762939</ele>
        <time>2022-03-17T09:13:55.000Z</time>
      </trkpt>
      <trkpt lat="47.32159" lon="-2.32151">
        <ele>-16.60000038147</ele>
        <time>2022-03-17T09:13:56.000Z</time>
      </trkpt>
      <trkpt lat="47.32164" lon="-2.32146">
        <ele>-17</ele>
        <time>2022-03-17T09:13:57.000Z</time>
      </trkpt>
      <trkpt lat="47.32169" lon="-2.32141">
        <ele>-17.39999961853</ele>
        <time>2022-03-17T09:13:58.000Z</time>
      </trkpt>
      <trkpt lat="47.32173" lon="-2.32137">
        <ele>-18</ele>
        <time>2022-03-17T09:13:59.000Z</time>
      </trkpt>
      <trkpt lat="47.32187" lon="-2.32126">
        <ele>-18</ele>
        <time>2022-03-17T09:14:02.000Z</time>
      </trkpt>
      <trkpt lat="47.32189" lon="-2.32124">
        <ele>-18</ele>
        <time>2022-03-17T09:14:03.000Z</time>
      </trkpt>
      <trkpt lat="47.322" lon="-2.32114">
        <ele>-18</ele>
        <time>2022-03-17T09:14:08.000Z</time>
      </trkpt>
      <trkpt lat="47.32212" lon="-2.32113">
        <ele>-18</ele>
        <time>2022-03-17T09:14:11.000Z</time>
      </trkpt>
      <trkpt lat="47.32216" lon="-2.32112">
        <ele>-18</ele>
        <time>2022-03-17T09:14:12.000Z</time>
      </trkpt>
      <trkpt lat="47.32236" lon="-2.32108">
        <ele>-18</ele>
        <time>2022-03-17T09:14:16.000Z</time>
      </trkpt>
      <trkpt lat="47.32241" lon="-2.32107">
        <ele>-18</ele>
        <time>2022-03-17T09:14:17.000Z</time>
      </trkpt>
      <trkpt lat="47.32275" lon="-2.32101">
        <ele>-18</ele>
        <time>2022-03-17T09:14:24.000Z</time>
      </trkpt>
      <trkpt lat="47.3228" lon="-2.32101">
        <ele>-17.39999961853</ele>
        <time>2022-03-17T09:14:25.000Z</time>
      </trkpt>
      <trkpt lat="47.32285" lon="-2.32101">
        <ele>-17</ele>
        <time>2022-03-17T09:14:26.000Z</time>
      </trkpt>
      <trkpt lat="47.3229" lon="-2.321">
        <ele>-16.60000038147</ele>
        <time>2022-03-17T09:14:27.000Z</time>
      </trkpt>
      <trkpt lat="47.32294" lon="-2.32099">
        <ele>-16.200000762939</ele>
        <time>2022-03-17T09:14:28.000Z</time>
      </trkpt>
      <trkpt lat="47.32299" lon="-2.32098">
        <ele>-15.800000190735</ele>
        <time>2022-03-17T09:14:29.000Z</time>
      </trkpt>
      <trkpt lat="47.32303" lon="-2.32098">
        <ele>-15.800000190735</ele>
        <time>2022-03-17T09:14:30.000Z</time>
      </trkpt>
      <trkpt lat="47.32333" lon="-2.32102">
        <ele>-15.800000190735</ele>
        <time>2022-03-17T09:14:37.000Z</time>
      </trkpt>
      <trkpt lat="47.32341" lon="-2.32103">
        <ele>-15.800000190735</ele>
        <time>2022-03-17T09:14:41.000Z</time>
      </trkpt>
      <trkpt lat="47.3235" lon="-2.32101">
        <ele>-15.800000190735</ele>
        <time>2022-03-17T09:14:46.000Z</time>
      </trkpt>
      <trkpt lat="47.32366" lon="-2.32105">
        <ele>-15.800000190735</ele>
        <time>2022-03-17T09:14:50.000Z</time>
      </trkpt>
      <trkpt lat="47.32405" lon="-2.32104">
        <ele>-15.800000190735</ele>
        <time>2022-03-17T09:14:58.000Z</time>
      </trkpt>
      <trkpt lat="47.32441" lon="-2.321">
        <ele>-15.800000190735</ele>
        <time>2022-03-17T09:15:05.000Z</time>
      </trkpt>
      <trkpt lat="47.32494" lon="-2.32097">
        <ele>-15.800000190735</ele>
        <time>2022-03-17T09:15:15.000Z</time>
      </trkpt>
      <trkpt lat="47.32534" lon="-2.32094">
        <ele>-15.800000190735</ele>
        <time>2022-03-17T09:15:23.000Z</time>
      </trkpt>
      <trkpt lat="47.3257" lon="-2.32091">
        <ele>-15.800000190735</ele>
        <time>2022-03-17T09:15:30.000Z</time>
      </trkpt>
      <trkpt lat="47.32584" lon="-2.32094">
        <ele>-15.800000190735</ele>
        <time>2022-03-17T09:15:33.000Z</time>
      </trkpt>
      <trkpt lat="47.3259" lon="-2.32106">
        <ele>-15.800000190735</ele>
        <time>2022-03-17T09:15:35.000Z</time>
      </trkpt>
      <trkpt lat="47.32588" lon="-2.32124">
        <ele>-16.200000762939</ele>
        <time>2022-03-17T09:15:37.000Z</time>
      </trkpt>
      <trkpt lat="47.32586" lon="-2.32133">
        <ele>-16.60000038147</ele>
        <time>2022-03-17T09:15:38.000Z</time>
      </trkpt>
      <trkpt lat="47.32582" lon="-2.32142">
        <ele>-17</ele>
        <time>2022-03-17T09:15:39.000Z</time>
      </trkpt>
      <trkpt lat="47.32579" lon="-2.32152">
        <ele>-17.39999961853</ele>
        <time>2022-03-17T09:15:40.000Z</time>
      </trkpt>
      <trkpt lat="47.32576" lon="-2.32162">
        <ele>-17.799999237061</ele>
        <time>2022-03-17T09:15:41.000Z</time>
      </trkpt>
      <trkpt lat="47.32569" lon="-2.32182">
        <ele>-17.799999237061</ele>
        <time>2022-03-17T09:15:43.000Z</time>
      </trkpt>
      <trkpt lat="47.32566" lon="-2.32192">
        <ele>-18.200000762939</ele>
        <time>2022-03-17T09:15:44.000Z</time>
      </trkpt>
      <trkpt lat="47.32563" lon="-2.32202">
        <ele>-18.60000038147</ele>
        <time>2022-03-17T09:15:45.000Z</time>
      </trkpt>
      <trkpt lat="47.32561" lon="-2.32212">
        <ele>-19.200000762939</ele>
        <time>2022-03-17T09:15:46.000Z</time>
      </trkpt>
      <trkpt lat="47.32558" lon="-2.32221">
        <ele>-19.60000038147</ele>
        <time>2022-03-17T09:15:47.000Z</time>
      </trkpt>
      <trkpt lat="47.32555" lon="-2.3223">
        <ele>-20</ele>
        <time>2022-03-17T09:15:48.000Z</time>
      </trkpt>
      <trkpt lat="47.32553" lon="-2.32238">
        <ele>-20</ele>
        <time>2022-03-17T09:15:49.000Z</time>
      </trkpt>
      <trkpt lat="47.32542" lon="-2.32275">
        <ele>-20</ele>
        <time>2022-03-17T09:15:54.000Z</time>
      </trkpt>
      <trkpt lat="47.32537" lon="-2.323">
        <ele>-19.60000038147</ele>
        <time>2022-03-17T09:15:58.000Z</time>
      </trkpt>
      <trkpt lat="47.32536" lon="-2.32305">
        <ele>-19.200000762939</ele>
        <time>2022-03-17T09:15:59.000Z</time>
      </trkpt>
      <trkpt lat="47.32537" lon="-2.3231">
        <ele>-18.799999237061</ele>
        <time>2022-03-17T09:16:00.000Z</time>
      </trkpt>
      <trkpt lat="47.32538" lon="-2.32313">
        <ele>-18.200000762939</ele>
        <time>2022-03-17T09:16:01.000Z</time>
      </trkpt>
      <trkpt lat="47.32541" lon="-2.32315">
        <ele>-17.799999237061</ele>
        <time>2022-03-17T09:16:02.000Z</time>
      </trkpt>
      <trkpt lat="47.32554" lon="-2.32313">
        <ele>-17.799999237061</ele>
        <time>2022-03-17T09:16:05.000Z</time>
      </trkpt>
      <trkpt lat="47.32559" lon="-2.32312">
        <ele>-17.39999961853</ele>
        <time>2022-03-17T09:16:06.000Z</time>
      </trkpt>
      <trkpt lat="47.32565" lon="-2.32311">
        <ele>-17</ele>
        <time>2022-03-17T09:16:07.000Z</time>
      </trkpt>
      <trkpt lat="47.32571" lon="-2.3231">
        <ele>-16.60000038147</ele>
        <time>2022-03-17T09:16:08.000Z</time>
      </trkpt>
      <trkpt lat="47.32576" lon="-2.32309">
        <ele>-16.200000762939</ele>
        <time>2022-03-17T09:16:09.000Z</time>
      </trkpt>
      <trkpt lat="47.32583" lon="-2.32308">
        <ele>-15.800000190735</ele>
        <time>2022-03-17T09:16:10.000Z</time>
      </trkpt>
      <trkpt lat="47.32627" lon="-2.32307">
        <ele>-15.800000190735</ele>
        <time>2022-03-17T09:16:17.000Z</time>
      </trkpt>
      <trkpt lat="47.32669" lon="-2.32313">
        <ele>-15.800000190735</ele>
        <time>2022-03-17T09:16:24.000Z</time>
      </trkpt>
      <trkpt lat="47.32695" lon="-2.32323">
        <ele>-16.200000762939</ele>
        <time>2022-03-17T09:16:28.000Z</time>
      </trkpt>
      <trkpt lat="47.32701" lon="-2.32325">
        <ele>-16.60000038147</ele>
        <time>2022-03-17T09:16:29.000Z</time>
      </trkpt>
      <trkpt lat="47.32707" lon="-2.32328">
        <ele>-17</ele>
        <time>2022-03-17T09:16:30.000Z</time>
      </trkpt>
      <trkpt lat="47.32713" lon="-2.3233">
        <ele>-17.39999961853</ele>
        <time>2022-03-17T09:16:31.000Z</time>
      </trkpt>
      <trkpt lat="47.32719" lon="-2.32333">
        <ele>-17.799999237061</ele>
        <time>2022-03-17T09:16:32.000Z</time>
      </trkpt>
      <trkpt lat="47.32754" lon="-2.32354">
        <ele>-17.799999237061</ele>
        <time>2022-03-17T09:16:38.000Z</time>
      </trkpt>
      <trkpt lat="47.32778" lon="-2.32369">
        <ele>-18.200000762939</ele>
        <time>2022-03-17T09:16:42.000Z</time>
      </trkpt>
      <trkpt lat="47.32784" lon="-2.32372">
        <ele>-18.60000038147</ele>
        <time>2022-03-17T09:16:43.000Z</time>
      </trkpt>
      <trkpt lat="47.3279" lon="-2.32376">
        <ele>-19</ele>
        <time>2022-03-17T09:16:44.000Z</time>
      </trkpt>
      <trkpt lat="47.32795" lon="-2.3238">
        <ele>-19.60000038147</ele>
        <time>2022-03-17T09:16:45.000Z</time>
      </trkpt>
      <trkpt lat="47.328" lon="-2.32385">
        <ele>-20</ele>
        <time>2022-03-17T09:16:46.000Z</time>
      </trkpt>
      <trkpt lat="47.3281" lon="-2.32395">
        <ele>-20</ele>
        <time>2022-03-17T09:16:48.000Z</time>
      </trkpt>
      <trkpt lat="47.32819" lon="-2.32406">
        <ele>-20</ele>
        <time>2022-03-17T09:16:50.000Z</time>
      </trkpt>
      <trkpt lat="47.32851" lon="-2.3243">
        <ele>-20</ele>
        <time>2022-03-17T09:16:56.000Z</time>
      </trkpt>
      <trkpt lat="47.32891" lon="-2.32456">
        <ele>-20</ele>
        <time>2022-03-17T09:17:03.000Z</time>
      </trkpt>
      <trkpt lat="47.32895" lon="-2.3246">
        <ele>-20</ele>
        <time>2022-03-17T09:17:04.000Z</time>
      </trkpt>
      <trkpt lat="47.32905" lon="-2.32481">
        <ele>-20</ele>
        <time>2022-03-17T09:17:07.000Z</time>
      </trkpt>
      <trkpt lat="47.32907" lon="-2.32489">
        <ele>-20</ele>
        <time>2022-03-17T09:17:08.000Z</time>
      </trkpt>
      <trkpt lat="47.32917" lon="-2.32529">
        <ele>-20</ele>
        <time>2022-03-17T09:17:13.000Z</time>
      </trkpt>
      <trkpt lat="47.32918" lon="-2.32538">
        <ele>-20</ele>
        <time>2022-03-17T09:17:14.000Z</time>
      </trkpt>
      <trkpt lat="47.32919" lon="-2.3257">
        <ele>-20</ele>
        <time>2022-03-17T09:17:18.000Z</time>
      </trkpt>
      <trkpt lat="47.32918" lon="-2.32621">
        <ele>-20</ele>
        <time>2022-03-17T09:17:24.000Z</time>
      </trkpt>
      <trkpt lat="47.32919" lon="-2.32628">
        <ele>-20</ele>
        <time>2022-03-17T09:17:25.000Z</time>
      </trkpt>
      <trkpt lat="47.32923" lon="-2.3264">
        <ele>-20</ele>
        <time>2022-03-17T09:17:27.000Z</time>
      </trkpt>
      <trkpt lat="47.32938" lon="-2.32646">
        <ele>-20</ele>
        <time>2022-03-17T09:17:30.000Z</time>
      </trkpt>
      <trkpt lat="47.32962" lon="-2.32641">
        <ele>-20</ele>
        <time>2022-03-17T09:17:34.000Z</time>
      </trkpt>
      <trkpt lat="47.32971" lon="-2.32638">
        <ele>-20</ele>
        <time>2022-03-17T09:17:36.000Z</time>
      </trkpt>
      <trkpt lat="47.32975" lon="-2.32637">
        <ele>-20</ele>
        <time>2022-03-17T09:17:38.000Z</time>
      </trkpt>
      <trkpt lat="47.32976" lon="-2.32636">
        <ele>-20.39999961853</ele>
        <time>2022-03-17T09:17:39.000Z</time>
      </trkpt>
      <trkpt lat="47.32976" lon="-2.32635">
        <ele>-20.799999237061</ele>
        <time>2022-03-17T09:17:40.000Z</time>
      </trkpt>
      <trkpt lat="47.32977" lon="-2.32634">
        <ele>-21.799999237061</ele>
        <time>2022-03-17T09:17:41.000Z</time>
      </trkpt>
      <trkpt lat="47.32979" lon="-2.32632">
        <ele>-22.200000762939</ele>
        <time>2022-03-17T09:17:42.000Z</time>
      </trkpt>
      <trkpt lat="47.32982" lon="-2.3263">
        <ele>-22.200000762939</ele>
        <time>2022-03-17T09:17:43.000Z</time>
      </trkpt>
      <trkpt lat="47.32999" lon="-2.32626">
        <ele>-22.200000762939</ele>
        <time>2022-03-17T09:17:48.000Z</time>
      </trkpt>
      <trkpt lat="47.33004" lon="-2.32629">
        <ele>-22.200000762939</ele>
        <time>2022-03-17T09:17:49.000Z</time>
      </trkpt>
      <trkpt lat="47.33017" lon="-2.32634">
        <ele>-22.200000762939</ele>
        <time>2022-03-17T09:17:51.000Z</time>
      </trkpt>
      <trkpt lat="47.33035" lon="-2.32627">
        <ele>-22.200000762939</ele>
        <time>2022-03-17T09:17:54.000Z</time>
      </trkpt>
      <trkpt lat="47.33041" lon="-2.32623">
        <ele>-22.200000762939</ele>
        <time>2022-03-17T09:17:55.000Z</time>
      </trkpt>
      <trkpt lat="47.33062" lon="-2.32606">
        <ele>-22.200000762939</ele>
        <time>2022-03-17T09:17:59.000Z</time>
      </trkpt>
      <trkpt lat="47.3307" lon="-2.32599">
        <ele>-22.200000762939</ele>
        <time>2022-03-17T09:18:01.000Z</time>
      </trkpt>
      <trkpt lat="47.33094" lon="-2.32578">
        <ele>-21.799999237061</ele>
        <time>2022-03-17T09:18:06.000Z</time>
      </trkpt>
      <trkpt lat="47.331" lon="-2.32574">
        <ele>-21.39999961853</ele>
        <time>2022-03-17T09:18:07.000Z</time>
      </trkpt>
      <trkpt lat="47.33105" lon="-2.3257">
        <ele>-21</ele>
        <time>2022-03-17T09:18:08.000Z</time>
      </trkpt>
      <trkpt lat="47.3311" lon="-2.32567">
        <ele>-20.60000038147</ele>
        <time>2022-03-17T09:18:09.000Z</time>
      </trkpt>
      <trkpt lat="47.33115" lon="-2.32563">
        <ele>-20.200000762939</ele>
        <time>2022-03-17T09:18:10.000Z</time>
      </trkpt>
      <trkpt lat="47.33125" lon="-2.32555">
        <ele>-20.200000762939</ele>
        <time>2022-03-17T09:18:12.000Z</time>
      </trkpt>
      <trkpt lat="47.3313" lon="-2.32551">
        <ele>-20.200000762939</ele>
        <time>2022-03-17T09:18:13.000Z</time>
      </trkpt>
      <trkpt lat="47.33164" lon="-2.32525">
        <ele>-20.200000762939</ele>
        <time>2022-03-17T09:18:20.000Z</time>
      </trkpt>
      <trkpt lat="47.33179" lon="-2.32518">
        <ele>-20.200000762939</ele>
        <time>2022-03-17T09:18:23.000Z</time>
      </trkpt>
      <trkpt lat="47.3319" lon="-2.32513">
        <ele>-20.200000762939</ele>
        <time>2022-03-17T09:18:25.000Z</time>
      </trkpt>
      <trkpt lat="47.33201" lon="-2.32509">
        <ele>-19.799999237061</ele>
        <time>2022-03-17T09:18:27.000Z</time>
      </trkpt>
      <trkpt lat="47.33207" lon="-2.32506">
        <ele>-19.39999961853</ele>
        <time>2022-03-17T09:18:28.000Z</time>
      </trkpt>
      <trkpt lat="47.33212" lon="-2.32503">
        <ele>-19</ele>
        <time>2022-03-17T09:18:29.000Z</time>
      </trkpt>
      <trkpt lat="47.33218" lon="-2.32502">
        <ele>-18.60000038147</ele>
        <time>2022-03-17T09:18:30.000Z</time>
      </trkpt>
      <trkpt lat="47.33223" lon="-2.32499">
        <ele>-18.200000762939</ele>
        <time>2022-03-17T09:18:31.000Z</time>
      </trkpt>
      <trkpt lat="47.33257" lon="-2.32485">
        <ele>-18.200000762939</ele>
        <time>2022-03-17T09:18:37.000Z</time>
      </trkpt>
      <trkpt lat="47.33299" lon="-2.32465">
        <ele>-18.200000762939</ele>
        <time>2022-03-17T09:18:45.000Z</time>
      </trkpt>
      <trkpt lat="47.33332" lon="-2.3245">
        <ele>-18.200000762939</ele>
        <time>2022-03-17T09:18:51.000Z</time>
      </trkpt>
      <trkpt lat="47.33347" lon="-2.32433">
        <ele>-18.200000762939</ele>
        <time>2022-03-17T09:18:54.000Z</time>
      </trkpt>
      <trkpt lat="47.33352" lon="-2.32427">
        <ele>-18.200000762939</ele>
        <time>2022-03-17T09:18:55.000Z</time>
      </trkpt>
      <trkpt lat="47.33378" lon="-2.324">
        <ele>-18.200000762939</ele>
        <time>2022-03-17T09:19:00.000Z</time>
      </trkpt>
      <trkpt lat="47.33383" lon="-2.32395">
        <ele>-18.200000762939</ele>
        <time>2022-03-17T09:19:01.000Z</time>
      </trkpt>
      <trkpt lat="47.33433" lon="-2.32352">
        <ele>-18.60000038147</ele>
        <time>2022-03-17T09:19:10.000Z</time>
      </trkpt>
      <trkpt lat="47.33439" lon="-2.32348">
        <ele>-19</ele>
        <time>2022-03-17T09:19:11.000Z</time>
      </trkpt>
      <trkpt lat="47.33444" lon="-2.32343">
        <ele>-19.39999961853</ele>
        <time>2022-03-17T09:19:12.000Z</time>
      </trkpt>
      <trkpt lat="47.33451" lon="-2.32339">
        <ele>-19.799999237061</ele>
        <time>2022-03-17T09:19:13.000Z</time>
      </trkpt>
      <trkpt lat="47.33457" lon="-2.32336">
        <ele>-20.200000762939</ele>
        <time>2022-03-17T09:19:14.000Z</time>
      </trkpt>
      <trkpt lat="47.33471" lon="-2.32328">
        <ele>-20.200000762939</ele>
        <time>2022-03-17T09:19:16.000Z</time>
      </trkpt>
      <trkpt lat="47.33508" lon="-2.32311">
        <ele>-20.200000762939</ele>
        <time>2022-03-17T09:19:22.000Z</time>
      </trkpt>
      <trkpt lat="47.33536" lon="-2.323">
        <ele>-20.200000762939</ele>
        <time>2022-03-17T09:19:27.000Z</time>
      </trkpt>
      <trkpt lat="47.33563" lon="-2.32298">
        <ele>-20.200000762939</ele>
        <time>2022-03-17T09:19:32.000Z</time>
      </trkpt>
      <trkpt lat="47.33569" lon="-2.32296">
        <ele>-20.200000762939</ele>
        <time>2022-03-17T09:19:33.000Z</time>
      </trkpt>
      <trkpt lat="47.33592" lon="-2.32291">
        <ele>-20.200000762939</ele>
        <time>2022-03-17T09:19:37.000Z</time>
      </trkpt>
      <trkpt lat="47.33603" lon="-2.32289">
        <ele>-20.200000762939</ele>
        <time>2022-03-17T09:19:39.000Z</time>
      </trkpt>
      <trkpt lat="47.33614" lon="-2.32288">
        <ele>-19.799999237061</ele>
        <time>2022-03-17T09:19:41.000Z</time>
      </trkpt>
      <trkpt lat="47.3362" lon="-2.32287">
        <ele>-19.39999961853</ele>
        <time>2022-03-17T09:19:42.000Z</time>
      </trkpt>
      <trkpt lat="47.33625" lon="-2.32286">
        <ele>-19</ele>
        <time>2022-03-17T09:19:43.000Z</time>
      </trkpt>
      <trkpt lat="47.33631" lon="-2.32285">
        <ele>-18.39999961853</ele>
        <time>2022-03-17T09:19:44.000Z</time>
      </trkpt>
      <trkpt lat="47.33636" lon="-2.32283">
        <ele>-18</ele>
        <time>2022-03-17T09:19:45.000Z</time>
      </trkpt>
      <trkpt lat="47.33673" lon="-2.32265">
        <ele>-18</ele>
        <time>2022-03-17T09:19:52.000Z</time>
      </trkpt>
      <trkpt lat="47.33703" lon="-2.32245">
        <ele>-18</ele>
        <time>2022-03-17T09:19:58.000Z</time>
      </trkpt>
      <trkpt lat="47.33741" lon="-2.3222">
        <ele>-18</ele>
        <time>2022-03-17T09:20:05.000Z</time>
      </trkpt>
      <trkpt lat="47.33778" lon="-2.32206">
        <ele>-18</ele>
        <time>2022-03-17T09:20:11.000Z</time>
      </trkpt>
      <trkpt lat="47.33814" lon="-2.32197">
        <ele>-18</ele>
        <time>2022-03-17T09:20:17.000Z</time>
      </trkpt>
      <trkpt lat="47.33855" lon="-2.3219">
        <ele>-18.39999961853</ele>
        <time>2022-03-17T09:20:24.000Z</time>
      </trkpt>
      <trkpt lat="47.33861" lon="-2.32189">
        <ele>-19</ele>
        <time>2022-03-17T09:20:25.000Z</time>
      </trkpt>
      <trkpt lat="47.33868" lon="-2.32189">
        <ele>-19.39999961853</ele>
        <time>2022-03-17T09:20:26.000Z</time>
      </trkpt>
      <trkpt lat="47.33874" lon="-2.3219">
        <ele>-19.799999237061</ele>
        <time>2022-03-17T09:20:27.000Z</time>
      </trkpt>
      <trkpt lat="47.33881" lon="-2.32192">
        <ele>-20.200000762939</ele>
        <time>2022-03-17T09:20:28.000Z</time>
      </trkpt>
      <trkpt lat="47.33888" lon="-2.32194">
        <ele>-20.200000762939</ele>
        <time>2022-03-17T09:20:29.000Z</time>
      </trkpt>
      <trkpt lat="47.33922" lon="-2.32194">
        <ele>-20.200000762939</ele>
        <time>2022-03-17T09:20:35.000Z</time>
      </trkpt>
      <trkpt lat="47.33936" lon="-2.32191">
        <ele>-20.200000762939</ele>
        <time>2022-03-17T09:20:39.000Z</time>
      </trkpt>
      <trkpt lat="47.33938" lon="-2.32189">
        <ele>-20.200000762939</ele>
        <time>2022-03-17T09:20:40.000Z</time>
      </trkpt>
      <trkpt lat="47.33947" lon="-2.32187">
        <ele>-20.200000762939</ele>
        <time>2022-03-17T09:20:43.000Z</time>
      </trkpt>
      <trkpt lat="47.33955" lon="-2.32182">
        <ele>-20.200000762939</ele>
        <time>2022-03-17T09:20:45.000Z</time>
      </trkpt>
      <trkpt lat="47.33979" lon="-2.32163">
        <ele>-20.200000762939</ele>
        <time>2022-03-17T09:20:51.000Z</time>
      </trkpt>
      <trkpt lat="47.34009" lon="-2.32144">
        <ele>-20.200000762939</ele>
        <time>2022-03-17T09:20:57.000Z</time>
      </trkpt>
      <trkpt lat="47.34043" lon="-2.32122">
        <ele>-20.200000762939</ele>
        <time>2022-03-17T09:21:04.000Z</time>
      </trkpt>
      <trkpt lat="47.34051" lon="-2.32118">
        <ele>-20.60000038147</ele>
        <time>2022-03-17T09:21:06.000Z</time>
      </trkpt>
      <trkpt lat="47.34055" lon="-2.32115">
        <ele>-21</ele>
        <time>2022-03-17T09:21:07.000Z</time>
      </trkpt>
      <trkpt lat="47.34058" lon="-2.32112">
        <ele>-21.39999961853</ele>
        <time>2022-03-17T09:21:08.000Z</time>
      </trkpt>
      <trkpt lat="47.34063" lon="-2.32109">
        <ele>-21.799999237061</ele>
        <time>2022-03-17T09:21:09.000Z</time>
      </trkpt>
      <trkpt lat="47.34067" lon="-2.32106">
        <ele>-22.200000762939</ele>
        <time>2022-03-17T09:21:10.000Z</time>
      </trkpt>
      <trkpt lat="47.34093" lon="-2.32088">
        <ele>-22.200000762939</ele>
        <time>2022-03-17T09:21:16.000Z</time>
      </trkpt>
      <trkpt lat="47.34112" lon="-2.32077">
        <ele>-22.200000762939</ele>
        <time>2022-03-17T09:21:22.000Z</time>
      </trkpt>
      <trkpt lat="47.3413" lon="-2.32063">
        <ele>-22.200000762939</ele>
        <time>2022-03-17T09:21:28.000Z</time>
      </trkpt>
      <trkpt lat="47.34156" lon="-2.3205">
        <ele>-22.200000762939</ele>
        <time>2022-03-17T09:21:35.000Z</time>
      </trkpt>
      <trkpt lat="47.34171" lon="-2.32038">
        <ele>-22.200000762939</ele>
        <time>2022-03-17T09:21:40.000Z</time>
      </trkpt>
      <trkpt lat="47.34173" lon="-2.32037">
        <ele>-22.200000762939</ele>
        <time>2022-03-17T09:21:41.000Z</time>
      </trkpt>
      <trkpt lat="47.34177" lon="-2.32036">
        <ele>-22.200000762939</ele>
        <time>2022-03-17T09:21:44.000Z</time>
      </trkpt>
      <trkpt lat="47.34179" lon="-2.32038">
        <ele>-22.200000762939</ele>
        <time>2022-03-17T09:21:46.000Z</time>
      </trkpt>
      <trkpt lat="47.34185" lon="-2.32045">
        <ele>-22.200000762939</ele>
        <time>2022-03-17T09:21:50.000Z</time>
      </trkpt>
      <trkpt lat="47.34189" lon="-2.32048">
        <ele>-22.200000762939</ele>
        <time>2022-03-17T09:21:52.000Z</time>
      </trkpt>
      <trkpt lat="47.34202" lon="-2.32063">
        <ele>-22.200000762939</ele>
        <time>2022-03-17T09:21:58.000Z</time>
      </trkpt>
      <trkpt lat="47.34214" lon="-2.32077">
        <ele>-22.200000762939</ele>
        <time>2022-03-17T09:22:04.000Z</time>
      </trkpt>
      <trkpt lat="47.34231" lon="-2.32091">
        <ele>-22.200000762939</ele>
        <time>2022-03-17T09:22:10.000Z</time>
      </trkpt>
      <trkpt lat="47.34239" lon="-2.32096">
        <ele>-22.200000762939</ele>
        <time>2022-03-17T09:22:13.000Z</time>
      </trkpt>
      <trkpt lat="47.34241" lon="-2.32096">
        <ele>-22.200000762939</ele>
        <time>2022-03-17T09:22:14.000Z</time>
      </trkpt>
      <trkpt lat="47.3425" lon="-2.32099">
        <ele>-22.200000762939</ele>
        <time>2022-03-17T09:22:18.000Z</time>
      </trkpt>
      <trkpt lat="47.34253" lon="-2.321">
        <ele>-22.200000762939</ele>
        <time>2022-03-17T09:22:20.000Z</time>
      </trkpt>
      <trkpt lat="47.34258" lon="-2.32106">
        <ele>-22.200000762939</ele>
        <time>2022-03-17T09:22:25.000Z</time>
      </trkpt>
      <trkpt lat="47.34271" lon="-2.32119">
        <ele>-22.200000762939</ele>
        <time>2022-03-17T09:22:30.000Z</time>
      </trkpt>
      <trkpt lat="47.34281" lon="-2.32131">
        <ele>-22.200000762939</ele>
        <time>2022-03-17T09:22:34.000Z</time>
      </trkpt>
      <trkpt lat="47.34285" lon="-2.32133">
        <ele>-22.200000762939</ele>
        <time>2022-03-17T09:22:35.000Z</time>
      </trkpt>
      <trkpt lat="47.34297" lon="-2.32149">
        <ele>-22.200000762939</ele>
        <time>2022-03-17T09:22:38.000Z</time>
      </trkpt>
      <trkpt lat="47.34324" lon="-2.32172">
        <ele>-22.200000762939</ele>
        <time>2022-03-17T09:22:44.000Z</time>
      </trkpt>
      <trkpt lat="47.34337" lon="-2.32168">
        <ele>-22.200000762939</ele>
        <time>2022-03-17T09:22:48.000Z</time>
      </trkpt>
      <trkpt lat="47.34344" lon="-2.32165">
        <ele>-22.200000762939</ele>
        <time>2022-03-17T09:22:52.000Z</time>
      </trkpt>
      <trkpt lat="47.34351" lon="-2.32155">
        <ele>-22.200000762939</ele>
        <time>2022-03-17T09:22:59.000Z</time>
      </trkpt>
      <trkpt lat="47.34359" lon="-2.32151">
        <ele>-22.200000762939</ele>
        <time>2022-03-17T09:23:02.000Z</time>
      </trkpt>
      <trkpt lat="47.34365" lon="-2.32147">
        <ele>-22.200000762939</ele>
        <time>2022-03-17T09:23:05.000Z</time>
      </trkpt>
      <trkpt lat="47.34371" lon="-2.32139">
        <ele>-22.60000038147</ele>
        <time>2022-03-17T09:23:08.000Z</time>
      </trkpt>
      <trkpt lat="47.34372" lon="-2.32137">
        <ele>-23</ele>
        <time>2022-03-17T09:23:09.000Z</time>
      </trkpt>
      <trkpt lat="47.34374" lon="-2.32134">
        <ele>-23.39999961853</ele>
        <time>2022-03-17T09:23:10.000Z</time>
      </trkpt>
      <trkpt lat="47.34375" lon="-2.32132">
        <ele>-23.799999237061</ele>
        <time>2022-03-17T09:23:11.000Z</time>
      </trkpt>
      <trkpt lat="47.34377" lon="-2.32129">
        <ele>-24.200000762939</ele>
        <time>2022-03-17T09:23:12.000Z</time>
      </trkpt>
      <trkpt lat="47.34378" lon="-2.32127">
        <ele>-24.200000762939</ele>
        <time>2022-03-17T09:23:13.000Z</time>
      </trkpt>
      <trkpt lat="47.34386" lon="-2.32124">
        <ele>-24.200000762939</ele>
        <time>2022-03-17T09:23:18.000Z</time>
      </trkpt>
      <trkpt lat="47.34384" lon="-2.32118">
        <ele>-24.200000762939</ele>
        <time>2022-03-17T09:23:36.000Z</time>
      </trkpt>
      <trkpt lat="47.34384" lon="-2.32115">
        <ele>-24.200000762939</ele>
        <time>2022-03-17T09:23:41.000Z</time>
      </trkpt>
      <trkpt lat="47.34383" lon="-2.32114">
        <ele>-24.200000762939</ele>
        <time>2022-03-17T09:23:44.000Z</time>
      </trkpt>
      <trkpt lat="47.34389" lon="-2.32107">
        <ele>-24.200000762939</ele>
        <time>2022-03-17T09:24:14.000Z</time>
      </trkpt>
      <trkpt lat="47.34392" lon="-2.32101">
        <ele>-24.200000762939</ele>
        <time>2022-03-17T09:24:16.000Z</time>
      </trkpt>
      <trkpt lat="47.34395" lon="-2.32097">
        <ele>-24.200000762939</ele>
        <time>2022-03-17T09:24:18.000Z</time>
      </trkpt>
      <trkpt lat="47.34396" lon="-2.32092">
        <ele>-24.200000762939</ele>
        <time>2022-03-17T09:24:21.000Z</time>
      </trkpt>
      <trkpt lat="47.34397" lon="-2.32088">
        <ele>-24.200000762939</ele>
        <time>2022-03-17T09:24:23.000Z</time>
      </trkpt>
      <trkpt lat="47.34405" lon="-2.32081">
        <ele>-24.200000762939</ele>
        <time>2022-03-17T09:24:29.000Z</time>
      </trkpt>
      <trkpt lat="47.34412" lon="-2.32076">
        <ele>-24.200000762939</ele>
        <time>2022-03-17T09:24:33.000Z</time>
      </trkpt>
      <trkpt lat="47.34415" lon="-2.32073">
        <ele>-24.200000762939</ele>
        <time>2022-03-17T09:24:36.000Z</time>
      </trkpt>
      <trkpt lat="47.34416" lon="-2.3207">
        <ele>-24.200000762939</ele>
        <time>2022-03-17T09:24:37.000Z</time>
      </trkpt>
      <trkpt lat="47.34421" lon="-2.32061">
        <ele>-24.200000762939</ele>
        <time>2022-03-17T09:24:42.000Z</time>
      </trkpt>
      <trkpt lat="47.34423" lon="-2.32056">
        <ele>-24.200000762939</ele>
        <time>2022-03-17T09:24:45.000Z</time>
      </trkpt>
      <trkpt lat="47.34433" lon="-2.3204">
        <ele>-24.200000762939</ele>
        <time>2022-03-17T09:24:56.000Z</time>
      </trkpt>
      <trkpt lat="47.34433" lon="-2.32038">
        <ele>-24.200000762939</ele>
        <time>2022-03-17T09:24:57.000Z</time>
      </trkpt>
      <trkpt lat="47.34434" lon="-2.32031">
        <ele>-24.200000762939</ele>
        <time>2022-03-17T09:25:01.000Z</time>
      </trkpt>
      <trkpt lat="47.34436" lon="-2.32021">
        <ele>-24.200000762939</ele>
        <time>2022-03-17T09:26:20.000Z</time>
      </trkpt>
      <trkpt lat="47.34436" lon="-2.32018">
        <ele>-24.200000762939</ele>
        <time>2022-03-17T09:26:21.000Z</time>
      </trkpt>
      <trkpt lat="47.34437" lon="-2.32012">
        <ele>-24.200000762939</ele>
        <time>2022-03-17T09:26:23.000Z</time>
      </trkpt>
      <trkpt lat="47.34438" lon="-2.32007">
        <ele>-24.200000762939</ele>
        <time>2022-03-17T09:26:25.000Z</time>
      </trkpt>
      <trkpt lat="47.34439" lon="-2.32">
        <ele>-24.200000762939</ele>
        <time>2022-03-17T09:26:27.000Z</time>
      </trkpt>
      <trkpt lat="47.34447" lon="-2.31977">
        <ele>-24.200000762939</ele>
        <time>2022-03-17T09:26:33.000Z</time>
      </trkpt>
      <trkpt lat="47.34448" lon="-2.31956">
        <ele>-24.200000762939</ele>
        <time>2022-03-17T09:26:38.000Z</time>
      </trkpt>
      <trkpt lat="47.3445" lon="-2.31938">
        <ele>-24.200000762939</ele>
        <time>2022-03-17T09:26:42.000Z</time>
      </trkpt>
      <trkpt lat="47.34456" lon="-2.31917">
        <ele>-24.200000762939</ele>
        <time>2022-03-17T09:26:48.000Z</time>
      </trkpt>
      <trkpt lat="47.3446" lon="-2.31913">
        <ele>-24.200000762939</ele>
        <time>2022-03-17T09:26:51.000Z</time>
      </trkpt>
      <trkpt lat="47.34461" lon="-2.31911">
        <ele>-24.200000762939</ele>
        <time>2022-03-17T09:26:52.000Z</time>
      </trkpt>
      <trkpt lat="47.34468" lon="-2.31904">
        <ele>-24.200000762939</ele>
        <time>2022-03-17T09:26:56.000Z</time>
      </trkpt>
      <trkpt lat="47.3447" lon="-2.31905">
        <ele>-24.200000762939</ele>
        <time>2022-03-17T09:26:57.000Z</time>
      </trkpt>
      <trkpt lat="47.34482" lon="-2.31912">
        <ele>-24.200000762939</ele>
        <time>2022-03-17T09:27:02.000Z</time>
      </trkpt>
      <trkpt lat="47.34492" lon="-2.31921">
        <ele>-24.200000762939</ele>
        <time>2022-03-17T09:27:08.000Z</time>
      </trkpt>
      <trkpt lat="47.34504" lon="-2.3192">
        <ele>-24.200000762939</ele>
        <time>2022-03-17T09:27:14.000Z</time>
      </trkpt>
      <trkpt lat="47.34506" lon="-2.31923">
        <ele>-24.200000762939</ele>
        <time>2022-03-17T09:27:15.000Z</time>
      </trkpt>
      <trkpt lat="47.34516" lon="-2.31931">
        <ele>-24.200000762939</ele>
        <time>2022-03-17T09:27:19.000Z</time>
      </trkpt>
      <trkpt lat="47.34525" lon="-2.31941">
        <ele>-24.200000762939</ele>
        <time>2022-03-17T09:27:24.000Z</time>
      </trkpt>
      <trkpt lat="47.34539" lon="-2.31951">
        <ele>-24.200000762939</ele>
        <time>2022-03-17T09:27:30.000Z</time>
      </trkpt>
      <trkpt lat="47.34554" lon="-2.3196">
        <ele>-24.200000762939</ele>
        <time>2022-03-17T09:27:35.000Z</time>
      </trkpt>
      <trkpt lat="47.34569" lon="-2.3197">
        <ele>-24.200000762939</ele>
        <time>2022-03-17T09:27:41.000Z</time>
      </trkpt>
      <trkpt lat="47.34578" lon="-2.31976">
        <ele>-24.200000762939</ele>
        <time>2022-03-17T09:27:44.000Z</time>
      </trkpt>
      <trkpt lat="47.34586" lon="-2.31983">
        <ele>-24.200000762939</ele>
        <time>2022-03-17T09:27:47.000Z</time>
      </trkpt>
      <trkpt lat="47.34589" lon="-2.31987">
        <ele>-24.200000762939</ele>
        <time>2022-03-17T09:27:49.000Z</time>
      </trkpt>
      <trkpt lat="47.34594" lon="-2.31996">
        <ele>-24.200000762939</ele>
        <time>2022-03-17T09:27:53.000Z</time>
      </trkpt>
      <trkpt lat="47.34595" lon="-2.31996">
        <ele>-24.200000762939</ele>
        <time>2022-03-17T09:27:54.000Z</time>
      </trkpt>
      <trkpt lat="47.34607" lon="-2.31999">
        <ele>-24.200000762939</ele>
        <time>2022-03-17T09:27:59.000Z</time>
      </trkpt>
      <trkpt lat="47.34617" lon="-2.32008">
        <ele>-24.200000762939</ele>
        <time>2022-03-17T09:28:05.000Z</time>
      </trkpt>
      <trkpt lat="47.34623" lon="-2.32016">
        <ele>-24.200000762939</ele>
        <time>2022-03-17T09:28:23.000Z</time>
      </trkpt>
      <trkpt lat="47.34626" lon="-2.32036">
        <ele>-24.200000762939</ele>
        <time>2022-03-17T09:28:29.000Z</time>
      </trkpt>
      <trkpt lat="47.34628" lon="-2.32051">
        <ele>-24.200000762939</ele>
        <time>2022-03-17T09:28:35.000Z</time>
      </trkpt>
      <trkpt lat="47.34631" lon="-2.32048">
        <ele>-24.200000762939</ele>
        <time>2022-03-17T09:31:19.000Z</time>
      </trkpt>
      <trkpt lat="47.34632" lon="-2.32042">
        <ele>-24.200000762939</ele>
        <time>2022-03-17T09:31:21.000Z</time>
      </trkpt>
      <trkpt lat="47.34636" lon="-2.32024">
        <ele>-24.200000762939</ele>
        <time>2022-03-17T09:31:27.000Z</time>
      </trkpt>
      <trkpt lat="47.34636" lon="-2.32023">
        <ele>-24.200000762939</ele>
        <time>2022-03-17T09:31:28.000Z</time>
      </trkpt>
      <trkpt lat="47.34637" lon="-2.32019">
        <ele>-24.200000762939</ele>
        <time>2022-03-17T09:32:00.000Z</time>
      </trkpt>
      <trkpt lat="47.34639" lon="-2.32015">
        <ele>-24.200000762939</ele>
        <time>2022-03-17T09:32:02.000Z</time>
      </trkpt>
      <trkpt lat="47.3464" lon="-2.32014">
        <ele>-24.200000762939</ele>
        <time>2022-03-17T09:32:03.000Z</time>
      </trkpt>
      <trkpt lat="47.34647" lon="-2.3201">
        <ele>-24.200000762939</ele>
        <time>2022-03-17T09:32:07.000Z</time>
      </trkpt>
      <trkpt lat="47.34654" lon="-2.32013">
        <ele>-24.200000762939</ele>
        <time>2022-03-17T09:32:13.000Z</time>
      </trkpt>
      <trkpt lat="47.34659" lon="-2.32016">
        <ele>-24.200000762939</ele>
        <time>2022-03-17T09:32:16.000Z</time>
      </trkpt>
      <trkpt lat="47.34668" lon="-2.32022">
        <ele>-24.200000762939</ele>
        <time>2022-03-17T09:32:20.000Z</time>
      </trkpt>
      <trkpt lat="47.34676" lon="-2.32025">
        <ele>-24.200000762939</ele>
        <time>2022-03-17T09:32:25.000Z</time>
      </trkpt>
      <trkpt lat="47.34687" lon="-2.32029">
        <ele>-24.200000762939</ele>
        <time>2022-03-17T09:32:30.000Z</time>
      </trkpt>
      <trkpt lat="47.34697" lon="-2.32037">
        <ele>-24.200000762939</ele>
        <time>2022-03-17T09:32:37.000Z</time>
      </trkpt>
      <trkpt lat="47.34702" lon="-2.32037">
        <ele>-24.200000762939</ele>
        <time>2022-03-17T09:32:40.000Z</time>
      </trkpt>
      <trkpt lat="47.34707" lon="-2.32038">
        <ele>-24.200000762939</ele>
        <time>2022-03-17T09:32:43.000Z</time>
      </trkpt>
      <trkpt lat="47.34712" lon="-2.32049">
        <ele>-24.200000762939</ele>
        <time>2022-03-17T09:32:48.000Z</time>
      </trkpt>
      <trkpt lat="47.34713" lon="-2.32069">
        <ele>-24.200000762939</ele>
        <time>2022-03-17T09:32:55.000Z</time>
      </trkpt>
      <trkpt lat="47.34711" lon="-2.32084">
        <ele>-24.200000762939</ele>
        <time>2022-03-17T09:33:01.000Z</time>
      </trkpt>
      <trkpt lat="47.34708" lon="-2.32101">
        <ele>-24.200000762939</ele>
        <time>2022-03-17T09:33:08.000Z</time>
      </trkpt>
      <trkpt lat="47.34706" lon="-2.32122">
        <ele>-24.200000762939</ele>
        <time>2022-03-17T09:33:16.000Z</time>
      </trkpt>
      <trkpt lat="47.3471" lon="-2.32123">
        <ele>-24.200000762939</ele>
        <time>2022-03-17T09:33:19.000Z</time>
      </trkpt>
      <trkpt lat="47.34711" lon="-2.32121">
        <ele>-23.799999237061</ele>
        <time>2022-03-17T09:33:20.000Z</time>
      </trkpt>
      <trkpt lat="47.34713" lon="-2.32119">
        <ele>-23</ele>
        <time>2022-03-17T09:33:21.000Z</time>
      </trkpt>
      <trkpt lat="47.34714" lon="-2.32118">
        <ele>-22.60000038147</ele>
        <time>2022-03-17T09:33:22.000Z</time>
      </trkpt>
      <trkpt lat="47.34716" lon="-2.32116">
        <ele>-22.200000762939</ele>
        <time>2022-03-17T09:33:23.000Z</time>
      </trkpt>
      <trkpt lat="47.3472" lon="-2.32113">
        <ele>-22.200000762939</ele>
        <time>2022-03-17T09:33:25.000Z</time>
      </trkpt>
      <trkpt lat="47.34729" lon="-2.32104">
        <ele>-22.200000762939</ele>
        <time>2022-03-17T09:33:31.000Z</time>
      </trkpt>
      <trkpt lat="47.34732" lon="-2.32103">
        <ele>-22.200000762939</ele>
        <time>2022-03-17T09:33:34.000Z</time>
      </trkpt>
      <trkpt lat="47.34733" lon="-2.32106">
        <ele>-22.200000762939</ele>
        <time>2022-03-17T09:34:40.000Z</time>
      </trkpt>
      <trkpt lat="47.34734" lon="-2.32109">
        <ele>-22.200000762939</ele>
        <time>2022-03-17T09:34:41.000Z</time>
      </trkpt>
      <trkpt lat="47.34742" lon="-2.32128">
        <ele>-22.200000762939</ele>
        <time>2022-03-17T09:34:46.000Z</time>
      </trkpt>
      <trkpt lat="47.34754" lon="-2.32154">
        <ele>-22.200000762939</ele>
        <time>2022-03-17T09:34:51.000Z</time>
      </trkpt>
      <trkpt lat="47.34765" lon="-2.32183">
        <ele>-22.200000762939</ele>
        <time>2022-03-17T09:34:56.000Z</time>
      </trkpt>
      <trkpt lat="47.34769" lon="-2.32216">
        <ele>-22.200000762939</ele>
        <time>2022-03-17T09:35:01.000Z</time>
      </trkpt>
      <trkpt lat="47.34769" lon="-2.32222">
        <ele>-22.200000762939</ele>
        <time>2022-03-17T09:35:02.000Z</time>
      </trkpt>
      <trkpt lat="47.34764" lon="-2.32236">
        <ele>-22.200000762939</ele>
        <time>2022-03-17T09:35:05.000Z</time>
      </trkpt>
      <trkpt lat="47.34747" lon="-2.32267">
        <ele>-22.200000762939</ele>
        <time>2022-03-17T09:35:12.000Z</time>
      </trkpt>
      <trkpt lat="47.34733" lon="-2.32297">
        <ele>-22.200000762939</ele>
        <time>2022-03-17T09:35:18.000Z</time>
      </trkpt>
      <trkpt lat="47.34718" lon="-2.32332">
        <ele>-21.799999237061</ele>
        <time>2022-03-17T09:35:25.000Z</time>
      </trkpt>
      <trkpt lat="47.34716" lon="-2.32337">
        <ele>-21.39999961853</ele>
        <time>2022-03-17T09:35:26.000Z</time>
      </trkpt>
      <trkpt lat="47.34714" lon="-2.32342">
        <ele>-21</ele>
        <time>2022-03-17T09:35:27.000Z</time>
      </trkpt>
      <trkpt lat="47.34712" lon="-2.32347">
        <ele>-20.60000038147</ele>
        <time>2022-03-17T09:35:28.000Z</time>
      </trkpt>
      <trkpt lat="47.3471" lon="-2.32353">
        <ele>-20.200000762939</ele>
        <time>2022-03-17T09:35:29.000Z</time>
      </trkpt>
      <trkpt lat="47.34706" lon="-2.32368">
        <ele>-20.200000762939</ele>
        <time>2022-03-17T09:35:32.000Z</time>
      </trkpt>
      <trkpt lat="47.34699" lon="-2.32403">
        <ele>-20.200000762939</ele>
        <time>2022-03-17T09:35:38.000Z</time>
      </trkpt>
      <trkpt lat="47.34687" lon="-2.32442">
        <ele>-20.200000762939</ele>
        <time>2022-03-17T09:35:45.000Z</time>
      </trkpt>
      <trkpt lat="47.34671" lon="-2.32486">
        <ele>-20.200000762939</ele>
        <time>2022-03-17T09:35:52.000Z</time>
      </trkpt>
      <trkpt lat="47.34654" lon="-2.32534">
        <ele>-20.200000762939</ele>
        <time>2022-03-17T09:35:59.000Z</time>
      </trkpt>
      <trkpt lat="47.3464" lon="-2.32573">
        <ele>-20.200000762939</ele>
        <time>2022-03-17T09:36:05.000Z</time>
      </trkpt>
      <trkpt lat="47.34628" lon="-2.326">
        <ele>-20.200000762939</ele>
        <time>2022-03-17T09:36:10.000Z</time>
      </trkpt>
      <trkpt lat="47.34619" lon="-2.32618">
        <ele>-20.200000762939</ele>
        <time>2022-03-17T09:36:13.000Z</time>
      </trkpt>
      <trkpt lat="47.34605" lon="-2.32633">
        <ele>-20.200000762939</ele>
        <time>2022-03-17T09:36:16.000Z</time>
      </trkpt>
      <trkpt lat="47.3458" lon="-2.32659">
        <ele>-20.200000762939</ele>
        <time>2022-03-17T09:36:22.000Z</time>
      </trkpt>
      <trkpt lat="47.34567" lon="-2.32669">
        <ele>-19.60000038147</ele>
        <time>2022-03-17T09:36:25.000Z</time>
      </trkpt>
      <trkpt lat="47.34563" lon="-2.32672">
        <ele>-19.200000762939</ele>
        <time>2022-03-17T09:36:26.000Z</time>
      </trkpt>
      <trkpt lat="47.34559" lon="-2.32676">
        <ele>-18.799999237061</ele>
        <time>2022-03-17T09:36:27.000Z</time>
      </trkpt>
      <trkpt lat="47.34555" lon="-2.3268">
        <ele>-18.39999961853</ele>
        <time>2022-03-17T09:36:28.000Z</time>
      </trkpt>
      <trkpt lat="47.34551" lon="-2.32684">
        <ele>-18</ele>
        <time>2022-03-17T09:36:29.000Z</time>
      </trkpt>
      <trkpt lat="47.34521" lon="-2.32707">
        <ele>-18</ele>
        <time>2022-03-17T09:36:36.000Z</time>
      </trkpt>
      <trkpt lat="47.34499" lon="-2.32719">
        <ele>-18</ele>
        <time>2022-03-17T09:36:41.000Z</time>
      </trkpt>
      <trkpt lat="47.34495" lon="-2.32722">
        <ele>-18</ele>
        <time>2022-03-17T09:36:42.000Z</time>
      </trkpt>
      <trkpt lat="47.34464" lon="-2.32741">
        <ele>-18</ele>
        <time>2022-03-17T09:36:49.000Z</time>
      </trkpt>
      <trkpt lat="47.34453" lon="-2.32763">
        <ele>-18</ele>
        <time>2022-03-17T09:36:53.000Z</time>
      </trkpt>
      <trkpt lat="47.34455" lon="-2.32793">
        <ele>-18</ele>
        <time>2022-03-17T09:36:57.000Z</time>
      </trkpt>
      <trkpt lat="47.34456" lon="-2.32801">
        <ele>-18</ele>
        <time>2022-03-17T09:36:58.000Z</time>
      </trkpt>
      <trkpt lat="47.34457" lon="-2.32809">
        <ele>-18</ele>
        <time>2022-03-17T09:36:59.000Z</time>
      </trkpt>
      <trkpt lat="47.34455" lon="-2.32825">
        <ele>-18</ele>
        <time>2022-03-17T09:37:01.000Z</time>
      </trkpt>
      <trkpt lat="47.34447" lon="-2.32833">
        <ele>-18.39999961853</ele>
        <time>2022-03-17T09:37:03.000Z</time>
      </trkpt>
      <trkpt lat="47.34444" lon="-2.32835">
        <ele>-19.200000762939</ele>
        <time>2022-03-17T09:37:04.000Z</time>
      </trkpt>
      <trkpt lat="47.3444" lon="-2.32838">
        <ele>-19.799999237061</ele>
        <time>2022-03-17T09:37:05.000Z</time>
      </trkpt>
      <trkpt lat="47.34435" lon="-2.3284">
        <ele>-20.200000762939</ele>
        <time>2022-03-17T09:37:06.000Z</time>
      </trkpt>
      <trkpt lat="47.34417" lon="-2.32853">
        <ele>-20.200000762939</ele>
        <time>2022-03-17T09:37:10.000Z</time>
      </trkpt>
      <trkpt lat="47.34412" lon="-2.32856">
        <ele>-20.200000762939</ele>
        <time>2022-03-17T09:37:11.000Z</time>
      </trkpt>
      <trkpt lat="47.3439" lon="-2.32872">
        <ele>-20.200000762939</ele>
        <time>2022-03-17T09:37:15.000Z</time>
      </trkpt>
      <trkpt lat="47.34358" lon="-2.32895">
        <ele>-20.200000762939</ele>
        <time>2022-03-17T09:37:21.000Z</time>
      </trkpt>
      <trkpt lat="47.34353" lon="-2.32911">
        <ele>-20.200000762939</ele>
        <time>2022-03-17T09:37:24.000Z</time>
      </trkpt>
      <trkpt lat="47.34355" lon="-2.32941">
        <ele>-20.200000762939</ele>
        <time>2022-03-17T09:37:28.000Z</time>
      </trkpt>
      <trkpt lat="47.34356" lon="-2.32949">
        <ele>-20.200000762939</ele>
        <time>2022-03-17T09:37:29.000Z</time>
      </trkpt>
      <trkpt lat="47.34364" lon="-2.32987">
        <ele>-20.200000762939</ele>
        <time>2022-03-17T09:37:34.000Z</time>
      </trkpt>
      <trkpt lat="47.34365" lon="-2.32995">
        <ele>-20.200000762939</ele>
        <time>2022-03-17T09:37:35.000Z</time>
      </trkpt>
      <trkpt lat="47.34369" lon="-2.33011">
        <ele>-20.200000762939</ele>
        <time>2022-03-17T09:37:38.000Z</time>
      </trkpt>
      <trkpt lat="47.34372" lon="-2.33027">
        <ele>-20.60000038147</ele>
        <time>2022-03-17T09:37:42.000Z</time>
      </trkpt>
      <trkpt lat="47.34373" lon="-2.33031">
        <ele>-21</ele>
        <time>2022-03-17T09:37:43.000Z</time>
      </trkpt>
      <trkpt lat="47.34374" lon="-2.33034">
        <ele>-21.39999961853</ele>
        <time>2022-03-17T09:37:44.000Z</time>
      </trkpt>
      <trkpt lat="47.34374" lon="-2.33037">
        <ele>-21.799999237061</ele>
        <time>2022-03-17T09:37:45.000Z</time>
      </trkpt>
      <trkpt lat="47.34375" lon="-2.33039">
        <ele>-22.200000762939</ele>
        <time>2022-03-17T09:37:46.000Z</time>
      </trkpt>
      <trkpt lat="47.34375" lon="-2.33041">
        <ele>-22.200000762939</ele>
        <time>2022-03-17T09:37:47.000Z</time>
      </trkpt>
      <trkpt lat="47.34377" lon="-2.33048">
        <ele>-22.200000762939</ele>
        <time>2022-03-17T09:37:50.000Z</time>
      </trkpt>
      <trkpt lat="47.34378" lon="-2.33055">
        <ele>-22.200000762939</ele>
        <time>2022-03-17T09:37:53.000Z</time>
      </trkpt>
      <trkpt lat="47.34378" lon="-2.33056">
        <ele>-22.200000762939</ele>
        <time>2022-03-17T09:37:58.000Z</time>
      </trkpt>
      <trkpt lat="47.34381" lon="-2.33075">
        <ele>-22.200000762939</ele>
        <time>2022-03-17T09:38:04.000Z</time>
      </trkpt>
      <trkpt lat="47.34382" lon="-2.33078">
        <ele>-22.200000762939</ele>
        <time>2022-03-17T09:38:07.000Z</time>
      </trkpt>
      <trkpt lat="47.34384" lon="-2.33087">
        <ele>-22.200000762939</ele>
        <time>2022-03-17T09:38:10.000Z</time>
      </trkpt>
      <trkpt lat="47.34384" lon="-2.33092">
        <ele>-22.200000762939</ele>
        <time>2022-03-17T09:38:12.000Z</time>
      </trkpt>
      <trkpt lat="47.34384" lon="-2.33094">
        <ele>-22.200000762939</ele>
        <time>2022-03-17T09:38:14.000Z</time>
      </trkpt>
      <trkpt lat="47.34396" lon="-2.33159">
        <ele>-22.200000762939</ele>
        <time>2022-03-17T09:40:10.000Z</time>
      </trkpt>
      <trkpt lat="47.344" lon="-2.33179">
        <ele>-21.799999237061</ele>
        <time>2022-03-17T09:40:14.000Z</time>
      </trkpt>
      <trkpt lat="47.34401" lon="-2.33182">
        <ele>-21.39999961853</ele>
        <time>2022-03-17T09:40:15.000Z</time>
      </trkpt>
      <trkpt lat="47.34401" lon="-2.33186">
        <ele>-21</ele>
        <time>2022-03-17T09:40:16.000Z</time>
      </trkpt>
      <trkpt lat="47.34401" lon="-2.33189">
        <ele>-20.39999961853</ele>
        <time>2022-03-17T09:40:17.000Z</time>
      </trkpt>
      <trkpt lat="47.34402" lon="-2.33194">
        <ele>-20</ele>
        <time>2022-03-17T09:40:18.000Z</time>
      </trkpt>
      <trkpt lat="47.34402" lon="-2.33204">
        <ele>-20</ele>
        <time>2022-03-17T09:40:22.000Z</time>
      </trkpt>
      <trkpt lat="47.34403" lon="-2.33227">
        <ele>-20</ele>
        <time>2022-03-17T09:40:29.000Z</time>
      </trkpt>
      <trkpt lat="47.34406" lon="-2.33246">
        <ele>-20</ele>
        <time>2022-03-17T09:40:35.000Z</time>
      </trkpt>
      <trkpt lat="47.34421" lon="-2.33275">
        <ele>-20</ele>
        <time>2022-03-17T09:40:42.000Z</time>
      </trkpt>
      <trkpt lat="47.34425" lon="-2.33281">
        <ele>-20</ele>
        <time>2022-03-17T09:40:44.000Z</time>
      </trkpt>
      <trkpt lat="47.3443" lon="-2.33285">
        <ele>-20</ele>
        <time>2022-03-17T09:40:47.000Z</time>
      </trkpt>
      <trkpt lat="47.34431" lon="-2.33287">
        <ele>-20</ele>
        <time>2022-03-17T09:40:48.000Z</time>
      </trkpt>
      <trkpt lat="47.34434" lon="-2.33292">
        <ele>-20</ele>
        <time>2022-03-17T09:40:52.000Z</time>
      </trkpt>
      <trkpt lat="47.34468" lon="-2.33414">
        <ele>-20</ele>
        <time>2022-03-17T09:43:04.000Z</time>
      </trkpt>
      <trkpt lat="47.3447" lon="-2.33425">
        <ele>-20</ele>
        <time>2022-03-17T09:43:10.000Z</time>
      </trkpt>
      <trkpt lat="47.34472" lon="-2.33436">
        <ele>-20</ele>
        <time>2022-03-17T09:43:16.000Z</time>
      </trkpt>
      <trkpt lat="47.34471" lon="-2.33441">
        <ele>-20</ele>
        <time>2022-03-17T09:43:19.000Z</time>
      </trkpt>
      <trkpt lat="47.34472" lon="-2.33447">
        <ele>-20</ele>
        <time>2022-03-17T09:43:22.000Z</time>
      </trkpt>
      <trkpt lat="47.34473" lon="-2.33457">
        <ele>-20</ele>
        <time>2022-03-17T09:43:29.000Z</time>
      </trkpt>
      <trkpt lat="47.34474" lon="-2.33464">
        <ele>-20</ele>
        <time>2022-03-17T09:43:34.000Z</time>
      </trkpt>
      <trkpt lat="47.34475" lon="-2.33475">
        <ele>-18</ele>
        <time>2022-03-17T09:43:42.000Z</time>
      </trkpt>
      <trkpt lat="47.34477" lon="-2.33487">
        <ele>-18</ele>
        <time>2022-03-17T09:43:50.000Z</time>
      </trkpt>
      <trkpt lat="47.34478" lon="-2.33497">
        <ele>-18</ele>
        <time>2022-03-17T09:43:55.000Z</time>
      </trkpt>
      <trkpt lat="47.34479" lon="-2.33505">
        <ele>-18</ele>
        <time>2022-03-17T09:44:01.000Z</time>
      </trkpt>
      <trkpt lat="47.34481" lon="-2.33515">
        <ele>-18</ele>
        <time>2022-03-17T09:44:07.000Z</time>
      </trkpt>
      <trkpt lat="47.34481" lon="-2.33517">
        <ele>-18</ele>
        <time>2022-03-17T09:44:09.000Z</time>
      </trkpt>
      <trkpt lat="47.34481" lon="-2.33523">
        <ele>-18</ele>
        <time>2022-03-17T09:44:14.000Z</time>
      </trkpt>
      <trkpt lat="47.34483" lon="-2.33531">
        <ele>-18</ele>
        <time>2022-03-17T09:44:20.000Z</time>
      </trkpt>
      <trkpt lat="47.34484" lon="-2.33543">
        <ele>-18</ele>
        <time>2022-03-17T09:44:27.000Z</time>
      </trkpt>
      <trkpt lat="47.34485" lon="-2.3355">
        <ele>-18</ele>
        <time>2022-03-17T09:44:31.000Z</time>
      </trkpt>
      <trkpt lat="47.34486" lon="-2.33557">
        <ele>-18</ele>
        <time>2022-03-17T09:44:35.000Z</time>
      </trkpt>
      <trkpt lat="47.34487" lon="-2.33566">
        <ele>-18</ele>
        <time>2022-03-17T09:44:41.000Z</time>
      </trkpt>
      <trkpt lat="47.34487" lon="-2.33567">
        <ele>-18</ele>
        <time>2022-03-17T09:44:43.000Z</time>
      </trkpt>
      <trkpt lat="47.34488" lon="-2.33571">
        <ele>-18</ele>
        <time>2022-03-17T09:44:53.000Z</time>
      </trkpt>
      <trkpt lat="47.34489" lon="-2.33573">
        <ele>-18</ele>
        <time>2022-03-17T09:44:54.000Z</time>
      </trkpt>
      <trkpt lat="47.34493" lon="-2.33577">
        <ele>-17.200000762939</ele>
        <time>2022-03-17T09:44:56.000Z</time>
      </trkpt>
      <trkpt lat="47.34494" lon="-2.33581">
        <ele>-16.799999237061</ele>
        <time>2022-03-17T09:44:57.000Z</time>
      </trkpt>
      <trkpt lat="47.34495" lon="-2.33585">
        <ele>-16.39999961853</ele>
        <time>2022-03-17T09:44:58.000Z</time>
      </trkpt>
      <trkpt lat="47.34496" lon="-2.33589">
        <ele>-16</ele>
        <time>2022-03-17T09:44:59.000Z</time>
      </trkpt>
      <trkpt lat="47.34499" lon="-2.33594">
        <ele>-16</ele>
        <time>2022-03-17T09:45:01.000Z</time>
      </trkpt>
      <trkpt lat="47.345" lon="-2.33596">
        <ele>-16</ele>
        <time>2022-03-17T09:45:02.000Z</time>
      </trkpt>
      <trkpt lat="47.34506" lon="-2.33615">
        <ele>-16</ele>
        <time>2022-03-17T09:45:08.000Z</time>
      </trkpt>
      <trkpt lat="47.34515" lon="-2.3365">
        <ele>-16</ele>
        <time>2022-03-17T09:45:18.000Z</time>
      </trkpt>
      <trkpt lat="47.34521" lon="-2.33678">
        <ele>-16</ele>
        <time>2022-03-17T09:45:27.000Z</time>
      </trkpt>
      <trkpt lat="47.34526" lon="-2.33704">
        <ele>-16</ele>
        <time>2022-03-17T09:45:35.000Z</time>
      </trkpt>
      <trkpt lat="47.3453" lon="-2.33722">
        <ele>-16</ele>
        <time>2022-03-17T09:45:41.000Z</time>
      </trkpt>
      <trkpt lat="47.34535" lon="-2.33743">
        <ele>-16</ele>
        <time>2022-03-17T09:45:48.000Z</time>
      </trkpt>
      <trkpt lat="47.34536" lon="-2.33749">
        <ele>-16</ele>
        <time>2022-03-17T09:45:50.000Z</time>
      </trkpt>
      <trkpt lat="47.34534" lon="-2.33757">
        <ele>-16</ele>
        <time>2022-03-17T09:45:53.000Z</time>
      </trkpt>
      <trkpt lat="47.34534" lon="-2.33772">
        <ele>-16</ele>
        <time>2022-03-17T09:45:59.000Z</time>
      </trkpt>
      <trkpt lat="47.34535" lon="-2.33776">
        <ele>-16</ele>
        <time>2022-03-17T09:46:00.000Z</time>
      </trkpt>
      <trkpt lat="47.34537" lon="-2.33784">
        <ele>-15.60000038147</ele>
        <time>2022-03-17T09:46:02.000Z</time>
      </trkpt>
      <trkpt lat="47.34538" lon="-2.33789">
        <ele>-15.199999809265</ele>
        <time>2022-03-17T09:46:03.000Z</time>
      </trkpt>
      <trkpt lat="47.34539" lon="-2.33794">
        <ele>-14.800000190735</ele>
        <time>2022-03-17T09:46:04.000Z</time>
      </trkpt>
      <trkpt lat="47.3454" lon="-2.33799">
        <ele>-14.39999961853</ele>
        <time>2022-03-17T09:46:05.000Z</time>
      </trkpt>
      <trkpt lat="47.34541" lon="-2.33804">
        <ele>-14</ele>
        <time>2022-03-17T09:46:06.000Z</time>
      </trkpt>
      <trkpt lat="47.34545" lon="-2.33828">
        <ele>-14</ele>
        <time>2022-03-17T09:46:11.000Z</time>
      </trkpt>
      <trkpt lat="47.34553" lon="-2.33866">
        <ele>-14</ele>
        <time>2022-03-17T09:46:18.000Z</time>
      </trkpt>
      <trkpt lat="47.34559" lon="-2.33881">
        <ele>-14</ele>
        <time>2022-03-17T09:46:22.000Z</time>
      </trkpt>
      <trkpt lat="47.34569" lon="-2.33907">
        <ele>-14.39999961853</ele>
        <time>2022-03-17T09:46:30.000Z</time>
      </trkpt>
      <trkpt lat="47.34569" lon="-2.33908">
        <ele>-14.800000190735</ele>
        <time>2022-03-17T09:46:31.000Z</time>
      </trkpt>
      <trkpt lat="47.3457" lon="-2.3391">
        <ele>-15.199999809265</ele>
        <time>2022-03-17T09:46:32.000Z</time>
      </trkpt>
      <trkpt lat="47.3457" lon="-2.33911">
        <ele>-16</ele>
        <time>2022-03-17T09:46:37.000Z</time>
      </trkpt>
      <trkpt lat="47.34571" lon="-2.33915">
        <ele>-16</ele>
        <time>2022-03-17T09:46:38.000Z</time>
      </trkpt>
      <trkpt lat="47.34575" lon="-2.33931">
        <ele>-16</ele>
        <time>2022-03-17T09:46:43.000Z</time>
      </trkpt>
      <trkpt lat="47.34582" lon="-2.33956">
        <ele>-16</ele>
        <time>2022-03-17T09:46:50.000Z</time>
      </trkpt>
      <trkpt lat="47.3459" lon="-2.33986">
        <ele>-16</ele>
        <time>2022-03-17T09:46:57.000Z</time>
      </trkpt>
      <trkpt lat="47.34599" lon="-2.3402">
        <ele>-16</ele>
        <time>2022-03-17T09:47:03.000Z</time>
      </trkpt>
      <trkpt lat="47.34612" lon="-2.34065">
        <ele>-16</ele>
        <time>2022-03-17T09:47:10.000Z</time>
      </trkpt>
      <trkpt lat="47.34622" lon="-2.34104">
        <ele>-16</ele>
        <time>2022-03-17T09:47:17.000Z</time>
      </trkpt>
      <trkpt lat="47.34627" lon="-2.34117">
        <ele>-15.60000038147</ele>
        <time>2022-03-17T09:47:20.000Z</time>
      </trkpt>
      <trkpt lat="47.34629" lon="-2.34122">
        <ele>-15.199999809265</ele>
        <time>2022-03-17T09:47:21.000Z</time>
      </trkpt>
      <trkpt lat="47.34632" lon="-2.34126">
        <ele>-14.800000190735</ele>
        <time>2022-03-17T09:47:22.000Z</time>
      </trkpt>
      <trkpt lat="47.34634" lon="-2.34129">
        <ele>-14.39999961853</ele>
        <time>2022-03-17T09:47:23.000Z</time>
      </trkpt>
      <trkpt lat="47.34637" lon="-2.34133">
        <ele>-14</ele>
        <time>2022-03-17T09:47:24.000Z</time>
      </trkpt>
      <trkpt lat="47.34658" lon="-2.34151">
        <ele>-14</ele>
        <time>2022-03-17T09:47:31.000Z</time>
      </trkpt>
      <trkpt lat="47.3467" lon="-2.34158">
        <ele>-14</ele>
        <time>2022-03-17T09:47:36.000Z</time>
      </trkpt>
      <trkpt lat="47.3467" lon="-2.34171">
        <ele>-14</ele>
        <time>2022-03-17T09:47:40.000Z</time>
      </trkpt>
      <trkpt lat="47.3467" lon="-2.34175">
        <ele>-14</ele>
        <time>2022-03-17T09:47:41.000Z</time>
      </trkpt>
      <trkpt lat="47.34665" lon="-2.34196">
        <ele>-14</ele>
        <time>2022-03-17T09:47:46.000Z</time>
      </trkpt>
      <trkpt lat="47.34664" lon="-2.34229">
        <ele>-14</ele>
        <time>2022-03-17T09:47:53.000Z</time>
      </trkpt>
      <trkpt lat="47.34663" lon="-2.34243">
        <ele>-13.60000038147</ele>
        <time>2022-03-17T09:47:56.000Z</time>
      </trkpt>
      <trkpt lat="47.34663" lon="-2.34249">
        <ele>-13.199999809265</ele>
        <time>2022-03-17T09:47:57.000Z</time>
      </trkpt>
      <trkpt lat="47.34664" lon="-2.34254">
        <ele>-12.800000190735</ele>
        <time>2022-03-17T09:47:58.000Z</time>
      </trkpt>
      <trkpt lat="47.34664" lon="-2.34259">
        <ele>-12.39999961853</ele>
        <time>2022-03-17T09:47:59.000Z</time>
      </trkpt>
      <trkpt lat="47.34667" lon="-2.34262">
        <ele>-12</ele>
        <time>2022-03-17T09:48:00.000Z</time>
      </trkpt>
      <trkpt lat="47.34678" lon="-2.34261">
        <ele>-12</ele>
        <time>2022-03-17T09:48:03.000Z</time>
      </trkpt>
      <trkpt lat="47.34682" lon="-2.34259">
        <ele>-12</ele>
        <time>2022-03-17T09:48:04.000Z</time>
      </trkpt>
      <trkpt lat="47.34707" lon="-2.34256">
        <ele>-12</ele>
        <time>2022-03-17T09:48:10.000Z</time>
      </trkpt>
      <trkpt lat="47.34715" lon="-2.34253">
        <ele>-12</ele>
        <time>2022-03-17T09:48:12.000Z</time>
      </trkpt>
      <trkpt lat="47.34736" lon="-2.34248">
        <ele>-11.60000038147</ele>
        <time>2022-03-17T09:48:17.000Z</time>
      </trkpt>
      <trkpt lat="47.34739" lon="-2.34248">
        <ele>-11.199999809265</ele>
        <time>2022-03-17T09:48:18.000Z</time>
      </trkpt>
      <trkpt lat="47.34743" lon="-2.34247">
        <ele>-10.800000190735</ele>
        <time>2022-03-17T09:48:19.000Z</time>
      </trkpt>
      <trkpt lat="47.34747" lon="-2.34246">
        <ele>-10.39999961853</ele>
        <time>2022-03-17T09:48:20.000Z</time>
      </trkpt>
      <trkpt lat="47.34751" lon="-2.34244">
        <ele>-10</ele>
        <time>2022-03-17T09:48:21.000Z</time>
      </trkpt>
      <trkpt lat="47.34757" lon="-2.34242">
        <ele>-10</ele>
        <time>2022-03-17T09:48:23.000Z</time>
      </trkpt>
      <trkpt lat="47.34777" lon="-2.34234">
        <ele>-10</ele>
        <time>2022-03-17T09:48:29.000Z</time>
      </trkpt>
      <trkpt lat="47.348" lon="-2.34229">
        <ele>-10</ele>
        <time>2022-03-17T09:48:35.000Z</time>
      </trkpt>
      <trkpt lat="47.34815" lon="-2.34229">
        <ele>-9.6000003814697</ele>
        <time>2022-03-17T09:48:39.000Z</time>
      </trkpt>
      <trkpt lat="47.34818" lon="-2.34229">
        <ele>-9</ele>
        <time>2022-03-17T09:48:40.000Z</time>
      </trkpt>
      <trkpt lat="47.34822" lon="-2.34229">
        <ele>-8.6000003814697</ele>
        <time>2022-03-17T09:48:41.000Z</time>
      </trkpt>
      <trkpt lat="47.34825" lon="-2.34229">
        <ele>-8.1999998092651</ele>
        <time>2022-03-17T09:48:42.000Z</time>
      </trkpt>
      <trkpt lat="47.34829" lon="-2.34229">
        <ele>-7.8000001907349</ele>
        <time>2022-03-17T09:48:43.000Z</time>
      </trkpt>
      <trkpt lat="47.34838" lon="-2.3423">
        <ele>-7.8000001907349</ele>
        <time>2022-03-17T09:48:46.000Z</time>
      </trkpt>
      <trkpt lat="47.3484" lon="-2.3423">
        <ele>-7.4000000953674</ele>
        <time>2022-03-17T09:48:47.000Z</time>
      </trkpt>
      <trkpt lat="47.34843" lon="-2.3423">
        <ele>-7</ele>
        <time>2022-03-17T09:48:48.000Z</time>
      </trkpt>
      <trkpt lat="47.34845" lon="-2.34231">
        <ele>-6.5999999046326</ele>
        <time>2022-03-17T09:48:49.000Z</time>
      </trkpt>
      <trkpt lat="47.34847" lon="-2.34232">
        <ele>-6.1999998092651</ele>
        <time>2022-03-17T09:48:50.000Z</time>
      </trkpt>
      <trkpt lat="47.34849" lon="-2.34233">
        <ele>-5.8000001907349</ele>
        <time>2022-03-17T09:48:51.000Z</time>
      </trkpt>
      <trkpt lat="47.3485" lon="-2.34234">
        <ele>-5.8000001907349</ele>
        <time>2022-03-17T09:48:52.000Z</time>
      </trkpt>
      <trkpt lat="47.34857" lon="-2.34235">
        <ele>-5.4000000953674</ele>
        <time>2022-03-17T09:48:55.000Z</time>
      </trkpt>
      <trkpt lat="47.34859" lon="-2.34233">
        <ele>-5</ele>
        <time>2022-03-17T09:48:56.000Z</time>
      </trkpt>
      <trkpt lat="47.3486" lon="-2.34232">
        <ele>-4.5999999046326</ele>
        <time>2022-03-17T09:48:57.000Z</time>
      </trkpt>
      <trkpt lat="47.34862" lon="-2.3423">
        <ele>-4.1999998092651</ele>
        <time>2022-03-17T09:48:58.000Z</time>
      </trkpt>
      <trkpt lat="47.34863" lon="-2.34228">
        <ele>-3.7999999523163</ele>
        <time>2022-03-17T09:48:59.000Z</time>
      </trkpt>
      <trkpt lat="47.34869" lon="-2.34221">
        <ele>-3.4000000953674</ele>
        <time>2022-03-17T09:49:03.000Z</time>
      </trkpt>
      <trkpt lat="47.34869" lon="-2.34218">
        <ele>-3</ele>
        <time>2022-03-17T09:49:04.000Z</time>
      </trkpt>
      <trkpt lat="47.3487" lon="-2.34215">
        <ele>-2.4000000953674</ele>
        <time>2022-03-17T09:49:05.000Z</time>
      </trkpt>
      <trkpt lat="47.3487" lon="-2.34213">
        <ele>-2</ele>
        <time>2022-03-17T09:49:06.000Z</time>
      </trkpt>
      <trkpt lat="47.34871" lon="-2.3421">
        <ele>-1.6000000238419</ele>
        <time>2022-03-17T09:49:07.000Z</time>
      </trkpt>
      <trkpt lat="47.34872" lon="-2.34205">
        <ele>-1.6000000238419</ele>
        <time>2022-03-17T09:49:09.000Z</time>
      </trkpt>
      <trkpt lat="47.34875" lon="-2.34198">
        <ele>-1.6000000238419</ele>
        <time>2022-03-17T09:49:12.000Z</time>
      </trkpt>
      <trkpt lat="47.34878" lon="-2.34197">
        <ele>-1.6000000238419</ele>
        <time>2022-03-17T09:49:14.000Z</time>
      </trkpt>
      <trkpt lat="47.3488" lon="-2.34201">
        <ele>-1.2000000476837</ele>
        <time>2022-03-17T09:49:16.000Z</time>
      </trkpt>
      <trkpt lat="47.34881" lon="-2.34202">
        <ele>-0.80000001192093</ele>
        <time>2022-03-17T09:49:17.000Z</time>
      </trkpt>
      <trkpt lat="47.34883" lon="-2.34203">
        <ele>-0.40000000596046</ele>
        <time>2022-03-17T09:49:18.000Z</time>
      </trkpt>
      <trkpt lat="47.34884" lon="-2.34204">
        <ele>25.6</ele>
        <time>2022-03-17T09:49:19.000Z</time>
      </trkpt>
      <trkpt lat="47.34885" lon="-2.34205">
        <ele>0.40000000596046</ele>
        <time>2022-03-17T09:49:20.000Z</time>
      </trkpt>
      <trkpt lat="47.34886" lon="-2.34207">
        <ele>0.40000000596046</ele>
        <time>2022-03-17T09:49:22.000Z</time>
      </trkpt>
      <trkpt lat="47.34886" lon="-2.34207">
        <ele>0.40000000596046</ele>
        <time>2022-03-17T09:49:23.000Z</time>
      </trkpt>
      <trkpt lat="47.34893" lon="-2.34203">
        <ele>-1.6000000238419</ele>
        <time>2022-03-17T10:01:30.000Z</time>
      </trkpt>
      <trkpt lat="47.34898" lon="-2.34206">
        <ele>-1.6000000238419</ele>
        <time>2022-03-17T10:01:33.000Z</time>
      </trkpt>
      <trkpt lat="47.34908" lon="-2.34208">
        <ele>-1.6000000238419</ele>
        <time>2022-03-17T10:01:36.000Z</time>
      </trkpt>
      <trkpt lat="47.34912" lon="-2.34209">
        <ele>-1.6000000238419</ele>
        <time>2022-03-17T10:01:37.000Z</time>
      </trkpt>
      <trkpt lat="47.34931" lon="-2.34208">
        <ele>-2</ele>
        <time>2022-03-17T10:01:41.000Z</time>
      </trkpt>
      <trkpt lat="47.34935" lon="-2.34206">
        <ele>-2.4000000953674</ele>
        <time>2022-03-17T10:01:42.000Z</time>
      </trkpt>
      <trkpt lat="47.34939" lon="-2.34203">
        <ele>-2.7999999523163</ele>
        <time>2022-03-17T10:01:43.000Z</time>
      </trkpt>
      <trkpt lat="47.34944" lon="-2.34201">
        <ele>-3.2000000476837</ele>
        <time>2022-03-17T10:01:44.000Z</time>
      </trkpt>
      <trkpt lat="47.34949" lon="-2.34198">
        <ele>-3.5999999046326</ele>
        <time>2022-03-17T10:01:45.000Z</time>
      </trkpt>
      <trkpt lat="47.34958" lon="-2.34195">
        <ele>-3.5999999046326</ele>
        <time>2022-03-17T10:01:47.000Z</time>
      </trkpt>
      <trkpt lat="47.34962" lon="-2.34195">
        <ele>-3.5999999046326</ele>
        <time>2022-03-17T10:01:48.000Z</time>
      </trkpt>
      <trkpt lat="47.34965" lon="-2.34195">
        <ele>-4.5999999046326</ele>
        <time>2022-03-17T10:01:49.000Z</time>
      </trkpt>
      <trkpt lat="47.34968" lon="-2.34196">
        <ele>-5</ele>
        <time>2022-03-17T10:01:50.000Z</time>
      </trkpt>
      <trkpt lat="47.3497" lon="-2.34197">
        <ele>-5.4000000953674</ele>
        <time>2022-03-17T10:01:51.000Z</time>
      </trkpt>
      <trkpt lat="47.34971" lon="-2.34198">
        <ele>-5.8000001907349</ele>
        <time>2022-03-17T10:01:52.000Z</time>
      </trkpt>
      <trkpt lat="47.34972" lon="-2.34199">
        <ele>-5.8000001907349</ele>
        <time>2022-03-17T10:01:54.000Z</time>
      </trkpt>
      <trkpt lat="47.34973" lon="-2.34201">
        <ele>-5.8000001907349</ele>
        <time>2022-03-17T10:02:23.000Z</time>
      </trkpt>
      <trkpt lat="47.34975" lon="-2.34203">
        <ele>-5.8000001907349</ele>
        <time>2022-03-17T10:02:24.000Z</time>
      </trkpt>
      <trkpt lat="47.34979" lon="-2.34213">
        <ele>-6.4000000953674</ele>
        <time>2022-03-17T10:02:27.000Z</time>
      </trkpt>
      <trkpt lat="47.3498" lon="-2.34218">
        <ele>-6.8000001907349</ele>
        <time>2022-03-17T10:02:28.000Z</time>
      </trkpt>
      <trkpt lat="47.3498" lon="-2.34222">
        <ele>-7.1999998092651</ele>
        <time>2022-03-17T10:02:29.000Z</time>
      </trkpt>
      <trkpt lat="47.34981" lon="-2.34227">
        <ele>-7.5999999046326</ele>
        <time>2022-03-17T10:02:30.000Z</time>
      </trkpt>
      <trkpt lat="47.34982" lon="-2.34232">
        <ele>-8</ele>
        <time>2022-03-17T10:02:31.000Z</time>
      </trkpt>
      <trkpt lat="47.34984" lon="-2.34247">
        <ele>-8</ele>
        <time>2022-03-17T10:02:34.000Z</time>
      </trkpt>
      <trkpt lat="47.34986" lon="-2.34253">
        <ele>-8.6000003814697</ele>
        <time>2022-03-17T10:02:35.000Z</time>
      </trkpt>
      <trkpt lat="47.34987" lon="-2.3426">
        <ele>-9</ele>
        <time>2022-03-17T10:02:36.000Z</time>
      </trkpt>
      <trkpt lat="47.34989" lon="-2.34267">
        <ele>-9.3999996185303</ele>
        <time>2022-03-17T10:02:37.000Z</time>
      </trkpt>
      <trkpt lat="47.34991" lon="-2.34274">
        <ele>-10.39999961853</ele>
        <time>2022-03-17T10:02:38.000Z</time>
      </trkpt>
      <trkpt lat="47.34993" lon="-2.34281">
        <ele>-10.39999961853</ele>
        <time>2022-03-17T10:02:39.000Z</time>
      </trkpt>
      <trkpt lat="47.34998" lon="-2.34297">
        <ele>-10.800000190735</ele>
        <time>2022-03-17T10:02:41.000Z</time>
      </trkpt>
      <trkpt lat="47.35002" lon="-2.34306">
        <ele>-11.199999809265</ele>
        <time>2022-03-17T10:02:42.000Z</time>
      </trkpt>
      <trkpt lat="47.35005" lon="-2.34315">
        <ele>-11.60000038147</ele>
        <time>2022-03-17T10:02:43.000Z</time>
      </trkpt>
      <trkpt lat="47.35008" lon="-2.34325">
        <ele>-12</ele>
        <time>2022-03-17T10:02:44.000Z</time>
      </trkpt>
      <trkpt lat="47.35011" lon="-2.34333">
        <ele>-12.39999961853</ele>
        <time>2022-03-17T10:02:45.000Z</time>
      </trkpt>
      <trkpt lat="47.35013" lon="-2.3434">
        <ele>-13</ele>
        <time>2022-03-17T10:02:46.000Z</time>
      </trkpt>
      <trkpt lat="47.35016" lon="-2.34346">
        <ele>-13.39999961853</ele>
        <time>2022-03-17T10:02:47.000Z</time>
      </trkpt>
      <trkpt lat="47.35017" lon="-2.34351">
        <ele>-13.800000190735</ele>
        <time>2022-03-17T10:02:48.000Z</time>
      </trkpt>
      <trkpt lat="47.35018" lon="-2.34354">
        <ele>-14.199999809265</ele>
        <time>2022-03-17T10:02:49.000Z</time>
      </trkpt>
      <trkpt lat="47.35018" lon="-2.34357">
        <ele>-14.60000038147</ele>
        <time>2022-03-17T10:02:50.000Z</time>
      </trkpt>
      <trkpt lat="47.35017" lon="-2.34359">
        <ele>-14.60000038147</ele>
        <time>2022-03-17T10:02:51.000Z</time>
      </trkpt>
      <trkpt lat="47.3501" lon="-2.34366">
        <ele>-14.60000038147</ele>
        <time>2022-03-17T10:02:54.000Z</time>
      </trkpt>
      <trkpt lat="47.34998" lon="-2.3437">
        <ele>-14.60000038147</ele>
        <time>2022-03-17T10:02:57.000Z</time>
      </trkpt>
      <trkpt lat="47.3499" lon="-2.34372">
        <ele>-14.60000038147</ele>
        <time>2022-03-17T10:02:59.000Z</time>
      </trkpt>
      <trkpt lat="47.34964" lon="-2.34372">
        <ele>-14.60000038147</ele>
        <time>2022-03-17T10:03:06.000Z</time>
      </trkpt>
      <trkpt lat="47.34946" lon="-2.34373">
        <ele>-14.60000038147</ele>
        <time>2022-03-17T10:03:11.000Z</time>
      </trkpt>
      <trkpt lat="47.34928" lon="-2.3437">
        <ele>-14.60000038147</ele>
        <time>2022-03-17T10:03:17.000Z</time>
      </trkpt>
      <trkpt lat="47.34926" lon="-2.3437">
        <ele>-14.199999809265</ele>
        <time>2022-03-17T10:03:18.000Z</time>
      </trkpt>
      <trkpt lat="47.34923" lon="-2.3437">
        <ele>-13.800000190735</ele>
        <time>2022-03-17T10:03:19.000Z</time>
      </trkpt>
      <trkpt lat="47.3492" lon="-2.34371">
        <ele>-13.39999961853</ele>
        <time>2022-03-17T10:03:20.000Z</time>
      </trkpt>
      <trkpt lat="47.34918" lon="-2.34371">
        <ele>-13</ele>
        <time>2022-03-17T10:03:21.000Z</time>
      </trkpt>
      <trkpt lat="47.34915" lon="-2.34372">
        <ele>-12.39999961853</ele>
        <time>2022-03-17T10:03:22.000Z</time>
      </trkpt>
      <trkpt lat="47.34913" lon="-2.34373">
        <ele>-12.39999961853</ele>
        <time>2022-03-17T10:03:23.000Z</time>
      </trkpt>
      <trkpt lat="47.34899" lon="-2.34374">
        <ele>-12.39999961853</ele>
        <time>2022-03-17T10:03:28.000Z</time>
      </trkpt>
      <trkpt lat="47.34879" lon="-2.34371">
        <ele>-12.39999961853</ele>
        <time>2022-03-17T10:03:34.000Z</time>
      </trkpt>
      <trkpt lat="47.34877" lon="-2.34371">
        <ele>-12</ele>
        <time>2022-03-17T10:03:35.000Z</time>
      </trkpt>
      <trkpt lat="47.34874" lon="-2.34372">
        <ele>-11.60000038147</ele>
        <time>2022-03-17T10:03:36.000Z</time>
      </trkpt>
      <trkpt lat="47.34871" lon="-2.34372">
        <ele>-11.199999809265</ele>
        <time>2022-03-17T10:03:37.000Z</time>
      </trkpt>
      <trkpt lat="47.34867" lon="-2.34372">
        <ele>-10.800000190735</ele>
        <time>2022-03-17T10:03:38.000Z</time>
      </trkpt>
      <trkpt lat="47.34863" lon="-2.34372">
        <ele>-10.39999961853</ele>
        <time>2022-03-17T10:03:39.000Z</time>
      </trkpt>
      <trkpt lat="47.3486" lon="-2.34372">
        <ele>-10.39999961853</ele>
        <time>2022-03-17T10:03:40.000Z</time>
      </trkpt>
      <trkpt lat="47.34838" lon="-2.34376">
        <ele>-10.39999961853</ele>
        <time>2022-03-17T10:03:46.000Z</time>
      </trkpt>
      <trkpt lat="47.34815" lon="-2.3438">
        <ele>-10.39999961853</ele>
        <time>2022-03-17T10:03:52.000Z</time>
      </trkpt>
      <trkpt lat="47.34794" lon="-2.34383">
        <ele>-10.39999961853</ele>
        <time>2022-03-17T10:03:58.000Z</time>
      </trkpt>
      <trkpt lat="47.34789" lon="-2.34385">
        <ele>-10.39999961853</ele>
        <time>2022-03-17T10:04:00.000Z</time>
      </trkpt>
      <trkpt lat="47.34784" lon="-2.34381">
        <ele>-10.39999961853</ele>
        <time>2022-03-17T10:04:02.000Z</time>
      </trkpt>
      <trkpt lat="47.34782" lon="-2.34374">
        <ele>-10.39999961853</ele>
        <time>2022-03-17T10:04:04.000Z</time>
      </trkpt>
      <trkpt lat="47.34779" lon="-2.34364">
        <ele>-10.39999961853</ele>
        <time>2022-03-17T10:04:08.000Z</time>
      </trkpt>
      <trkpt lat="47.34778" lon="-2.34344">
        <ele>-10.39999961853</ele>
        <time>2022-03-17T10:04:13.000Z</time>
      </trkpt>
      <trkpt lat="47.34778" lon="-2.3432">
        <ele>-10.39999961853</ele>
        <time>2022-03-17T10:04:19.000Z</time>
      </trkpt>
      <trkpt lat="47.34775" lon="-2.34298">
        <ele>-10.39999961853</ele>
        <time>2022-03-17T10:04:25.000Z</time>
      </trkpt>
      <trkpt lat="47.34776" lon="-2.3429">
        <ele>-10.39999961853</ele>
        <time>2022-03-17T10:04:27.000Z</time>
      </trkpt>
      <trkpt lat="47.34779" lon="-2.34283">
        <ele>-10.39999961853</ele>
        <time>2022-03-17T10:04:29.000Z</time>
      </trkpt>
      <trkpt lat="47.3478" lon="-2.34272">
        <ele>-10.39999961853</ele>
        <time>2022-03-17T10:04:32.000Z</time>
      </trkpt>
      <trkpt lat="47.3478" lon="-2.34268">
        <ele>-10.39999961853</ele>
        <time>2022-03-17T10:04:33.000Z</time>
      </trkpt>
      <trkpt lat="47.34783" lon="-2.34243">
        <ele>-10.39999961853</ele>
        <time>2022-03-17T10:04:39.000Z</time>
      </trkpt>
      <trkpt lat="47.34785" lon="-2.3424">
        <ele>-10.39999961853</ele>
        <time>2022-03-17T10:04:40.000Z</time>
      </trkpt>
      <trkpt lat="47.3479" lon="-2.34237">
        <ele>-10.39999961853</ele>
        <time>2022-03-17T10:04:42.000Z</time>
      </trkpt>
      <trkpt lat="47.34803" lon="-2.34233">
        <ele>-10.39999961853</ele>
        <time>2022-03-17T10:04:46.000Z</time>
      </trkpt>
      <trkpt lat="47.34807" lon="-2.34233">
        <ele>-10.39999961853</ele>
        <time>2022-03-17T10:04:47.000Z</time>
      </trkpt>
      <trkpt lat="47.34832" lon="-2.34232">
        <ele>-10</ele>
        <time>2022-03-17T10:04:55.000Z</time>
      </trkpt>
      <trkpt lat="47.34835" lon="-2.34233">
        <ele>-9.3999996185303</ele>
        <time>2022-03-17T10:04:56.000Z</time>
      </trkpt>
      <trkpt lat="47.34837" lon="-2.34233">
        <ele>-9</ele>
        <time>2022-03-17T10:04:57.000Z</time>
      </trkpt>
      <trkpt lat="47.3484" lon="-2.34232">
        <ele>-8.6000003814697</ele>
        <time>2022-03-17T10:04:58.000Z</time>
      </trkpt>
      <trkpt lat="47.34843" lon="-2.34232">
        <ele>-8.1999998092651</ele>
        <time>2022-03-17T10:04:59.000Z</time>
      </trkpt>
      <trkpt lat="47.34845" lon="-2.34233">
        <ele>-8.1999998092651</ele>
        <time>2022-03-17T10:05:00.000Z</time>
      </trkpt>
      <trkpt lat="47.34854" lon="-2.34236">
        <ele>-7.8000001907349</ele>
        <time>2022-03-17T10:05:05.000Z</time>
      </trkpt>
      <trkpt lat="47.34855" lon="-2.34237">
        <ele>-7.1999998092651</ele>
        <time>2022-03-17T10:05:06.000Z</time>
      </trkpt>
      <trkpt lat="47.34857" lon="-2.34237">
        <ele>-6.1999998092651</ele>
        <time>2022-03-17T10:05:07.000Z</time>
      </trkpt>
      <trkpt lat="47.34857" lon="-2.34237">
        <ele>-5.8000001907349</ele>
        <time>2022-03-17T10:05:08.000Z</time>
      </trkpt>
      <trkpt lat="47.34858" lon="-2.34242">
        <ele>-5.8000001907349</ele>
        <time>2022-03-17T10:05:17.000Z</time>
      </trkpt>
      <trkpt lat="47.34858" lon="-2.34245">
        <ele>-5.8000001907349</ele>
        <time>2022-03-17T10:05:18.000Z</time>
      </trkpt>
      <trkpt lat="47.34851" lon="-2.34263">
        <ele>-5.8000001907349</ele>
        <time>2022-03-17T10:05:23.000Z</time>
      </trkpt>
      <trkpt lat="47.34851" lon="-2.34268">
        <ele>-5.8000001907349</ele>
        <time>2022-03-17T10:05:24.000Z</time>
      </trkpt>
      <trkpt lat="47.34852" lon="-2.34281">
        <ele>-5.8000001907349</ele>
        <time>2022-03-17T10:05:27.000Z</time>
      </trkpt>
      <trkpt lat="47.34853" lon="-2.34285">
        <ele>-6.1999998092651</ele>
        <time>2022-03-17T10:05:28.000Z</time>
      </trkpt>
      <trkpt lat="47.34854" lon="-2.34289">
        <ele>-6.5999999046326</ele>
        <time>2022-03-17T10:05:29.000Z</time>
      </trkpt>
      <trkpt lat="47.34855" lon="-2.34294">
        <ele>-7</ele>
        <time>2022-03-17T10:05:30.000Z</time>
      </trkpt>
      <trkpt lat="47.34855" lon="-2.34298">
        <ele>-7.4000000953674</ele>
        <time>2022-03-17T10:05:31.000Z</time>
      </trkpt>
      <trkpt lat="47.34856" lon="-2.34303">
        <ele>-7.8000001907349</ele>
        <time>2022-03-17T10:05:32.000Z</time>
      </trkpt>
      <trkpt lat="47.34856" lon="-2.34336">
        <ele>-7.8000001907349</ele>
        <time>2022-03-17T10:05:38.000Z</time>
      </trkpt>
      <trkpt lat="47.34857" lon="-2.34362">
        <ele>-7.8000001907349</ele>
        <time>2022-03-17T10:05:43.000Z</time>
      </trkpt>
      <trkpt lat="47.34836" lon="-2.34368">
        <ele>-7.8000001907349</ele>
        <time>2022-03-17T10:05:49.000Z</time>
      </trkpt>
      <trkpt lat="47.34812" lon="-2.34377">
        <ele>-8.1999998092651</ele>
        <time>2022-03-17T10:05:54.000Z</time>
      </trkpt>
      <trkpt lat="47.34807" lon="-2.34378">
        <ele>-8.6000003814697</ele>
        <time>2022-03-17T10:05:55.000Z</time>
      </trkpt>
      <trkpt lat="47.34802" lon="-2.34378">
        <ele>-9.1999998092651</ele>
        <time>2022-03-17T10:05:56.000Z</time>
      </trkpt>
      <trkpt lat="47.34798" lon="-2.34379">
        <ele>-10</ele>
        <time>2022-03-17T10:05:57.000Z</time>
      </trkpt>
      <trkpt lat="47.34782" lon="-2.34386">
        <ele>-10</ele>
        <time>2022-03-17T10:06:01.000Z</time>
      </trkpt>
      <trkpt lat="47.34773" lon="-2.34401">
        <ele>-10</ele>
        <time>2022-03-17T10:06:05.000Z</time>
      </trkpt>
      <trkpt lat="47.34761" lon="-2.34429">
        <ele>-10</ele>
        <time>2022-03-17T10:06:11.000Z</time>
      </trkpt>
      <trkpt lat="47.34755" lon="-2.34444">
        <ele>-10.39999961853</ele>
        <time>2022-03-17T10:06:14.000Z</time>
      </trkpt>
      <trkpt lat="47.34753" lon="-2.34449">
        <ele>-10.800000190735</ele>
        <time>2022-03-17T10:06:15.000Z</time>
      </trkpt>
      <trkpt lat="47.34751" lon="-2.34453">
        <ele>-11.199999809265</ele>
        <time>2022-03-17T10:06:16.000Z</time>
      </trkpt>
      <trkpt lat="47.3475" lon="-2.34458">
        <ele>-11.60000038147</ele>
        <time>2022-03-17T10:06:17.000Z</time>
      </trkpt>
      <trkpt lat="47.34749" lon="-2.34463">
        <ele>-12</ele>
        <time>2022-03-17T10:06:18.000Z</time>
      </trkpt>
      <trkpt lat="47.34744" lon="-2.34476">
        <ele>-12</ele>
        <time>2022-03-17T10:06:21.000Z</time>
      </trkpt>
      <trkpt lat="47.34729" lon="-2.34486">
        <ele>-12</ele>
        <time>2022-03-17T10:06:26.000Z</time>
      </trkpt>
      <trkpt lat="47.34712" lon="-2.34493">
        <ele>-12</ele>
        <time>2022-03-17T10:06:31.000Z</time>
      </trkpt>
      <trkpt lat="47.34689" lon="-2.34504">
        <ele>-12</ele>
        <time>2022-03-17T10:06:38.000Z</time>
      </trkpt>
      <trkpt lat="47.34666" lon="-2.34511">
        <ele>-12</ele>
        <time>2022-03-17T10:06:45.000Z</time>
      </trkpt>
      <trkpt lat="47.34643" lon="-2.34515">
        <ele>-12</ele>
        <time>2022-03-17T10:06:52.000Z</time>
      </trkpt>
      <trkpt lat="47.34625" lon="-2.34521">
        <ele>-12</ele>
        <time>2022-03-17T10:06:58.000Z</time>
      </trkpt>
      <trkpt lat="47.34612" lon="-2.34526">
        <ele>-12</ele>
        <time>2022-03-17T10:07:02.000Z</time>
      </trkpt>
      <trkpt lat="47.34608" lon="-2.34534">
        <ele>-12</ele>
        <time>2022-03-17T10:07:04.000Z</time>
      </trkpt>
      <trkpt lat="47.34608" lon="-2.34539">
        <ele>-12</ele>
        <time>2022-03-17T10:07:05.000Z</time>
      </trkpt>
      <trkpt lat="47.34611" lon="-2.34557">
        <ele>-12</ele>
        <time>2022-03-17T10:07:08.000Z</time>
      </trkpt>
      <trkpt lat="47.34613" lon="-2.34564">
        <ele>-12</ele>
        <time>2022-03-17T10:07:09.000Z</time>
      </trkpt>
      <trkpt lat="47.34622" lon="-2.34609">
        <ele>-12</ele>
        <time>2022-03-17T10:07:15.000Z</time>
      </trkpt>
      <trkpt lat="47.34632" lon="-2.34666">
        <ele>-12</ele>
        <time>2022-03-17T10:07:21.000Z</time>
      </trkpt>
      <trkpt lat="47.34636" lon="-2.34688">
        <ele>-12.39999961853</ele>
        <time>2022-03-17T10:07:23.000Z</time>
      </trkpt>
      <trkpt lat="47.34637" lon="-2.347">
        <ele>-12.800000190735</ele>
        <time>2022-03-17T10:07:24.000Z</time>
      </trkpt>
      <trkpt lat="47.34639" lon="-2.34711">
        <ele>-13.199999809265</ele>
        <time>2022-03-17T10:07:25.000Z</time>
      </trkpt>
      <trkpt lat="47.3464" lon="-2.34722">
        <ele>-13.60000038147</ele>
        <time>2022-03-17T10:07:26.000Z</time>
      </trkpt>
      <trkpt lat="47.3464" lon="-2.34733">
        <ele>-14.199999809265</ele>
        <time>2022-03-17T10:07:27.000Z</time>
      </trkpt>
      <trkpt lat="47.34639" lon="-2.34755">
        <ele>-14.199999809265</ele>
        <time>2022-03-17T10:07:29.000Z</time>
      </trkpt>
      <trkpt lat="47.34634" lon="-2.34773">
        <ele>-14.199999809265</ele>
        <time>2022-03-17T10:07:31.000Z</time>
      </trkpt>
      <trkpt lat="47.34624" lon="-2.34799">
        <ele>-14.199999809265</ele>
        <time>2022-03-17T10:07:34.000Z</time>
      </trkpt>
      <trkpt lat="47.34617" lon="-2.34815">
        <ele>-14.199999809265</ele>
        <time>2022-03-17T10:07:36.000Z</time>
      </trkpt>
      <trkpt lat="47.3459" lon="-2.34875">
        <ele>-14.199999809265</ele>
        <time>2022-03-17T10:07:44.000Z</time>
      </trkpt>
      <trkpt lat="47.34581" lon="-2.34895">
        <ele>-14.199999809265</ele>
        <time>2022-03-17T10:07:47.000Z</time>
      </trkpt>
      <trkpt lat="47.34578" lon="-2.34913">
        <ele>-14.199999809265</ele>
        <time>2022-03-17T10:07:50.000Z</time>
      </trkpt>
      <trkpt lat="47.34583" lon="-2.34924">
        <ele>-14.199999809265</ele>
        <time>2022-03-17T10:07:52.000Z</time>
      </trkpt>
      <trkpt lat="47.34585" lon="-2.34929">
        <ele>-14.199999809265</ele>
        <time>2022-03-17T10:07:53.000Z</time>
      </trkpt>
      <trkpt lat="47.34598" lon="-2.34956">
        <ele>-14.199999809265</ele>
        <time>2022-03-17T10:07:58.000Z</time>
      </trkpt>
      <trkpt lat="47.34619" lon="-2.34987">
        <ele>-14.199999809265</ele>
        <time>2022-03-17T10:08:04.000Z</time>
      </trkpt>
      <trkpt lat="47.34642" lon="-2.35026">
        <ele>-14.199999809265</ele>
        <time>2022-03-17T10:08:11.000Z</time>
      </trkpt>
      <trkpt lat="47.34653" lon="-2.35035">
        <ele>-14.199999809265</ele>
        <time>2022-03-17T10:08:15.000Z</time>
      </trkpt>
      <trkpt lat="47.34661" lon="-2.35035">
        <ele>-14.199999809265</ele>
        <time>2022-03-17T10:08:20.000Z</time>
      </trkpt>
      <trkpt lat="47.34671" lon="-2.35036">
        <ele>-14.199999809265</ele>
        <time>2022-03-17T10:08:25.000Z</time>
      </trkpt>
      <trkpt lat="47.34682" lon="-2.35048">
        <ele>-14.199999809265</ele>
        <time>2022-03-17T10:08:29.000Z</time>
      </trkpt>
      <trkpt lat="47.34693" lon="-2.35064">
        <ele>-14.199999809265</ele>
        <time>2022-03-17T10:08:34.000Z</time>
      </trkpt>
      <trkpt lat="47.34715" lon="-2.35086">
        <ele>-14.199999809265</ele>
        <time>2022-03-17T10:08:39.000Z</time>
      </trkpt>
      <trkpt lat="47.34719" lon="-2.35091">
        <ele>-14.199999809265</ele>
        <time>2022-03-17T10:08:40.000Z</time>
      </trkpt>
      <trkpt lat="47.34725" lon="-2.35109">
        <ele>-14.199999809265</ele>
        <time>2022-03-17T10:08:43.000Z</time>
      </trkpt>
      <trkpt lat="47.3474" lon="-2.35128">
        <ele>-14.199999809265</ele>
        <time>2022-03-17T10:08:47.000Z</time>
      </trkpt>
      <trkpt lat="47.34751" lon="-2.35146">
        <ele>-14.199999809265</ele>
        <time>2022-03-17T10:08:51.000Z</time>
      </trkpt>
      <trkpt lat="47.34759" lon="-2.35169">
        <ele>-14.199999809265</ele>
        <time>2022-03-17T10:08:55.000Z</time>
      </trkpt>
      <trkpt lat="47.34757" lon="-2.352">
        <ele>-14.199999809265</ele>
        <time>2022-03-17T10:09:00.000Z</time>
      </trkpt>
      <trkpt lat="47.34757" lon="-2.35224">
        <ele>-14.199999809265</ele>
        <time>2022-03-17T10:09:04.000Z</time>
      </trkpt>
      <trkpt lat="47.34756" lon="-2.35231">
        <ele>-14.199999809265</ele>
        <time>2022-03-17T10:09:05.000Z</time>
      </trkpt>
      <trkpt lat="47.34751" lon="-2.35264">
        <ele>-14.199999809265</ele>
        <time>2022-03-17T10:09:10.000Z</time>
      </trkpt>
      <trkpt lat="47.34749" lon="-2.35268">
        <ele>-14.199999809265</ele>
        <time>2022-03-17T10:09:11.000Z</time>
      </trkpt>
      <trkpt lat="47.34742" lon="-2.35288">
        <ele>-14.199999809265</ele>
        <time>2022-03-17T10:09:15.000Z</time>
      </trkpt>
      <trkpt lat="47.34733" lon="-2.35305">
        <ele>-14.199999809265</ele>
        <time>2022-03-17T10:09:20.000Z</time>
      </trkpt>
      <trkpt lat="47.3473" lon="-2.35317">
        <ele>-14.199999809265</ele>
        <time>2022-03-17T10:09:23.000Z</time>
      </trkpt>
      <trkpt lat="47.34728" lon="-2.35323">
        <ele>-14.199999809265</ele>
        <time>2022-03-17T10:09:25.000Z</time>
      </trkpt>
      <trkpt lat="47.34727" lon="-2.35343">
        <ele>-14.199999809265</ele>
        <time>2022-03-17T10:09:29.000Z</time>
      </trkpt>
      <trkpt lat="47.34727" lon="-2.35346">
        <ele>-14.199999809265</ele>
        <time>2022-03-17T10:09:30.000Z</time>
      </trkpt>
      <trkpt lat="47.34726" lon="-2.3535">
        <ele>-14.199999809265</ele>
        <time>2022-03-17T10:09:31.000Z</time>
      </trkpt>
      <trkpt lat="47.34725" lon="-2.3536">
        <ele>-14.199999809265</ele>
        <time>2022-03-17T10:09:34.000Z</time>
      </trkpt>
      <trkpt lat="47.34717" lon="-2.35372">
        <ele>-14.199999809265</ele>
        <time>2022-03-17T10:09:38.000Z</time>
      </trkpt>
      <trkpt lat="47.34714" lon="-2.35375">
        <ele>-14.199999809265</ele>
        <time>2022-03-17T10:09:39.000Z</time>
      </trkpt>
      <trkpt lat="47.34698" lon="-2.3539">
        <ele>-14.199999809265</ele>
        <time>2022-03-17T10:09:44.000Z</time>
      </trkpt>
      <trkpt lat="47.34681" lon="-2.35394">
        <ele>-14.199999809265</ele>
        <time>2022-03-17T10:09:49.000Z</time>
      </trkpt>
      <trkpt lat="47.34667" lon="-2.354">
        <ele>-14.199999809265</ele>
        <time>2022-03-17T10:09:53.000Z</time>
      </trkpt>
      <trkpt lat="47.34664" lon="-2.354">
        <ele>-14.199999809265</ele>
        <time>2022-03-17T10:09:54.000Z</time>
      </trkpt>
      <trkpt lat="47.34657" lon="-2.35408">
        <ele>-14.199999809265</ele>
        <time>2022-03-17T10:09:58.000Z</time>
      </trkpt>
      <trkpt lat="47.34662" lon="-2.35418">
        <ele>-14.199999809265</ele>
        <time>2022-03-17T10:10:01.000Z</time>
      </trkpt>
      <trkpt lat="47.34668" lon="-2.35425">
        <ele>-14.199999809265</ele>
        <time>2022-03-17T10:10:03.000Z</time>
      </trkpt>
      <trkpt lat="47.34678" lon="-2.35438">
        <ele>-14.199999809265</ele>
        <time>2022-03-17T10:10:06.000Z</time>
      </trkpt>
      <trkpt lat="47.34699" lon="-2.35476">
        <ele>-14.199999809265</ele>
        <time>2022-03-17T10:10:13.000Z</time>
      </trkpt>
      <trkpt lat="47.3472" lon="-2.35509">
        <ele>-14.199999809265</ele>
        <time>2022-03-17T10:10:19.000Z</time>
      </trkpt>
      <trkpt lat="47.34744" lon="-2.35551">
        <ele>-14.199999809265</ele>
        <time>2022-03-17T10:10:26.000Z</time>
      </trkpt>
      <trkpt lat="47.34771" lon="-2.35585">
        <ele>-14.199999809265</ele>
        <time>2022-03-17T10:10:33.000Z</time>
      </trkpt>
      <trkpt lat="47.34804" lon="-2.35624">
        <ele>-14.199999809265</ele>
        <time>2022-03-17T10:10:41.000Z</time>
      </trkpt>
      <trkpt lat="47.34813" lon="-2.35631">
        <ele>-13.60000038147</ele>
        <time>2022-03-17T10:10:43.000Z</time>
      </trkpt>
      <trkpt lat="47.34817" lon="-2.35635">
        <ele>-13.199999809265</ele>
        <time>2022-03-17T10:10:44.000Z</time>
      </trkpt>
      <trkpt lat="47.34822" lon="-2.35639">
        <ele>-12.800000190735</ele>
        <time>2022-03-17T10:10:45.000Z</time>
      </trkpt>
      <trkpt lat="47.34825" lon="-2.35642">
        <ele>-12.39999961853</ele>
        <time>2022-03-17T10:10:46.000Z</time>
      </trkpt>
      <trkpt lat="47.34829" lon="-2.35643">
        <ele>-12</ele>
        <time>2022-03-17T10:10:47.000Z</time>
      </trkpt>
      <trkpt lat="47.34848" lon="-2.35657">
        <ele>-12</ele>
        <time>2022-03-17T10:10:52.000Z</time>
      </trkpt>
      <trkpt lat="47.34854" lon="-2.35663">
        <ele>-12</ele>
        <time>2022-03-17T10:10:54.000Z</time>
      </trkpt>
      <trkpt lat="47.34854" lon="-2.35672">
        <ele>-12</ele>
        <time>2022-03-17T10:10:56.000Z</time>
      </trkpt>
      <trkpt lat="47.34849" lon="-2.35686">
        <ele>-12</ele>
        <time>2022-03-17T10:10:59.000Z</time>
      </trkpt>
      <trkpt lat="47.34845" lon="-2.35698">
        <ele>-12</ele>
        <time>2022-03-17T10:11:01.000Z</time>
      </trkpt>
      <trkpt lat="47.34837" lon="-2.35714">
        <ele>-12</ele>
        <time>2022-03-17T10:11:06.000Z</time>
      </trkpt>
      <trkpt lat="47.34837" lon="-2.35714">
        <ele>-12</ele>
        <time>2022-03-17T10:11:07.000Z</time>
      </trkpt>
      <trkpt lat="47.34831" lon="-2.35718">
        <ele>-12</ele>
        <time>2022-03-17T10:11:38.000Z</time>
      </trkpt>
      <trkpt lat="47.34828" lon="-2.3572">
        <ele>-12</ele>
        <time>2022-03-17T10:11:40.000Z</time>
      </trkpt>
      <trkpt lat="47.34813" lon="-2.35726">
        <ele>-12</ele>
        <time>2022-03-17T10:11:46.000Z</time>
      </trkpt>
      <trkpt lat="47.34793" lon="-2.35737">
        <ele>-12</ele>
        <time>2022-03-17T10:11:52.000Z</time>
      </trkpt>
      <trkpt lat="47.34774" lon="-2.35745">
        <ele>-12</ele>
        <time>2022-03-17T10:11:57.000Z</time>
      </trkpt>
      <trkpt lat="47.34748" lon="-2.35757">
        <ele>-12</ele>
        <time>2022-03-17T10:12:03.000Z</time>
      </trkpt>
      <trkpt lat="47.34744" lon="-2.35759">
        <ele>-12</ele>
        <time>2022-03-17T10:12:04.000Z</time>
      </trkpt>
      <trkpt lat="47.34727" lon="-2.35771">
        <ele>-12</ele>
        <time>2022-03-17T10:12:08.000Z</time>
      </trkpt>
      <trkpt lat="47.34699" lon="-2.35793">
        <ele>-12</ele>
        <time>2022-03-17T10:12:14.000Z</time>
      </trkpt>
      <trkpt lat="47.3467" lon="-2.35815">
        <ele>-12</ele>
        <time>2022-03-17T10:12:20.000Z</time>
      </trkpt>
      <trkpt lat="47.34643" lon="-2.35837">
        <ele>-12</ele>
        <time>2022-03-17T10:12:27.000Z</time>
      </trkpt>
      <trkpt lat="47.3463" lon="-2.35846">
        <ele>-12</ele>
        <time>2022-03-17T10:12:32.000Z</time>
      </trkpt>
      <trkpt lat="47.34616" lon="-2.35856">
        <ele>-12</ele>
        <time>2022-03-17T10:12:37.000Z</time>
      </trkpt>
      <trkpt lat="47.34604" lon="-2.35868">
        <ele>-12</ele>
        <time>2022-03-17T10:12:42.000Z</time>
      </trkpt>
      <trkpt lat="47.34584" lon="-2.35887">
        <ele>-12</ele>
        <time>2022-03-17T10:12:48.000Z</time>
      </trkpt>
      <trkpt lat="47.3458" lon="-2.3589">
        <ele>-12</ele>
        <time>2022-03-17T10:12:49.000Z</time>
      </trkpt>
      <trkpt lat="47.34565" lon="-2.35899">
        <ele>-12</ele>
        <time>2022-03-17T10:12:53.000Z</time>
      </trkpt>
      <trkpt lat="47.34541" lon="-2.35909">
        <ele>-12</ele>
        <time>2022-03-17T10:12:59.000Z</time>
      </trkpt>
      <trkpt lat="47.34519" lon="-2.3592">
        <ele>-12</ele>
        <time>2022-03-17T10:13:05.000Z</time>
      </trkpt>
      <trkpt lat="47.34489" lon="-2.35933">
        <ele>-12</ele>
        <time>2022-03-17T10:13:13.000Z</time>
      </trkpt>
      <trkpt lat="47.34471" lon="-2.35943">
        <ele>-11.60000038147</ele>
        <time>2022-03-17T10:13:18.000Z</time>
      </trkpt>
      <trkpt lat="47.34467" lon="-2.35945">
        <ele>-11.199999809265</ele>
        <time>2022-03-17T10:13:19.000Z</time>
      </trkpt>
      <trkpt lat="47.34464" lon="-2.35947">
        <ele>-10.800000190735</ele>
        <time>2022-03-17T10:13:20.000Z</time>
      </trkpt>
      <trkpt lat="47.3446" lon="-2.35949">
        <ele>-10.39999961853</ele>
        <time>2022-03-17T10:13:21.000Z</time>
      </trkpt>
      <trkpt lat="47.34457" lon="-2.35951">
        <ele>-10</ele>
        <time>2022-03-17T10:13:22.000Z</time>
      </trkpt>
      <trkpt lat="47.34444" lon="-2.35963">
        <ele>-10</ele>
        <time>2022-03-17T10:13:26.000Z</time>
      </trkpt>
      <trkpt lat="47.34416" lon="-2.35986">
        <ele>-10</ele>
        <time>2022-03-17T10:13:35.000Z</time>
      </trkpt>
      <trkpt lat="47.34411" lon="-2.35989">
        <ele>-9.6000003814697</ele>
        <time>2022-03-17T10:13:37.000Z</time>
      </trkpt>
      <trkpt lat="47.34409" lon="-2.35991">
        <ele>-9.1999998092651</ele>
        <time>2022-03-17T10:13:38.000Z</time>
      </trkpt>
      <trkpt lat="47.34407" lon="-2.35994">
        <ele>-8.8000001907349</ele>
        <time>2022-03-17T10:13:39.000Z</time>
      </trkpt>
      <trkpt lat="47.34406" lon="-2.35998">
        <ele>-8.3999996185303</ele>
        <time>2022-03-17T10:13:40.000Z</time>
      </trkpt>
      <trkpt lat="47.34406" lon="-2.36003">
        <ele>-7.8000001907349</ele>
        <time>2022-03-17T10:13:41.000Z</time>
      </trkpt>
      <trkpt lat="47.34408" lon="-2.36007">
        <ele>-7.8000001907349</ele>
        <time>2022-03-17T10:13:42.000Z</time>
      </trkpt>
      <trkpt lat="47.34415" lon="-2.36025">
        <ele>-7.8000001907349</ele>
        <time>2022-03-17T10:13:46.000Z</time>
      </trkpt>
      <trkpt lat="47.34418" lon="-2.36035">
        <ele>-7.8000001907349</ele>
        <time>2022-03-17T10:13:48.000Z</time>
      </trkpt>
      <trkpt lat="47.34428" lon="-2.36071">
        <ele>-7.8000001907349</ele>
        <time>2022-03-17T10:13:54.000Z</time>
      </trkpt>
      <trkpt lat="47.34434" lon="-2.36092">
        <ele>-7.8000001907349</ele>
        <time>2022-03-17T10:13:57.000Z</time>
      </trkpt>
      <trkpt lat="47.34439" lon="-2.36105">
        <ele>-7.8000001907349</ele>
        <time>2022-03-17T10:14:00.000Z</time>
      </trkpt>
      <trkpt lat="47.34455" lon="-2.36145">
        <ele>-7.8000001907349</ele>
        <time>2022-03-17T10:14:06.000Z</time>
      </trkpt>
      <trkpt lat="47.34458" lon="-2.36152">
        <ele>-7.8000001907349</ele>
        <time>2022-03-17T10:14:07.000Z</time>
      </trkpt>
      <trkpt lat="47.34465" lon="-2.36166">
        <ele>-7.8000001907349</ele>
        <time>2022-03-17T10:14:09.000Z</time>
      </trkpt>
      <trkpt lat="47.34473" lon="-2.3618">
        <ele>-7.8000001907349</ele>
        <time>2022-03-17T10:14:11.000Z</time>
      </trkpt>
      <trkpt lat="47.34496" lon="-2.36219">
        <ele>-7.8000001907349</ele>
        <time>2022-03-17T10:14:17.000Z</time>
      </trkpt>
      <trkpt lat="47.34499" lon="-2.36226">
        <ele>-7.8000001907349</ele>
        <time>2022-03-17T10:14:18.000Z</time>
      </trkpt>
      <trkpt lat="47.34502" lon="-2.36233">
        <ele>-8.3999996185303</ele>
        <time>2022-03-17T10:14:19.000Z</time>
      </trkpt>
      <trkpt lat="47.34505" lon="-2.36241">
        <ele>-8.8000001907349</ele>
        <time>2022-03-17T10:14:20.000Z</time>
      </trkpt>
      <trkpt lat="47.34507" lon="-2.36249">
        <ele>-9.1999998092651</ele>
        <time>2022-03-17T10:14:21.000Z</time>
      </trkpt>
      <trkpt lat="47.34509" lon="-2.36256">
        <ele>-9.6000003814697</ele>
        <time>2022-03-17T10:14:22.000Z</time>
      </trkpt>
      <trkpt lat="47.34512" lon="-2.36263">
        <ele>-10</ele>
        <time>2022-03-17T10:14:23.000Z</time>
      </trkpt>
      <trkpt lat="47.34521" lon="-2.36292">
        <ele>-10</ele>
        <time>2022-03-17T10:14:27.000Z</time>
      </trkpt>
      <trkpt lat="47.34523" lon="-2.36299">
        <ele>-10</ele>
        <time>2022-03-17T10:14:28.000Z</time>
      </trkpt>
      <trkpt lat="47.34534" lon="-2.36331">
        <ele>-10</ele>
        <time>2022-03-17T10:14:33.000Z</time>
      </trkpt>
      <trkpt lat="47.3454" lon="-2.36344">
        <ele>-10</ele>
        <time>2022-03-17T10:14:35.000Z</time>
      </trkpt>
      <trkpt lat="47.34546" lon="-2.36362">
        <ele>-10</ele>
        <time>2022-03-17T10:14:38.000Z</time>
      </trkpt>
      <trkpt lat="47.34549" lon="-2.36368">
        <ele>-10</ele>
        <time>2022-03-17T10:14:39.000Z</time>
      </trkpt>
      <trkpt lat="47.34555" lon="-2.36379">
        <ele>-10</ele>
        <time>2022-03-17T10:14:41.000Z</time>
      </trkpt>
      <trkpt lat="47.34565" lon="-2.36395">
        <ele>-10</ele>
        <time>2022-03-17T10:14:44.000Z</time>
      </trkpt>
      <trkpt lat="47.34572" lon="-2.36405">
        <ele>-9.6000003814697</ele>
        <time>2022-03-17T10:14:46.000Z</time>
      </trkpt>
      <trkpt lat="47.34575" lon="-2.3641">
        <ele>-9.1999998092651</ele>
        <time>2022-03-17T10:14:47.000Z</time>
      </trkpt>
      <trkpt lat="47.34579" lon="-2.36414">
        <ele>-8.8000001907349</ele>
        <time>2022-03-17T10:14:48.000Z</time>
      </trkpt>
      <trkpt lat="47.34581" lon="-2.36419">
        <ele>-8.3999996185303</ele>
        <time>2022-03-17T10:14:49.000Z</time>
      </trkpt>
      <trkpt lat="47.34584" lon="-2.36424">
        <ele>-8</ele>
        <time>2022-03-17T10:14:50.000Z</time>
      </trkpt>
      <trkpt lat="47.34587" lon="-2.36429">
        <ele>-8</ele>
        <time>2022-03-17T10:14:51.000Z</time>
      </trkpt>
      <trkpt lat="47.34589" lon="-2.36445">
        <ele>-8</ele>
        <time>2022-03-17T10:14:54.000Z</time>
      </trkpt>
      <trkpt lat="47.34588" lon="-2.36451">
        <ele>-8</ele>
        <time>2022-03-17T10:14:55.000Z</time>
      </trkpt>
      <trkpt lat="47.34581" lon="-2.3647">
        <ele>-8</ele>
        <time>2022-03-17T10:14:58.000Z</time>
      </trkpt>
      <trkpt lat="47.34578" lon="-2.36476">
        <ele>-8</ele>
        <time>2022-03-17T10:14:59.000Z</time>
      </trkpt>
      <trkpt lat="47.34559" lon="-2.36531">
        <ele>-8</ele>
        <time>2022-03-17T10:15:07.000Z</time>
      </trkpt>
      <trkpt lat="47.34554" lon="-2.36543">
        <ele>-7.5999999046326</ele>
        <time>2022-03-17T10:15:09.000Z</time>
      </trkpt>
      <trkpt lat="47.34552" lon="-2.3655">
        <ele>-7.1999998092651</ele>
        <time>2022-03-17T10:15:10.000Z</time>
      </trkpt>
      <trkpt lat="47.34549" lon="-2.36557">
        <ele>-6.8000001907349</ele>
        <time>2022-03-17T10:15:11.000Z</time>
      </trkpt>
      <trkpt lat="47.34546" lon="-2.36563">
        <ele>-6.4000000953674</ele>
        <time>2022-03-17T10:15:12.000Z</time>
      </trkpt>
      <trkpt lat="47.34544" lon="-2.36569">
        <ele>-6</ele>
        <time>2022-03-17T10:15:13.000Z</time>
      </trkpt>
      <trkpt lat="47.34541" lon="-2.36575">
        <ele>-6</ele>
        <time>2022-03-17T10:15:14.000Z</time>
      </trkpt>
      <trkpt lat="47.34526" lon="-2.36616">
        <ele>-6</ele>
        <time>2022-03-17T10:15:21.000Z</time>
      </trkpt>
      <trkpt lat="47.34519" lon="-2.36634">
        <ele>-6</ele>
        <time>2022-03-17T10:15:24.000Z</time>
      </trkpt>
      <trkpt lat="47.34509" lon="-2.36658">
        <ele>-5.5999999046326</ele>
        <time>2022-03-17T10:15:28.000Z</time>
      </trkpt>
      <trkpt lat="47.34507" lon="-2.36664">
        <ele>-5</ele>
        <time>2022-03-17T10:15:29.000Z</time>
      </trkpt>
      <trkpt lat="47.34504" lon="-2.3667">
        <ele>-4.5999999046326</ele>
        <time>2022-03-17T10:15:30.000Z</time>
      </trkpt>
      <trkpt lat="47.34502" lon="-2.36675">
        <ele>-4.1999998092651</ele>
        <time>2022-03-17T10:15:31.000Z</time>
      </trkpt>
      <trkpt lat="47.34499" lon="-2.36681">
        <ele>-3.7999999523163</ele>
        <time>2022-03-17T10:15:32.000Z</time>
      </trkpt>
      <trkpt lat="47.34489" lon="-2.36703">
        <ele>-3.7999999523163</ele>
        <time>2022-03-17T10:15:36.000Z</time>
      </trkpt>
      <trkpt lat="47.34475" lon="-2.3673">
        <ele>-3.7999999523163</ele>
        <time>2022-03-17T10:15:41.000Z</time>
      </trkpt>
      <trkpt lat="47.3447" lon="-2.3674">
        <ele>-3.4000000953674</ele>
        <time>2022-03-17T10:15:43.000Z</time>
      </trkpt>
      <trkpt lat="47.34467" lon="-2.36745">
        <ele>-3</ele>
        <time>2022-03-17T10:15:44.000Z</time>
      </trkpt>
      <trkpt lat="47.34464" lon="-2.3675">
        <ele>-2.5999999046326</ele>
        <time>2022-03-17T10:15:45.000Z</time>
      </trkpt>
      <trkpt lat="47.34462" lon="-2.36754">
        <ele>-2.2000000476837</ele>
        <time>2022-03-17T10:15:46.000Z</time>
      </trkpt>
      <trkpt lat="47.34459" lon="-2.36759">
        <ele>-1.7999999523163</ele>
        <time>2022-03-17T10:15:47.000Z</time>
      </trkpt>
      <trkpt lat="47.34456" lon="-2.36764">
        <ele>-1.7999999523163</ele>
        <time>2022-03-17T10:15:48.000Z</time>
      </trkpt>
      <trkpt lat="47.34438" lon="-2.3679">
        <ele>-1.7999999523163</ele>
        <time>2022-03-17T10:15:54.000Z</time>
      </trkpt>
      <trkpt lat="47.34423" lon="-2.36814">
        <ele>-1.3999999761581</ele>
        <time>2022-03-17T10:15:59.000Z</time>
      </trkpt>
      <trkpt lat="47.3442" lon="-2.36819">
        <ele>-1</ele>
        <time>2022-03-17T10:16:00.000Z</time>
      </trkpt>
      <trkpt lat="47.34417" lon="-2.36823">
        <ele>-0.40000000596046</ele>
        <time>2022-03-17T10:16:01.000Z</time>
      </trkpt>
      <trkpt lat="47.34415" lon="-2.36828">
        <ele>26</ele>
        <time>2022-03-17T10:16:02.000Z</time>
      </trkpt>
      <trkpt lat="47.34412" lon="-2.36833">
        <ele>0.40000000596046</ele>
        <time>2022-03-17T10:16:03.000Z</time>
      </trkpt>
      <trkpt lat="47.34398" lon="-2.36855">
        <ele>0.40000000596046</ele>
        <time>2022-03-17T10:16:08.000Z</time>
      </trkpt>
      <trkpt lat="47.34386" lon="-2.36873">
        <ele>0.40000000596046</ele>
        <time>2022-03-17T10:16:12.000Z</time>
      </trkpt>
      <trkpt lat="47.34377" lon="-2.36889">
        <ele>0.40000000596046</ele>
        <time>2022-03-17T10:16:15.000Z</time>
      </trkpt>
      <trkpt lat="47.34348" lon="-2.36935">
        <ele>0.40000000596046</ele>
        <time>2022-03-17T10:16:24.000Z</time>
      </trkpt>
      <trkpt lat="47.34317" lon="-2.36981">
        <ele>0.40000000596046</ele>
        <time>2022-03-17T10:16:33.000Z</time>
      </trkpt>
      <trkpt lat="47.34284" lon="-2.37022">
        <ele>0.40000000596046</ele>
        <time>2022-03-17T10:16:42.000Z</time>
      </trkpt>
      <trkpt lat="47.34272" lon="-2.37034">
        <ele>0.40000000596046</ele>
        <time>2022-03-17T10:16:45.000Z</time>
      </trkpt>
      <trkpt lat="47.34256" lon="-2.37047">
        <ele>0.40000000596046</ele>
        <time>2022-03-17T10:16:49.000Z</time>
      </trkpt>
      <trkpt lat="47.34234" lon="-2.3706">
        <ele>0.40000000596046</ele>
        <time>2022-03-17T10:16:55.000Z</time>
      </trkpt>
      <trkpt lat="47.3423" lon="-2.37058">
        <ele>0.40000000596046</ele>
        <time>2022-03-17T10:16:56.000Z</time>
      </trkpt>
      <trkpt lat="47.34223" lon="-2.37047">
        <ele>0.40000000596046</ele>
        <time>2022-03-17T10:16:58.000Z</time>
      </trkpt>
      <trkpt lat="47.34217" lon="-2.37034">
        <ele>0.40000000596046</ele>
        <time>2022-03-17T10:17:00.000Z</time>
      </trkpt>
      <trkpt lat="47.34207" lon="-2.37014">
        <ele>0.40000000596046</ele>
        <time>2022-03-17T10:17:03.000Z</time>
      </trkpt>
      <trkpt lat="47.34179" lon="-2.36974">
        <ele>0.40000000596046</ele>
        <time>2022-03-17T10:17:09.000Z</time>
      </trkpt>
      <trkpt lat="47.3416" lon="-2.36947">
        <ele>22.8</ele>
        <time>2022-03-17T10:17:13.000Z</time>
      </trkpt>
      <trkpt lat="47.34156" lon="-2.36939">
        <ele>-0.60000002384186</ele>
        <time>2022-03-17T10:17:14.000Z</time>
      </trkpt>
      <trkpt lat="47.34152" lon="-2.36931">
        <ele>-1</ele>
        <time>2022-03-17T10:17:15.000Z</time>
      </trkpt>
      <trkpt lat="47.34147" lon="-2.36923">
        <ele>-1.3999999761581</ele>
        <time>2022-03-17T10:17:16.000Z</time>
      </trkpt>
      <trkpt lat="47.34143" lon="-2.36916">
        <ele>-1.7999999523163</ele>
        <time>2022-03-17T10:17:17.000Z</time>
      </trkpt>
      <trkpt lat="47.34119" lon="-2.36871">
        <ele>-2.2000000476837</ele>
        <time>2022-03-17T10:17:23.000Z</time>
      </trkpt>
      <trkpt lat="47.34115" lon="-2.36865">
        <ele>-2.5999999046326</ele>
        <time>2022-03-17T10:17:24.000Z</time>
      </trkpt>
      <trkpt lat="47.34113" lon="-2.36858">
        <ele>-3</ele>
        <time>2022-03-17T10:17:25.000Z</time>
      </trkpt>
      <trkpt lat="47.3411" lon="-2.3685">
        <ele>-3.4000000953674</ele>
        <time>2022-03-17T10:17:26.000Z</time>
      </trkpt>
      <trkpt lat="47.34108" lon="-2.36843">
        <ele>-3.7999999523163</ele>
        <time>2022-03-17T10:17:27.000Z</time>
      </trkpt>
      <trkpt lat="47.34106" lon="-2.36835">
        <ele>-3.7999999523163</ele>
        <time>2022-03-17T10:17:28.000Z</time>
      </trkpt>
      <trkpt lat="47.34097" lon="-2.36784">
        <ele>-3.7999999523163</ele>
        <time>2022-03-17T10:17:35.000Z</time>
      </trkpt>
      <trkpt lat="47.34086" lon="-2.36731">
        <ele>-3.7999999523163</ele>
        <time>2022-03-17T10:17:42.000Z</time>
      </trkpt>
      <trkpt lat="47.34079" lon="-2.36703">
        <ele>-3.7999999523163</ele>
        <time>2022-03-17T10:17:47.000Z</time>
      </trkpt>
      <trkpt lat="47.34075" lon="-2.36702">
        <ele>-3.7999999523163</ele>
        <time>2022-03-17T10:17:48.000Z</time>
      </trkpt>
      <trkpt lat="47.34069" lon="-2.36703">
        <ele>-3.7999999523163</ele>
        <time>2022-03-17T10:17:49.000Z</time>
      </trkpt>
      <trkpt lat="47.34055" lon="-2.36711">
        <ele>-3.7999999523163</ele>
        <time>2022-03-17T10:17:52.000Z</time>
      </trkpt>
      <trkpt lat="47.34051" lon="-2.36714">
        <ele>-3.7999999523163</ele>
        <time>2022-03-17T10:17:53.000Z</time>
      </trkpt>
      <trkpt lat="47.34042" lon="-2.3672">
        <ele>-3.4000000953674</ele>
        <time>2022-03-17T10:17:55.000Z</time>
      </trkpt>
      <trkpt lat="47.34037" lon="-2.36722">
        <ele>-3</ele>
        <time>2022-03-17T10:17:56.000Z</time>
      </trkpt>
      <trkpt lat="47.34033" lon="-2.36725">
        <ele>-2.5999999046326</ele>
        <time>2022-03-17T10:17:57.000Z</time>
      </trkpt>
      <trkpt lat="47.34028" lon="-2.36727">
        <ele>-2.2000000476837</ele>
        <time>2022-03-17T10:17:58.000Z</time>
      </trkpt>
      <trkpt lat="47.34023" lon="-2.3673">
        <ele>-1.7999999523163</ele>
        <time>2022-03-17T10:17:59.000Z</time>
      </trkpt>
      <trkpt lat="47.34018" lon="-2.36733">
        <ele>-1.7999999523163</ele>
        <time>2022-03-17T10:18:00.000Z</time>
      </trkpt>
      <trkpt lat="47.33986" lon="-2.36743">
        <ele>-1.7999999523163</ele>
        <time>2022-03-17T10:18:07.000Z</time>
      </trkpt>
      <trkpt lat="47.33968" lon="-2.36749">
        <ele>-1.3999999761581</ele>
        <time>2022-03-17T10:18:11.000Z</time>
      </trkpt>
      <trkpt lat="47.33963" lon="-2.3675">
        <ele>-1</ele>
        <time>2022-03-17T10:18:12.000Z</time>
      </trkpt>
      <trkpt lat="47.33959" lon="-2.36751">
        <ele>-0.40000000596046</ele>
        <time>2022-03-17T10:18:13.000Z</time>
      </trkpt>
      <trkpt lat="47.33954" lon="-2.36752">
        <ele>27.7</ele>
        <time>2022-03-17T10:18:14.000Z</time>
      </trkpt>
      <trkpt lat="47.33949" lon="-2.36753">
        <ele>0.40000000596046</ele>
        <time>2022-03-17T10:18:15.000Z</time>
      </trkpt>
      <trkpt lat="47.33935" lon="-2.36757">
        <ele>0.40000000596046</ele>
        <time>2022-03-17T10:18:19.000Z</time>
      </trkpt>
      <trkpt lat="47.3392" lon="-2.3676">
        <ele>0.40000000596046</ele>
        <time>2022-03-17T10:18:25.000Z</time>
      </trkpt>
      <trkpt lat="47.33913" lon="-2.36759">
        <ele>0.80000001192093</ele>
        <time>2022-03-17T10:18:28.000Z</time>
      </trkpt>
      <trkpt lat="47.33909" lon="-2.36759">
        <ele>1.2000000476837</ele>
        <time>2022-03-17T10:18:29.000Z</time>
      </trkpt>
      <trkpt lat="47.33906" lon="-2.36758">
        <ele>1.6000000238419</ele>
        <time>2022-03-17T10:18:30.000Z</time>
      </trkpt>
      <trkpt lat="47.33901" lon="-2.3676">
        <ele>2</ele>
        <time>2022-03-17T10:18:31.000Z</time>
      </trkpt>
      <trkpt lat="47.33897" lon="-2.36761">
        <ele>2.4000000953674</ele>
        <time>2022-03-17T10:18:32.000Z</time>
      </trkpt>
      <trkpt lat="47.33869" lon="-2.36769">
        <ele>2.4000000953674</ele>
        <time>2022-03-17T10:18:38.000Z</time>
      </trkpt>
      <trkpt lat="47.33834" lon="-2.36776">
        <ele>2.4000000953674</ele>
        <time>2022-03-17T10:18:45.000Z</time>
      </trkpt>
      <trkpt lat="47.33798" lon="-2.36788">
        <ele>2.4000000953674</ele>
        <time>2022-03-17T10:18:52.000Z</time>
      </trkpt>
      <trkpt lat="47.3376" lon="-2.36801">
        <ele>2.4000000953674</ele>
        <time>2022-03-17T10:19:00.000Z</time>
      </trkpt>
      <trkpt lat="47.33736" lon="-2.36809">
        <ele>2.7999999523163</ele>
        <time>2022-03-17T10:19:06.000Z</time>
      </trkpt>
      <trkpt lat="47.33731" lon="-2.36811">
        <ele>3.2000000476837</ele>
        <time>2022-03-17T10:19:07.000Z</time>
      </trkpt>
      <trkpt lat="47.33727" lon="-2.36812">
        <ele>3.5999999046326</ele>
        <time>2022-03-17T10:19:08.000Z</time>
      </trkpt>
      <trkpt lat="47.33723" lon="-2.36814">
        <ele>4.4000000953674</ele>
        <time>2022-03-17T10:19:09.000Z</time>
      </trkpt>
      <trkpt lat="47.33711" lon="-2.36822">
        <ele>4.4000000953674</ele>
        <time>2022-03-17T10:19:12.000Z</time>
      </trkpt>
      <trkpt lat="47.33704" lon="-2.36828">
        <ele>4.4000000953674</ele>
        <time>2022-03-17T10:19:14.000Z</time>
      </trkpt>
      <trkpt lat="47.33691" lon="-2.36842">
        <ele>4.4000000953674</ele>
        <time>2022-03-17T10:19:17.000Z</time>
      </trkpt>
      <trkpt lat="47.33656" lon="-2.36885">
        <ele>4.4000000953674</ele>
        <time>2022-03-17T10:19:25.000Z</time>
      </trkpt>
      <trkpt lat="47.33643" lon="-2.36902">
        <ele>4.4000000953674</ele>
        <time>2022-03-17T10:19:28.000Z</time>
      </trkpt>
      <trkpt lat="47.3363" lon="-2.36919">
        <ele>4.4000000953674</ele>
        <time>2022-03-17T10:19:31.000Z</time>
      </trkpt>
      <trkpt lat="47.33613" lon="-2.36943">
        <ele>4.4000000953674</ele>
        <time>2022-03-17T10:19:36.000Z</time>
      </trkpt>
      <trkpt lat="47.33608" lon="-2.36949">
        <ele>4.4000000953674</ele>
        <time>2022-03-17T10:19:39.000Z</time>
      </trkpt>
      <trkpt lat="47.33607" lon="-2.36951">
        <ele>4.4000000953674</ele>
        <time>2022-03-17T10:19:40.000Z</time>
      </trkpt>
      <trkpt lat="47.33604" lon="-2.36972">
        <ele>4.4000000953674</ele>
        <time>2022-03-17T10:19:45.000Z</time>
      </trkpt>
      <trkpt lat="47.33604" lon="-2.36998">
        <ele>4.4000000953674</ele>
        <time>2022-03-17T10:19:49.000Z</time>
      </trkpt>
      <trkpt lat="47.33604" lon="-2.37045">
        <ele>4.4000000953674</ele>
        <time>2022-03-17T10:19:55.000Z</time>
      </trkpt>
      <trkpt lat="47.33604" lon="-2.37077">
        <ele>4.4000000953674</ele>
        <time>2022-03-17T10:19:59.000Z</time>
      </trkpt>
      <trkpt lat="47.33605" lon="-2.37085">
        <ele>4.4000000953674</ele>
        <time>2022-03-17T10:20:00.000Z</time>
      </trkpt>
      <trkpt lat="47.33605" lon="-2.37156">
        <ele>4.4000000953674</ele>
        <time>2022-03-17T10:20:09.000Z</time>
      </trkpt>
      <trkpt lat="47.33602" lon="-2.37178">
        <ele>4.4000000953674</ele>
        <time>2022-03-17T10:20:12.000Z</time>
      </trkpt>
      <trkpt lat="47.33599" lon="-2.372">
        <ele>4.4000000953674</ele>
        <time>2022-03-17T10:20:15.000Z</time>
      </trkpt>
      <trkpt lat="47.33599" lon="-2.37228">
        <ele>4.4000000953674</ele>
        <time>2022-03-17T10:20:19.000Z</time>
      </trkpt>
      <trkpt lat="47.33596" lon="-2.37232">
        <ele>4.4000000953674</ele>
        <time>2022-03-17T10:20:20.000Z</time>
      </trkpt>
      <trkpt lat="47.33585" lon="-2.37235">
        <ele>4.4000000953674</ele>
        <time>2022-03-17T10:20:23.000Z</time>
      </trkpt>
      <trkpt lat="47.33582" lon="-2.37235">
        <ele>4.4000000953674</ele>
        <time>2022-03-17T10:20:24.000Z</time>
      </trkpt>
      <trkpt lat="47.33575" lon="-2.37234">
        <ele>4.4000000953674</ele>
        <time>2022-03-17T10:20:28.000Z</time>
      </trkpt>
      <trkpt lat="47.33565" lon="-2.37232">
        <ele>4.4000000953674</ele>
        <time>2022-03-17T10:20:33.000Z</time>
      </trkpt>
      <trkpt lat="47.33543" lon="-2.37232">
        <ele>4.4000000953674</ele>
        <time>2022-03-17T10:20:39.000Z</time>
      </trkpt>
      <trkpt lat="47.33526" lon="-2.37234">
        <ele>4</ele>
        <time>2022-03-17T10:20:43.000Z</time>
      </trkpt>
      <trkpt lat="47.33521" lon="-2.37233">
        <ele>3.5999999046326</ele>
        <time>2022-03-17T10:20:44.000Z</time>
      </trkpt>
      <trkpt lat="47.33516" lon="-2.3723">
        <ele>3.2000000476837</ele>
        <time>2022-03-17T10:20:45.000Z</time>
      </trkpt>
      <trkpt lat="47.33512" lon="-2.37229">
        <ele>2.7999999523163</ele>
        <time>2022-03-17T10:20:46.000Z</time>
      </trkpt>
      <trkpt lat="47.33508" lon="-2.37228">
        <ele>2.4000000953674</ele>
        <time>2022-03-17T10:20:47.000Z</time>
      </trkpt>
      <trkpt lat="47.33498" lon="-2.37227">
        <ele>2.4000000953674</ele>
        <time>2022-03-17T10:20:49.000Z</time>
      </trkpt>
      <trkpt lat="47.33494" lon="-2.37223">
        <ele>2.4000000953674</ele>
        <time>2022-03-17T10:20:50.000Z</time>
      </trkpt>
      <trkpt lat="47.3349" lon="-2.37218">
        <ele>2</ele>
        <time>2022-03-17T10:20:51.000Z</time>
      </trkpt>
      <trkpt lat="47.33487" lon="-2.37212">
        <ele>1.6000000238419</ele>
        <time>2022-03-17T10:20:52.000Z</time>
      </trkpt>
      <trkpt lat="47.33485" lon="-2.37205">
        <ele>1.2000000476837</ele>
        <time>2022-03-17T10:20:53.000Z</time>
      </trkpt>
      <trkpt lat="47.33483" lon="-2.37198">
        <ele>0.80000001192093</ele>
        <time>2022-03-17T10:20:54.000Z</time>
      </trkpt>
      <trkpt lat="47.33481" lon="-2.37191">
        <ele>0.40000000596046</ele>
        <time>2022-03-17T10:20:55.000Z</time>
      </trkpt>
      <trkpt lat="47.3348" lon="-2.37177">
        <ele>0.40000000596046</ele>
        <time>2022-03-17T10:20:57.000Z</time>
      </trkpt>
      <trkpt lat="47.33479" lon="-2.37171">
        <ele>0.40000000596046</ele>
        <time>2022-03-17T10:20:58.000Z</time>
      </trkpt>
      <trkpt lat="47.33475" lon="-2.37133">
        <ele>23.9</ele>
        <time>2022-03-17T10:21:03.000Z</time>
      </trkpt>
      <trkpt lat="47.33474" lon="-2.37125">
        <ele>-0.40000000596046</ele>
        <time>2022-03-17T10:21:04.000Z</time>
      </trkpt>
      <trkpt lat="47.33474" lon="-2.37117">
        <ele>-0.80000001192093</ele>
        <time>2022-03-17T10:21:05.000Z</time>
      </trkpt>
      <trkpt lat="47.33473" lon="-2.37108">
        <ele>-1.3999999761581</ele>
        <time>2022-03-17T10:21:06.000Z</time>
      </trkpt>
      <trkpt lat="47.33472" lon="-2.371">
        <ele>-1.7999999523163</ele>
        <time>2022-03-17T10:21:07.000Z</time>
      </trkpt>
      <trkpt lat="47.3347" lon="-2.37072">
        <ele>-1.7999999523163</ele>
        <time>2022-03-17T10:21:10.000Z</time>
      </trkpt>
      <trkpt lat="47.3347" lon="-2.37054">
        <ele>-2.2000000476837</ele>
        <time>2022-03-17T10:21:12.000Z</time>
      </trkpt>
      <trkpt lat="47.3347" lon="-2.37044">
        <ele>-2.5999999046326</ele>
        <time>2022-03-17T10:21:13.000Z</time>
      </trkpt>
      <trkpt lat="47.3347" lon="-2.37035">
        <ele>-3.2000000476837</ele>
        <time>2022-03-17T10:21:14.000Z</time>
      </trkpt>
      <trkpt lat="47.33471" lon="-2.37024">
        <ele>-3.5999999046326</ele>
        <time>2022-03-17T10:21:15.000Z</time>
      </trkpt>
      <trkpt lat="47.33471" lon="-2.37017">
        <ele>-4</ele>
        <time>2022-03-17T10:21:16.000Z</time>
      </trkpt>
      <trkpt lat="47.33471" lon="-2.37006">
        <ele>-4</ele>
        <time>2022-03-17T10:21:19.000Z</time>
      </trkpt>
      <trkpt lat="47.33472" lon="-2.37002">
        <ele>-4</ele>
        <time>2022-03-17T10:21:22.000Z</time>
      </trkpt>
      <trkpt lat="47.3347" lon="-2.36998">
        <ele>-4</ele>
        <time>2022-03-17T10:23:12.000Z</time>
      </trkpt>
      <trkpt lat="47.33466" lon="-2.3699">
        <ele>-4.4000000953674</ele>
        <time>2022-03-17T10:23:15.000Z</time>
      </trkpt>
      <trkpt lat="47.33463" lon="-2.36987">
        <ele>-4.8000001907349</ele>
        <time>2022-03-17T10:23:16.000Z</time>
      </trkpt>
      <trkpt lat="47.33461" lon="-2.36982">
        <ele>-5.1999998092651</ele>
        <time>2022-03-17T10:23:17.000Z</time>
      </trkpt>
      <trkpt lat="47.33459" lon="-2.36977">
        <ele>-5.5999999046326</ele>
        <time>2022-03-17T10:23:18.000Z</time>
      </trkpt>
      <trkpt lat="47.33457" lon="-2.36973">
        <ele>-6</ele>
        <time>2022-03-17T10:23:19.000Z</time>
      </trkpt>
      <trkpt lat="47.33452" lon="-2.36963">
        <ele>-6</ele>
        <time>2022-03-17T10:23:22.000Z</time>
      </trkpt>
      <trkpt lat="47.33448" lon="-2.36952">
        <ele>-6</ele>
        <time>2022-03-17T10:23:26.000Z</time>
      </trkpt>
      <trkpt lat="47.33447" lon="-2.36947">
        <ele>-6</ele>
        <time>2022-03-17T10:23:27.000Z</time>
      </trkpt>
      <trkpt lat="47.33446" lon="-2.36934">
        <ele>-6</ele>
        <time>2022-03-17T10:23:30.000Z</time>
      </trkpt>
      <trkpt lat="47.33442" lon="-2.36911">
        <ele>-6</ele>
        <time>2022-03-17T10:23:35.000Z</time>
      </trkpt>
      <trkpt lat="47.3344" lon="-2.36886">
        <ele>-6</ele>
        <time>2022-03-17T10:23:41.000Z</time>
      </trkpt>
      <trkpt lat="47.33443" lon="-2.3687">
        <ele>-6</ele>
        <time>2022-03-17T10:23:45.000Z</time>
      </trkpt>
      <trkpt lat="47.33445" lon="-2.36867">
        <ele>-6</ele>
        <time>2022-03-17T10:23:46.000Z</time>
      </trkpt>
      <trkpt lat="47.33452" lon="-2.36857">
        <ele>-6</ele>
        <time>2022-03-17T10:23:50.000Z</time>
      </trkpt>
      <trkpt lat="47.33454" lon="-2.36852">
        <ele>-6</ele>
        <time>2022-03-17T10:23:51.000Z</time>
      </trkpt>
      <trkpt lat="47.33462" lon="-2.36822">
        <ele>-6</ele>
        <time>2022-03-17T10:23:57.000Z</time>
      </trkpt>
      <trkpt lat="47.33464" lon="-2.3679">
        <ele>-6</ele>
        <time>2022-03-17T10:24:03.000Z</time>
      </trkpt>
      <trkpt lat="47.33471" lon="-2.36763">
        <ele>-6</ele>
        <time>2022-03-17T10:24:09.000Z</time>
      </trkpt>
      <trkpt lat="47.3348" lon="-2.36741">
        <ele>-6.4000000953674</ele>
        <time>2022-03-17T10:24:15.000Z</time>
      </trkpt>
      <trkpt lat="47.33481" lon="-2.36739">
        <ele>-6.8000001907349</ele>
        <time>2022-03-17T10:24:16.000Z</time>
      </trkpt>
      <trkpt lat="47.33482" lon="-2.36736">
        <ele>-7.8000001907349</ele>
        <time>2022-03-17T10:24:17.000Z</time>
      </trkpt>
      <trkpt lat="47.33483" lon="-2.36734">
        <ele>-8.1999998092651</ele>
        <time>2022-03-17T10:24:18.000Z</time>
      </trkpt>
      <trkpt lat="47.33484" lon="-2.36731">
        <ele>-8.1999998092651</ele>
        <time>2022-03-17T10:24:19.000Z</time>
      </trkpt>
      <trkpt lat="47.33494" lon="-2.36712">
        <ele>-8.1999998092651</ele>
        <time>2022-03-17T10:24:26.000Z</time>
      </trkpt>
      <trkpt lat="47.33496" lon="-2.36709">
        <ele>-8.1999998092651</ele>
        <time>2022-03-17T10:24:28.000Z</time>
      </trkpt>
      <trkpt lat="47.33498" lon="-2.36703">
        <ele>-8.1999998092651</ele>
        <time>2022-03-17T10:24:42.000Z</time>
      </trkpt>
      <trkpt lat="47.33499" lon="-2.36701">
        <ele>-8.1999998092651</ele>
        <time>2022-03-17T10:24:43.000Z</time>
      </trkpt>
      <trkpt lat="47.33502" lon="-2.36695">
        <ele>-8.1999998092651</ele>
        <time>2022-03-17T10:24:46.000Z</time>
      </trkpt>
      <trkpt lat="47.33504" lon="-2.36691">
        <ele>-8.1999998092651</ele>
        <time>2022-03-17T10:24:48.000Z</time>
      </trkpt>
      <trkpt lat="47.33507" lon="-2.36682">
        <ele>-8.1999998092651</ele>
        <time>2022-03-17T10:24:52.000Z</time>
      </trkpt>
      <trkpt lat="47.33508" lon="-2.3668">
        <ele>-8.1999998092651</ele>
        <time>2022-03-17T10:24:53.000Z</time>
      </trkpt>
      <trkpt lat="47.33517" lon="-2.36667">
        <ele>-8.1999998092651</ele>
        <time>2022-03-17T10:24:59.000Z</time>
      </trkpt>
      <trkpt lat="47.33523" lon="-2.36657">
        <ele>-8.1999998092651</ele>
        <time>2022-03-17T10:25:04.000Z</time>
      </trkpt>
      <trkpt lat="47.33524" lon="-2.36653">
        <ele>-8.1999998092651</ele>
        <time>2022-03-17T10:25:06.000Z</time>
      </trkpt>
      <trkpt lat="47.33527" lon="-2.36646">
        <ele>-8.1999998092651</ele>
        <time>2022-03-17T10:25:09.000Z</time>
      </trkpt>
      <trkpt lat="47.33528" lon="-2.36639">
        <ele>-8.1999998092651</ele>
        <time>2022-03-17T10:25:11.000Z</time>
      </trkpt>
      <trkpt lat="47.33527" lon="-2.36633">
        <ele>-7.5999999046326</ele>
        <time>2022-03-17T10:25:14.000Z</time>
      </trkpt>
      <trkpt lat="47.33527" lon="-2.36631">
        <ele>-7.1999998092651</ele>
        <time>2022-03-17T10:25:15.000Z</time>
      </trkpt>
      <trkpt lat="47.33527" lon="-2.3663">
        <ele>-6.8000001907349</ele>
        <time>2022-03-17T10:25:16.000Z</time>
      </trkpt>
      <trkpt lat="47.33526" lon="-2.3663">
        <ele>-6.4000000953674</ele>
        <time>2022-03-17T10:25:17.000Z</time>
      </trkpt>
      <trkpt lat="47.33525" lon="-2.36621">
        <ele>-5.4000000953674</ele>
        <time>2022-03-17T10:25:25.000Z</time>
      </trkpt>
      <trkpt lat="47.33524" lon="-2.36618">
        <ele>-5</ele>
        <time>2022-03-17T10:25:26.000Z</time>
      </trkpt>
      <trkpt lat="47.33523" lon="-2.36617">
        <ele>-4.5999999046326</ele>
        <time>2022-03-17T10:25:27.000Z</time>
      </trkpt>
      <trkpt lat="47.33521" lon="-2.36615">
        <ele>-4.1999998092651</ele>
        <time>2022-03-17T10:25:28.000Z</time>
      </trkpt>
      <trkpt lat="47.33518" lon="-2.36614">
        <ele>-3.7999999523163</ele>
        <time>2022-03-17T10:25:29.000Z</time>
      </trkpt>
      <trkpt lat="47.33512" lon="-2.3661">
        <ele>-3.7999999523163</ele>
        <time>2022-03-17T10:25:32.000Z</time>
      </trkpt>
      <trkpt lat="47.33504" lon="-2.36603">
        <ele>-3.4000000953674</ele>
        <time>2022-03-17T10:25:35.000Z</time>
      </trkpt>
      <trkpt lat="47.33502" lon="-2.36601">
        <ele>-3</ele>
        <time>2022-03-17T10:25:36.000Z</time>
      </trkpt>
      <trkpt lat="47.335" lon="-2.36599">
        <ele>-2.5999999046326</ele>
        <time>2022-03-17T10:25:37.000Z</time>
      </trkpt>
      <trkpt lat="47.33497" lon="-2.36597">
        <ele>-2.2000000476837</ele>
        <time>2022-03-17T10:25:38.000Z</time>
      </trkpt>
      <trkpt lat="47.33494" lon="-2.36596">
        <ele>-1.7999999523163</ele>
        <time>2022-03-17T10:25:39.000Z</time>
      </trkpt>
      <trkpt lat="47.33486" lon="-2.36595">
        <ele>-1.7999999523163</ele>
        <time>2022-03-17T10:25:42.000Z</time>
      </trkpt>
      <trkpt lat="47.33469" lon="-2.36589">
        <ele>-1.7999999523163</ele>
        <time>2022-03-17T10:25:49.000Z</time>
      </trkpt>
      <trkpt lat="47.33468" lon="-2.36586">
        <ele>-1.7999999523163</ele>
        <time>2022-03-17T10:25:50.000Z</time>
      </trkpt>
      <trkpt lat="47.33469" lon="-2.36577">
        <ele>-1.7999999523163</ele>
        <time>2022-03-17T10:25:53.000Z</time>
      </trkpt>
      <trkpt lat="47.33469" lon="-2.36558">
        <ele>-1.7999999523163</ele>
        <time>2022-03-17T10:25:58.000Z</time>
      </trkpt>
      <trkpt lat="47.33471" lon="-2.36531">
        <ele>-1.7999999523163</ele>
        <time>2022-03-17T10:26:04.000Z</time>
      </trkpt>
      <trkpt lat="47.33472" lon="-2.365">
        <ele>-1.7999999523163</ele>
        <time>2022-03-17T10:26:11.000Z</time>
      </trkpt>
      <trkpt lat="47.33473" lon="-2.36479">
        <ele>-1.3999999761581</ele>
        <time>2022-03-17T10:26:16.000Z</time>
      </trkpt>
      <trkpt lat="47.33473" lon="-2.36474">
        <ele>-1</ele>
        <time>2022-03-17T10:26:17.000Z</time>
      </trkpt>
      <trkpt lat="47.33473" lon="-2.36469">
        <ele>-0.60000002384186</ele>
        <time>2022-03-17T10:26:18.000Z</time>
      </trkpt>
      <trkpt lat="47.33473" lon="-2.36465">
        <ele>-0.20000000298023</ele>
        <time>2022-03-17T10:26:19.000Z</time>
      </trkpt>
      <trkpt lat="47.33473" lon="-2.36461">
        <ele>0.20000000298023</ele>
        <time>2022-03-17T10:26:20.000Z</time>
      </trkpt>
      <trkpt lat="47.33474" lon="-2.36445">
        <ele>0.20000000298023</ele>
        <time>2022-03-17T10:26:24.000Z</time>
      </trkpt>
      <trkpt lat="47.33473" lon="-2.36431">
        <ele>0.20000000298023</ele>
        <time>2022-03-17T10:26:29.000Z</time>
      </trkpt>
      <trkpt lat="47.33472" lon="-2.36425">
        <ele>0.20000000298023</ele>
        <time>2022-03-17T10:26:34.000Z</time>
      </trkpt>
      <trkpt lat="47.33467" lon="-2.3642">
        <ele>0.20000000298023</ele>
        <time>2022-03-17T10:26:43.000Z</time>
      </trkpt>
      <trkpt lat="47.33463" lon="-2.36419">
        <ele>0.20000000298023</ele>
        <time>2022-03-17T10:26:46.000Z</time>
      </trkpt>
      <trkpt lat="47.33451" lon="-2.3641">
        <ele>0.20000000298023</ele>
        <time>2022-03-17T10:26:52.000Z</time>
      </trkpt>
      <trkpt lat="47.33447" lon="-2.36401">
        <ele>0.20000000298023</ele>
        <time>2022-03-17T10:26:58.000Z</time>
      </trkpt>
      <trkpt lat="47.33444" lon="-2.3639">
        <ele>0.20000000298023</ele>
        <time>2022-03-17T10:27:04.000Z</time>
      </trkpt>
      <trkpt lat="47.33443" lon="-2.36387">
        <ele>0.20000000298023</ele>
        <time>2022-03-17T10:27:05.000Z</time>
      </trkpt>
      <trkpt lat="47.33441" lon="-2.36377">
        <ele>0.60000002384186</ele>
        <time>2022-03-17T10:27:08.000Z</time>
      </trkpt>
      <trkpt lat="47.3344" lon="-2.36373">
        <ele>1</ele>
        <time>2022-03-17T10:27:09.000Z</time>
      </trkpt>
      <trkpt lat="47.33439" lon="-2.3637">
        <ele>1.3999999761581</ele>
        <time>2022-03-17T10:27:10.000Z</time>
      </trkpt>
      <trkpt lat="47.33438" lon="-2.36366">
        <ele>2.2000000476837</ele>
        <time>2022-03-17T10:27:11.000Z</time>
      </trkpt>
      <trkpt lat="47.33434" lon="-2.36351">
        <ele>2.2000000476837</ele>
        <time>2022-03-17T10:27:15.000Z</time>
      </trkpt>
      <trkpt lat="47.33423" lon="-2.36319">
        <ele>2.2000000476837</ele>
        <time>2022-03-17T10:27:23.000Z</time>
      </trkpt>
      <trkpt lat="47.33419" lon="-2.36307">
        <ele>2.5999999046326</ele>
        <time>2022-03-17T10:27:26.000Z</time>
      </trkpt>
      <trkpt lat="47.33418" lon="-2.36303">
        <ele>3</ele>
        <time>2022-03-17T10:27:27.000Z</time>
      </trkpt>
      <trkpt lat="47.33417" lon="-2.36299">
        <ele>3.5999999046326</ele>
        <time>2022-03-17T10:27:28.000Z</time>
      </trkpt>
      <trkpt lat="47.33416" lon="-2.36294">
        <ele>4</ele>
        <time>2022-03-17T10:27:29.000Z</time>
      </trkpt>
      <trkpt lat="47.33415" lon="-2.36288">
        <ele>4.4000000953674</ele>
        <time>2022-03-17T10:27:30.000Z</time>
      </trkpt>
      <trkpt lat="47.33411" lon="-2.36266">
        <ele>4.4000000953674</ele>
        <time>2022-03-17T10:27:34.000Z</time>
      </trkpt>
      <trkpt lat="47.33411" lon="-2.36237">
        <ele>4.4000000953674</ele>
        <time>2022-03-17T10:27:39.000Z</time>
      </trkpt>
      <trkpt lat="47.33412" lon="-2.36225">
        <ele>4.4000000953674</ele>
        <time>2022-03-17T10:27:41.000Z</time>
      </trkpt>
      <trkpt lat="47.33415" lon="-2.36203">
        <ele>4.4000000953674</ele>
        <time>2022-03-17T10:27:45.000Z</time>
      </trkpt>
      <trkpt lat="47.33413" lon="-2.36186">
        <ele>4.8000001907349</ele>
        <time>2022-03-17T10:27:48.000Z</time>
      </trkpt>
      <trkpt lat="47.33413" lon="-2.36181">
        <ele>5.1999998092651</ele>
        <time>2022-03-17T10:27:49.000Z</time>
      </trkpt>
      <trkpt lat="47.33412" lon="-2.36175">
        <ele>5.5999999046326</ele>
        <time>2022-03-17T10:27:50.000Z</time>
      </trkpt>
      <trkpt lat="47.33411" lon="-2.3617">
        <ele>6</ele>
        <time>2022-03-17T10:27:51.000Z</time>
      </trkpt>
      <trkpt lat="47.3341" lon="-2.36166">
        <ele>6.4000000953674</ele>
        <time>2022-03-17T10:27:52.000Z</time>
      </trkpt>
      <trkpt lat="47.33404" lon="-2.36161">
        <ele>6.4000000953674</ele>
        <time>2022-03-17T10:27:54.000Z</time>
      </trkpt>
      <trkpt lat="47.33392" lon="-2.36168">
        <ele>6.4000000953674</ele>
        <time>2022-03-17T10:27:58.000Z</time>
      </trkpt>
      <trkpt lat="47.3337" lon="-2.36182">
        <ele>6.4000000953674</ele>
        <time>2022-03-17T10:28:05.000Z</time>
      </trkpt>
      <trkpt lat="47.3335" lon="-2.36196">
        <ele>6.4000000953674</ele>
        <time>2022-03-17T10:28:10.000Z</time>
      </trkpt>
      <trkpt lat="47.33314" lon="-2.36217">
        <ele>6.4000000953674</ele>
        <time>2022-03-17T10:28:18.000Z</time>
      </trkpt>
      <trkpt lat="47.33303" lon="-2.36209">
        <ele>6.4000000953674</ele>
        <time>2022-03-17T10:28:21.000Z</time>
      </trkpt>
      <trkpt lat="47.33303" lon="-2.36192">
        <ele>6.4000000953674</ele>
        <time>2022-03-17T10:28:24.000Z</time>
      </trkpt>
      <trkpt lat="47.33304" lon="-2.36186">
        <ele>6.4000000953674</ele>
        <time>2022-03-17T10:28:25.000Z</time>
      </trkpt>
      <trkpt lat="47.33306" lon="-2.3615">
        <ele>6.4000000953674</ele>
        <time>2022-03-17T10:28:32.000Z</time>
      </trkpt>
      <trkpt lat="47.33307" lon="-2.36115">
        <ele>6.4000000953674</ele>
        <time>2022-03-17T10:28:39.000Z</time>
      </trkpt>
      <trkpt lat="47.33308" lon="-2.36082">
        <ele>6.4000000953674</ele>
        <time>2022-03-17T10:28:46.000Z</time>
      </trkpt>
      <trkpt lat="47.33309" lon="-2.36051">
        <ele>6.4000000953674</ele>
        <time>2022-03-17T10:28:53.000Z</time>
      </trkpt>
      <trkpt lat="47.3331" lon="-2.36025">
        <ele>6.4000000953674</ele>
        <time>2022-03-17T10:29:00.000Z</time>
      </trkpt>
      <trkpt lat="47.33313" lon="-2.36007">
        <ele>6.4000000953674</ele>
        <time>2022-03-17T10:29:06.000Z</time>
      </trkpt>
      <trkpt lat="47.33315" lon="-2.35999">
        <ele>6.4000000953674</ele>
        <time>2022-03-17T10:29:12.000Z</time>
      </trkpt>
      <trkpt lat="47.33316" lon="-2.35994">
        <ele>6.4000000953674</ele>
        <time>2022-03-17T10:30:53.000Z</time>
      </trkpt>
      <trkpt lat="47.33318" lon="-2.35987">
        <ele>6.4000000953674</ele>
        <time>2022-03-17T10:30:56.000Z</time>
      </trkpt>
      <trkpt lat="47.33321" lon="-2.35968">
        <ele>6.4000000953674</ele>
        <time>2022-03-17T10:31:01.000Z</time>
      </trkpt>
      <trkpt lat="47.33322" lon="-2.35943">
        <ele>6.4000000953674</ele>
        <time>2022-03-17T10:31:07.000Z</time>
      </trkpt>
      <trkpt lat="47.33315" lon="-2.35914">
        <ele>6.4000000953674</ele>
        <time>2022-03-17T10:31:13.000Z</time>
      </trkpt>
      <trkpt lat="47.33301" lon="-2.3589">
        <ele>6.4000000953674</ele>
        <time>2022-03-17T10:31:18.000Z</time>
      </trkpt>
      <trkpt lat="47.33297" lon="-2.35885">
        <ele>6.4000000953674</ele>
        <time>2022-03-17T10:31:19.000Z</time>
      </trkpt>
      <trkpt lat="47.33272" lon="-2.35868">
        <ele>6.4000000953674</ele>
        <time>2022-03-17T10:31:24.000Z</time>
      </trkpt>
      <trkpt lat="47.33243" lon="-2.35836">
        <ele>6</ele>
        <time>2022-03-17T10:31:30.000Z</time>
      </trkpt>
      <trkpt lat="47.33236" lon="-2.35832">
        <ele>5.4000000953674</ele>
        <time>2022-03-17T10:31:31.000Z</time>
      </trkpt>
      <trkpt lat="47.33229" lon="-2.35828">
        <ele>5</ele>
        <time>2022-03-17T10:31:32.000Z</time>
      </trkpt>
      <trkpt lat="47.33222" lon="-2.35824">
        <ele>4.5999999046326</ele>
        <time>2022-03-17T10:31:33.000Z</time>
      </trkpt>
      <trkpt lat="47.33214" lon="-2.35822">
        <ele>4</ele>
        <time>2022-03-17T10:31:34.000Z</time>
      </trkpt>
      <trkpt lat="47.33198" lon="-2.35817">
        <ele>3.5999999046326</ele>
        <time>2022-03-17T10:31:36.000Z</time>
      </trkpt>
      <trkpt lat="47.3319" lon="-2.35815">
        <ele>3.2000000476837</ele>
        <time>2022-03-17T10:31:37.000Z</time>
      </trkpt>
      <trkpt lat="47.33182" lon="-2.35814">
        <ele>2.7999999523163</ele>
        <time>2022-03-17T10:31:38.000Z</time>
      </trkpt>
      <trkpt lat="47.33174" lon="-2.35813">
        <ele>2.4000000953674</ele>
        <time>2022-03-17T10:31:39.000Z</time>
      </trkpt>
      <trkpt lat="47.33167" lon="-2.35812">
        <ele>2</ele>
        <time>2022-03-17T10:31:40.000Z</time>
      </trkpt>
      <trkpt lat="47.3316" lon="-2.35811">
        <ele>2</ele>
        <time>2022-03-17T10:31:41.000Z</time>
      </trkpt>
      <trkpt lat="47.33128" lon="-2.35807">
        <ele>2</ele>
        <time>2022-03-17T10:31:46.000Z</time>
      </trkpt>
      <trkpt lat="47.33115" lon="-2.35806">
        <ele>1.6000000238419</ele>
        <time>2022-03-17T10:31:48.000Z</time>
      </trkpt>
      <trkpt lat="47.33108" lon="-2.35806">
        <ele>1.2000000476837</ele>
        <time>2022-03-17T10:31:49.000Z</time>
      </trkpt>
      <trkpt lat="47.33102" lon="-2.35807">
        <ele>0.80000001192093</ele>
        <time>2022-03-17T10:31:50.000Z</time>
      </trkpt>
      <trkpt lat="47.33095" lon="-2.35807">
        <ele>0.20000000298023</ele>
        <time>2022-03-17T10:31:51.000Z</time>
      </trkpt>
      <trkpt lat="47.33088" lon="-2.35807">
        <ele>-0.20000000298023</ele>
        <time>2022-03-17T10:31:52.000Z</time>
      </trkpt>
      <trkpt lat="47.33051" lon="-2.35807">
        <ele>-0.20000000298023</ele>
        <time>2022-03-17T10:31:58.000Z</time>
      </trkpt>
      <trkpt lat="47.33044" lon="-2.35805">
        <ele>-0.60000002384186</ele>
        <time>2022-03-17T10:31:59.000Z</time>
      </trkpt>
      <trkpt lat="47.33038" lon="-2.35803">
        <ele>-1</ele>
        <time>2022-03-17T10:32:00.000Z</time>
      </trkpt>
      <trkpt lat="47.33031" lon="-2.35799">
        <ele>-1.3999999761581</ele>
        <time>2022-03-17T10:32:01.000Z</time>
      </trkpt>
      <trkpt lat="47.33025" lon="-2.35795">
        <ele>-1.7999999523163</ele>
        <time>2022-03-17T10:32:02.000Z</time>
      </trkpt>
      <trkpt lat="47.33019" lon="-2.35789">
        <ele>-2.4000000953674</ele>
        <time>2022-03-17T10:32:03.000Z</time>
      </trkpt>
      <trkpt lat="47.33009" lon="-2.35773">
        <ele>-2.4000000953674</ele>
        <time>2022-03-17T10:32:05.000Z</time>
      </trkpt>
      <trkpt lat="47.33005" lon="-2.35764">
        <ele>-2.4000000953674</ele>
        <time>2022-03-17T10:32:06.000Z</time>
      </trkpt>
      <trkpt lat="47.32998" lon="-2.35747">
        <ele>-2.4000000953674</ele>
        <time>2022-03-17T10:32:08.000Z</time>
      </trkpt>
      <trkpt lat="47.32996" lon="-2.35738">
        <ele>-2.4000000953674</ele>
        <time>2022-03-17T10:32:09.000Z</time>
      </trkpt>
      <trkpt lat="47.32994" lon="-2.35729">
        <ele>-2.7999999523163</ele>
        <time>2022-03-17T10:32:10.000Z</time>
      </trkpt>
      <trkpt lat="47.32994" lon="-2.3572">
        <ele>-3.2000000476837</ele>
        <time>2022-03-17T10:32:11.000Z</time>
      </trkpt>
      <trkpt lat="47.32995" lon="-2.35711">
        <ele>-3.5999999046326</ele>
        <time>2022-03-17T10:32:12.000Z</time>
      </trkpt>
      <trkpt lat="47.32996" lon="-2.35703">
        <ele>-4</ele>
        <time>2022-03-17T10:32:13.000Z</time>
      </trkpt>
      <trkpt lat="47.32999" lon="-2.35694">
        <ele>-4.4000000953674</ele>
        <time>2022-03-17T10:32:14.000Z</time>
      </trkpt>
      <trkpt lat="47.33" lon="-2.35686">
        <ele>-4.4000000953674</ele>
        <time>2022-03-17T10:32:15.000Z</time>
      </trkpt>
      <trkpt lat="47.33006" lon="-2.35664">
        <ele>-4.4000000953674</ele>
        <time>2022-03-17T10:32:18.000Z</time>
      </trkpt>
      <trkpt lat="47.33013" lon="-2.3564">
        <ele>-4.4000000953674</ele>
        <time>2022-03-17T10:32:23.000Z</time>
      </trkpt>
      <trkpt lat="47.33017" lon="-2.35617">
        <ele>-4.4000000953674</ele>
        <time>2022-03-17T10:32:28.000Z</time>
      </trkpt>
      <trkpt lat="47.3302" lon="-2.35597">
        <ele>-4.4000000953674</ele>
        <time>2022-03-17T10:32:33.000Z</time>
      </trkpt>
      <trkpt lat="47.33021" lon="-2.35584">
        <ele>-4</ele>
        <time>2022-03-17T10:32:37.000Z</time>
      </trkpt>
      <trkpt lat="47.33022" lon="-2.3558">
        <ele>-3.5999999046326</ele>
        <time>2022-03-17T10:32:38.000Z</time>
      </trkpt>
      <trkpt lat="47.33022" lon="-2.35575">
        <ele>-3.2000000476837</ele>
        <time>2022-03-17T10:32:39.000Z</time>
      </trkpt>
      <trkpt lat="47.33023" lon="-2.35571">
        <ele>-2.7999999523163</ele>
        <time>2022-03-17T10:32:40.000Z</time>
      </trkpt>
      <trkpt lat="47.33023" lon="-2.35566">
        <ele>-2.4000000953674</ele>
        <time>2022-03-17T10:32:41.000Z</time>
      </trkpt>
      <trkpt lat="47.33024" lon="-2.35559">
        <ele>-2.4000000953674</ele>
        <time>2022-03-17T10:32:43.000Z</time>
      </trkpt>
      <trkpt lat="47.33025" lon="-2.3554">
        <ele>-2.4000000953674</ele>
        <time>2022-03-17T10:32:48.000Z</time>
      </trkpt>
      <trkpt lat="47.33024" lon="-2.35523">
        <ele>-2.4000000953674</ele>
        <time>2022-03-17T10:32:53.000Z</time>
      </trkpt>
      <trkpt lat="47.33024" lon="-2.35503">
        <ele>-2.4000000953674</ele>
        <time>2022-03-17T10:32:58.000Z</time>
      </trkpt>
      <trkpt lat="47.33027" lon="-2.35486">
        <ele>-2.4000000953674</ele>
        <time>2022-03-17T10:33:02.000Z</time>
      </trkpt>
      <trkpt lat="47.33028" lon="-2.35482">
        <ele>-2.4000000953674</ele>
        <time>2022-03-17T10:33:03.000Z</time>
      </trkpt>
      <trkpt lat="47.33031" lon="-2.35463">
        <ele>-2</ele>
        <time>2022-03-17T10:33:07.000Z</time>
      </trkpt>
      <trkpt lat="47.33031" lon="-2.35459">
        <ele>-1.6000000238419</ele>
        <time>2022-03-17T10:33:08.000Z</time>
      </trkpt>
      <trkpt lat="47.3303" lon="-2.35455">
        <ele>-1.2000000476837</ele>
        <time>2022-03-17T10:33:09.000Z</time>
      </trkpt>
      <trkpt lat="47.3303" lon="-2.35451">
        <ele>-0.80000001192093</ele>
        <time>2022-03-17T10:33:10.000Z</time>
      </trkpt>
      <trkpt lat="47.3303" lon="-2.35447">
        <ele>-0.20000000298023</ele>
        <time>2022-03-17T10:33:11.000Z</time>
      </trkpt>
      <trkpt lat="47.33031" lon="-2.35434">
        <ele>-0.20000000298023</ele>
        <time>2022-03-17T10:33:15.000Z</time>
      </trkpt>
      <trkpt lat="47.33031" lon="-2.3541">
        <ele>-0.20000000298023</ele>
        <time>2022-03-17T10:33:21.000Z</time>
      </trkpt>
      <trkpt lat="47.33028" lon="-2.35379">
        <ele>0.20000000298023</ele>
        <time>2022-03-17T10:33:27.000Z</time>
      </trkpt>
      <trkpt lat="47.33027" lon="-2.35374">
        <ele>0.60000002384186</ele>
        <time>2022-03-17T10:33:28.000Z</time>
      </trkpt>
      <trkpt lat="47.33026" lon="-2.35368">
        <ele>1</ele>
        <time>2022-03-17T10:33:29.000Z</time>
      </trkpt>
      <trkpt lat="47.33025" lon="-2.35363">
        <ele>1.3999999761581</ele>
        <time>2022-03-17T10:33:30.000Z</time>
      </trkpt>
      <trkpt lat="47.33025" lon="-2.35357">
        <ele>1.7999999523163</ele>
        <time>2022-03-17T10:33:31.000Z</time>
      </trkpt>
      <trkpt lat="47.33024" lon="-2.35346">
        <ele>1.7999999523163</ele>
        <time>2022-03-17T10:33:33.000Z</time>
      </trkpt>
      <trkpt lat="47.33021" lon="-2.35301">
        <ele>1.7999999523163</ele>
        <time>2022-03-17T10:33:41.000Z</time>
      </trkpt>
      <trkpt lat="47.33021" lon="-2.35259">
        <ele>1.7999999523163</ele>
        <time>2022-03-17T10:33:48.000Z</time>
      </trkpt>
      <trkpt lat="47.33017" lon="-2.35223">
        <ele>1.7999999523163</ele>
        <time>2022-03-17T10:33:54.000Z</time>
      </trkpt>
      <trkpt lat="47.33014" lon="-2.35193">
        <ele>1.7999999523163</ele>
        <time>2022-03-17T10:33:59.000Z</time>
      </trkpt>
      <trkpt lat="47.33011" lon="-2.3518">
        <ele>1.7999999523163</ele>
        <time>2022-03-17T10:34:01.000Z</time>
      </trkpt>
      <trkpt lat="47.3301" lon="-2.35163">
        <ele>1.7999999523163</ele>
        <time>2022-03-17T10:34:04.000Z</time>
      </trkpt>
      <trkpt lat="47.33005" lon="-2.35136">
        <ele>1.7999999523163</ele>
        <time>2022-03-17T10:34:09.000Z</time>
      </trkpt>
      <trkpt lat="47.33004" lon="-2.35118">
        <ele>1.7999999523163</ele>
        <time>2022-03-17T10:34:14.000Z</time>
      </trkpt>
      <trkpt lat="47.32997" lon="-2.35098">
        <ele>1.7999999523163</ele>
        <time>2022-03-17T10:34:19.000Z</time>
      </trkpt>
      <trkpt lat="47.32992" lon="-2.35075">
        <ele>1.7999999523163</ele>
        <time>2022-03-17T10:34:24.000Z</time>
      </trkpt>
      <trkpt lat="47.32986" lon="-2.35051">
        <ele>1.7999999523163</ele>
        <time>2022-03-17T10:34:30.000Z</time>
      </trkpt>
      <trkpt lat="47.3298" lon="-2.3503">
        <ele>1.3999999761581</ele>
        <time>2022-03-17T10:34:34.000Z</time>
      </trkpt>
      <trkpt lat="47.32979" lon="-2.35027">
        <ele>1</ele>
        <time>2022-03-17T10:34:35.000Z</time>
      </trkpt>
      <trkpt lat="47.32979" lon="-2.35023">
        <ele>0.60000002384186</ele>
        <time>2022-03-17T10:34:36.000Z</time>
      </trkpt>
      <trkpt lat="47.32977" lon="-2.35021">
        <ele>-0.20000000298023</ele>
        <time>2022-03-17T10:34:37.000Z</time>
      </trkpt>
      <trkpt lat="47.32972" lon="-2.35001">
        <ele>-0.20000000298023</ele>
        <time>2022-03-17T10:34:41.000Z</time>
      </trkpt>
      <trkpt lat="47.3297" lon="-2.34977">
        <ele>-0.20000000298023</ele>
        <time>2022-03-17T10:34:45.000Z</time>
      </trkpt>
      <trkpt lat="47.32971" lon="-2.34967">
        <ele>-0.20000000298023</ele>
        <time>2022-03-17T10:34:47.000Z</time>
      </trkpt>
      <trkpt lat="47.32968" lon="-2.34952">
        <ele>-0.20000000298023</ele>
        <time>2022-03-17T10:34:50.000Z</time>
      </trkpt>
      <trkpt lat="47.32963" lon="-2.34927">
        <ele>-0.20000000298023</ele>
        <time>2022-03-17T10:34:55.000Z</time>
      </trkpt>
      <trkpt lat="47.32963" lon="-2.3492">
        <ele>-0.20000000298023</ele>
        <time>2022-03-17T10:34:57.000Z</time>
      </trkpt>
      <trkpt lat="47.32961" lon="-2.34909">
        <ele>-0.20000000298023</ele>
        <time>2022-03-17T10:35:00.000Z</time>
      </trkpt>
      <trkpt lat="47.32955" lon="-2.34896">
        <ele>-0.20000000298023</ele>
        <time>2022-03-17T10:35:03.000Z</time>
      </trkpt>
      <trkpt lat="47.32945" lon="-2.34872">
        <ele>-0.20000000298023</ele>
        <time>2022-03-17T10:35:09.000Z</time>
      </trkpt>
      <trkpt lat="47.32936" lon="-2.3485">
        <ele>-0.20000000298023</ele>
        <time>2022-03-17T10:35:15.000Z</time>
      </trkpt>
      <trkpt lat="47.3293" lon="-2.3483">
        <ele>-0.20000000298023</ele>
        <time>2022-03-17T10:35:21.000Z</time>
      </trkpt>
      <trkpt lat="47.32928" lon="-2.34827">
        <ele>-0.60000002384186</ele>
        <time>2022-03-17T10:35:22.000Z</time>
      </trkpt>
      <trkpt lat="47.32927" lon="-2.34823">
        <ele>-1</ele>
        <time>2022-03-17T10:35:23.000Z</time>
      </trkpt>
      <trkpt lat="47.32925" lon="-2.34819">
        <ele>-1.6000000238419</ele>
        <time>2022-03-17T10:35:24.000Z</time>
      </trkpt>
      <trkpt lat="47.32924" lon="-2.34815">
        <ele>-2</ele>
        <time>2022-03-17T10:35:25.000Z</time>
      </trkpt>
      <trkpt lat="47.32922" lon="-2.34811">
        <ele>-2.4000000953674</ele>
        <time>2022-03-17T10:35:26.000Z</time>
      </trkpt>
      <trkpt lat="47.32913" lon="-2.34793">
        <ele>-2.4000000953674</ele>
        <time>2022-03-17T10:35:30.000Z</time>
      </trkpt>
      <trkpt lat="47.32902" lon="-2.34787">
        <ele>-2.4000000953674</ele>
        <time>2022-03-17T10:35:33.000Z</time>
      </trkpt>
      <trkpt lat="47.32898" lon="-2.34788">
        <ele>-2.4000000953674</ele>
        <time>2022-03-17T10:35:34.000Z</time>
      </trkpt>
      <trkpt lat="47.32874" lon="-2.34798">
        <ele>-2.4000000953674</ele>
        <time>2022-03-17T10:35:39.000Z</time>
      </trkpt>
      <trkpt lat="47.32837" lon="-2.34823">
        <ele>-2.4000000953674</ele>
        <time>2022-03-17T10:35:47.000Z</time>
      </trkpt>
      <trkpt lat="47.32816" lon="-2.34837">
        <ele>-2</ele>
        <time>2022-03-17T10:35:51.000Z</time>
      </trkpt>
      <trkpt lat="47.32811" lon="-2.34841">
        <ele>-1.6000000238419</ele>
        <time>2022-03-17T10:35:52.000Z</time>
      </trkpt>
      <trkpt lat="47.32806" lon="-2.34845">
        <ele>-1.2000000476837</ele>
        <time>2022-03-17T10:35:53.000Z</time>
      </trkpt>
      <trkpt lat="47.32802" lon="-2.34849">
        <ele>-0.80000001192093</ele>
        <time>2022-03-17T10:35:54.000Z</time>
      </trkpt>
      <trkpt lat="47.32797" lon="-2.34852">
        <ele>-0.40000000596046</ele>
        <time>2022-03-17T10:35:55.000Z</time>
      </trkpt>
      <trkpt lat="47.32791" lon="-2.34856">
        <ele>-0.40000000596046</ele>
        <time>2022-03-17T10:35:56.000Z</time>
      </trkpt>
      <trkpt lat="47.32781" lon="-2.34863">
        <ele>-0.40000000596046</ele>
        <time>2022-03-17T10:35:58.000Z</time>
      </trkpt>
      <trkpt lat="47.32751" lon="-2.34884">
        <ele>-0.40000000596046</ele>
        <time>2022-03-17T10:36:04.000Z</time>
      </trkpt>
      <trkpt lat="47.32731" lon="-2.34899">
        <ele>-0.40000000596046</ele>
        <time>2022-03-17T10:36:08.000Z</time>
      </trkpt>
      <trkpt lat="47.327" lon="-2.34921">
        <ele>-0.40000000596046</ele>
        <time>2022-03-17T10:36:15.000Z</time>
      </trkpt>
      <trkpt lat="47.32692" lon="-2.34927">
        <ele>-0.40000000596046</ele>
        <time>2022-03-17T10:36:17.000Z</time>
      </trkpt>
      <trkpt lat="47.32683" lon="-2.34934">
        <ele>0.20000000298023</ele>
        <time>2022-03-17T10:36:19.000Z</time>
      </trkpt>
      <trkpt lat="47.32679" lon="-2.34936">
        <ele>0.60000002384186</ele>
        <time>2022-03-17T10:36:20.000Z</time>
      </trkpt>
      <trkpt lat="47.32675" lon="-2.34939">
        <ele>1</ele>
        <time>2022-03-17T10:36:21.000Z</time>
      </trkpt>
      <trkpt lat="47.32672" lon="-2.34941">
        <ele>1.3999999761581</ele>
        <time>2022-03-17T10:36:22.000Z</time>
      </trkpt>
      <trkpt lat="47.32669" lon="-2.34944">
        <ele>1.7999999523163</ele>
        <time>2022-03-17T10:36:23.000Z</time>
      </trkpt>
      <trkpt lat="47.32667" lon="-2.34947">
        <ele>1.7999999523163</ele>
        <time>2022-03-17T10:36:24.000Z</time>
      </trkpt>
      <trkpt lat="47.32647" lon="-2.34962">
        <ele>1.7999999523163</ele>
        <time>2022-03-17T10:36:31.000Z</time>
      </trkpt>
      <trkpt lat="47.32633" lon="-2.34968">
        <ele>1.7999999523163</ele>
        <time>2022-03-17T10:36:34.000Z</time>
      </trkpt>
      <trkpt lat="47.32629" lon="-2.3497">
        <ele>1.7999999523163</ele>
        <time>2022-03-17T10:36:35.000Z</time>
      </trkpt>
      <trkpt lat="47.32603" lon="-2.34982">
        <ele>1.7999999523163</ele>
        <time>2022-03-17T10:36:41.000Z</time>
      </trkpt>
      <trkpt lat="47.32577" lon="-2.34994">
        <ele>1.7999999523163</ele>
        <time>2022-03-17T10:36:47.000Z</time>
      </trkpt>
      <trkpt lat="47.32564" lon="-2.35001">
        <ele>2.2000000476837</ele>
        <time>2022-03-17T10:36:50.000Z</time>
      </trkpt>
      <trkpt lat="47.3256" lon="-2.35003">
        <ele>2.5999999046326</ele>
        <time>2022-03-17T10:36:51.000Z</time>
      </trkpt>
      <trkpt lat="47.32556" lon="-2.35004">
        <ele>3</ele>
        <time>2022-03-17T10:36:52.000Z</time>
      </trkpt>
      <trkpt lat="47.32552" lon="-2.35005">
        <ele>3.4000000953674</ele>
        <time>2022-03-17T10:36:53.000Z</time>
      </trkpt>
      <trkpt lat="47.32549" lon="-2.35007">
        <ele>3.7999999523163</ele>
        <time>2022-03-17T10:36:54.000Z</time>
      </trkpt>
      <trkpt lat="47.32536" lon="-2.35011">
        <ele>3.7999999523163</ele>
        <time>2022-03-17T10:36:57.000Z</time>
      </trkpt>
      <trkpt lat="47.32513" lon="-2.35018">
        <ele>3.7999999523163</ele>
        <time>2022-03-17T10:37:03.000Z</time>
      </trkpt>
      <trkpt lat="47.32494" lon="-2.35025">
        <ele>3.7999999523163</ele>
        <time>2022-03-17T10:37:08.000Z</time>
      </trkpt>
      <trkpt lat="47.32469" lon="-2.35031">
        <ele>3.7999999523163</ele>
        <time>2022-03-17T10:37:14.000Z</time>
      </trkpt>
      <trkpt lat="47.32465" lon="-2.35033">
        <ele>3.7999999523163</ele>
        <time>2022-03-17T10:37:15.000Z</time>
      </trkpt>
      <trkpt lat="47.32448" lon="-2.3504">
        <ele>3.7999999523163</ele>
        <time>2022-03-17T10:37:19.000Z</time>
      </trkpt>
      <trkpt lat="47.32444" lon="-2.35041">
        <ele>3.7999999523163</ele>
        <time>2022-03-17T10:37:20.000Z</time>
      </trkpt>
      <trkpt lat="47.32424" lon="-2.35041">
        <ele>4.1999998092651</ele>
        <time>2022-03-17T10:37:25.000Z</time>
      </trkpt>
      <trkpt lat="47.3242" lon="-2.35041">
        <ele>4.5999999046326</ele>
        <time>2022-03-17T10:37:26.000Z</time>
      </trkpt>
      <trkpt lat="47.32417" lon="-2.35041">
        <ele>5</ele>
        <time>2022-03-17T10:37:27.000Z</time>
      </trkpt>
      <trkpt lat="47.32412" lon="-2.35042">
        <ele>5.4000000953674</ele>
        <time>2022-03-17T10:37:28.000Z</time>
      </trkpt>
      <trkpt lat="47.32408" lon="-2.35043">
        <ele>6</ele>
        <time>2022-03-17T10:37:29.000Z</time>
      </trkpt>
      <trkpt lat="47.32384" lon="-2.35043">
        <ele>6</ele>
        <time>2022-03-17T10:37:35.000Z</time>
      </trkpt>
      <trkpt lat="47.32364" lon="-2.35044">
        <ele>6</ele>
        <time>2022-03-17T10:37:41.000Z</time>
      </trkpt>
      <trkpt lat="47.32345" lon="-2.35044">
        <ele>6</ele>
        <time>2022-03-17T10:37:46.000Z</time>
      </trkpt>
      <trkpt lat="47.32317" lon="-2.35044">
        <ele>6</ele>
        <time>2022-03-17T10:37:52.000Z</time>
      </trkpt>
      <trkpt lat="47.32308" lon="-2.35044">
        <ele>5.4000000953674</ele>
        <time>2022-03-17T10:37:54.000Z</time>
      </trkpt>
      <trkpt lat="47.32304" lon="-2.35045">
        <ele>4.5999999046326</ele>
        <time>2022-03-17T10:37:55.000Z</time>
      </trkpt>
      <trkpt lat="47.323" lon="-2.35045">
        <ele>4.1999998092651</ele>
        <time>2022-03-17T10:37:56.000Z</time>
      </trkpt>
      <trkpt lat="47.32295" lon="-2.35044">
        <ele>3.7999999523163</ele>
        <time>2022-03-17T10:37:57.000Z</time>
      </trkpt>
      <trkpt lat="47.32291" lon="-2.35044">
        <ele>3.7999999523163</ele>
        <time>2022-03-17T10:37:58.000Z</time>
      </trkpt>
      <trkpt lat="47.32267" lon="-2.35043">
        <ele>3.7999999523163</ele>
        <time>2022-03-17T10:38:03.000Z</time>
      </trkpt>
      <trkpt lat="47.32249" lon="-2.35047">
        <ele>3.7999999523163</ele>
        <time>2022-03-17T10:38:08.000Z</time>
      </trkpt>
      <trkpt lat="47.3223" lon="-2.35049">
        <ele>3.7999999523163</ele>
        <time>2022-03-17T10:38:13.000Z</time>
      </trkpt>
      <trkpt lat="47.32221" lon="-2.35051">
        <ele>3.4000000953674</ele>
        <time>2022-03-17T10:38:15.000Z</time>
      </trkpt>
      <trkpt lat="47.32215" lon="-2.35052">
        <ele>3</ele>
        <time>2022-03-17T10:38:16.000Z</time>
      </trkpt>
      <trkpt lat="47.3221" lon="-2.35053">
        <ele>2.5999999046326</ele>
        <time>2022-03-17T10:38:17.000Z</time>
      </trkpt>
      <trkpt lat="47.32205" lon="-2.35054">
        <ele>2.2000000476837</ele>
        <time>2022-03-17T10:38:18.000Z</time>
      </trkpt>
      <trkpt lat="47.32199" lon="-2.35054">
        <ele>1.7999999523163</ele>
        <time>2022-03-17T10:38:19.000Z</time>
      </trkpt>
      <trkpt lat="47.32183" lon="-2.35054">
        <ele>1.7999999523163</ele>
        <time>2022-03-17T10:38:22.000Z</time>
      </trkpt>
      <trkpt lat="47.32173" lon="-2.35055">
        <ele>1.7999999523163</ele>
        <time>2022-03-17T10:38:24.000Z</time>
      </trkpt>
      <trkpt lat="47.32153" lon="-2.35056">
        <ele>1.7999999523163</ele>
        <time>2022-03-17T10:38:28.000Z</time>
      </trkpt>
      <trkpt lat="47.32143" lon="-2.35058">
        <ele>1.7999999523163</ele>
        <time>2022-03-17T10:38:30.000Z</time>
      </trkpt>
      <trkpt lat="47.3213" lon="-2.3506">
        <ele>1.7999999523163</ele>
        <time>2022-03-17T10:38:33.000Z</time>
      </trkpt>
      <trkpt lat="47.32125" lon="-2.3506">
        <ele>1.7999999523163</ele>
        <time>2022-03-17T10:38:34.000Z</time>
      </trkpt>
      <trkpt lat="47.32097" lon="-2.3506">
        <ele>1.7999999523163</ele>
        <time>2022-03-17T10:38:40.000Z</time>
      </trkpt>
      <trkpt lat="47.32068" lon="-2.3506">
        <ele>1.7999999523163</ele>
        <time>2022-03-17T10:38:47.000Z</time>
      </trkpt>
      <trkpt lat="47.32042" lon="-2.35058">
        <ele>1.7999999523163</ele>
        <time>2022-03-17T10:38:54.000Z</time>
      </trkpt>
      <trkpt lat="47.32034" lon="-2.35067">
        <ele>1.7999999523163</ele>
        <time>2022-03-17T10:38:57.000Z</time>
      </trkpt>
      <trkpt lat="47.32035" lon="-2.35071">
        <ele>1.7999999523163</ele>
        <time>2022-03-17T10:38:58.000Z</time>
      </trkpt>
      <trkpt lat="47.3204" lon="-2.3509">
        <ele>1.7999999523163</ele>
        <time>2022-03-17T10:39:02.000Z</time>
      </trkpt>
      <trkpt lat="47.32041" lon="-2.35099">
        <ele>1.7999999523163</ele>
        <time>2022-03-17T10:39:04.000Z</time>
      </trkpt>
      <trkpt lat="47.32039" lon="-2.35113">
        <ele>1.7999999523163</ele>
        <time>2022-03-17T10:39:07.000Z</time>
      </trkpt>
      <trkpt lat="47.32027" lon="-2.35129">
        <ele>1.7999999523163</ele>
        <time>2022-03-17T10:39:12.000Z</time>
      </trkpt>
      <trkpt lat="47.3201" lon="-2.35147">
        <ele>1.7999999523163</ele>
        <time>2022-03-17T10:39:18.000Z</time>
      </trkpt>
      <trkpt lat="47.31996" lon="-2.35162">
        <ele>1.7999999523163</ele>
        <time>2022-03-17T10:39:23.000Z</time>
      </trkpt>
      <trkpt lat="47.31975" lon="-2.35182">
        <ele>1.7999999523163</ele>
        <time>2022-03-17T10:39:29.000Z</time>
      </trkpt>
      <trkpt lat="47.31951" lon="-2.35201">
        <ele>1.7999999523163</ele>
        <time>2022-03-17T10:39:35.000Z</time>
      </trkpt>
      <trkpt lat="47.31935" lon="-2.35213">
        <ele>1.7999999523163</ele>
        <time>2022-03-17T10:39:41.000Z</time>
      </trkpt>
      <trkpt lat="47.31935" lon="-2.35214">
        <ele>1.7999999523163</ele>
        <time>2022-03-17T10:39:42.000Z</time>
      </trkpt>
      <trkpt lat="47.31925" lon="-2.35224">
        <ele>1.7999999523163</ele>
        <time>2022-03-17T10:39:58.000Z</time>
      </trkpt>
      <trkpt lat="47.31923" lon="-2.35225">
        <ele>1.7999999523163</ele>
        <time>2022-03-17T10:39:59.000Z</time>
      </trkpt>
      <trkpt lat="47.31911" lon="-2.35238">
        <ele>1.7999999523163</ele>
        <time>2022-03-17T10:40:06.000Z</time>
      </trkpt>
      <trkpt lat="47.31899" lon="-2.35248">
        <ele>1.7999999523163</ele>
        <time>2022-03-17T10:40:12.000Z</time>
      </trkpt>
      <trkpt lat="47.31893" lon="-2.35253">
        <ele>1.7999999523163</ele>
        <time>2022-03-17T10:40:14.000Z</time>
      </trkpt>
      <trkpt lat="47.31884" lon="-2.35261">
        <ele>1.7999999523163</ele>
        <time>2022-03-17T10:40:17.000Z</time>
      </trkpt>
      <trkpt lat="47.31865" lon="-2.35277">
        <ele>1.7999999523163</ele>
        <time>2022-03-17T10:40:23.000Z</time>
      </trkpt>
      <trkpt lat="47.31848" lon="-2.35289">
        <ele>1.7999999523163</ele>
        <time>2022-03-17T10:40:29.000Z</time>
      </trkpt>
      <trkpt lat="47.31825" lon="-2.35306">
        <ele>2.2000000476837</ele>
        <time>2022-03-17T10:40:36.000Z</time>
      </trkpt>
      <trkpt lat="47.31822" lon="-2.35309">
        <ele>2.5999999046326</ele>
        <time>2022-03-17T10:40:37.000Z</time>
      </trkpt>
      <trkpt lat="47.3182" lon="-2.35311">
        <ele>3</ele>
        <time>2022-03-17T10:40:38.000Z</time>
      </trkpt>
      <trkpt lat="47.31817" lon="-2.35313">
        <ele>3.4000000953674</ele>
        <time>2022-03-17T10:40:39.000Z</time>
      </trkpt>
      <trkpt lat="47.31814" lon="-2.35316">
        <ele>3.7999999523163</ele>
        <time>2022-03-17T10:40:40.000Z</time>
      </trkpt>
      <trkpt lat="47.31811" lon="-2.35318">
        <ele>3.7999999523163</ele>
        <time>2022-03-17T10:40:41.000Z</time>
      </trkpt>
      <trkpt lat="47.31796" lon="-2.35325">
        <ele>3.7999999523163</ele>
        <time>2022-03-17T10:40:46.000Z</time>
      </trkpt>
      <trkpt lat="47.31786" lon="-2.3533">
        <ele>4.1999998092651</ele>
        <time>2022-03-17T10:40:50.000Z</time>
      </trkpt>
      <trkpt lat="47.31782" lon="-2.35331">
        <ele>4.5999999046326</ele>
        <time>2022-03-17T10:40:51.000Z</time>
      </trkpt>
      <trkpt lat="47.3178" lon="-2.35333">
        <ele>5</ele>
        <time>2022-03-17T10:40:52.000Z</time>
      </trkpt>
      <trkpt lat="47.31776" lon="-2.35334">
        <ele>5.4000000953674</ele>
        <time>2022-03-17T10:40:53.000Z</time>
      </trkpt>
      <trkpt lat="47.31771" lon="-2.35338">
        <ele>5.8000001907349</ele>
        <time>2022-03-17T10:40:54.000Z</time>
      </trkpt>
      <trkpt lat="47.31765" lon="-2.35346">
        <ele>5.8000001907349</ele>
        <time>2022-03-17T10:40:56.000Z</time>
      </trkpt>
      <trkpt lat="47.31754" lon="-2.35362">
        <ele>5.8000001907349</ele>
        <time>2022-03-17T10:41:01.000Z</time>
      </trkpt>
      <trkpt lat="47.31759" lon="-2.35379">
        <ele>5.8000001907349</ele>
        <time>2022-03-17T10:41:05.000Z</time>
      </trkpt>
      <trkpt lat="47.31775" lon="-2.35407">
        <ele>5.8000001907349</ele>
        <time>2022-03-17T10:41:11.000Z</time>
      </trkpt>
      <trkpt lat="47.31787" lon="-2.35427">
        <ele>5.8000001907349</ele>
        <time>2022-03-17T10:41:16.000Z</time>
      </trkpt>
      <trkpt lat="47.31796" lon="-2.35441">
        <ele>5.8000001907349</ele>
        <time>2022-03-17T10:41:21.000Z</time>
      </trkpt>
      <trkpt lat="47.31798" lon="-2.35445">
        <ele>5.4000000953674</ele>
        <time>2022-03-17T10:41:23.000Z</time>
      </trkpt>
      <trkpt lat="47.318" lon="-2.35448">
        <ele>5</ele>
        <time>2022-03-17T10:41:24.000Z</time>
      </trkpt>
      <trkpt lat="47.31802" lon="-2.3545">
        <ele>4.5999999046326</ele>
        <time>2022-03-17T10:41:25.000Z</time>
      </trkpt>
      <trkpt lat="47.31803" lon="-2.35454">
        <ele>4.1999998092651</ele>
        <time>2022-03-17T10:41:26.000Z</time>
      </trkpt>
      <trkpt lat="47.31804" lon="-2.35457">
        <ele>3.7999999523163</ele>
        <time>2022-03-17T10:41:27.000Z</time>
      </trkpt>
      <trkpt lat="47.31809" lon="-2.35471">
        <ele>3.7999999523163</ele>
        <time>2022-03-17T10:41:33.000Z</time>
      </trkpt>
      <trkpt lat="47.31813" lon="-2.35483">
        <ele>3.7999999523163</ele>
        <time>2022-03-17T10:41:40.000Z</time>
      </trkpt>
      <trkpt lat="47.31819" lon="-2.35498">
        <ele>3.7999999523163</ele>
        <time>2022-03-17T10:41:45.000Z</time>
      </trkpt>
      <trkpt lat="47.31827" lon="-2.35517">
        <ele>3.7999999523163</ele>
        <time>2022-03-17T10:41:51.000Z</time>
      </trkpt>
      <trkpt lat="47.31836" lon="-2.35538">
        <ele>3.7999999523163</ele>
        <time>2022-03-17T10:41:56.000Z</time>
      </trkpt>
      <trkpt lat="47.31832" lon="-2.35552">
        <ele>3.7999999523163</ele>
        <time>2022-03-17T10:42:01.000Z</time>
      </trkpt>
      <trkpt lat="47.3182" lon="-2.35566">
        <ele>3.7999999523163</ele>
        <time>2022-03-17T10:42:07.000Z</time>
      </trkpt>
      <trkpt lat="47.3181" lon="-2.35585">
        <ele>3.7999999523163</ele>
        <time>2022-03-17T10:42:13.000Z</time>
      </trkpt>
      <trkpt lat="47.31802" lon="-2.35594">
        <ele>3.7999999523163</ele>
        <time>2022-03-17T10:42:17.000Z</time>
      </trkpt>
      <trkpt lat="47.31799" lon="-2.35597">
        <ele>3.7999999523163</ele>
        <time>2022-03-17T10:42:18.000Z</time>
      </trkpt>
      <trkpt lat="47.31787" lon="-2.35621">
        <ele>3.7999999523163</ele>
        <time>2022-03-17T10:42:24.000Z</time>
      </trkpt>
      <trkpt lat="47.31782" lon="-2.35648">
        <ele>3.7999999523163</ele>
        <time>2022-03-17T10:42:29.000Z</time>
      </trkpt>
      <trkpt lat="47.31781" lon="-2.35665">
        <ele>4.1999998092651</ele>
        <time>2022-03-17T10:42:32.000Z</time>
      </trkpt>
      <trkpt lat="47.31781" lon="-2.35671">
        <ele>4.5999999046326</ele>
        <time>2022-03-17T10:42:33.000Z</time>
      </trkpt>
      <trkpt lat="47.31781" lon="-2.35677">
        <ele>5.1999998092651</ele>
        <time>2022-03-17T10:42:34.000Z</time>
      </trkpt>
      <trkpt lat="47.31781" lon="-2.35683">
        <ele>5.5999999046326</ele>
        <time>2022-03-17T10:42:35.000Z</time>
      </trkpt>
      <trkpt lat="47.31781" lon="-2.35689">
        <ele>6</ele>
        <time>2022-03-17T10:42:36.000Z</time>
      </trkpt>
      <trkpt lat="47.3178" lon="-2.35714">
        <ele>6</ele>
        <time>2022-03-17T10:42:41.000Z</time>
      </trkpt>
      <trkpt lat="47.31778" lon="-2.35741">
        <ele>6.4000000953674</ele>
        <time>2022-03-17T10:42:46.000Z</time>
      </trkpt>
      <trkpt lat="47.31778" lon="-2.35746">
        <ele>6.8000001907349</ele>
        <time>2022-03-17T10:42:47.000Z</time>
      </trkpt>
      <trkpt lat="47.31779" lon="-2.35751">
        <ele>7.1999998092651</ele>
        <time>2022-03-17T10:42:48.000Z</time>
      </trkpt>
      <trkpt lat="47.31778" lon="-2.35757">
        <ele>7.5999999046326</ele>
        <time>2022-03-17T10:42:49.000Z</time>
      </trkpt>
      <trkpt lat="47.31778" lon="-2.35763">
        <ele>8</ele>
        <time>2022-03-17T10:42:50.000Z</time>
      </trkpt>
      <trkpt lat="47.31777" lon="-2.35775">
        <ele>8</ele>
        <time>2022-03-17T10:42:52.000Z</time>
      </trkpt>
      <trkpt lat="47.31783" lon="-2.35795">
        <ele>8</ele>
        <time>2022-03-17T10:42:56.000Z</time>
      </trkpt>
      <trkpt lat="47.318" lon="-2.35815">
        <ele>8</ele>
        <time>2022-03-17T10:43:01.000Z</time>
      </trkpt>
      <trkpt lat="47.31814" lon="-2.35833">
        <ele>8</ele>
        <time>2022-03-17T10:43:06.000Z</time>
      </trkpt>
      <trkpt lat="47.31818" lon="-2.35849">
        <ele>8</ele>
        <time>2022-03-17T10:43:10.000Z</time>
      </trkpt>
      <trkpt lat="47.31821" lon="-2.35856">
        <ele>8</ele>
        <time>2022-03-17T10:43:14.000Z</time>
      </trkpt>
      <trkpt lat="47.31821" lon="-2.35857">
        <ele>8</ele>
        <time>2022-03-17T10:43:15.000Z</time>
      </trkpt>
      <trkpt lat="47.31819" lon="-2.35872">
        <ele>8</ele>
        <time>2022-03-17T10:43:19.000Z</time>
      </trkpt>
      <trkpt lat="47.31808" lon="-2.35882">
        <ele>8</ele>
        <time>2022-03-17T10:43:24.000Z</time>
      </trkpt>
      <trkpt lat="47.31791" lon="-2.3589">
        <ele>8</ele>
        <time>2022-03-17T10:43:30.000Z</time>
      </trkpt>
      <trkpt lat="47.31774" lon="-2.359">
        <ele>8</ele>
        <time>2022-03-17T10:43:35.000Z</time>
      </trkpt>
      <trkpt lat="47.3176" lon="-2.3591">
        <ele>8.3999996185303</ele>
        <time>2022-03-17T10:43:39.000Z</time>
      </trkpt>
      <trkpt lat="47.31757" lon="-2.35912">
        <ele>8.8000001907349</ele>
        <time>2022-03-17T10:43:40.000Z</time>
      </trkpt>
      <trkpt lat="47.31753" lon="-2.35913">
        <ele>9.6000003814697</ele>
        <time>2022-03-17T10:43:41.000Z</time>
      </trkpt>
      <trkpt lat="47.3175" lon="-2.35915">
        <ele>10</ele>
        <time>2022-03-17T10:43:42.000Z</time>
      </trkpt>
      <trkpt lat="47.31729" lon="-2.35928">
        <ele>10</ele>
        <time>2022-03-17T10:43:48.000Z</time>
      </trkpt>
      <trkpt lat="47.31704" lon="-2.35943">
        <ele>10</ele>
        <time>2022-03-17T10:43:55.000Z</time>
      </trkpt>
      <trkpt lat="47.3169" lon="-2.3595">
        <ele>10.39999961853</ele>
        <time>2022-03-17T10:43:59.000Z</time>
      </trkpt>
      <trkpt lat="47.31686" lon="-2.35952">
        <ele>10.800000190735</ele>
        <time>2022-03-17T10:44:00.000Z</time>
      </trkpt>
      <trkpt lat="47.31683" lon="-2.35954">
        <ele>11.199999809265</ele>
        <time>2022-03-17T10:44:01.000Z</time>
      </trkpt>
      <trkpt lat="47.31679" lon="-2.35955">
        <ele>11.60000038147</ele>
        <time>2022-03-17T10:44:02.000Z</time>
      </trkpt>
      <trkpt lat="47.31675" lon="-2.35958">
        <ele>12</ele>
        <time>2022-03-17T10:44:03.000Z</time>
      </trkpt>
      <trkpt lat="47.31663" lon="-2.35965">
        <ele>12</ele>
        <time>2022-03-17T10:44:06.000Z</time>
      </trkpt>
      <trkpt lat="47.31641" lon="-2.35981">
        <ele>12</ele>
        <time>2022-03-17T10:44:12.000Z</time>
      </trkpt>
      <trkpt lat="47.31631" lon="-2.35991">
        <ele>12</ele>
        <time>2022-03-17T10:44:16.000Z</time>
      </trkpt>
      <trkpt lat="47.31615" lon="-2.3601">
        <ele>12</ele>
        <time>2022-03-17T10:44:22.000Z</time>
      </trkpt>
      <trkpt lat="47.31602" lon="-2.36022">
        <ele>12.60000038147</ele>
        <time>2022-03-17T10:44:26.000Z</time>
      </trkpt>
      <trkpt lat="47.31599" lon="-2.36025">
        <ele>13</ele>
        <time>2022-03-17T10:44:27.000Z</time>
      </trkpt>
      <trkpt lat="47.31597" lon="-2.36028">
        <ele>13.39999961853</ele>
        <time>2022-03-17T10:44:28.000Z</time>
      </trkpt>
      <trkpt lat="47.31594" lon="-2.36031">
        <ele>13.800000190735</ele>
        <time>2022-03-17T10:44:29.000Z</time>
      </trkpt>
      <trkpt lat="47.31591" lon="-2.36034">
        <ele>14.199999809265</ele>
        <time>2022-03-17T10:44:30.000Z</time>
      </trkpt>
      <trkpt lat="47.31577" lon="-2.36049">
        <ele>14.199999809265</ele>
        <time>2022-03-17T10:44:35.000Z</time>
      </trkpt>
      <trkpt lat="47.31562" lon="-2.36064">
        <ele>14.199999809265</ele>
        <time>2022-03-17T10:44:40.000Z</time>
      </trkpt>
      <trkpt lat="47.31546" lon="-2.36081">
        <ele>14.199999809265</ele>
        <time>2022-03-17T10:44:45.000Z</time>
      </trkpt>
      <trkpt lat="47.31528" lon="-2.36102">
        <ele>14.199999809265</ele>
        <time>2022-03-17T10:44:51.000Z</time>
      </trkpt>
      <trkpt lat="47.31516" lon="-2.36116">
        <ele>14.60000038147</ele>
        <time>2022-03-17T10:44:55.000Z</time>
      </trkpt>
      <trkpt lat="47.31513" lon="-2.3612">
        <ele>15</ele>
        <time>2022-03-17T10:44:56.000Z</time>
      </trkpt>
      <trkpt lat="47.3151" lon="-2.36124">
        <ele>15.39999961853</ele>
        <time>2022-03-17T10:44:57.000Z</time>
      </trkpt>
      <trkpt lat="47.31507" lon="-2.36127">
        <ele>15.800000190735</ele>
        <time>2022-03-17T10:44:58.000Z</time>
      </trkpt>
      <trkpt lat="47.31504" lon="-2.36131">
        <ele>16.200000762939</ele>
        <time>2022-03-17T10:44:59.000Z</time>
      </trkpt>
      <trkpt lat="47.3149" lon="-2.36148">
        <ele>16.200000762939</ele>
        <time>2022-03-17T10:45:03.000Z</time>
      </trkpt>
      <trkpt lat="47.31473" lon="-2.36165">
        <ele>16.200000762939</ele>
        <time>2022-03-17T10:45:08.000Z</time>
      </trkpt>
      <trkpt lat="47.31464" lon="-2.36174">
        <ele>16.200000762939</ele>
        <time>2022-03-17T10:45:12.000Z</time>
      </trkpt>
      <trkpt lat="47.31463" lon="-2.36174">
        <ele>16.200000762939</ele>
        <time>2022-03-17T10:45:14.000Z</time>
      </trkpt>
      <trkpt lat="47.3146" lon="-2.3618">
        <ele>16.200000762939</ele>
        <time>2022-03-17T10:48:00.000Z</time>
      </trkpt>
      <trkpt lat="47.31459" lon="-2.36182">
        <ele>16.200000762939</ele>
        <time>2022-03-17T10:48:01.000Z</time>
      </trkpt>
      <trkpt lat="47.31446" lon="-2.36192">
        <ele>16.200000762939</ele>
        <time>2022-03-17T10:48:06.000Z</time>
      </trkpt>
      <trkpt lat="47.31425" lon="-2.36206">
        <ele>16.200000762939</ele>
        <time>2022-03-17T10:48:12.000Z</time>
      </trkpt>
      <trkpt lat="47.31394" lon="-2.36222">
        <ele>16.200000762939</ele>
        <time>2022-03-17T10:48:20.000Z</time>
      </trkpt>
      <trkpt lat="47.3137" lon="-2.36234">
        <ele>16.200000762939</ele>
        <time>2022-03-17T10:48:26.000Z</time>
      </trkpt>
      <trkpt lat="47.31342" lon="-2.36259">
        <ele>16.200000762939</ele>
        <time>2022-03-17T10:48:34.000Z</time>
      </trkpt>
      <trkpt lat="47.31313" lon="-2.36287">
        <ele>16.200000762939</ele>
        <time>2022-03-17T10:48:42.000Z</time>
      </trkpt>
      <trkpt lat="47.31282" lon="-2.36304">
        <ele>16.200000762939</ele>
        <time>2022-03-17T10:48:49.000Z</time>
      </trkpt>
      <trkpt lat="47.31273" lon="-2.36308">
        <ele>16.200000762939</ele>
        <time>2022-03-17T10:48:51.000Z</time>
      </trkpt>
      <trkpt lat="47.31263" lon="-2.36311">
        <ele>16.200000762939</ele>
        <time>2022-03-17T10:48:53.000Z</time>
      </trkpt>
      <trkpt lat="47.31259" lon="-2.36314">
        <ele>16.200000762939</ele>
        <time>2022-03-17T10:48:54.000Z</time>
      </trkpt>
      <trkpt lat="47.31222" lon="-2.36339">
        <ele>16.200000762939</ele>
        <time>2022-03-17T10:49:01.000Z</time>
      </trkpt>
      <trkpt lat="47.3119" lon="-2.36356">
        <ele>16.200000762939</ele>
        <time>2022-03-17T10:49:07.000Z</time>
      </trkpt>
      <trkpt lat="47.31175" lon="-2.36365">
        <ele>16.200000762939</ele>
        <time>2022-03-17T10:49:10.000Z</time>
      </trkpt>
      <trkpt lat="47.31156" lon="-2.36379">
        <ele>16.200000762939</ele>
        <time>2022-03-17T10:49:14.000Z</time>
      </trkpt>
      <trkpt lat="47.31142" lon="-2.3639">
        <ele>15.800000190735</ele>
        <time>2022-03-17T10:49:17.000Z</time>
      </trkpt>
      <trkpt lat="47.31137" lon="-2.36393">
        <ele>15.39999961853</ele>
        <time>2022-03-17T10:49:18.000Z</time>
      </trkpt>
      <trkpt lat="47.31133" lon="-2.36397">
        <ele>15</ele>
        <time>2022-03-17T10:49:19.000Z</time>
      </trkpt>
      <trkpt lat="47.31128" lon="-2.364">
        <ele>14.60000038147</ele>
        <time>2022-03-17T10:49:20.000Z</time>
      </trkpt>
      <trkpt lat="47.31123" lon="-2.36403">
        <ele>14.199999809265</ele>
        <time>2022-03-17T10:49:21.000Z</time>
      </trkpt>
      <trkpt lat="47.31104" lon="-2.36412">
        <ele>14.199999809265</ele>
        <time>2022-03-17T10:49:25.000Z</time>
      </trkpt>
      <trkpt lat="47.31095" lon="-2.36414">
        <ele>14.199999809265</ele>
        <time>2022-03-17T10:49:27.000Z</time>
      </trkpt>
      <trkpt lat="47.31081" lon="-2.36415">
        <ele>14.199999809265</ele>
        <time>2022-03-17T10:49:30.000Z</time>
      </trkpt>
      <trkpt lat="47.31046" lon="-2.36418">
        <ele>14.199999809265</ele>
        <time>2022-03-17T10:49:37.000Z</time>
      </trkpt>
      <trkpt lat="47.31025" lon="-2.36422">
        <ele>14.199999809265</ele>
        <time>2022-03-17T10:49:41.000Z</time>
      </trkpt>
      <trkpt lat="47.31021" lon="-2.36424">
        <ele>14.199999809265</ele>
        <time>2022-03-17T10:49:42.000Z</time>
      </trkpt>
      <trkpt lat="47.30998" lon="-2.36434">
        <ele>14.199999809265</ele>
        <time>2022-03-17T10:49:47.000Z</time>
      </trkpt>
      <trkpt lat="47.30994" lon="-2.36437">
        <ele>14.199999809265</ele>
        <time>2022-03-17T10:49:48.000Z</time>
      </trkpt>
      <trkpt lat="47.30976" lon="-2.36446">
        <ele>14.199999809265</ele>
        <time>2022-03-17T10:49:52.000Z</time>
      </trkpt>
      <trkpt lat="47.30958" lon="-2.36455">
        <ele>14.199999809265</ele>
        <time>2022-03-17T10:49:56.000Z</time>
      </trkpt>
      <trkpt lat="47.30954" lon="-2.36457">
        <ele>14.60000038147</ele>
        <time>2022-03-17T10:49:57.000Z</time>
      </trkpt>
      <trkpt lat="47.30949" lon="-2.36458">
        <ele>15</ele>
        <time>2022-03-17T10:49:58.000Z</time>
      </trkpt>
      <trkpt lat="47.30944" lon="-2.36459">
        <ele>15.39999961853</ele>
        <time>2022-03-17T10:49:59.000Z</time>
      </trkpt>
      <trkpt lat="47.30939" lon="-2.3646">
        <ele>15.800000190735</ele>
        <time>2022-03-17T10:50:00.000Z</time>
      </trkpt>
      <trkpt lat="47.30934" lon="-2.36461">
        <ele>16.200000762939</ele>
        <time>2022-03-17T10:50:01.000Z</time>
      </trkpt>
      <trkpt lat="47.30914" lon="-2.36467">
        <ele>16.200000762939</ele>
        <time>2022-03-17T10:50:05.000Z</time>
      </trkpt>
      <trkpt lat="47.3089" lon="-2.36475">
        <ele>16.200000762939</ele>
        <time>2022-03-17T10:50:10.000Z</time>
      </trkpt>
      <trkpt lat="47.3088" lon="-2.36477">
        <ele>16.200000762939</ele>
        <time>2022-03-17T10:50:12.000Z</time>
      </trkpt>
      <trkpt lat="47.30856" lon="-2.36483">
        <ele>16.200000762939</ele>
        <time>2022-03-17T10:50:17.000Z</time>
      </trkpt>
      <trkpt lat="47.30847" lon="-2.36483">
        <ele>16.200000762939</ele>
        <time>2022-03-17T10:50:19.000Z</time>
      </trkpt>
      <trkpt lat="47.30833" lon="-2.36483">
        <ele>16.200000762939</ele>
        <time>2022-03-17T10:50:22.000Z</time>
      </trkpt>
      <trkpt lat="47.30824" lon="-2.36479">
        <ele>16.200000762939</ele>
        <time>2022-03-17T10:50:24.000Z</time>
      </trkpt>
      <trkpt lat="47.30815" lon="-2.36473">
        <ele>16.200000762939</ele>
        <time>2022-03-17T10:50:26.000Z</time>
      </trkpt>
      <trkpt lat="47.30805" lon="-2.36471">
        <ele>16.200000762939</ele>
        <time>2022-03-17T10:50:28.000Z</time>
      </trkpt>
      <trkpt lat="47.3077" lon="-2.36483">
        <ele>16.200000762939</ele>
        <time>2022-03-17T10:50:35.000Z</time>
      </trkpt>
      <trkpt lat="47.30741" lon="-2.36495">
        <ele>16.799999237061</ele>
        <time>2022-03-17T10:50:41.000Z</time>
      </trkpt>
      <trkpt lat="47.30736" lon="-2.36497">
        <ele>17.200000762939</ele>
        <time>2022-03-17T10:50:42.000Z</time>
      </trkpt>
      <trkpt lat="47.30731" lon="-2.36499">
        <ele>17.60000038147</ele>
        <time>2022-03-17T10:50:43.000Z</time>
      </trkpt>
      <trkpt lat="47.30727" lon="-2.36501">
        <ele>18</ele>
        <time>2022-03-17T10:50:44.000Z</time>
      </trkpt>
      <trkpt lat="47.30722" lon="-2.36504">
        <ele>18.39999961853</ele>
        <time>2022-03-17T10:50:45.000Z</time>
      </trkpt>
      <trkpt lat="47.30719" lon="-2.36507">
        <ele>18.39999961853</ele>
        <time>2022-03-17T10:50:46.000Z</time>
      </trkpt>
      <trkpt lat="47.30712" lon="-2.36514">
        <ele>18.39999961853</ele>
        <time>2022-03-17T10:50:48.000Z</time>
      </trkpt>
      <trkpt lat="47.30701" lon="-2.3652">
        <ele>18.39999961853</ele>
        <time>2022-03-17T10:50:51.000Z</time>
      </trkpt>
      <trkpt lat="47.30698" lon="-2.36518">
        <ele>18.39999961853</ele>
        <time>2022-03-17T10:50:52.000Z</time>
      </trkpt>
      <trkpt lat="47.30689" lon="-2.36512">
        <ele>18.799999237061</ele>
        <time>2022-03-17T10:50:55.000Z</time>
      </trkpt>
      <trkpt lat="47.30685" lon="-2.36513">
        <ele>19.200000762939</ele>
        <time>2022-03-17T10:50:56.000Z</time>
      </trkpt>
      <trkpt lat="47.30681" lon="-2.36515">
        <ele>19.60000038147</ele>
        <time>2022-03-17T10:50:57.000Z</time>
      </trkpt>
      <trkpt lat="47.30677" lon="-2.36517">
        <ele>20</ele>
        <time>2022-03-17T10:50:58.000Z</time>
      </trkpt>
      <trkpt lat="47.30672" lon="-2.36518">
        <ele>20.39999961853</ele>
        <time>2022-03-17T10:50:59.000Z</time>
      </trkpt>
      <trkpt lat="47.30655" lon="-2.36526">
        <ele>20.39999961853</ele>
        <time>2022-03-17T10:51:03.000Z</time>
      </trkpt>
      <trkpt lat="47.30636" lon="-2.36536">
        <ele>20.39999961853</ele>
        <time>2022-03-17T10:51:08.000Z</time>
      </trkpt>
      <trkpt lat="47.30627" lon="-2.3654">
        <ele>20.39999961853</ele>
        <time>2022-03-17T10:51:10.000Z</time>
      </trkpt>
      <trkpt lat="47.30601" lon="-2.36546">
        <ele>20.39999961853</ele>
        <time>2022-03-17T10:51:16.000Z</time>
      </trkpt>
      <trkpt lat="47.30569" lon="-2.36556">
        <ele>20.39999961853</ele>
        <time>2022-03-17T10:51:23.000Z</time>
      </trkpt>
      <trkpt lat="47.30545" lon="-2.36577">
        <ele>20.39999961853</ele>
        <time>2022-03-17T10:51:29.000Z</time>
      </trkpt>
      <trkpt lat="47.30537" lon="-2.36582">
        <ele>20.39999961853</ele>
        <time>2022-03-17T10:51:31.000Z</time>
      </trkpt>
      <trkpt lat="47.30522" lon="-2.36592">
        <ele>20.39999961853</ele>
        <time>2022-03-17T10:51:35.000Z</time>
      </trkpt>
      <trkpt lat="47.30495" lon="-2.36602">
        <ele>20.39999961853</ele>
        <time>2022-03-17T10:51:42.000Z</time>
      </trkpt>
      <trkpt lat="47.30479" lon="-2.36607">
        <ele>20.39999961853</ele>
        <time>2022-03-17T10:51:48.000Z</time>
      </trkpt>
      <trkpt lat="47.30461" lon="-2.36617">
        <ele>20.39999961853</ele>
        <time>2022-03-17T10:51:53.000Z</time>
      </trkpt>
      <trkpt lat="47.30441" lon="-2.36635">
        <ele>20.39999961853</ele>
        <time>2022-03-17T10:51:59.000Z</time>
      </trkpt>
      <trkpt lat="47.30418" lon="-2.36651">
        <ele>20.39999961853</ele>
        <time>2022-03-17T10:52:05.000Z</time>
      </trkpt>
      <trkpt lat="47.30409" lon="-2.36654">
        <ele>20.39999961853</ele>
        <time>2022-03-17T10:52:07.000Z</time>
      </trkpt>
      <trkpt lat="47.30404" lon="-2.36654">
        <ele>20.799999237061</ele>
        <time>2022-03-17T10:52:08.000Z</time>
      </trkpt>
      <trkpt lat="47.30399" lon="-2.36655">
        <ele>21.200000762939</ele>
        <time>2022-03-17T10:52:09.000Z</time>
      </trkpt>
      <trkpt lat="47.30394" lon="-2.36656">
        <ele>21.60000038147</ele>
        <time>2022-03-17T10:52:10.000Z</time>
      </trkpt>
      <trkpt lat="47.30389" lon="-2.36656">
        <ele>22</ele>
        <time>2022-03-17T10:52:11.000Z</time>
      </trkpt>
      <trkpt lat="47.30383" lon="-2.36656">
        <ele>22.39999961853</ele>
        <time>2022-03-17T10:52:12.000Z</time>
      </trkpt>
      <trkpt lat="47.30361" lon="-2.36654">
        <ele>22.39999961853</ele>
        <time>2022-03-17T10:52:16.000Z</time>
      </trkpt>
      <trkpt lat="47.30333" lon="-2.36648">
        <ele>22</ele>
        <time>2022-03-17T10:52:21.000Z</time>
      </trkpt>
      <trkpt lat="47.30328" lon="-2.36647">
        <ele>21.60000038147</ele>
        <time>2022-03-17T10:52:22.000Z</time>
      </trkpt>
      <trkpt lat="47.30323" lon="-2.36646">
        <ele>21.200000762939</ele>
        <time>2022-03-17T10:52:23.000Z</time>
      </trkpt>
      <trkpt lat="47.30318" lon="-2.36645">
        <ele>20.799999237061</ele>
        <time>2022-03-17T10:52:24.000Z</time>
      </trkpt>
      <trkpt lat="47.30312" lon="-2.36645">
        <ele>20.39999961853</ele>
        <time>2022-03-17T10:52:25.000Z</time>
      </trkpt>
      <trkpt lat="47.30307" lon="-2.36645">
        <ele>20.39999961853</ele>
        <time>2022-03-17T10:52:26.000Z</time>
      </trkpt>
      <trkpt lat="47.30298" lon="-2.36647">
        <ele>20.39999961853</ele>
        <time>2022-03-17T10:52:28.000Z</time>
      </trkpt>
      <trkpt lat="47.30288" lon="-2.36651">
        <ele>20.39999961853</ele>
        <time>2022-03-17T10:52:30.000Z</time>
      </trkpt>
      <trkpt lat="47.3027" lon="-2.36659">
        <ele>20.39999961853</ele>
        <time>2022-03-17T10:52:34.000Z</time>
      </trkpt>
      <trkpt lat="47.30237" lon="-2.36666">
        <ele>20.39999961853</ele>
        <time>2022-03-17T10:52:41.000Z</time>
      </trkpt>
      <trkpt lat="47.30212" lon="-2.36669">
        <ele>20.39999961853</ele>
        <time>2022-03-17T10:52:47.000Z</time>
      </trkpt>
      <trkpt lat="47.30195" lon="-2.36673">
        <ele>20.39999961853</ele>
        <time>2022-03-17T10:52:53.000Z</time>
      </trkpt>
      <trkpt lat="47.30186" lon="-2.36675">
        <ele>20.39999961853</ele>
        <time>2022-03-17T10:52:58.000Z</time>
      </trkpt>
      <trkpt lat="47.30186" lon="-2.36675">
        <ele>20.39999961853</ele>
        <time>2022-03-17T10:53:00.000Z</time>
      </trkpt>
      <trkpt lat="47.30176" lon="-2.36681">
        <ele>20.39999961853</ele>
        <time>2022-03-17T10:53:22.000Z</time>
      </trkpt>
      <trkpt lat="47.30176" lon="-2.36681">
        <ele>20.39999961853</ele>
        <time>2022-03-17T10:53:23.000Z</time>
      </trkpt>
      <trkpt lat="47.30172" lon="-2.36681">
        <ele>18.39999961853</ele>
        <time>2022-03-17T10:54:52.000Z</time>
      </trkpt>
      <trkpt lat="47.30165" lon="-2.36681">
        <ele>18.39999961853</ele>
        <time>2022-03-17T10:54:55.000Z</time>
      </trkpt>
      <trkpt lat="47.30149" lon="-2.36686">
        <ele>18.39999961853</ele>
        <time>2022-03-17T10:54:59.000Z</time>
      </trkpt>
      <trkpt lat="47.30143" lon="-2.36689">
        <ele>17.799999237061</ele>
        <time>2022-03-17T10:55:00.000Z</time>
      </trkpt>
      <trkpt lat="47.30138" lon="-2.36693">
        <ele>17.39999961853</ele>
        <time>2022-03-17T10:55:01.000Z</time>
      </trkpt>
      <trkpt lat="47.30133" lon="-2.36697">
        <ele>16.799999237061</ele>
        <time>2022-03-17T10:55:02.000Z</time>
      </trkpt>
      <trkpt lat="47.30128" lon="-2.36701">
        <ele>16.200000762939</ele>
        <time>2022-03-17T10:55:03.000Z</time>
      </trkpt>
      <trkpt lat="47.30122" lon="-2.36705">
        <ele>15.800000190735</ele>
        <time>2022-03-17T10:55:04.000Z</time>
      </trkpt>
      <trkpt lat="47.30117" lon="-2.3671">
        <ele>15.800000190735</ele>
        <time>2022-03-17T10:55:05.000Z</time>
      </trkpt>
      <trkpt lat="47.30088" lon="-2.36736">
        <ele>15.800000190735</ele>
        <time>2022-03-17T10:55:11.000Z</time>
      </trkpt>
      <trkpt lat="47.3008" lon="-2.36743">
        <ele>15.800000190735</ele>
        <time>2022-03-17T10:55:13.000Z</time>
      </trkpt>
      <trkpt lat="47.30072" lon="-2.3675">
        <ele>16.200000762939</ele>
        <time>2022-03-17T10:55:15.000Z</time>
      </trkpt>
      <trkpt lat="47.30069" lon="-2.36754">
        <ele>16.60000038147</ele>
        <time>2022-03-17T10:55:16.000Z</time>
      </trkpt>
      <trkpt lat="47.30065" lon="-2.36759">
        <ele>17</ele>
        <time>2022-03-17T10:55:17.000Z</time>
      </trkpt>
      <trkpt lat="47.30061" lon="-2.36764">
        <ele>17.39999961853</ele>
        <time>2022-03-17T10:55:18.000Z</time>
      </trkpt>
      <trkpt lat="47.30057" lon="-2.36768">
        <ele>17.799999237061</ele>
        <time>2022-03-17T10:55:19.000Z</time>
      </trkpt>
      <trkpt lat="47.30036" lon="-2.36795">
        <ele>17.799999237061</ele>
        <time>2022-03-17T10:55:25.000Z</time>
      </trkpt>
      <trkpt lat="47.30004" lon="-2.36832">
        <ele>17.799999237061</ele>
        <time>2022-03-17T10:55:33.000Z</time>
      </trkpt>
      <trkpt lat="47.29979" lon="-2.3686">
        <ele>17.799999237061</ele>
        <time>2022-03-17T10:55:39.000Z</time>
      </trkpt>
      <trkpt lat="47.29954" lon="-2.36891">
        <ele>17.799999237061</ele>
        <time>2022-03-17T10:55:46.000Z</time>
      </trkpt>
      <trkpt lat="47.29926" lon="-2.36927">
        <ele>17.799999237061</ele>
        <time>2022-03-17T10:55:54.000Z</time>
      </trkpt>
      <trkpt lat="47.29908" lon="-2.36953">
        <ele>17.799999237061</ele>
        <time>2022-03-17T10:56:00.000Z</time>
      </trkpt>
      <trkpt lat="47.29896" lon="-2.3697">
        <ele>17.799999237061</ele>
        <time>2022-03-17T10:56:04.000Z</time>
      </trkpt>
      <trkpt lat="47.29877" lon="-2.36976">
        <ele>17.799999237061</ele>
        <time>2022-03-17T10:56:08.000Z</time>
      </trkpt>
      <trkpt lat="47.29864" lon="-2.36989">
        <ele>17.799999237061</ele>
        <time>2022-03-17T10:56:11.000Z</time>
      </trkpt>
      <trkpt lat="47.2986" lon="-2.36993">
        <ele>17.799999237061</ele>
        <time>2022-03-17T10:56:12.000Z</time>
      </trkpt>
      <trkpt lat="47.29827" lon="-2.37034">
        <ele>17.799999237061</ele>
        <time>2022-03-17T10:56:20.000Z</time>
      </trkpt>
      <trkpt lat="47.29817" lon="-2.37053">
        <ele>17.799999237061</ele>
        <time>2022-03-17T10:56:23.000Z</time>
      </trkpt>
      <trkpt lat="47.29812" lon="-2.37067">
        <ele>17.799999237061</ele>
        <time>2022-03-17T10:56:25.000Z</time>
      </trkpt>
      <trkpt lat="47.2981" lon="-2.37082">
        <ele>17.799999237061</ele>
        <time>2022-03-17T10:56:27.000Z</time>
      </trkpt>
      <trkpt lat="47.29804" lon="-2.3712">
        <ele>18.200000762939</ele>
        <time>2022-03-17T10:56:32.000Z</time>
      </trkpt>
      <trkpt lat="47.29802" lon="-2.37128">
        <ele>18.60000038147</ele>
        <time>2022-03-17T10:56:33.000Z</time>
      </trkpt>
      <trkpt lat="47.298" lon="-2.37136">
        <ele>19</ele>
        <time>2022-03-17T10:56:34.000Z</time>
      </trkpt>
      <trkpt lat="47.29797" lon="-2.37143">
        <ele>19.39999961853</ele>
        <time>2022-03-17T10:56:35.000Z</time>
      </trkpt>
      <trkpt lat="47.29794" lon="-2.3715">
        <ele>19.799999237061</ele>
        <time>2022-03-17T10:56:36.000Z</time>
      </trkpt>
      <trkpt lat="47.29786" lon="-2.37163">
        <ele>19.799999237061</ele>
        <time>2022-03-17T10:56:38.000Z</time>
      </trkpt>
      <trkpt lat="47.29776" lon="-2.37172">
        <ele>19.799999237061</ele>
        <time>2022-03-17T10:56:40.000Z</time>
      </trkpt>
      <trkpt lat="47.2977" lon="-2.37176">
        <ele>19.799999237061</ele>
        <time>2022-03-17T10:56:41.000Z</time>
      </trkpt>
      <trkpt lat="47.29753" lon="-2.37183">
        <ele>19.799999237061</ele>
        <time>2022-03-17T10:56:44.000Z</time>
      </trkpt>
      <trkpt lat="47.29747" lon="-2.37184">
        <ele>19.799999237061</ele>
        <time>2022-03-17T10:56:45.000Z</time>
      </trkpt>
      <trkpt lat="47.29717" lon="-2.37187">
        <ele>19.799999237061</ele>
        <time>2022-03-17T10:56:50.000Z</time>
      </trkpt>
      <trkpt lat="47.29681" lon="-2.37202">
        <ele>19.39999961853</ele>
        <time>2022-03-17T10:56:56.000Z</time>
      </trkpt>
      <trkpt lat="47.29675" lon="-2.37204">
        <ele>19</ele>
        <time>2022-03-17T10:56:57.000Z</time>
      </trkpt>
      <trkpt lat="47.29669" lon="-2.37207">
        <ele>18.60000038147</ele>
        <time>2022-03-17T10:56:58.000Z</time>
      </trkpt>
      <trkpt lat="47.29663" lon="-2.37209">
        <ele>18.200000762939</ele>
        <time>2022-03-17T10:56:59.000Z</time>
      </trkpt>
      <trkpt lat="47.29657" lon="-2.37211">
        <ele>17.799999237061</ele>
        <time>2022-03-17T10:57:00.000Z</time>
      </trkpt>
      <trkpt lat="47.29645" lon="-2.37216">
        <ele>17.799999237061</ele>
        <time>2022-03-17T10:57:02.000Z</time>
      </trkpt>
      <trkpt lat="47.29633" lon="-2.37221">
        <ele>17.799999237061</ele>
        <time>2022-03-17T10:57:04.000Z</time>
      </trkpt>
      <trkpt lat="47.2962" lon="-2.37227">
        <ele>17.799999237061</ele>
        <time>2022-03-17T10:57:06.000Z</time>
      </trkpt>
      <trkpt lat="47.29614" lon="-2.37231">
        <ele>17.799999237061</ele>
        <time>2022-03-17T10:57:07.000Z</time>
      </trkpt>
      <trkpt lat="47.29607" lon="-2.37234">
        <ele>17.799999237061</ele>
        <time>2022-03-17T10:57:08.000Z</time>
      </trkpt>
      <trkpt lat="47.29587" lon="-2.37245">
        <ele>17.39999961853</ele>
        <time>2022-03-17T10:57:11.000Z</time>
      </trkpt>
      <trkpt lat="47.29581" lon="-2.37249">
        <ele>17</ele>
        <time>2022-03-17T10:57:12.000Z</time>
      </trkpt>
      <trkpt lat="47.29575" lon="-2.37253">
        <ele>16.60000038147</ele>
        <time>2022-03-17T10:57:13.000Z</time>
      </trkpt>
      <trkpt lat="47.29568" lon="-2.37257">
        <ele>16.200000762939</ele>
        <time>2022-03-17T10:57:14.000Z</time>
      </trkpt>
      <trkpt lat="47.29561" lon="-2.37261">
        <ele>15.800000190735</ele>
        <time>2022-03-17T10:57:15.000Z</time>
      </trkpt>
      <trkpt lat="47.29554" lon="-2.37265">
        <ele>15.800000190735</ele>
        <time>2022-03-17T10:57:16.000Z</time>
      </trkpt>
      <trkpt lat="47.29532" lon="-2.37277">
        <ele>15.199999809265</ele>
        <time>2022-03-17T10:57:19.000Z</time>
      </trkpt>
      <trkpt lat="47.29524" lon="-2.37281">
        <ele>14.800000190735</ele>
        <time>2022-03-17T10:57:20.000Z</time>
      </trkpt>
      <trkpt lat="47.29516" lon="-2.37283">
        <ele>14.199999809265</ele>
        <time>2022-03-17T10:57:21.000Z</time>
      </trkpt>
      <trkpt lat="47.29507" lon="-2.37285">
        <ele>13.800000190735</ele>
        <time>2022-03-17T10:57:22.000Z</time>
      </trkpt>
      <trkpt lat="47.29499" lon="-2.37285">
        <ele>13.39999961853</ele>
        <time>2022-03-17T10:57:23.000Z</time>
      </trkpt>
      <trkpt lat="47.29487" lon="-2.37286">
        <ele>13.39999961853</ele>
        <time>2022-03-17T10:57:25.000Z</time>
      </trkpt>
      <trkpt lat="47.29481" lon="-2.37287">
        <ele>12.800000190735</ele>
        <time>2022-03-17T10:57:26.000Z</time>
      </trkpt>
      <trkpt lat="47.29477" lon="-2.37288">
        <ele>12.39999961853</ele>
        <time>2022-03-17T10:57:27.000Z</time>
      </trkpt>
      <trkpt lat="47.29472" lon="-2.37288">
        <ele>12</ele>
        <time>2022-03-17T10:57:28.000Z</time>
      </trkpt>
      <trkpt lat="47.29467" lon="-2.37287">
        <ele>11.39999961853</ele>
        <time>2022-03-17T10:57:29.000Z</time>
      </trkpt>
      <trkpt lat="47.29462" lon="-2.37284">
        <ele>11</ele>
        <time>2022-03-17T10:57:30.000Z</time>
      </trkpt>
      <trkpt lat="47.29452" lon="-2.37275">
        <ele>11</ele>
        <time>2022-03-17T10:57:32.000Z</time>
      </trkpt>
      <trkpt lat="47.29437" lon="-2.37261">
        <ele>10.60000038147</ele>
        <time>2022-03-17T10:57:35.000Z</time>
      </trkpt>
      <trkpt lat="47.29431" lon="-2.37255">
        <ele>10.199999809265</ele>
        <time>2022-03-17T10:57:36.000Z</time>
      </trkpt>
      <trkpt lat="47.29426" lon="-2.3725">
        <ele>9.8000001907349</ele>
        <time>2022-03-17T10:57:37.000Z</time>
      </trkpt>
      <trkpt lat="47.2942" lon="-2.37245">
        <ele>9.3999996185303</ele>
        <time>2022-03-17T10:57:38.000Z</time>
      </trkpt>
      <trkpt lat="47.29414" lon="-2.3724">
        <ele>9</ele>
        <time>2022-03-17T10:57:39.000Z</time>
      </trkpt>
      <trkpt lat="47.29396" lon="-2.37227">
        <ele>8.1999998092651</ele>
        <time>2022-03-17T10:57:42.000Z</time>
      </trkpt>
      <trkpt lat="47.2939" lon="-2.37224">
        <ele>7.5999999046326</ele>
        <time>2022-03-17T10:57:43.000Z</time>
      </trkpt>
      <trkpt lat="47.29384" lon="-2.37221">
        <ele>7.1999998092651</ele>
        <time>2022-03-17T10:57:44.000Z</time>
      </trkpt>
      <trkpt lat="47.29378" lon="-2.37218">
        <ele>6.8000001907349</ele>
        <time>2022-03-17T10:57:45.000Z</time>
      </trkpt>
      <trkpt lat="47.2935" lon="-2.37203">
        <ele>6.8000001907349</ele>
        <time>2022-03-17T10:57:50.000Z</time>
      </trkpt>
      <trkpt lat="47.29313" lon="-2.37179">
        <ele>6.8000001907349</ele>
        <time>2022-03-17T10:57:57.000Z</time>
      </trkpt>
      <trkpt lat="47.29286" lon="-2.37151">
        <ele>6.8000001907349</ele>
        <time>2022-03-17T10:58:03.000Z</time>
      </trkpt>
      <trkpt lat="47.29282" lon="-2.37146">
        <ele>7.1999998092651</ele>
        <time>2022-03-17T10:58:04.000Z</time>
      </trkpt>
      <trkpt lat="47.29278" lon="-2.37141">
        <ele>7.8000001907349</ele>
        <time>2022-03-17T10:58:05.000Z</time>
      </trkpt>
      <trkpt lat="47.29274" lon="-2.37135">
        <ele>8.1999998092651</ele>
        <time>2022-03-17T10:58:06.000Z</time>
      </trkpt>
      <trkpt lat="47.29269" lon="-2.3713">
        <ele>9</ele>
        <time>2022-03-17T10:58:07.000Z</time>
      </trkpt>
      <trkpt lat="47.29252" lon="-2.37109">
        <ele>9</ele>
        <time>2022-03-17T10:58:11.000Z</time>
      </trkpt>
      <trkpt lat="47.29221" lon="-2.37076">
        <ele>9</ele>
        <time>2022-03-17T10:58:18.000Z</time>
      </trkpt>
      <trkpt lat="47.29195" lon="-2.37046">
        <ele>9</ele>
        <time>2022-03-17T10:58:24.000Z</time>
      </trkpt>
      <trkpt lat="47.29173" lon="-2.37019">
        <ele>9</ele>
        <time>2022-03-17T10:58:29.000Z</time>
      </trkpt>
      <trkpt lat="47.2917" lon="-2.37013">
        <ele>9</ele>
        <time>2022-03-17T10:58:30.000Z</time>
      </trkpt>
      <trkpt lat="47.29162" lon="-2.37003">
        <ele>9</ele>
        <time>2022-03-17T10:58:32.000Z</time>
      </trkpt>
      <trkpt lat="47.29154" lon="-2.36993">
        <ele>9</ele>
        <time>2022-03-17T10:58:34.000Z</time>
      </trkpt>
      <trkpt lat="47.29139" lon="-2.36974">
        <ele>9</ele>
        <time>2022-03-17T10:58:38.000Z</time>
      </trkpt>
      <trkpt lat="47.2913" lon="-2.36967">
        <ele>9</ele>
        <time>2022-03-17T10:58:40.000Z</time>
      </trkpt>
      <trkpt lat="47.29119" lon="-2.36959">
        <ele>9</ele>
        <time>2022-03-17T10:58:44.000Z</time>
      </trkpt>
      <trkpt lat="47.29108" lon="-2.36954">
        <ele>9</ele>
        <time>2022-03-17T10:58:49.000Z</time>
      </trkpt>
      <trkpt lat="47.29091" lon="-2.3695">
        <ele>9</ele>
        <time>2022-03-17T10:58:54.000Z</time>
      </trkpt>
      <trkpt lat="47.29071" lon="-2.36937">
        <ele>9</ele>
        <time>2022-03-17T10:59:00.000Z</time>
      </trkpt>
      <trkpt lat="47.29061" lon="-2.3693">
        <ele>9</ele>
        <time>2022-03-17T10:59:04.000Z</time>
      </trkpt>
      <trkpt lat="47.29058" lon="-2.36927">
        <ele>8.6000003814697</ele>
        <time>2022-03-17T10:59:06.000Z</time>
      </trkpt>
      <trkpt lat="47.29056" lon="-2.36925">
        <ele>8.1999998092651</ele>
        <time>2022-03-17T10:59:07.000Z</time>
      </trkpt>
      <trkpt lat="47.29055" lon="-2.36924">
        <ele>7.8000001907349</ele>
        <time>2022-03-17T10:59:08.000Z</time>
      </trkpt>
      <trkpt lat="47.29053" lon="-2.36922">
        <ele>7.4000000953674</ele>
        <time>2022-03-17T10:59:09.000Z</time>
      </trkpt>
      <trkpt lat="47.29052" lon="-2.3692">
        <ele>7</ele>
        <time>2022-03-17T10:59:10.000Z</time>
      </trkpt>
      <trkpt lat="47.29039" lon="-2.36906">
        <ele>7</ele>
        <time>2022-03-17T10:59:15.000Z</time>
      </trkpt>
      <trkpt lat="47.29017" lon="-2.36881">
        <ele>7</ele>
        <time>2022-03-17T10:59:20.000Z</time>
      </trkpt>
      <trkpt lat="47.29012" lon="-2.36877">
        <ele>6.1999998092651</ele>
        <time>2022-03-17T10:59:21.000Z</time>
      </trkpt>
      <trkpt lat="47.29006" lon="-2.36873">
        <ele>5.8000001907349</ele>
        <time>2022-03-17T10:59:22.000Z</time>
      </trkpt>
      <trkpt lat="47.29002" lon="-2.36868">
        <ele>5.1999998092651</ele>
        <time>2022-03-17T10:59:23.000Z</time>
      </trkpt>
      <trkpt lat="47.28996" lon="-2.36864">
        <ele>4.8000001907349</ele>
        <time>2022-03-17T10:59:24.000Z</time>
      </trkpt>
      <trkpt lat="47.28991" lon="-2.3686">
        <ele>4.8000001907349</ele>
        <time>2022-03-17T10:59:25.000Z</time>
      </trkpt>
      <trkpt lat="47.28981" lon="-2.36851">
        <ele>4.8000001907349</ele>
        <time>2022-03-17T10:59:27.000Z</time>
      </trkpt>
      <trkpt lat="47.28962" lon="-2.36833">
        <ele>4.8000001907349</ele>
        <time>2022-03-17T10:59:31.000Z</time>
      </trkpt>
      <trkpt lat="47.28941" lon="-2.36814">
        <ele>4.4000000953674</ele>
        <time>2022-03-17T10:59:35.000Z</time>
      </trkpt>
      <trkpt lat="47.28936" lon="-2.3681">
        <ele>4</ele>
        <time>2022-03-17T10:59:36.000Z</time>
      </trkpt>
      <trkpt lat="47.28932" lon="-2.36805">
        <ele>3.5999999046326</ele>
        <time>2022-03-17T10:59:37.000Z</time>
      </trkpt>
      <trkpt lat="47.28927" lon="-2.368">
        <ele>3.2000000476837</ele>
        <time>2022-03-17T10:59:38.000Z</time>
      </trkpt>
      <trkpt lat="47.28923" lon="-2.36795">
        <ele>2.7999999523163</ele>
        <time>2022-03-17T10:59:39.000Z</time>
      </trkpt>
      <trkpt lat="47.28906" lon="-2.36779">
        <ele>2.7999999523163</ele>
        <time>2022-03-17T10:59:43.000Z</time>
      </trkpt>
      <trkpt lat="47.28896" lon="-2.36775">
        <ele>2</ele>
        <time>2022-03-17T10:59:45.000Z</time>
      </trkpt>
      <trkpt lat="47.2889" lon="-2.36774">
        <ele>1.6000000238419</ele>
        <time>2022-03-17T10:59:46.000Z</time>
      </trkpt>
      <trkpt lat="47.28886" lon="-2.36775">
        <ele>1.2000000476837</ele>
        <time>2022-03-17T10:59:47.000Z</time>
      </trkpt>
      <trkpt lat="47.28883" lon="-2.36775">
        <ele>0.80000001192093</ele>
        <time>2022-03-17T10:59:48.000Z</time>
      </trkpt>
      <trkpt lat="47.2888" lon="-2.36777">
        <ele>0.80000001192093</ele>
        <time>2022-03-17T10:59:49.000Z</time>
      </trkpt>
      <trkpt lat="47.28879" lon="-2.3678">
        <ele>0.80000001192093</ele>
        <time>2022-03-17T10:59:50.000Z</time>
      </trkpt>
      <trkpt lat="47.28876" lon="-2.36788">
        <ele>0.40000000596046</ele>
        <time>2022-03-17T10:59:52.000Z</time>
      </trkpt>
      <trkpt lat="47.28874" lon="-2.36793">
        <ele>22.7</ele>
        <time>2022-03-17T10:59:53.000Z</time>
      </trkpt>
      <trkpt lat="47.28872" lon="-2.36797">
        <ele>-0.40000000596046</ele>
        <time>2022-03-17T10:59:54.000Z</time>
      </trkpt>
      <trkpt lat="47.2887" lon="-2.36801">
        <ele>-1</ele>
        <time>2022-03-17T10:59:55.000Z</time>
      </trkpt>
      <trkpt lat="47.28868" lon="-2.36805">
        <ele>-1.3999999761581</ele>
        <time>2022-03-17T10:59:56.000Z</time>
      </trkpt>
      <trkpt lat="47.28866" lon="-2.3681">
        <ele>-1.3999999761581</ele>
        <time>2022-03-17T10:59:57.000Z</time>
      </trkpt>
      <trkpt lat="47.28862" lon="-2.36821">
        <ele>-1.3999999761581</ele>
        <time>2022-03-17T10:59:59.000Z</time>
      </trkpt>
      <trkpt lat="47.2886" lon="-2.36827">
        <ele>-1.3999999761581</ele>
        <time>2022-03-17T11:00:00.000Z</time>
      </trkpt>
      <trkpt lat="47.28852" lon="-2.3686">
        <ele>-1.3999999761581</ele>
        <time>2022-03-17T11:00:05.000Z</time>
      </trkpt>
      <trkpt lat="47.28851" lon="-2.36867">
        <ele>-1.7999999523163</ele>
        <time>2022-03-17T11:00:06.000Z</time>
      </trkpt>
      <trkpt lat="47.28849" lon="-2.36872">
        <ele>-2.2000000476837</ele>
        <time>2022-03-17T11:00:07.000Z</time>
      </trkpt>
      <trkpt lat="47.28847" lon="-2.36875">
        <ele>-2.5999999046326</ele>
        <time>2022-03-17T11:00:08.000Z</time>
      </trkpt>
      <trkpt lat="47.28843" lon="-2.36876">
        <ele>-3</ele>
        <time>2022-03-17T11:00:09.000Z</time>
      </trkpt>
      <trkpt lat="47.2884" lon="-2.36874">
        <ele>-3.4000000953674</ele>
        <time>2022-03-17T11:00:10.000Z</time>
      </trkpt>
      <trkpt lat="47.28832" lon="-2.36867">
        <ele>-4</ele>
        <time>2022-03-17T11:00:12.000Z</time>
      </trkpt>
      <trkpt lat="47.28829" lon="-2.3686">
        <ele>-4.5999999046326</ele>
        <time>2022-03-17T11:00:13.000Z</time>
      </trkpt>
      <trkpt lat="47.28826" lon="-2.36853">
        <ele>-5</ele>
        <time>2022-03-17T11:00:14.000Z</time>
      </trkpt>
      <trkpt lat="47.28822" lon="-2.36846">
        <ele>-5.5999999046326</ele>
        <time>2022-03-17T11:00:15.000Z</time>
      </trkpt>
      <trkpt lat="47.28819" lon="-2.36838">
        <ele>-6.1999998092651</ele>
        <time>2022-03-17T11:00:16.000Z</time>
      </trkpt>
      <trkpt lat="47.28815" lon="-2.3683">
        <ele>-7</ele>
        <time>2022-03-17T11:00:17.000Z</time>
      </trkpt>
      <trkpt lat="47.28812" lon="-2.36823">
        <ele>-7.8000001907349</ele>
        <time>2022-03-17T11:00:18.000Z</time>
      </trkpt>
      <trkpt lat="47.28808" lon="-2.36821">
        <ele>-8.6000003814697</ele>
        <time>2022-03-17T11:00:19.000Z</time>
      </trkpt>
      <trkpt lat="47.28805" lon="-2.36821">
        <ele>-9.6000003814697</ele>
        <time>2022-03-17T11:00:20.000Z</time>
      </trkpt>
      <trkpt lat="47.28801" lon="-2.36824">
        <ele>-10.39999961853</ele>
        <time>2022-03-17T11:00:21.000Z</time>
      </trkpt>
      <trkpt lat="47.28797" lon="-2.3683">
        <ele>-11.199999809265</ele>
        <time>2022-03-17T11:00:22.000Z</time>
      </trkpt>
      <trkpt lat="47.28793" lon="-2.36836">
        <ele>-11.199999809265</ele>
        <time>2022-03-17T11:00:23.000Z</time>
      </trkpt>
      <trkpt lat="47.28787" lon="-2.36851">
        <ele>-11.199999809265</ele>
        <time>2022-03-17T11:00:25.000Z</time>
      </trkpt>
      <trkpt lat="47.28782" lon="-2.36866">
        <ele>-11.60000038147</ele>
        <time>2022-03-17T11:00:27.000Z</time>
      </trkpt>
      <trkpt lat="47.2878" lon="-2.36874">
        <ele>-12</ele>
        <time>2022-03-17T11:00:28.000Z</time>
      </trkpt>
      <trkpt lat="47.28779" lon="-2.36881">
        <ele>-12.39999961853</ele>
        <time>2022-03-17T11:00:29.000Z</time>
      </trkpt>
      <trkpt lat="47.28778" lon="-2.3689">
        <ele>-12.800000190735</ele>
        <time>2022-03-17T11:00:30.000Z</time>
      </trkpt>
      <trkpt lat="47.28777" lon="-2.36897">
        <ele>-13.199999809265</ele>
        <time>2022-03-17T11:00:31.000Z</time>
      </trkpt>
      <trkpt lat="47.28776" lon="-2.36905">
        <ele>-13.199999809265</ele>
        <time>2022-03-17T11:00:32.000Z</time>
      </trkpt>
      <trkpt lat="47.28775" lon="-2.36913">
        <ele>-13.199999809265</ele>
        <time>2022-03-17T11:00:33.000Z</time>
      </trkpt>
      <trkpt lat="47.28781" lon="-2.36944">
        <ele>-13.199999809265</ele>
        <time>2022-03-17T11:00:37.000Z</time>
      </trkpt>
      <trkpt lat="47.28789" lon="-2.36975">
        <ele>-13.199999809265</ele>
        <time>2022-03-17T11:00:41.000Z</time>
      </trkpt>
      <trkpt lat="47.28793" lon="-2.36989">
        <ele>-13.199999809265</ele>
        <time>2022-03-17T11:00:43.000Z</time>
      </trkpt>
      <trkpt lat="47.28807" lon="-2.37038">
        <ele>-13.199999809265</ele>
        <time>2022-03-17T11:00:50.000Z</time>
      </trkpt>
      <trkpt lat="47.28813" lon="-2.37056">
        <ele>-13.199999809265</ele>
        <time>2022-03-17T11:00:53.000Z</time>
      </trkpt>
      <trkpt lat="47.28816" lon="-2.37069">
        <ele>-13.199999809265</ele>
        <time>2022-03-17T11:00:55.000Z</time>
      </trkpt>
      <trkpt lat="47.28817" lon="-2.37075">
        <ele>-13.60000038147</ele>
        <time>2022-03-17T11:00:56.000Z</time>
      </trkpt>
      <trkpt lat="47.28818" lon="-2.3708">
        <ele>-14</ele>
        <time>2022-03-17T11:00:57.000Z</time>
      </trkpt>
      <trkpt lat="47.28818" lon="-2.37085">
        <ele>-14.39999961853</ele>
        <time>2022-03-17T11:00:58.000Z</time>
      </trkpt>
      <trkpt lat="47.28819" lon="-2.3709">
        <ele>-15.39999961853</ele>
        <time>2022-03-17T11:00:59.000Z</time>
      </trkpt>
      <trkpt lat="47.2882" lon="-2.37096">
        <ele>-15.39999961853</ele>
        <time>2022-03-17T11:01:00.000Z</time>
      </trkpt>
      <trkpt lat="47.28818" lon="-2.37109">
        <ele>-15.39999961853</ele>
        <time>2022-03-17T11:01:03.000Z</time>
      </trkpt>
      <trkpt lat="47.28816" lon="-2.37112">
        <ele>-15.39999961853</ele>
        <time>2022-03-17T11:01:04.000Z</time>
      </trkpt>
      <trkpt lat="47.28814" lon="-2.37114">
        <ele>-14.800000190735</ele>
        <time>2022-03-17T11:01:05.000Z</time>
      </trkpt>
      <trkpt lat="47.28811" lon="-2.37115">
        <ele>-14.39999961853</ele>
        <time>2022-03-17T11:01:06.000Z</time>
      </trkpt>
      <trkpt lat="47.28809" lon="-2.37115">
        <ele>-14</ele>
        <time>2022-03-17T11:01:07.000Z</time>
      </trkpt>
      <trkpt lat="47.28806" lon="-2.37116">
        <ele>-13.60000038147</ele>
        <time>2022-03-17T11:01:08.000Z</time>
      </trkpt>
      <trkpt lat="47.28803" lon="-2.37116">
        <ele>-13</ele>
        <time>2022-03-17T11:01:09.000Z</time>
      </trkpt>
      <trkpt lat="47.28801" lon="-2.37115">
        <ele>-12.39999961853</ele>
        <time>2022-03-17T11:01:10.000Z</time>
      </trkpt>
      <trkpt lat="47.28799" lon="-2.37115">
        <ele>-12</ele>
        <time>2022-03-17T11:01:11.000Z</time>
      </trkpt>
      <trkpt lat="47.28798" lon="-2.37112">
        <ele>-11.39999961853</ele>
        <time>2022-03-17T11:01:12.000Z</time>
      </trkpt>
      <trkpt lat="47.28797" lon="-2.3711">
        <ele>-10.800000190735</ele>
        <time>2022-03-17T11:01:13.000Z</time>
      </trkpt>
      <trkpt lat="47.28796" lon="-2.37106">
        <ele>-10.39999961853</ele>
        <time>2022-03-17T11:01:14.000Z</time>
      </trkpt>
      <trkpt lat="47.28795" lon="-2.37103">
        <ele>-10</ele>
        <time>2022-03-17T11:01:15.000Z</time>
      </trkpt>
      <trkpt lat="47.28794" lon="-2.37099">
        <ele>-9.3999996185303</ele>
        <time>2022-03-17T11:01:16.000Z</time>
      </trkpt>
      <trkpt lat="47.28793" lon="-2.37095">
        <ele>-9</ele>
        <time>2022-03-17T11:01:17.000Z</time>
      </trkpt>
      <trkpt lat="47.28792" lon="-2.37092">
        <ele>-8.6000003814697</ele>
        <time>2022-03-17T11:01:18.000Z</time>
      </trkpt>
      <trkpt lat="47.2879" lon="-2.3708">
        <ele>-8.6000003814697</ele>
        <time>2022-03-17T11:01:22.000Z</time>
      </trkpt>
      <trkpt lat="47.28789" lon="-2.37077">
        <ele>-8.1999998092651</ele>
        <time>2022-03-17T11:01:23.000Z</time>
      </trkpt>
      <trkpt lat="47.28788" lon="-2.37074">
        <ele>-7.4000000953674</ele>
        <time>2022-03-17T11:01:24.000Z</time>
      </trkpt>
      <trkpt lat="47.28788" lon="-2.37071">
        <ele>-6.8000001907349</ele>
        <time>2022-03-17T11:01:25.000Z</time>
      </trkpt>
      <trkpt lat="47.28787" lon="-2.37067">
        <ele>-6.4000000953674</ele>
        <time>2022-03-17T11:01:26.000Z</time>
      </trkpt>
      <trkpt lat="47.28784" lon="-2.37053">
        <ele>-6.4000000953674</ele>
        <time>2022-03-17T11:01:30.000Z</time>
      </trkpt>
      <trkpt lat="47.28782" lon="-2.37046">
        <ele>-6</ele>
        <time>2022-03-17T11:01:32.000Z</time>
      </trkpt>
      <trkpt lat="47.28781" lon="-2.37042">
        <ele>-5.5999999046326</ele>
        <time>2022-03-17T11:01:33.000Z</time>
      </trkpt>
      <trkpt lat="47.2878" lon="-2.37038">
        <ele>-5.1999998092651</ele>
        <time>2022-03-17T11:01:34.000Z</time>
      </trkpt>
      <trkpt lat="47.2878" lon="-2.37034">
        <ele>-4.5999999046326</ele>
        <time>2022-03-17T11:01:35.000Z</time>
      </trkpt>
      <trkpt lat="47.28779" lon="-2.3703">
        <ele>-4.1999998092651</ele>
        <time>2022-03-17T11:01:36.000Z</time>
      </trkpt>
      <trkpt lat="47.28777" lon="-2.37019">
        <ele>-4.1999998092651</ele>
        <time>2022-03-17T11:01:39.000Z</time>
      </trkpt>
      <trkpt lat="47.28773" lon="-2.37014">
        <ele>-4.1999998092651</ele>
        <time>2022-03-17T11:01:41.000Z</time>
      </trkpt>
      <trkpt lat="47.28764" lon="-2.37003">
        <ele>-3.7999999523163</ele>
        <time>2022-03-17T11:01:44.000Z</time>
      </trkpt>
      <trkpt lat="47.28762" lon="-2.36999">
        <ele>-3.4000000953674</ele>
        <time>2022-03-17T11:01:45.000Z</time>
      </trkpt>
      <trkpt lat="47.28759" lon="-2.36995">
        <ele>-3</ele>
        <time>2022-03-17T11:01:46.000Z</time>
      </trkpt>
      <trkpt lat="47.28758" lon="-2.3699">
        <ele>-2.5999999046326</ele>
        <time>2022-03-17T11:01:47.000Z</time>
      </trkpt>
      <trkpt lat="47.28756" lon="-2.36985">
        <ele>-2.2000000476837</ele>
        <time>2022-03-17T11:01:48.000Z</time>
      </trkpt>
      <trkpt lat="47.28753" lon="-2.36966">
        <ele>-2.5999999046326</ele>
        <time>2022-03-17T11:01:52.000Z</time>
      </trkpt>
      <trkpt lat="47.28752" lon="-2.36961">
        <ele>-3</ele>
        <time>2022-03-17T11:01:53.000Z</time>
      </trkpt>
      <trkpt lat="47.28752" lon="-2.36955">
        <ele>-3.5999999046326</ele>
        <time>2022-03-17T11:01:54.000Z</time>
      </trkpt>
      <trkpt lat="47.28751" lon="-2.36949">
        <ele>-4</ele>
        <time>2022-03-17T11:01:55.000Z</time>
      </trkpt>
      <trkpt lat="47.28749" lon="-2.36942">
        <ele>-4.5999999046326</ele>
        <time>2022-03-17T11:01:56.000Z</time>
      </trkpt>
      <trkpt lat="47.28748" lon="-2.36936">
        <ele>-5.1999998092651</ele>
        <time>2022-03-17T11:01:57.000Z</time>
      </trkpt>
      <trkpt lat="47.28745" lon="-2.3693">
        <ele>-5.8000001907349</ele>
        <time>2022-03-17T11:01:58.000Z</time>
      </trkpt>
      <trkpt lat="47.28743" lon="-2.36926">
        <ele>-6.4000000953674</ele>
        <time>2022-03-17T11:01:59.000Z</time>
      </trkpt>
      <trkpt lat="47.2874" lon="-2.36922">
        <ele>-7</ele>
        <time>2022-03-17T11:02:00.000Z</time>
      </trkpt>
      <trkpt lat="47.28737" lon="-2.3692">
        <ele>-7</ele>
        <time>2022-03-17T11:02:01.000Z</time>
      </trkpt>
      <trkpt lat="47.28731" lon="-2.36915">
        <ele>-7</ele>
        <time>2022-03-17T11:02:03.000Z</time>
      </trkpt>
      <trkpt lat="47.28727" lon="-2.36907">
        <ele>-7</ele>
        <time>2022-03-17T11:02:05.000Z</time>
      </trkpt>
      <trkpt lat="47.2872" lon="-2.36891">
        <ele>-7</ele>
        <time>2022-03-17T11:02:10.000Z</time>
      </trkpt>
      <trkpt lat="47.28719" lon="-2.36888">
        <ele>-6.5999999046326</ele>
        <time>2022-03-17T11:02:11.000Z</time>
      </trkpt>
      <trkpt lat="47.28717" lon="-2.36886">
        <ele>-6.1999998092651</ele>
        <time>2022-03-17T11:02:12.000Z</time>
      </trkpt>
      <trkpt lat="47.28714" lon="-2.36882">
        <ele>-5.8000001907349</ele>
        <time>2022-03-17T11:02:13.000Z</time>
      </trkpt>
      <trkpt lat="47.28711" lon="-2.36879">
        <ele>-5</ele>
        <time>2022-03-17T11:02:14.000Z</time>
      </trkpt>
      <trkpt lat="47.28708" lon="-2.36875">
        <ele>-5</ele>
        <time>2022-03-17T11:02:15.000Z</time>
      </trkpt>
      <trkpt lat="47.28688" lon="-2.36849">
        <ele>-5</ele>
        <time>2022-03-17T11:02:20.000Z</time>
      </trkpt>
      <trkpt lat="47.28675" lon="-2.36827">
        <ele>-5</ele>
        <time>2022-03-17T11:02:25.000Z</time>
      </trkpt>
      <trkpt lat="47.28674" lon="-2.36823">
        <ele>-4.5999999046326</ele>
        <time>2022-03-17T11:02:26.000Z</time>
      </trkpt>
      <trkpt lat="47.28673" lon="-2.36819">
        <ele>-4.1999998092651</ele>
        <time>2022-03-17T11:02:27.000Z</time>
      </trkpt>
      <trkpt lat="47.28672" lon="-2.36815">
        <ele>-3.7999999523163</ele>
        <time>2022-03-17T11:02:28.000Z</time>
      </trkpt>
      <trkpt lat="47.28669" lon="-2.36811">
        <ele>-3.4000000953674</ele>
        <time>2022-03-17T11:02:29.000Z</time>
      </trkpt>
      <trkpt lat="47.28668" lon="-2.36809">
        <ele>-3</ele>
        <time>2022-03-17T11:02:30.000Z</time>
      </trkpt>
      <trkpt lat="47.28665" lon="-2.36806">
        <ele>-3</ele>
        <time>2022-03-17T11:02:31.000Z</time>
      </trkpt>
      <trkpt lat="47.28652" lon="-2.36804">
        <ele>-3</ele>
        <time>2022-03-17T11:02:35.000Z</time>
      </trkpt>
      <trkpt lat="47.28643" lon="-2.36809">
        <ele>-3</ele>
        <time>2022-03-17T11:02:37.000Z</time>
      </trkpt>
      <trkpt lat="47.2863" lon="-2.3682">
        <ele>-3</ele>
        <time>2022-03-17T11:02:40.000Z</time>
      </trkpt>
      <trkpt lat="47.28604" lon="-2.3684">
        <ele>-3</ele>
        <time>2022-03-17T11:02:45.000Z</time>
      </trkpt>
      <trkpt lat="47.28599" lon="-2.36841">
        <ele>-3.4000000953674</ele>
        <time>2022-03-17T11:02:46.000Z</time>
      </trkpt>
      <trkpt lat="47.28594" lon="-2.36839">
        <ele>-3.7999999523163</ele>
        <time>2022-03-17T11:02:47.000Z</time>
      </trkpt>
      <trkpt lat="47.2859" lon="-2.36837">
        <ele>-4.1999998092651</ele>
        <time>2022-03-17T11:02:48.000Z</time>
      </trkpt>
      <trkpt lat="47.28586" lon="-2.36832">
        <ele>-4.5999999046326</ele>
        <time>2022-03-17T11:02:49.000Z</time>
      </trkpt>
      <trkpt lat="47.28584" lon="-2.36827">
        <ele>-5</ele>
        <time>2022-03-17T11:02:50.000Z</time>
      </trkpt>
      <trkpt lat="47.28582" lon="-2.3682">
        <ele>-5</ele>
        <time>2022-03-17T11:02:51.000Z</time>
      </trkpt>
      <trkpt lat="47.28577" lon="-2.36808">
        <ele>-5</ele>
        <time>2022-03-17T11:02:53.000Z</time>
      </trkpt>
      <trkpt lat="47.28561" lon="-2.36777">
        <ele>-5</ele>
        <time>2022-03-17T11:02:59.000Z</time>
      </trkpt>
      <trkpt lat="47.28555" lon="-2.36767">
        <ele>-5</ele>
        <time>2022-03-17T11:03:01.000Z</time>
      </trkpt>
      <trkpt lat="47.28547" lon="-2.36752">
        <ele>-5</ele>
        <time>2022-03-17T11:03:04.000Z</time>
      </trkpt>
      <trkpt lat="47.28542" lon="-2.36742">
        <ele>-4.5999999046326</ele>
        <time>2022-03-17T11:03:06.000Z</time>
      </trkpt>
      <trkpt lat="47.2854" lon="-2.36738">
        <ele>-4.1999998092651</ele>
        <time>2022-03-17T11:03:07.000Z</time>
      </trkpt>
      <trkpt lat="47.28537" lon="-2.36733">
        <ele>-3.7999999523163</ele>
        <time>2022-03-17T11:03:08.000Z</time>
      </trkpt>
      <trkpt lat="47.28535" lon="-2.36728">
        <ele>-3.4000000953674</ele>
        <time>2022-03-17T11:03:09.000Z</time>
      </trkpt>
      <trkpt lat="47.28533" lon="-2.36723">
        <ele>-3</ele>
        <time>2022-03-17T11:03:10.000Z</time>
      </trkpt>
      <trkpt lat="47.28523" lon="-2.36704">
        <ele>-2.5999999046326</ele>
        <time>2022-03-17T11:03:14.000Z</time>
      </trkpt>
      <trkpt lat="47.28521" lon="-2.367">
        <ele>-2.2000000476837</ele>
        <time>2022-03-17T11:03:15.000Z</time>
      </trkpt>
      <trkpt lat="47.28518" lon="-2.36696">
        <ele>-1.7999999523163</ele>
        <time>2022-03-17T11:03:16.000Z</time>
      </trkpt>
      <trkpt lat="47.28516" lon="-2.36693">
        <ele>-1.3999999761581</ele>
        <time>2022-03-17T11:03:17.000Z</time>
      </trkpt>
      <trkpt lat="47.28514" lon="-2.3669">
        <ele>-1</ele>
        <time>2022-03-17T11:03:18.000Z</time>
      </trkpt>
      <trkpt lat="47.28507" lon="-2.36681">
        <ele>-0.40000000596046</ele>
        <time>2022-03-17T11:03:21.000Z</time>
      </trkpt>
      <trkpt lat="47.28505" lon="-2.36679">
        <ele>25</ele>
        <time>2022-03-17T11:03:22.000Z</time>
      </trkpt>
      <trkpt lat="47.28503" lon="-2.36676">
        <ele>0.40000000596046</ele>
        <time>2022-03-17T11:03:23.000Z</time>
      </trkpt>
      <trkpt lat="47.28501" lon="-2.36673">
        <ele>0.80000001192093</ele>
        <time>2022-03-17T11:03:24.000Z</time>
      </trkpt>
      <trkpt lat="47.28499" lon="-2.36669">
        <ele>1.2000000476837</ele>
        <time>2022-03-17T11:03:25.000Z</time>
      </trkpt>
      <trkpt lat="47.28496" lon="-2.36661">
        <ele>1.2000000476837</ele>
        <time>2022-03-17T11:03:27.000Z</time>
      </trkpt>
      <trkpt lat="47.28488" lon="-2.36632">
        <ele>1.2000000476837</ele>
        <time>2022-03-17T11:03:32.000Z</time>
      </trkpt>
      <trkpt lat="47.28477" lon="-2.36591">
        <ele>1.2000000476837</ele>
        <time>2022-03-17T11:03:39.000Z</time>
      </trkpt>
      <trkpt lat="47.28474" lon="-2.36577">
        <ele>1.2000000476837</ele>
        <time>2022-03-17T11:03:41.000Z</time>
      </trkpt>
      <trkpt lat="47.28476" lon="-2.36563">
        <ele>1.2000000476837</ele>
        <time>2022-03-17T11:03:43.000Z</time>
      </trkpt>
      <trkpt lat="47.28485" lon="-2.36548">
        <ele>1.2000000476837</ele>
        <time>2022-03-17T11:03:46.000Z</time>
      </trkpt>
      <trkpt lat="47.28501" lon="-2.36528">
        <ele>1.6000000238419</ele>
        <time>2022-03-17T11:03:51.000Z</time>
      </trkpt>
      <trkpt lat="47.28505" lon="-2.36524">
        <ele>2</ele>
        <time>2022-03-17T11:03:52.000Z</time>
      </trkpt>
      <trkpt lat="47.28508" lon="-2.36521">
        <ele>2.7999999523163</ele>
        <time>2022-03-17T11:03:53.000Z</time>
      </trkpt>
      <trkpt lat="47.2851" lon="-2.36517">
        <ele>3.2000000476837</ele>
        <time>2022-03-17T11:03:54.000Z</time>
      </trkpt>
      <trkpt lat="47.28515" lon="-2.36511">
        <ele>3.2000000476837</ele>
        <time>2022-03-17T11:03:57.000Z</time>
      </trkpt>
      <trkpt lat="47.28521" lon="-2.36496">
        <ele>3.5999999046326</ele>
        <time>2022-03-17T11:04:01.000Z</time>
      </trkpt>
      <trkpt lat="47.2852" lon="-2.36492">
        <ele>4</ele>
        <time>2022-03-17T11:04:02.000Z</time>
      </trkpt>
      <trkpt lat="47.2852" lon="-2.36487">
        <ele>4.4000000953674</ele>
        <time>2022-03-17T11:04:03.000Z</time>
      </trkpt>
      <trkpt lat="47.28519" lon="-2.36483">
        <ele>4.8000001907349</ele>
        <time>2022-03-17T11:04:04.000Z</time>
      </trkpt>
      <trkpt lat="47.28519" lon="-2.36478">
        <ele>5.1999998092651</ele>
        <time>2022-03-17T11:04:05.000Z</time>
      </trkpt>
      <trkpt lat="47.28518" lon="-2.36473">
        <ele>5.1999998092651</ele>
        <time>2022-03-17T11:04:06.000Z</time>
      </trkpt>
      <trkpt lat="47.28508" lon="-2.3645">
        <ele>5.1999998092651</ele>
        <time>2022-03-17T11:04:11.000Z</time>
      </trkpt>
      <trkpt lat="47.285" lon="-2.36445">
        <ele>5.1999998092651</ele>
        <time>2022-03-17T11:04:13.000Z</time>
      </trkpt>
      <trkpt lat="47.28493" lon="-2.36438">
        <ele>5.1999998092651</ele>
        <time>2022-03-17T11:04:15.000Z</time>
      </trkpt>
      <trkpt lat="47.28484" lon="-2.36423">
        <ele>5.1999998092651</ele>
        <time>2022-03-17T11:04:19.000Z</time>
      </trkpt>
      <trkpt lat="47.28482" lon="-2.36421">
        <ele>5.8000001907349</ele>
        <time>2022-03-17T11:04:20.000Z</time>
      </trkpt>
      <trkpt lat="47.28481" lon="-2.36419">
        <ele>6.1999998092651</ele>
        <time>2022-03-17T11:04:21.000Z</time>
      </trkpt>
      <trkpt lat="47.28479" lon="-2.36416">
        <ele>6.5999999046326</ele>
        <time>2022-03-17T11:04:22.000Z</time>
      </trkpt>
      <trkpt lat="47.28478" lon="-2.36413">
        <ele>7.1999998092651</ele>
        <time>2022-03-17T11:04:23.000Z</time>
      </trkpt>
      <trkpt lat="47.28476" lon="-2.3641">
        <ele>7.5999999046326</ele>
        <time>2022-03-17T11:04:24.000Z</time>
      </trkpt>
      <trkpt lat="47.2847" lon="-2.36403">
        <ele>7.5999999046326</ele>
        <time>2022-03-17T11:04:26.000Z</time>
      </trkpt>
      <trkpt lat="47.28456" lon="-2.36394">
        <ele>7.5999999046326</ele>
        <time>2022-03-17T11:04:29.000Z</time>
      </trkpt>
      <trkpt lat="47.28451" lon="-2.36391">
        <ele>7.5999999046326</ele>
        <time>2022-03-17T11:04:30.000Z</time>
      </trkpt>
      <trkpt lat="47.2843" lon="-2.36374">
        <ele>7.1999998092651</ele>
        <time>2022-03-17T11:04:35.000Z</time>
      </trkpt>
      <trkpt lat="47.28427" lon="-2.3637">
        <ele>6.8000001907349</ele>
        <time>2022-03-17T11:04:36.000Z</time>
      </trkpt>
      <trkpt lat="47.28424" lon="-2.36365">
        <ele>6.4000000953674</ele>
        <time>2022-03-17T11:04:37.000Z</time>
      </trkpt>
      <trkpt lat="47.28421" lon="-2.3636">
        <ele>6</ele>
        <time>2022-03-17T11:04:38.000Z</time>
      </trkpt>
      <trkpt lat="47.28419" lon="-2.36356">
        <ele>5.4000000953674</ele>
        <time>2022-03-17T11:04:39.000Z</time>
      </trkpt>
      <trkpt lat="47.28416" lon="-2.36352">
        <ele>5.4000000953674</ele>
        <time>2022-03-17T11:04:40.000Z</time>
      </trkpt>
      <trkpt lat="47.28412" lon="-2.36347">
        <ele>5.4000000953674</ele>
        <time>2022-03-17T11:04:41.000Z</time>
      </trkpt>
      <trkpt lat="47.28391" lon="-2.36326">
        <ele>5</ele>
        <time>2022-03-17T11:04:46.000Z</time>
      </trkpt>
      <trkpt lat="47.28385" lon="-2.36324">
        <ele>4.5999999046326</ele>
        <time>2022-03-17T11:04:47.000Z</time>
      </trkpt>
      <trkpt lat="47.28381" lon="-2.36322">
        <ele>4.1999998092651</ele>
        <time>2022-03-17T11:04:48.000Z</time>
      </trkpt>
      <trkpt lat="47.28376" lon="-2.3632">
        <ele>3.7999999523163</ele>
        <time>2022-03-17T11:04:49.000Z</time>
      </trkpt>
      <trkpt lat="47.28372" lon="-2.36315">
        <ele>3.4000000953674</ele>
        <time>2022-03-17T11:04:50.000Z</time>
      </trkpt>
      <trkpt lat="47.28368" lon="-2.3631">
        <ele>3.4000000953674</ele>
        <time>2022-03-17T11:04:51.000Z</time>
      </trkpt>
      <trkpt lat="47.28361" lon="-2.36288">
        <ele>3</ele>
        <time>2022-03-17T11:04:55.000Z</time>
      </trkpt>
      <trkpt lat="47.28361" lon="-2.36282">
        <ele>2.5999999046326</ele>
        <time>2022-03-17T11:04:56.000Z</time>
      </trkpt>
      <trkpt lat="47.28361" lon="-2.36276">
        <ele>2.2000000476837</ele>
        <time>2022-03-17T11:04:57.000Z</time>
      </trkpt>
      <trkpt lat="47.28363" lon="-2.36271">
        <ele>1.7999999523163</ele>
        <time>2022-03-17T11:04:58.000Z</time>
      </trkpt>
      <trkpt lat="47.28364" lon="-2.36266">
        <ele>1.3999999761581</ele>
        <time>2022-03-17T11:04:59.000Z</time>
      </trkpt>
      <trkpt lat="47.2837" lon="-2.36256">
        <ele>1.3999999761581</ele>
        <time>2022-03-17T11:05:02.000Z</time>
      </trkpt>
      <trkpt lat="47.28375" lon="-2.36253">
        <ele>1.3999999761581</ele>
        <time>2022-03-17T11:05:04.000Z</time>
      </trkpt>
      <trkpt lat="47.2838" lon="-2.3625">
        <ele>1.3999999761581</ele>
        <time>2022-03-17T11:05:06.000Z</time>
      </trkpt>
      <trkpt lat="47.28382" lon="-2.36249">
        <ele>1.7999999523163</ele>
        <time>2022-03-17T11:05:07.000Z</time>
      </trkpt>
      <trkpt lat="47.28384" lon="-2.36247">
        <ele>2.2000000476837</ele>
        <time>2022-03-17T11:05:08.000Z</time>
      </trkpt>
      <trkpt lat="47.28386" lon="-2.36245">
        <ele>3.2000000476837</ele>
        <time>2022-03-17T11:05:09.000Z</time>
      </trkpt>
      <trkpt lat="47.28389" lon="-2.3624">
        <ele>3.5999999046326</ele>
        <time>2022-03-17T11:05:10.000Z</time>
      </trkpt>
      <trkpt lat="47.28397" lon="-2.36231">
        <ele>4</ele>
        <time>2022-03-17T11:05:13.000Z</time>
      </trkpt>
      <trkpt lat="47.28399" lon="-2.36228">
        <ele>4.5999999046326</ele>
        <time>2022-03-17T11:05:14.000Z</time>
      </trkpt>
      <trkpt lat="47.28402" lon="-2.36225">
        <ele>5</ele>
        <time>2022-03-17T11:05:15.000Z</time>
      </trkpt>
      <trkpt lat="47.28404" lon="-2.36223">
        <ele>5.5999999046326</ele>
        <time>2022-03-17T11:05:16.000Z</time>
      </trkpt>
      <trkpt lat="47.28406" lon="-2.36222">
        <ele>6</ele>
        <time>2022-03-17T11:05:17.000Z</time>
      </trkpt>
      <trkpt lat="47.28409" lon="-2.36221">
        <ele>6</ele>
        <time>2022-03-17T11:05:18.000Z</time>
      </trkpt>
      <trkpt lat="47.28416" lon="-2.3622">
        <ele>6</ele>
        <time>2022-03-17T11:05:20.000Z</time>
      </trkpt>
      <trkpt lat="47.28423" lon="-2.36215">
        <ele>6</ele>
        <time>2022-03-17T11:05:23.000Z</time>
      </trkpt>
      <trkpt lat="47.28426" lon="-2.36213">
        <ele>6.4000000953674</ele>
        <time>2022-03-17T11:05:24.000Z</time>
      </trkpt>
      <trkpt lat="47.28429" lon="-2.36211">
        <ele>6.8000001907349</ele>
        <time>2022-03-17T11:05:25.000Z</time>
      </trkpt>
      <trkpt lat="47.28431" lon="-2.3621">
        <ele>7.4000000953674</ele>
        <time>2022-03-17T11:05:26.000Z</time>
      </trkpt>
      <trkpt lat="47.28433" lon="-2.3621">
        <ele>7.8000001907349</ele>
        <time>2022-03-17T11:05:27.000Z</time>
      </trkpt>
      <trkpt lat="47.28434" lon="-2.36209">
        <ele>8.1999998092651</ele>
        <time>2022-03-17T11:05:28.000Z</time>
      </trkpt>
      <trkpt lat="47.28439" lon="-2.36204">
        <ele>8.1999998092651</ele>
        <time>2022-03-17T11:05:31.000Z</time>
      </trkpt>
      <trkpt lat="47.28449" lon="-2.36194">
        <ele>8.1999998092651</ele>
        <time>2022-03-17T11:05:40.000Z</time>
      </trkpt>
      <trkpt lat="47.28447" lon="-2.36186">
        <ele>8.1999998092651</ele>
        <time>2022-03-17T11:05:44.000Z</time>
      </trkpt>
      <trkpt lat="47.28446" lon="-2.36183">
        <ele>8.1999998092651</ele>
        <time>2022-03-17T11:05:45.000Z</time>
      </trkpt>
      <trkpt lat="47.28447" lon="-2.36178">
        <ele>8.6000003814697</ele>
        <time>2022-03-17T11:05:46.000Z</time>
      </trkpt>
      <trkpt lat="47.28448" lon="-2.36174">
        <ele>9</ele>
        <time>2022-03-17T11:05:47.000Z</time>
      </trkpt>
      <trkpt lat="47.28448" lon="-2.36171">
        <ele>9.3999996185303</ele>
        <time>2022-03-17T11:05:48.000Z</time>
      </trkpt>
      <trkpt lat="47.28449" lon="-2.36167">
        <ele>9.8000001907349</ele>
        <time>2022-03-17T11:05:49.000Z</time>
      </trkpt>
      <trkpt lat="47.28449" lon="-2.36163">
        <ele>10.199999809265</ele>
        <time>2022-03-17T11:05:50.000Z</time>
      </trkpt>
      <trkpt lat="47.28446" lon="-2.36154">
        <ele>10.199999809265</ele>
        <time>2022-03-17T11:05:53.000Z</time>
      </trkpt>
      <trkpt lat="47.28445" lon="-2.36151">
        <ele>10.60000038147</ele>
        <time>2022-03-17T11:05:54.000Z</time>
      </trkpt>
      <trkpt lat="47.28444" lon="-2.36149">
        <ele>11</ele>
        <time>2022-03-17T11:05:55.000Z</time>
      </trkpt>
      <trkpt lat="47.28443" lon="-2.36146">
        <ele>11.60000038147</ele>
        <time>2022-03-17T11:05:56.000Z</time>
      </trkpt>
      <trkpt lat="47.28443" lon="-2.36143">
        <ele>12.39999961853</ele>
        <time>2022-03-17T11:05:57.000Z</time>
      </trkpt>
      <trkpt lat="47.28443" lon="-2.36136">
        <ele>12.39999961853</ele>
        <time>2022-03-17T11:05:59.000Z</time>
      </trkpt>
      <trkpt lat="47.2844" lon="-2.36119">
        <ele>12.800000190735</ele>
        <time>2022-03-17T11:06:05.000Z</time>
      </trkpt>
      <trkpt lat="47.2844" lon="-2.36116">
        <ele>13.199999809265</ele>
        <time>2022-03-17T11:06:06.000Z</time>
      </trkpt>
      <trkpt lat="47.28439" lon="-2.36113">
        <ele>13.60000038147</ele>
        <time>2022-03-17T11:06:07.000Z</time>
      </trkpt>
      <trkpt lat="47.28439" lon="-2.3611">
        <ele>14</ele>
        <time>2022-03-17T11:06:08.000Z</time>
      </trkpt>
      <trkpt lat="47.28439" lon="-2.36106">
        <ele>14.39999961853</ele>
        <time>2022-03-17T11:06:09.000Z</time>
      </trkpt>
      <trkpt lat="47.28438" lon="-2.361">
        <ele>14.39999961853</ele>
        <time>2022-03-17T11:06:11.000Z</time>
      </trkpt>
      <trkpt lat="47.28437" lon="-2.36084">
        <ele>14.800000190735</ele>
        <time>2022-03-17T11:06:17.000Z</time>
      </trkpt>
      <trkpt lat="47.28437" lon="-2.36081">
        <ele>15.199999809265</ele>
        <time>2022-03-17T11:06:18.000Z</time>
      </trkpt>
      <trkpt lat="47.28437" lon="-2.36078">
        <ele>15.60000038147</ele>
        <time>2022-03-17T11:06:19.000Z</time>
      </trkpt>
      <trkpt lat="47.28437" lon="-2.36075">
        <ele>16</ele>
        <time>2022-03-17T11:06:20.000Z</time>
      </trkpt>
      <trkpt lat="47.28436" lon="-2.36073">
        <ele>16.39999961853</ele>
        <time>2022-03-17T11:06:21.000Z</time>
      </trkpt>
      <trkpt lat="47.28436" lon="-2.36068">
        <ele>16.39999961853</ele>
        <time>2022-03-17T11:06:23.000Z</time>
      </trkpt>
      <trkpt lat="47.28437" lon="-2.3605">
        <ele>16.39999961853</ele>
        <time>2022-03-17T11:06:29.000Z</time>
      </trkpt>
      <trkpt lat="47.28437" lon="-2.36047">
        <ele>16.799999237061</ele>
        <time>2022-03-17T11:06:30.000Z</time>
      </trkpt>
      <trkpt lat="47.28437" lon="-2.36044">
        <ele>17.200000762939</ele>
        <time>2022-03-17T11:06:31.000Z</time>
      </trkpt>
      <trkpt lat="47.28437" lon="-2.36041">
        <ele>17.60000038147</ele>
        <time>2022-03-17T11:06:32.000Z</time>
      </trkpt>
      <trkpt lat="47.28437" lon="-2.36038">
        <ele>18</ele>
        <time>2022-03-17T11:06:33.000Z</time>
      </trkpt>
      <trkpt lat="47.28437" lon="-2.36036">
        <ele>18.39999961853</ele>
        <time>2022-03-17T11:06:34.000Z</time>
      </trkpt>
      <trkpt lat="47.28437" lon="-2.36031">
        <ele>18.39999961853</ele>
        <time>2022-03-17T11:06:36.000Z</time>
      </trkpt>
      <trkpt lat="47.28441" lon="-2.3602">
        <ele>18.39999961853</ele>
        <time>2022-03-17T11:06:42.000Z</time>
      </trkpt>
      <trkpt lat="47.28444" lon="-2.36014">
        <ele>18.39999961853</ele>
        <time>2022-03-17T11:06:46.000Z</time>
      </trkpt>
      <trkpt lat="47.28449" lon="-2.35996">
        <ele>18.39999961853</ele>
        <time>2022-03-17T11:06:51.000Z</time>
      </trkpt>
      <trkpt lat="47.28447" lon="-2.35993">
        <ele>18.39999961853</ele>
        <time>2022-03-17T11:06:52.000Z</time>
      </trkpt>
      <trkpt lat="47.28438" lon="-2.35993">
        <ele>18.39999961853</ele>
        <time>2022-03-17T11:06:55.000Z</time>
      </trkpt>
      <trkpt lat="47.28435" lon="-2.35994">
        <ele>18.39999961853</ele>
        <time>2022-03-17T11:06:56.000Z</time>
      </trkpt>
      <trkpt lat="47.28427" lon="-2.35998">
        <ele>18.39999961853</ele>
        <time>2022-03-17T11:06:58.000Z</time>
      </trkpt>
      <trkpt lat="47.2842" lon="-2.36007">
        <ele>18.39999961853</ele>
        <time>2022-03-17T11:07:00.000Z</time>
      </trkpt>
      <trkpt lat="47.28403" lon="-2.36019">
        <ele>18.39999961853</ele>
        <time>2022-03-17T11:07:05.000Z</time>
      </trkpt>
      <trkpt lat="47.28385" lon="-2.36022">
        <ele>18.39999961853</ele>
        <time>2022-03-17T11:07:09.000Z</time>
      </trkpt>
      <trkpt lat="47.28375" lon="-2.3602">
        <ele>17.60000038147</ele>
        <time>2022-03-17T11:07:11.000Z</time>
      </trkpt>
      <trkpt lat="47.28369" lon="-2.3602">
        <ele>17.200000762939</ele>
        <time>2022-03-17T11:07:12.000Z</time>
      </trkpt>
      <trkpt lat="47.28361" lon="-2.36021">
        <ele>16.39999961853</ele>
        <time>2022-03-17T11:07:13.000Z</time>
      </trkpt>
      <trkpt lat="47.28354" lon="-2.36024">
        <ele>15.60000038147</ele>
        <time>2022-03-17T11:07:14.000Z</time>
      </trkpt>
      <trkpt lat="47.28346" lon="-2.36027">
        <ele>15</ele>
        <time>2022-03-17T11:07:15.000Z</time>
      </trkpt>
      <trkpt lat="47.28339" lon="-2.36032">
        <ele>14.199999809265</ele>
        <time>2022-03-17T11:07:16.000Z</time>
      </trkpt>
      <trkpt lat="47.28334" lon="-2.36038">
        <ele>13.60000038147</ele>
        <time>2022-03-17T11:07:17.000Z</time>
      </trkpt>
      <trkpt lat="47.28328" lon="-2.36044">
        <ele>12.800000190735</ele>
        <time>2022-03-17T11:07:18.000Z</time>
      </trkpt>
      <trkpt lat="47.28322" lon="-2.36048">
        <ele>12</ele>
        <time>2022-03-17T11:07:19.000Z</time>
      </trkpt>
      <trkpt lat="47.28316" lon="-2.3605">
        <ele>11.39999961853</ele>
        <time>2022-03-17T11:07:20.000Z</time>
      </trkpt>
      <trkpt lat="47.28311" lon="-2.36051">
        <ele>11.39999961853</ele>
        <time>2022-03-17T11:07:21.000Z</time>
      </trkpt>
      <trkpt lat="47.283" lon="-2.3605">
        <ele>11.39999961853</ele>
        <time>2022-03-17T11:07:23.000Z</time>
      </trkpt>
      <trkpt lat="47.2829" lon="-2.36047">
        <ele>11</ele>
        <time>2022-03-17T11:07:25.000Z</time>
      </trkpt>
      <trkpt lat="47.28285" lon="-2.36043">
        <ele>10.60000038147</ele>
        <time>2022-03-17T11:07:26.000Z</time>
      </trkpt>
      <trkpt lat="47.2828" lon="-2.36039">
        <ele>9.8000001907349</ele>
        <time>2022-03-17T11:07:27.000Z</time>
      </trkpt>
      <trkpt lat="47.28276" lon="-2.36033">
        <ele>9.1999998092651</ele>
        <time>2022-03-17T11:07:28.000Z</time>
      </trkpt>
      <trkpt lat="47.28273" lon="-2.36027">
        <ele>8.1999998092651</ele>
        <time>2022-03-17T11:07:29.000Z</time>
      </trkpt>
      <trkpt lat="47.28272" lon="-2.36018">
        <ele>7.4000000953674</ele>
        <time>2022-03-17T11:07:30.000Z</time>
      </trkpt>
      <trkpt lat="47.28273" lon="-2.3601">
        <ele>6.4000000953674</ele>
        <time>2022-03-17T11:07:31.000Z</time>
      </trkpt>
      <trkpt lat="47.28274" lon="-2.36001">
        <ele>5.5999999046326</ele>
        <time>2022-03-17T11:07:32.000Z</time>
      </trkpt>
      <trkpt lat="47.28274" lon="-2.35992">
        <ele>4.5999999046326</ele>
        <time>2022-03-17T11:07:33.000Z</time>
      </trkpt>
      <trkpt lat="47.28274" lon="-2.35984">
        <ele>3.5999999046326</ele>
        <time>2022-03-17T11:07:34.000Z</time>
      </trkpt>
      <trkpt lat="47.28273" lon="-2.35977">
        <ele>2.7999999523163</ele>
        <time>2022-03-17T11:07:35.000Z</time>
      </trkpt>
      <trkpt lat="47.28269" lon="-2.35965">
        <ele>2.7999999523163</ele>
        <time>2022-03-17T11:07:37.000Z</time>
      </trkpt>
      <trkpt lat="47.28267" lon="-2.35959">
        <ele>2.7999999523163</ele>
        <time>2022-03-17T11:07:38.000Z</time>
      </trkpt>
      <trkpt lat="47.28254" lon="-2.35928">
        <ele>2.7999999523163</ele>
        <time>2022-03-17T11:07:44.000Z</time>
      </trkpt>
      <trkpt lat="47.28246" lon="-2.35912">
        <ele>2.7999999523163</ele>
        <time>2022-03-17T11:07:48.000Z</time>
      </trkpt>
      <trkpt lat="47.28243" lon="-2.35911">
        <ele>2.7999999523163</ele>
        <time>2022-03-17T11:07:49.000Z</time>
      </trkpt>
      <trkpt lat="47.28228" lon="-2.3591">
        <ele>2.7999999523163</ele>
        <time>2022-03-17T11:07:53.000Z</time>
      </trkpt>
      <trkpt lat="47.28216" lon="-2.35906">
        <ele>2.7999999523163</ele>
        <time>2022-03-17T11:07:56.000Z</time>
      </trkpt>
      <trkpt lat="47.28204" lon="-2.35902">
        <ele>2.7999999523163</ele>
        <time>2022-03-17T11:07:59.000Z</time>
      </trkpt>
      <trkpt lat="47.28181" lon="-2.35891">
        <ele>2.7999999523163</ele>
        <time>2022-03-17T11:08:05.000Z</time>
      </trkpt>
      <trkpt lat="47.28178" lon="-2.35882">
        <ele>2.7999999523163</ele>
        <time>2022-03-17T11:08:07.000Z</time>
      </trkpt>
      <trkpt lat="47.28177" lon="-2.35869">
        <ele>2.7999999523163</ele>
        <time>2022-03-17T11:08:09.000Z</time>
      </trkpt>
      <trkpt lat="47.28172" lon="-2.35844">
        <ele>2.7999999523163</ele>
        <time>2022-03-17T11:08:14.000Z</time>
      </trkpt>
      <trkpt lat="47.2817" lon="-2.3584">
        <ele>2.7999999523163</ele>
        <time>2022-03-17T11:08:15.000Z</time>
      </trkpt>
      <trkpt lat="47.28163" lon="-2.35834">
        <ele>2.7999999523163</ele>
        <time>2022-03-17T11:08:18.000Z</time>
      </trkpt>
      <trkpt lat="47.28159" lon="-2.3583">
        <ele>2.7999999523163</ele>
        <time>2022-03-17T11:08:20.000Z</time>
      </trkpt>
      <trkpt lat="47.28146" lon="-2.35813">
        <ele>2.7999999523163</ele>
        <time>2022-03-17T11:08:25.000Z</time>
      </trkpt>
      <trkpt lat="47.28138" lon="-2.3579">
        <ele>2.7999999523163</ele>
        <time>2022-03-17T11:08:30.000Z</time>
      </trkpt>
      <trkpt lat="47.28137" lon="-2.35784">
        <ele>2.7999999523163</ele>
        <time>2022-03-17T11:08:31.000Z</time>
      </trkpt>
      <trkpt lat="47.28136" lon="-2.3577">
        <ele>2.7999999523163</ele>
        <time>2022-03-17T11:08:34.000Z</time>
      </trkpt>
      <trkpt lat="47.28133" lon="-2.35761">
        <ele>2.7999999523163</ele>
        <time>2022-03-17T11:08:37.000Z</time>
      </trkpt>
      <trkpt lat="47.2813" lon="-2.35758">
        <ele>2.4000000953674</ele>
        <time>2022-03-17T11:08:38.000Z</time>
      </trkpt>
      <trkpt lat="47.28127" lon="-2.35757">
        <ele>2</ele>
        <time>2022-03-17T11:08:39.000Z</time>
      </trkpt>
      <trkpt lat="47.28124" lon="-2.35756">
        <ele>1.6000000238419</ele>
        <time>2022-03-17T11:08:40.000Z</time>
      </trkpt>
      <trkpt lat="47.28122" lon="-2.35755">
        <ele>1.2000000476837</ele>
        <time>2022-03-17T11:08:41.000Z</time>
      </trkpt>
      <trkpt lat="47.2812" lon="-2.35753">
        <ele>0.60000002384186</ele>
        <time>2022-03-17T11:08:42.000Z</time>
      </trkpt>
      <trkpt lat="47.28115" lon="-2.35756">
        <ele>0.60000002384186</ele>
        <time>2022-03-17T11:08:43.000Z</time>
      </trkpt>
      <trkpt lat="47.28111" lon="-2.35759">
        <ele>0.60000002384186</ele>
        <time>2022-03-17T11:08:44.000Z</time>
      </trkpt>
      <trkpt lat="47.28099" lon="-2.35779">
        <ele>0.60000002384186</ele>
        <time>2022-03-17T11:08:49.000Z</time>
      </trkpt>
      <trkpt lat="47.28097" lon="-2.35783">
        <ele>0.60000002384186</ele>
        <time>2022-03-17T11:08:50.000Z</time>
      </trkpt>
      <trkpt lat="47.28082" lon="-2.35804">
        <ele>0.60000002384186</ele>
        <time>2022-03-17T11:08:56.000Z</time>
      </trkpt>
      <trkpt lat="47.28079" lon="-2.35804">
        <ele>0.60000002384186</ele>
        <time>2022-03-17T11:08:57.000Z</time>
      </trkpt>
      <trkpt lat="47.28076" lon="-2.35799">
        <ele>0.60000002384186</ele>
        <time>2022-03-17T11:08:59.000Z</time>
      </trkpt>
      <trkpt lat="47.28074" lon="-2.35794">
        <ele>0.60000002384186</ele>
        <time>2022-03-17T11:09:01.000Z</time>
      </trkpt>
      <trkpt lat="47.28074" lon="-2.35792">
        <ele>0.60000002384186</ele>
        <time>2022-03-17T11:09:02.000Z</time>
      </trkpt>
      <trkpt lat="47.28074" lon="-2.35789">
        <ele>1.2000000476837</ele>
        <time>2022-03-17T11:09:03.000Z</time>
      </trkpt>
      <trkpt lat="47.28075" lon="-2.35786">
        <ele>1.6000000238419</ele>
        <time>2022-03-17T11:09:04.000Z</time>
      </trkpt>
      <trkpt lat="47.28077" lon="-2.35783">
        <ele>2</ele>
        <time>2022-03-17T11:09:05.000Z</time>
      </trkpt>
      <trkpt lat="47.28078" lon="-2.35778">
        <ele>2.4000000953674</ele>
        <time>2022-03-17T11:09:06.000Z</time>
      </trkpt>
      <trkpt lat="47.28079" lon="-2.35773">
        <ele>2.7999999523163</ele>
        <time>2022-03-17T11:09:07.000Z</time>
      </trkpt>
      <trkpt lat="47.2808" lon="-2.35764">
        <ele>2.7999999523163</ele>
        <time>2022-03-17T11:09:09.000Z</time>
      </trkpt>
      <trkpt lat="47.28083" lon="-2.35743">
        <ele>2.7999999523163</ele>
        <time>2022-03-17T11:09:14.000Z</time>
      </trkpt>
      <trkpt lat="47.28084" lon="-2.3574">
        <ele>3.2000000476837</ele>
        <time>2022-03-17T11:09:15.000Z</time>
      </trkpt>
      <trkpt lat="47.28086" lon="-2.35736">
        <ele>3.7999999523163</ele>
        <time>2022-03-17T11:09:16.000Z</time>
      </trkpt>
      <trkpt lat="47.28087" lon="-2.35732">
        <ele>4.1999998092651</ele>
        <time>2022-03-17T11:09:17.000Z</time>
      </trkpt>
      <trkpt lat="47.28088" lon="-2.35728">
        <ele>4.5999999046326</ele>
        <time>2022-03-17T11:09:18.000Z</time>
      </trkpt>
      <trkpt lat="47.28089" lon="-2.35725">
        <ele>5</ele>
        <time>2022-03-17T11:09:19.000Z</time>
      </trkpt>
      <trkpt lat="47.28091" lon="-2.35721">
        <ele>5</ele>
        <time>2022-03-17T11:09:20.000Z</time>
      </trkpt>
      <trkpt lat="47.28093" lon="-2.35703">
        <ele>5</ele>
        <time>2022-03-17T11:09:24.000Z</time>
      </trkpt>
      <trkpt lat="47.28093" lon="-2.35699">
        <ele>5</ele>
        <time>2022-03-17T11:09:25.000Z</time>
      </trkpt>
      <trkpt lat="47.28088" lon="-2.35675">
        <ele>5</ele>
        <time>2022-03-17T11:09:29.000Z</time>
      </trkpt>
      <trkpt lat="47.28086" lon="-2.3566">
        <ele>5</ele>
        <time>2022-03-17T11:09:31.000Z</time>
      </trkpt>
      <trkpt lat="47.28079" lon="-2.35638">
        <ele>5</ele>
        <time>2022-03-17T11:09:34.000Z</time>
      </trkpt>
      <trkpt lat="47.28078" lon="-2.35632">
        <ele>4.4000000953674</ele>
        <time>2022-03-17T11:09:35.000Z</time>
      </trkpt>
      <trkpt lat="47.28077" lon="-2.35628">
        <ele>4</ele>
        <time>2022-03-17T11:09:36.000Z</time>
      </trkpt>
      <trkpt lat="47.28078" lon="-2.35626">
        <ele>3.4000000953674</ele>
        <time>2022-03-17T11:09:37.000Z</time>
      </trkpt>
      <trkpt lat="47.28079" lon="-2.35625">
        <ele>2.7999999523163</ele>
        <time>2022-03-17T11:09:38.000Z</time>
      </trkpt>
      <trkpt lat="47.2808" lon="-2.35623">
        <ele>1.7999999523163</ele>
        <time>2022-03-17T11:09:39.000Z</time>
      </trkpt>
      <trkpt lat="47.28082" lon="-2.35622">
        <ele>1.2000000476837</ele>
        <time>2022-03-17T11:09:40.000Z</time>
      </trkpt>
      <trkpt lat="47.28082" lon="-2.35621">
        <ele>0.60000002384186</ele>
        <time>2022-03-17T11:09:41.000Z</time>
      </trkpt>
      <trkpt lat="47.28082" lon="-2.35621">
        <ele>0.20000000298023</ele>
        <time>2022-03-17T11:09:42.000Z</time>
      </trkpt>
      <trkpt lat="47.28079" lon="-2.35611">
        <ele>0.20000000298023</ele>
        <time>2022-03-17T11:21:01.000Z</time>
      </trkpt>
      <trkpt lat="47.28067" lon="-2.35609">
        <ele>0.20000000298023</ele>
        <time>2022-03-17T11:21:07.000Z</time>
      </trkpt>
      <trkpt lat="47.28054" lon="-2.35604">
        <ele>0.20000000298023</ele>
        <time>2022-03-17T11:21:12.000Z</time>
      </trkpt>
      <trkpt lat="47.28036" lon="-2.35601">
        <ele>0.20000000298023</ele>
        <time>2022-03-17T11:21:17.000Z</time>
      </trkpt>
      <trkpt lat="47.28012" lon="-2.35607">
        <ele>0.20000000298023</ele>
        <time>2022-03-17T11:21:24.000Z</time>
      </trkpt>
      <trkpt lat="47.27993" lon="-2.35601">
        <ele>-0.40000000596046</ele>
        <time>2022-03-17T11:21:29.000Z</time>
      </trkpt>
      <trkpt lat="47.27988" lon="-2.356">
        <ele>-0.80000001192093</ele>
        <time>2022-03-17T11:21:30.000Z</time>
      </trkpt>
      <trkpt lat="47.27984" lon="-2.35599">
        <ele>-1.2000000476837</ele>
        <time>2022-03-17T11:21:31.000Z</time>
      </trkpt>
      <trkpt lat="47.27979" lon="-2.35597">
        <ele>-1.7999999523163</ele>
        <time>2022-03-17T11:21:32.000Z</time>
      </trkpt>
      <trkpt lat="47.27975" lon="-2.35593">
        <ele>-2.2000000476837</ele>
        <time>2022-03-17T11:21:33.000Z</time>
      </trkpt>
      <trkpt lat="47.27967" lon="-2.35585">
        <ele>-2.5999999046326</ele>
        <time>2022-03-17T11:21:35.000Z</time>
      </trkpt>
      <trkpt lat="47.27961" lon="-2.35581">
        <ele>-3</ele>
        <time>2022-03-17T11:21:36.000Z</time>
      </trkpt>
      <trkpt lat="47.27954" lon="-2.3558">
        <ele>-3.4000000953674</ele>
        <time>2022-03-17T11:21:37.000Z</time>
      </trkpt>
      <trkpt lat="47.27949" lon="-2.3558">
        <ele>-4</ele>
        <time>2022-03-17T11:21:38.000Z</time>
      </trkpt>
      <trkpt lat="47.27943" lon="-2.35582">
        <ele>-4.4000000953674</ele>
        <time>2022-03-17T11:21:39.000Z</time>
      </trkpt>
      <trkpt lat="47.27909" lon="-2.35592">
        <ele>-4.4000000953674</ele>
        <time>2022-03-17T11:21:45.000Z</time>
      </trkpt>
      <trkpt lat="47.27874" lon="-2.356">
        <ele>-4.4000000953674</ele>
        <time>2022-03-17T11:21:51.000Z</time>
      </trkpt>
      <trkpt lat="47.27842" lon="-2.35609">
        <ele>-4.4000000953674</ele>
        <time>2022-03-17T11:21:56.000Z</time>
      </trkpt>
      <trkpt lat="47.27829" lon="-2.35612">
        <ele>-4.8000001907349</ele>
        <time>2022-03-17T11:21:58.000Z</time>
      </trkpt>
      <trkpt lat="47.27822" lon="-2.35614">
        <ele>-5.8000001907349</ele>
        <time>2022-03-17T11:21:59.000Z</time>
      </trkpt>
      <trkpt lat="47.27815" lon="-2.35615">
        <ele>-6.1999998092651</ele>
        <time>2022-03-17T11:22:00.000Z</time>
      </trkpt>
      <trkpt lat="47.27809" lon="-2.35617">
        <ele>-6.5999999046326</ele>
        <time>2022-03-17T11:22:01.000Z</time>
      </trkpt>
      <trkpt lat="47.27795" lon="-2.35622">
        <ele>-6.5999999046326</ele>
        <time>2022-03-17T11:22:03.000Z</time>
      </trkpt>
      <trkpt lat="47.2777" lon="-2.35639">
        <ele>-7</ele>
        <time>2022-03-17T11:22:07.000Z</time>
      </trkpt>
      <trkpt lat="47.27765" lon="-2.35645">
        <ele>-7.4000000953674</ele>
        <time>2022-03-17T11:22:08.000Z</time>
      </trkpt>
      <trkpt lat="47.2776" lon="-2.35651">
        <ele>-7.8000001907349</ele>
        <time>2022-03-17T11:22:09.000Z</time>
      </trkpt>
      <trkpt lat="47.27755" lon="-2.35657">
        <ele>-8.1999998092651</ele>
        <time>2022-03-17T11:22:10.000Z</time>
      </trkpt>
      <trkpt lat="47.2775" lon="-2.35664">
        <ele>-8.8000001907349</ele>
        <time>2022-03-17T11:22:11.000Z</time>
      </trkpt>
      <trkpt lat="47.27736" lon="-2.35685">
        <ele>-8.8000001907349</ele>
        <time>2022-03-17T11:22:14.000Z</time>
      </trkpt>
      <trkpt lat="47.27706" lon="-2.35721">
        <ele>-9.1999998092651</ele>
        <time>2022-03-17T11:22:20.000Z</time>
      </trkpt>
      <trkpt lat="47.27699" lon="-2.35726">
        <ele>-9.6000003814697</ele>
        <time>2022-03-17T11:22:21.000Z</time>
      </trkpt>
      <trkpt lat="47.27693" lon="-2.3573">
        <ele>-10</ele>
        <time>2022-03-17T11:22:22.000Z</time>
      </trkpt>
      <trkpt lat="47.27688" lon="-2.35736">
        <ele>-10.39999961853</ele>
        <time>2022-03-17T11:22:23.000Z</time>
      </trkpt>
      <trkpt lat="47.27683" lon="-2.35741">
        <ele>-10.800000190735</ele>
        <time>2022-03-17T11:22:24.000Z</time>
      </trkpt>
      <trkpt lat="47.27678" lon="-2.35743">
        <ele>-10.800000190735</ele>
        <time>2022-03-17T11:22:25.000Z</time>
      </trkpt>
      <trkpt lat="47.27668" lon="-2.35738">
        <ele>-10.800000190735</ele>
        <time>2022-03-17T11:22:27.000Z</time>
      </trkpt>
      <trkpt lat="47.2765" lon="-2.35722">
        <ele>-11.199999809265</ele>
        <time>2022-03-17T11:22:31.000Z</time>
      </trkpt>
      <trkpt lat="47.27645" lon="-2.35719">
        <ele>-11.60000038147</ele>
        <time>2022-03-17T11:22:32.000Z</time>
      </trkpt>
      <trkpt lat="47.27639" lon="-2.35717">
        <ele>-12</ele>
        <time>2022-03-17T11:22:33.000Z</time>
      </trkpt>
      <trkpt lat="47.27634" lon="-2.35715">
        <ele>-12.39999961853</ele>
        <time>2022-03-17T11:22:34.000Z</time>
      </trkpt>
      <trkpt lat="47.27628" lon="-2.35714">
        <ele>-12.800000190735</ele>
        <time>2022-03-17T11:22:35.000Z</time>
      </trkpt>
      <trkpt lat="47.2761" lon="-2.3571">
        <ele>-12.800000190735</ele>
        <time>2022-03-17T11:22:38.000Z</time>
      </trkpt>
      <trkpt lat="47.27568" lon="-2.35697">
        <ele>-12.800000190735</ele>
        <time>2022-03-17T11:22:45.000Z</time>
      </trkpt>
      <trkpt lat="47.27544" lon="-2.35691">
        <ele>-13.60000038147</ele>
        <time>2022-03-17T11:22:49.000Z</time>
      </trkpt>
      <trkpt lat="47.27537" lon="-2.3569">
        <ele>-14</ele>
        <time>2022-03-17T11:22:50.000Z</time>
      </trkpt>
      <trkpt lat="47.27531" lon="-2.3569">
        <ele>-14.39999961853</ele>
        <time>2022-03-17T11:22:51.000Z</time>
      </trkpt>
      <trkpt lat="47.27524" lon="-2.35689">
        <ele>-14.800000190735</ele>
        <time>2022-03-17T11:22:52.000Z</time>
      </trkpt>
      <trkpt lat="47.27518" lon="-2.35688">
        <ele>-14.800000190735</ele>
        <time>2022-03-17T11:22:53.000Z</time>
      </trkpt>
      <trkpt lat="47.27499" lon="-2.35684">
        <ele>-14.800000190735</ele>
        <time>2022-03-17T11:22:56.000Z</time>
      </trkpt>
      <trkpt lat="47.2746" lon="-2.35675">
        <ele>-15.39999961853</ele>
        <time>2022-03-17T11:23:02.000Z</time>
      </trkpt>
      <trkpt lat="47.27453" lon="-2.35673">
        <ele>-15.800000190735</ele>
        <time>2022-03-17T11:23:03.000Z</time>
      </trkpt>
      <trkpt lat="47.27446" lon="-2.35672">
        <ele>-16.200000762939</ele>
        <time>2022-03-17T11:23:04.000Z</time>
      </trkpt>
      <trkpt lat="47.2744" lon="-2.35671">
        <ele>-16.60000038147</ele>
        <time>2022-03-17T11:23:05.000Z</time>
      </trkpt>
      <trkpt lat="47.27433" lon="-2.35669">
        <ele>-17</ele>
        <time>2022-03-17T11:23:06.000Z</time>
      </trkpt>
      <trkpt lat="47.27414" lon="-2.35666">
        <ele>-17</ele>
        <time>2022-03-17T11:23:09.000Z</time>
      </trkpt>
      <trkpt lat="47.27408" lon="-2.35667">
        <ele>-17</ele>
        <time>2022-03-17T11:23:10.000Z</time>
      </trkpt>
      <trkpt lat="47.27379" lon="-2.35683">
        <ele>-17</ele>
        <time>2022-03-17T11:23:15.000Z</time>
      </trkpt>
      <trkpt lat="47.27347" lon="-2.35707">
        <ele>-17</ele>
        <time>2022-03-17T11:23:21.000Z</time>
      </trkpt>
      <trkpt lat="47.27336" lon="-2.35715">
        <ele>-17</ele>
        <time>2022-03-17T11:23:23.000Z</time>
      </trkpt>
      <trkpt lat="47.2733" lon="-2.35721">
        <ele>-17</ele>
        <time>2022-03-17T11:23:25.000Z</time>
      </trkpt>
      <trkpt lat="47.27324" lon="-2.35725">
        <ele>-17</ele>
        <time>2022-03-17T11:23:30.000Z</time>
      </trkpt>
      <trkpt lat="47.27324" lon="-2.35726">
        <ele>-17</ele>
        <time>2022-03-17T11:23:31.000Z</time>
      </trkpt>
      <trkpt lat="47.27324" lon="-2.35726">
        <ele>-17</ele>
        <time>2022-03-17T11:23:37.000Z</time>
      </trkpt>
      <trkpt lat="47.27322" lon="-2.35729">
        <ele>-17</ele>
        <time>2022-03-17T11:23:38.000Z</time>
      </trkpt>
      <trkpt lat="47.27317" lon="-2.35737">
        <ele>-17</ele>
        <time>2022-03-17T11:23:40.000Z</time>
      </trkpt>
      <trkpt lat="47.27314" lon="-2.35738">
        <ele>-17</ele>
        <time>2022-03-17T11:23:41.000Z</time>
      </trkpt>
      <trkpt lat="47.27304" lon="-2.35728">
        <ele>-17</ele>
        <time>2022-03-17T11:23:44.000Z</time>
      </trkpt>
      <trkpt lat="47.27293" lon="-2.357">
        <ele>-17</ele>
        <time>2022-03-17T11:23:49.000Z</time>
      </trkpt>
      <trkpt lat="47.2729" lon="-2.35695">
        <ele>-17</ele>
        <time>2022-03-17T11:23:50.000Z</time>
      </trkpt>
      <trkpt lat="47.27271" lon="-2.3565">
        <ele>-17</ele>
        <time>2022-03-17T11:23:58.000Z</time>
      </trkpt>
      <trkpt lat="47.27264" lon="-2.35634">
        <ele>-17</ele>
        <time>2022-03-17T11:24:01.000Z</time>
      </trkpt>
      <trkpt lat="47.27253" lon="-2.35613">
        <ele>-17</ele>
        <time>2022-03-17T11:24:05.000Z</time>
      </trkpt>
      <trkpt lat="47.27236" lon="-2.35575">
        <ele>-16.60000038147</ele>
        <time>2022-03-17T11:24:12.000Z</time>
      </trkpt>
      <trkpt lat="47.27234" lon="-2.35569">
        <ele>-16.200000762939</ele>
        <time>2022-03-17T11:24:13.000Z</time>
      </trkpt>
      <trkpt lat="47.27231" lon="-2.35564">
        <ele>-15.800000190735</ele>
        <time>2022-03-17T11:24:14.000Z</time>
      </trkpt>
      <trkpt lat="47.27229" lon="-2.35559">
        <ele>-15.39999961853</ele>
        <time>2022-03-17T11:24:15.000Z</time>
      </trkpt>
      <trkpt lat="47.27226" lon="-2.35553">
        <ele>-15</ele>
        <time>2022-03-17T11:24:16.000Z</time>
      </trkpt>
      <trkpt lat="47.27211" lon="-2.3552">
        <ele>-15</ele>
        <time>2022-03-17T11:24:22.000Z</time>
      </trkpt>
      <trkpt lat="47.27206" lon="-2.35508">
        <ele>-15</ele>
        <time>2022-03-17T11:24:24.000Z</time>
      </trkpt>
      <trkpt lat="47.2718" lon="-2.35457">
        <ele>-15</ele>
        <time>2022-03-17T11:24:33.000Z</time>
      </trkpt>
      <trkpt lat="47.27155" lon="-2.35409">
        <ele>-15</ele>
        <time>2022-03-17T11:24:41.000Z</time>
      </trkpt>
      <trkpt lat="47.27124" lon="-2.35353">
        <ele>-15</ele>
        <time>2022-03-17T11:24:51.000Z</time>
      </trkpt>
      <trkpt lat="47.27101" lon="-2.35316">
        <ele>-15</ele>
        <time>2022-03-17T11:24:58.000Z</time>
      </trkpt>
      <trkpt lat="47.27073" lon="-2.35272">
        <ele>-15</ele>
        <time>2022-03-17T11:25:06.000Z</time>
      </trkpt>
      <trkpt lat="47.2705" lon="-2.35238">
        <ele>-15</ele>
        <time>2022-03-17T11:25:12.000Z</time>
      </trkpt>
      <trkpt lat="47.27016" lon="-2.35185">
        <ele>-15</ele>
        <time>2022-03-17T11:25:21.000Z</time>
      </trkpt>
      <trkpt lat="47.26989" lon="-2.35143">
        <ele>-15</ele>
        <time>2022-03-17T11:25:28.000Z</time>
      </trkpt>
      <trkpt lat="47.2696" lon="-2.35099">
        <ele>-15</ele>
        <time>2022-03-17T11:25:36.000Z</time>
      </trkpt>
      <trkpt lat="47.26931" lon="-2.35055">
        <ele>-15</ele>
        <time>2022-03-17T11:25:44.000Z</time>
      </trkpt>
      <trkpt lat="47.26898" lon="-2.35005">
        <ele>-15</ele>
        <time>2022-03-17T11:25:53.000Z</time>
      </trkpt>
      <trkpt lat="47.26865" lon="-2.34954">
        <ele>-15</ele>
        <time>2022-03-17T11:26:02.000Z</time>
      </trkpt>
      <trkpt lat="47.26838" lon="-2.34914">
        <ele>-15</ele>
        <time>2022-03-17T11:26:09.000Z</time>
      </trkpt>
      <trkpt lat="47.26812" lon="-2.34875">
        <ele>-15</ele>
        <time>2022-03-17T11:26:16.000Z</time>
      </trkpt>
      <trkpt lat="47.26789" lon="-2.34842">
        <ele>-15</ele>
        <time>2022-03-17T11:26:22.000Z</time>
      </trkpt>
      <trkpt lat="47.26769" lon="-2.34816">
        <ele>-15</ele>
        <time>2022-03-17T11:26:27.000Z</time>
      </trkpt>
      <trkpt lat="47.26761" lon="-2.34808">
        <ele>-15</ele>
        <time>2022-03-17T11:26:29.000Z</time>
      </trkpt>
      <trkpt lat="47.26754" lon="-2.34797">
        <ele>-15</ele>
        <time>2022-03-17T11:26:31.000Z</time>
      </trkpt>
      <trkpt lat="47.26751" lon="-2.34791">
        <ele>-15</ele>
        <time>2022-03-17T11:26:32.000Z</time>
      </trkpt>
      <trkpt lat="47.26742" lon="-2.34781">
        <ele>-15</ele>
        <time>2022-03-17T11:26:34.000Z</time>
      </trkpt>
      <trkpt lat="47.26714" lon="-2.34747">
        <ele>-15</ele>
        <time>2022-03-17T11:26:41.000Z</time>
      </trkpt>
      <trkpt lat="47.26681" lon="-2.34706">
        <ele>-15</ele>
        <time>2022-03-17T11:26:49.000Z</time>
      </trkpt>
      <trkpt lat="47.26644" lon="-2.3466">
        <ele>-15</ele>
        <time>2022-03-17T11:26:58.000Z</time>
      </trkpt>
      <trkpt lat="47.26615" lon="-2.34624">
        <ele>-15</ele>
        <time>2022-03-17T11:27:05.000Z</time>
      </trkpt>
      <trkpt lat="47.26591" lon="-2.34595">
        <ele>-15</ele>
        <time>2022-03-17T11:27:11.000Z</time>
      </trkpt>
      <trkpt lat="47.26586" lon="-2.34591">
        <ele>-15</ele>
        <time>2022-03-17T11:27:12.000Z</time>
      </trkpt>
      <trkpt lat="47.26547" lon="-2.34549">
        <ele>-15</ele>
        <time>2022-03-17T11:27:21.000Z</time>
      </trkpt>
      <trkpt lat="47.26511" lon="-2.34517">
        <ele>-15</ele>
        <time>2022-03-17T11:27:29.000Z</time>
      </trkpt>
      <trkpt lat="47.26473" lon="-2.3449">
        <ele>-15</ele>
        <time>2022-03-17T11:27:37.000Z</time>
      </trkpt>
      <trkpt lat="47.26449" lon="-2.34473">
        <ele>-15.39999961853</ele>
        <time>2022-03-17T11:27:42.000Z</time>
      </trkpt>
      <trkpt lat="47.26444" lon="-2.34469">
        <ele>-16.200000762939</ele>
        <time>2022-03-17T11:27:43.000Z</time>
      </trkpt>
      <trkpt lat="47.26439" lon="-2.34466">
        <ele>-16.60000038147</ele>
        <time>2022-03-17T11:27:44.000Z</time>
      </trkpt>
      <trkpt lat="47.26435" lon="-2.34462">
        <ele>-17</ele>
        <time>2022-03-17T11:27:45.000Z</time>
      </trkpt>
      <trkpt lat="47.2643" lon="-2.34458">
        <ele>-17</ele>
        <time>2022-03-17T11:27:46.000Z</time>
      </trkpt>
      <trkpt lat="47.26396" lon="-2.34433">
        <ele>-17</ele>
        <time>2022-03-17T11:27:53.000Z</time>
      </trkpt>
      <trkpt lat="47.26359" lon="-2.344">
        <ele>-17</ele>
        <time>2022-03-17T11:28:01.000Z</time>
      </trkpt>
      <trkpt lat="47.26341" lon="-2.34384">
        <ele>-17</ele>
        <time>2022-03-17T11:28:05.000Z</time>
      </trkpt>
      <trkpt lat="47.26332" lon="-2.34381">
        <ele>-17</ele>
        <time>2022-03-17T11:28:07.000Z</time>
      </trkpt>
      <trkpt lat="47.26318" lon="-2.34371">
        <ele>-17</ele>
        <time>2022-03-17T11:28:10.000Z</time>
      </trkpt>
      <trkpt lat="47.26312" lon="-2.34359">
        <ele>-17</ele>
        <time>2022-03-17T11:28:12.000Z</time>
      </trkpt>
      <trkpt lat="47.26309" lon="-2.34354">
        <ele>-17</ele>
        <time>2022-03-17T11:28:13.000Z</time>
      </trkpt>
      <trkpt lat="47.263" lon="-2.34345">
        <ele>-17</ele>
        <time>2022-03-17T11:28:15.000Z</time>
      </trkpt>
      <trkpt lat="47.26292" lon="-2.34337">
        <ele>-17</ele>
        <time>2022-03-17T11:28:17.000Z</time>
      </trkpt>
      <trkpt lat="47.26272" lon="-2.34315">
        <ele>-17</ele>
        <time>2022-03-17T11:28:22.000Z</time>
      </trkpt>
      <trkpt lat="47.26268" lon="-2.34311">
        <ele>-17</ele>
        <time>2022-03-17T11:28:23.000Z</time>
      </trkpt>
      <trkpt lat="47.26252" lon="-2.34293">
        <ele>-17</ele>
        <time>2022-03-17T11:28:27.000Z</time>
      </trkpt>
      <trkpt lat="47.26219" lon="-2.34259">
        <ele>-17</ele>
        <time>2022-03-17T11:28:35.000Z</time>
      </trkpt>
      <trkpt lat="47.26199" lon="-2.34236">
        <ele>-17</ele>
        <time>2022-03-17T11:28:40.000Z</time>
      </trkpt>
      <trkpt lat="47.26191" lon="-2.34227">
        <ele>-17</ele>
        <time>2022-03-17T11:28:42.000Z</time>
      </trkpt>
      <trkpt lat="47.26187" lon="-2.34222">
        <ele>-17</ele>
        <time>2022-03-17T11:28:43.000Z</time>
      </trkpt>
      <trkpt lat="47.26183" lon="-2.34219">
        <ele>-17</ele>
        <time>2022-03-17T11:28:44.000Z</time>
      </trkpt>
      <trkpt lat="47.26165" lon="-2.34204">
        <ele>-17</ele>
        <time>2022-03-17T11:28:48.000Z</time>
      </trkpt>
      <trkpt lat="47.26143" lon="-2.34185">
        <ele>-17</ele>
        <time>2022-03-17T11:28:53.000Z</time>
      </trkpt>
      <trkpt lat="47.26133" lon="-2.34181">
        <ele>-17</ele>
        <time>2022-03-17T11:28:55.000Z</time>
      </trkpt>
      <trkpt lat="47.26117" lon="-2.34164">
        <ele>-17</ele>
        <time>2022-03-17T11:28:59.000Z</time>
      </trkpt>
      <trkpt lat="47.26088" lon="-2.34149">
        <ele>-17</ele>
        <time>2022-03-17T11:29:05.000Z</time>
      </trkpt>
      <trkpt lat="47.26053" lon="-2.34131">
        <ele>-17</ele>
        <time>2022-03-17T11:29:12.000Z</time>
      </trkpt>
      <trkpt lat="47.26009" lon="-2.34109">
        <ele>-17</ele>
        <time>2022-03-17T11:29:21.000Z</time>
      </trkpt>
      <trkpt lat="47.25976" lon="-2.34092">
        <ele>-17</ele>
        <time>2022-03-17T11:29:28.000Z</time>
      </trkpt>
      <trkpt lat="47.25933" lon="-2.34073">
        <ele>-17</ele>
        <time>2022-03-17T11:29:37.000Z</time>
      </trkpt>
      <trkpt lat="47.25928" lon="-2.34072">
        <ele>-17</ele>
        <time>2022-03-17T11:29:38.000Z</time>
      </trkpt>
      <trkpt lat="47.25914" lon="-2.34071">
        <ele>-17</ele>
        <time>2022-03-17T11:29:41.000Z</time>
      </trkpt>
      <trkpt lat="47.25909" lon="-2.34069">
        <ele>-17</ele>
        <time>2022-03-17T11:29:42.000Z</time>
      </trkpt>
      <trkpt lat="47.25899" lon="-2.34054">
        <ele>-17</ele>
        <time>2022-03-17T11:29:45.000Z</time>
      </trkpt>
      <trkpt lat="47.25898" lon="-2.34034">
        <ele>-17.60000038147</ele>
        <time>2022-03-17T11:29:48.000Z</time>
      </trkpt>
      <trkpt lat="47.259" lon="-2.34028">
        <ele>-18</ele>
        <time>2022-03-17T11:29:49.000Z</time>
      </trkpt>
      <trkpt lat="47.25902" lon="-2.34022">
        <ele>-18.39999961853</ele>
        <time>2022-03-17T11:29:50.000Z</time>
      </trkpt>
      <trkpt lat="47.25904" lon="-2.34015">
        <ele>-18.799999237061</ele>
        <time>2022-03-17T11:29:51.000Z</time>
      </trkpt>
      <trkpt lat="47.25906" lon="-2.34009">
        <ele>-19.200000762939</ele>
        <time>2022-03-17T11:29:52.000Z</time>
      </trkpt>
      <trkpt lat="47.25908" lon="-2.34002">
        <ele>-19.200000762939</ele>
        <time>2022-03-17T11:29:53.000Z</time>
      </trkpt>
      <trkpt lat="47.25911" lon="-2.33989">
        <ele>-19.200000762939</ele>
        <time>2022-03-17T11:29:55.000Z</time>
      </trkpt>
      <trkpt lat="47.2592" lon="-2.33963">
        <ele>-19.200000762939</ele>
        <time>2022-03-17T11:29:59.000Z</time>
      </trkpt>
      <trkpt lat="47.25925" lon="-2.3395">
        <ele>-19.200000762939</ele>
        <time>2022-03-17T11:30:01.000Z</time>
      </trkpt>
      <trkpt lat="47.25937" lon="-2.33929">
        <ele>-19.200000762939</ele>
        <time>2022-03-17T11:30:05.000Z</time>
      </trkpt>
      <trkpt lat="47.25943" lon="-2.33918">
        <ele>-19.200000762939</ele>
        <time>2022-03-17T11:30:08.000Z</time>
      </trkpt>
      <trkpt lat="47.25943" lon="-2.33917">
        <ele>-19.200000762939</ele>
        <time>2022-03-17T11:30:09.000Z</time>
      </trkpt>
      <trkpt lat="47.25944" lon="-2.33908">
        <ele>-19.200000762939</ele>
        <time>2022-03-17T11:30:12.000Z</time>
      </trkpt>
      <trkpt lat="47.25946" lon="-2.33905">
        <ele>-19.200000762939</ele>
        <time>2022-03-17T11:30:13.000Z</time>
      </trkpt>
      <trkpt lat="47.25958" lon="-2.33895">
        <ele>-19.200000762939</ele>
        <time>2022-03-17T11:30:17.000Z</time>
      </trkpt>
      <trkpt lat="47.25967" lon="-2.33887">
        <ele>-19.200000762939</ele>
        <time>2022-03-17T11:30:20.000Z</time>
      </trkpt>
      <trkpt lat="47.25969" lon="-2.33881">
        <ele>-19.200000762939</ele>
        <time>2022-03-17T11:30:21.000Z</time>
      </trkpt>
      <trkpt lat="47.25981" lon="-2.33842">
        <ele>-19.200000762939</ele>
        <time>2022-03-17T11:30:27.000Z</time>
      </trkpt>
      <trkpt lat="47.25998" lon="-2.338">
        <ele>-19.200000762939</ele>
        <time>2022-03-17T11:30:33.000Z</time>
      </trkpt>
      <trkpt lat="47.26016" lon="-2.33757">
        <ele>-19.200000762939</ele>
        <time>2022-03-17T11:30:39.000Z</time>
      </trkpt>
      <trkpt lat="47.26034" lon="-2.33706">
        <ele>-19.200000762939</ele>
        <time>2022-03-17T11:30:46.000Z</time>
      </trkpt>
      <trkpt lat="47.26037" lon="-2.33703">
        <ele>-19.200000762939</ele>
        <time>2022-03-17T11:30:47.000Z</time>
      </trkpt>
      <trkpt lat="47.26041" lon="-2.33701">
        <ele>-19.200000762939</ele>
        <time>2022-03-17T11:30:48.000Z</time>
      </trkpt>
      <trkpt lat="47.2605" lon="-2.33686">
        <ele>-19.200000762939</ele>
        <time>2022-03-17T11:30:51.000Z</time>
      </trkpt>
      <trkpt lat="47.26051" lon="-2.3368">
        <ele>-19.200000762939</ele>
        <time>2022-03-17T11:30:52.000Z</time>
      </trkpt>
      <trkpt lat="47.26065" lon="-2.33635">
        <ele>-19.200000762939</ele>
        <time>2022-03-17T11:30:59.000Z</time>
      </trkpt>
      <trkpt lat="47.26069" lon="-2.33622">
        <ele>-19.200000762939</ele>
        <time>2022-03-17T11:31:01.000Z</time>
      </trkpt>
      <trkpt lat="47.26075" lon="-2.33604">
        <ele>-19.200000762939</ele>
        <time>2022-03-17T11:31:04.000Z</time>
      </trkpt>
      <trkpt lat="47.26086" lon="-2.33573">
        <ele>-19.200000762939</ele>
        <time>2022-03-17T11:31:09.000Z</time>
      </trkpt>
      <trkpt lat="47.26088" lon="-2.33566">
        <ele>-19.200000762939</ele>
        <time>2022-03-17T11:31:10.000Z</time>
      </trkpt>
      <trkpt lat="47.26103" lon="-2.33524">
        <ele>-19.200000762939</ele>
        <time>2022-03-17T11:31:17.000Z</time>
      </trkpt>
      <trkpt lat="47.2612" lon="-2.3348">
        <ele>-19.200000762939</ele>
        <time>2022-03-17T11:31:24.000Z</time>
      </trkpt>
      <trkpt lat="47.2613" lon="-2.3345">
        <ele>-19.200000762939</ele>
        <time>2022-03-17T11:31:30.000Z</time>
      </trkpt>
      <trkpt lat="47.26135" lon="-2.33429">
        <ele>-19.200000762939</ele>
        <time>2022-03-17T11:31:34.000Z</time>
      </trkpt>
      <trkpt lat="47.26134" lon="-2.33424">
        <ele>-19.200000762939</ele>
        <time>2022-03-17T11:31:35.000Z</time>
      </trkpt>
      <trkpt lat="47.26123" lon="-2.3341">
        <ele>-19.200000762939</ele>
        <time>2022-03-17T11:31:39.000Z</time>
      </trkpt>
      <trkpt lat="47.26111" lon="-2.33398">
        <ele>-19.200000762939</ele>
        <time>2022-03-17T11:31:42.000Z</time>
      </trkpt>
      <trkpt lat="47.261" lon="-2.33385">
        <ele>-19.200000762939</ele>
        <time>2022-03-17T11:31:45.000Z</time>
      </trkpt>
      <trkpt lat="47.2609" lon="-2.33371">
        <ele>-19.200000762939</ele>
        <time>2022-03-17T11:31:48.000Z</time>
      </trkpt>
      <trkpt lat="47.26081" lon="-2.33356">
        <ele>-19.200000762939</ele>
        <time>2022-03-17T11:31:51.000Z</time>
      </trkpt>
      <trkpt lat="47.26075" lon="-2.33345">
        <ele>-19.200000762939</ele>
        <time>2022-03-17T11:31:53.000Z</time>
      </trkpt>
      <trkpt lat="47.26065" lon="-2.33319">
        <ele>-19.200000762939</ele>
        <time>2022-03-17T11:31:57.000Z</time>
      </trkpt>
      <trkpt lat="47.26045" lon="-2.33261">
        <ele>-19.200000762939</ele>
        <time>2022-03-17T11:32:06.000Z</time>
      </trkpt>
      <trkpt lat="47.26025" lon="-2.33207">
        <ele>-19.200000762939</ele>
        <time>2022-03-17T11:32:14.000Z</time>
      </trkpt>
      <trkpt lat="47.26001" lon="-2.33139">
        <ele>-19.200000762939</ele>
        <time>2022-03-17T11:32:24.000Z</time>
      </trkpt>
      <trkpt lat="47.25985" lon="-2.33085">
        <ele>-19.200000762939</ele>
        <time>2022-03-17T11:32:32.000Z</time>
      </trkpt>
      <trkpt lat="47.25982" lon="-2.33079">
        <ele>-19.200000762939</ele>
        <time>2022-03-17T11:32:33.000Z</time>
      </trkpt>
      <trkpt lat="47.25973" lon="-2.33061">
        <ele>-19.200000762939</ele>
        <time>2022-03-17T11:32:36.000Z</time>
      </trkpt>
      <trkpt lat="47.25965" lon="-2.33034">
        <ele>-19.200000762939</ele>
        <time>2022-03-17T11:32:40.000Z</time>
      </trkpt>
      <trkpt lat="47.25963" lon="-2.33027">
        <ele>-19.200000762939</ele>
        <time>2022-03-17T11:32:41.000Z</time>
      </trkpt>
      <trkpt lat="47.25959" lon="-2.33014">
        <ele>-19.200000762939</ele>
        <time>2022-03-17T11:32:43.000Z</time>
      </trkpt>
      <trkpt lat="47.2595" lon="-2.32989">
        <ele>-19.200000762939</ele>
        <time>2022-03-17T11:32:47.000Z</time>
      </trkpt>
      <trkpt lat="47.25935" lon="-2.32943">
        <ele>-19.200000762939</ele>
        <time>2022-03-17T11:32:54.000Z</time>
      </trkpt>
      <trkpt lat="47.25923" lon="-2.32903">
        <ele>-19.200000762939</ele>
        <time>2022-03-17T11:33:00.000Z</time>
      </trkpt>
      <trkpt lat="47.25912" lon="-2.32871">
        <ele>-19.200000762939</ele>
        <time>2022-03-17T11:33:05.000Z</time>
      </trkpt>
      <trkpt lat="47.25907" lon="-2.32859">
        <ele>-19.200000762939</ele>
        <time>2022-03-17T11:33:07.000Z</time>
      </trkpt>
      <trkpt lat="47.25897" lon="-2.32828">
        <ele>-19.200000762939</ele>
        <time>2022-03-17T11:33:12.000Z</time>
      </trkpt>
      <trkpt lat="47.25895" lon="-2.32822">
        <ele>-19.200000762939</ele>
        <time>2022-03-17T11:33:13.000Z</time>
      </trkpt>
      <trkpt lat="47.25882" lon="-2.32785">
        <ele>-19.200000762939</ele>
        <time>2022-03-17T11:33:19.000Z</time>
      </trkpt>
      <trkpt lat="47.25872" lon="-2.32747">
        <ele>-19.200000762939</ele>
        <time>2022-03-17T11:33:25.000Z</time>
      </trkpt>
      <trkpt lat="47.25872" lon="-2.32741">
        <ele>-19.200000762939</ele>
        <time>2022-03-17T11:33:26.000Z</time>
      </trkpt>
      <trkpt lat="47.2588" lon="-2.32724">
        <ele>-19.200000762939</ele>
        <time>2022-03-17T11:33:29.000Z</time>
      </trkpt>
      <trkpt lat="47.25883" lon="-2.3272">
        <ele>-19.200000762939</ele>
        <time>2022-03-17T11:33:30.000Z</time>
      </trkpt>
      <trkpt lat="47.25907" lon="-2.32698">
        <ele>-19.200000762939</ele>
        <time>2022-03-17T11:33:36.000Z</time>
      </trkpt>
      <trkpt lat="47.25935" lon="-2.32675">
        <ele>-19.200000762939</ele>
        <time>2022-03-17T11:33:43.000Z</time>
      </trkpt>
      <trkpt lat="47.25957" lon="-2.32662">
        <ele>-19.200000762939</ele>
        <time>2022-03-17T11:33:48.000Z</time>
      </trkpt>
      <trkpt lat="47.2596" lon="-2.32657">
        <ele>-19.200000762939</ele>
        <time>2022-03-17T11:33:49.000Z</time>
      </trkpt>
      <trkpt lat="47.25961" lon="-2.32636">
        <ele>-19.200000762939</ele>
        <time>2022-03-17T11:33:52.000Z</time>
      </trkpt>
      <trkpt lat="47.25957" lon="-2.32608">
        <ele>-19.200000762939</ele>
        <time>2022-03-17T11:33:56.000Z</time>
      </trkpt>
      <trkpt lat="47.25955" lon="-2.326">
        <ele>-19.799999237061</ele>
        <time>2022-03-17T11:33:57.000Z</time>
      </trkpt>
      <trkpt lat="47.25954" lon="-2.32593">
        <ele>-20.200000762939</ele>
        <time>2022-03-17T11:33:58.000Z</time>
      </trkpt>
      <trkpt lat="47.25952" lon="-2.32586">
        <ele>-20.60000038147</ele>
        <time>2022-03-17T11:33:59.000Z</time>
      </trkpt>
      <trkpt lat="47.2595" lon="-2.32579">
        <ele>-21</ele>
        <time>2022-03-17T11:34:00.000Z</time>
      </trkpt>
      <trkpt lat="47.25949" lon="-2.32572">
        <ele>-21.39999961853</ele>
        <time>2022-03-17T11:34:01.000Z</time>
      </trkpt>
      <trkpt lat="47.2594" lon="-2.32539">
        <ele>-21.39999961853</ele>
        <time>2022-03-17T11:34:06.000Z</time>
      </trkpt>
      <trkpt lat="47.25924" lon="-2.32488">
        <ele>-21.39999961853</ele>
        <time>2022-03-17T11:34:14.000Z</time>
      </trkpt>
      <trkpt lat="47.25921" lon="-2.32483">
        <ele>-21.39999961853</ele>
        <time>2022-03-17T11:34:15.000Z</time>
      </trkpt>
      <trkpt lat="47.25912" lon="-2.32471">
        <ele>-21.39999961853</ele>
        <time>2022-03-17T11:34:18.000Z</time>
      </trkpt>
      <trkpt lat="47.25909" lon="-2.32467">
        <ele>-21.39999961853</ele>
        <time>2022-03-17T11:34:19.000Z</time>
      </trkpt>
      <trkpt lat="47.25903" lon="-2.32454">
        <ele>-21.39999961853</ele>
        <time>2022-03-17T11:34:22.000Z</time>
      </trkpt>
      <trkpt lat="47.25904" lon="-2.32449">
        <ele>-21.39999961853</ele>
        <time>2022-03-17T11:34:23.000Z</time>
      </trkpt>
      <trkpt lat="47.25913" lon="-2.32439">
        <ele>-21.39999961853</ele>
        <time>2022-03-17T11:34:26.000Z</time>
      </trkpt>
      <trkpt lat="47.25923" lon="-2.32427">
        <ele>-21.39999961853</ele>
        <time>2022-03-17T11:34:29.000Z</time>
      </trkpt>
      <trkpt lat="47.25931" lon="-2.32418">
        <ele>-21.39999961853</ele>
        <time>2022-03-17T11:34:31.000Z</time>
      </trkpt>
      <trkpt lat="47.25955" lon="-2.32387">
        <ele>-21.39999961853</ele>
        <time>2022-03-17T11:34:38.000Z</time>
      </trkpt>
      <trkpt lat="47.25972" lon="-2.32364">
        <ele>-21.39999961853</ele>
        <time>2022-03-17T11:34:44.000Z</time>
      </trkpt>
      <trkpt lat="47.25979" lon="-2.32354">
        <ele>-21.39999961853</ele>
        <time>2022-03-17T11:34:48.000Z</time>
      </trkpt>
      <trkpt lat="47.2598" lon="-2.32352">
        <ele>-21.39999961853</ele>
        <time>2022-03-17T11:34:49.000Z</time>
      </trkpt>
      <trkpt lat="47.25986" lon="-2.32347">
        <ele>-21.39999961853</ele>
        <time>2022-03-17T11:34:53.000Z</time>
      </trkpt>
      <trkpt lat="47.2599" lon="-2.32342">
        <ele>-21.39999961853</ele>
        <time>2022-03-17T11:34:55.000Z</time>
      </trkpt>
      <trkpt lat="47.25999" lon="-2.32331">
        <ele>-21.39999961853</ele>
        <time>2022-03-17T11:34:58.000Z</time>
      </trkpt>
      <trkpt lat="47.26002" lon="-2.32327">
        <ele>-21.39999961853</ele>
        <time>2022-03-17T11:34:59.000Z</time>
      </trkpt>
      <trkpt lat="47.2601" lon="-2.32317">
        <ele>-21.39999961853</ele>
        <time>2022-03-17T11:35:02.000Z</time>
      </trkpt>
      <trkpt lat="47.26016" lon="-2.3231">
        <ele>-21.39999961853</ele>
        <time>2022-03-17T11:35:04.000Z</time>
      </trkpt>
      <trkpt lat="47.2603" lon="-2.32294">
        <ele>-21.39999961853</ele>
        <time>2022-03-17T11:35:08.000Z</time>
      </trkpt>
      <trkpt lat="47.26057" lon="-2.32263">
        <ele>-21.39999961853</ele>
        <time>2022-03-17T11:35:16.000Z</time>
      </trkpt>
      <trkpt lat="47.26077" lon="-2.32239">
        <ele>-21.39999961853</ele>
        <time>2022-03-17T11:35:22.000Z</time>
      </trkpt>
      <trkpt lat="47.26097" lon="-2.32209">
        <ele>-21.39999961853</ele>
        <time>2022-03-17T11:35:28.000Z</time>
      </trkpt>
      <trkpt lat="47.26113" lon="-2.32172">
        <ele>-21.39999961853</ele>
        <time>2022-03-17T11:35:34.000Z</time>
      </trkpt>
      <trkpt lat="47.26121" lon="-2.32146">
        <ele>-21.39999961853</ele>
        <time>2022-03-17T11:35:38.000Z</time>
      </trkpt>
      <trkpt lat="47.26123" lon="-2.32139">
        <ele>-21.39999961853</ele>
        <time>2022-03-17T11:35:39.000Z</time>
      </trkpt>
      <trkpt lat="47.26132" lon="-2.32114">
        <ele>-21.39999961853</ele>
        <time>2022-03-17T11:35:43.000Z</time>
      </trkpt>
      <trkpt lat="47.26147" lon="-2.32069">
        <ele>-21.39999961853</ele>
        <time>2022-03-17T11:35:50.000Z</time>
      </trkpt>
      <trkpt lat="47.26162" lon="-2.3203">
        <ele>-21.39999961853</ele>
        <time>2022-03-17T11:35:57.000Z</time>
      </trkpt>
      <trkpt lat="47.26165" lon="-2.32026">
        <ele>-21.39999961853</ele>
        <time>2022-03-17T11:35:58.000Z</time>
      </trkpt>
      <trkpt lat="47.26175" lon="-2.32021">
        <ele>-21.39999961853</ele>
        <time>2022-03-17T11:36:01.000Z</time>
      </trkpt>
      <trkpt lat="47.26178" lon="-2.32021">
        <ele>-21.39999961853</ele>
        <time>2022-03-17T11:36:02.000Z</time>
      </trkpt>
      <trkpt lat="47.26192" lon="-2.32025">
        <ele>-21.39999961853</ele>
        <time>2022-03-17T11:36:07.000Z</time>
      </trkpt>
      <trkpt lat="47.26196" lon="-2.32023">
        <ele>-21.39999961853</ele>
        <time>2022-03-17T11:36:09.000Z</time>
      </trkpt>
      <trkpt lat="47.26199" lon="-2.32017">
        <ele>-21.39999961853</ele>
        <time>2022-03-17T11:36:11.000Z</time>
      </trkpt>
      <trkpt lat="47.26203" lon="-2.32004">
        <ele>-21.39999961853</ele>
        <time>2022-03-17T11:36:15.000Z</time>
      </trkpt>
      <trkpt lat="47.26205" lon="-2.32002">
        <ele>-21.39999961853</ele>
        <time>2022-03-17T11:36:16.000Z</time>
      </trkpt>
      <trkpt lat="47.26217" lon="-2.3199">
        <ele>-21.39999961853</ele>
        <time>2022-03-17T11:36:22.000Z</time>
      </trkpt>
      <trkpt lat="47.26228" lon="-2.31979">
        <ele>-21.39999961853</ele>
        <time>2022-03-17T11:36:26.000Z</time>
      </trkpt>
      <trkpt lat="47.26239" lon="-2.31974">
        <ele>-21.39999961853</ele>
        <time>2022-03-17T11:36:30.000Z</time>
      </trkpt>
      <trkpt lat="47.26247" lon="-2.31956">
        <ele>-21.39999961853</ele>
        <time>2022-03-17T11:36:34.000Z</time>
      </trkpt>
      <trkpt lat="47.26255" lon="-2.31939">
        <ele>-21.39999961853</ele>
        <time>2022-03-17T11:36:40.000Z</time>
      </trkpt>
      <trkpt lat="47.26268" lon="-2.31919">
        <ele>-21.39999961853</ele>
        <time>2022-03-17T11:36:46.000Z</time>
      </trkpt>
      <trkpt lat="47.26285" lon="-2.31897">
        <ele>-21.39999961853</ele>
        <time>2022-03-17T11:36:52.000Z</time>
      </trkpt>
      <trkpt lat="47.26299" lon="-2.31877">
        <ele>-21.39999961853</ele>
        <time>2022-03-17T11:36:57.000Z</time>
      </trkpt>
      <trkpt lat="47.263" lon="-2.31872">
        <ele>-21.39999961853</ele>
        <time>2022-03-17T11:36:58.000Z</time>
      </trkpt>
      <trkpt lat="47.26304" lon="-2.31839">
        <ele>-21.39999961853</ele>
        <time>2022-03-17T11:37:04.000Z</time>
      </trkpt>
      <trkpt lat="47.26306" lon="-2.31807">
        <ele>-21.39999961853</ele>
        <time>2022-03-17T11:37:10.000Z</time>
      </trkpt>
      <trkpt lat="47.26306" lon="-2.31777">
        <ele>-21.39999961853</ele>
        <time>2022-03-17T11:37:16.000Z</time>
      </trkpt>
      <trkpt lat="47.26303" lon="-2.31743">
        <ele>-21.39999961853</ele>
        <time>2022-03-17T11:37:22.000Z</time>
      </trkpt>
      <trkpt lat="47.26306" lon="-2.31717">
        <ele>-21.39999961853</ele>
        <time>2022-03-17T11:37:27.000Z</time>
      </trkpt>
      <trkpt lat="47.26321" lon="-2.31708">
        <ele>-21.39999961853</ele>
        <time>2022-03-17T11:37:32.000Z</time>
      </trkpt>
      <trkpt lat="47.2633" lon="-2.31703">
        <ele>-21.39999961853</ele>
        <time>2022-03-17T11:37:35.000Z</time>
      </trkpt>
      <trkpt lat="47.26333" lon="-2.31694">
        <ele>-21</ele>
        <time>2022-03-17T11:37:37.000Z</time>
      </trkpt>
      <trkpt lat="47.26335" lon="-2.3169">
        <ele>-20</ele>
        <time>2022-03-17T11:37:38.000Z</time>
      </trkpt>
      <trkpt lat="47.26337" lon="-2.31688">
        <ele>-19.60000038147</ele>
        <time>2022-03-17T11:37:39.000Z</time>
      </trkpt>
      <trkpt lat="47.2634" lon="-2.31687">
        <ele>-19.200000762939</ele>
        <time>2022-03-17T11:37:40.000Z</time>
      </trkpt>
      <trkpt lat="47.26342" lon="-2.31685">
        <ele>-19.200000762939</ele>
        <time>2022-03-17T11:37:41.000Z</time>
      </trkpt>
      <trkpt lat="47.26354" lon="-2.31679">
        <ele>-19.200000762939</ele>
        <time>2022-03-17T11:37:45.000Z</time>
      </trkpt>
      <trkpt lat="47.26357" lon="-2.31678">
        <ele>-18.799999237061</ele>
        <time>2022-03-17T11:37:46.000Z</time>
      </trkpt>
      <trkpt lat="47.2636" lon="-2.31677">
        <ele>-18.39999961853</ele>
        <time>2022-03-17T11:37:47.000Z</time>
      </trkpt>
      <trkpt lat="47.26363" lon="-2.31676">
        <ele>-18</ele>
        <time>2022-03-17T11:37:48.000Z</time>
      </trkpt>
      <trkpt lat="47.26367" lon="-2.31675">
        <ele>-17.60000038147</ele>
        <time>2022-03-17T11:37:49.000Z</time>
      </trkpt>
      <trkpt lat="47.2637" lon="-2.31673">
        <ele>-17.200000762939</ele>
        <time>2022-03-17T11:37:50.000Z</time>
      </trkpt>
      <trkpt lat="47.26374" lon="-2.31672">
        <ele>-17.200000762939</ele>
        <time>2022-03-17T11:37:51.000Z</time>
      </trkpt>
      <trkpt lat="47.2639" lon="-2.31663">
        <ele>-17.200000762939</ele>
        <time>2022-03-17T11:37:56.000Z</time>
      </trkpt>
      <trkpt lat="47.26404" lon="-2.31656">
        <ele>-17.200000762939</ele>
        <time>2022-03-17T11:38:01.000Z</time>
      </trkpt>
      <trkpt lat="47.2641" lon="-2.3165">
        <ele>-17.200000762939</ele>
        <time>2022-03-17T11:38:03.000Z</time>
      </trkpt>
      <trkpt lat="47.26412" lon="-2.31642">
        <ele>-17.200000762939</ele>
        <time>2022-03-17T11:38:05.000Z</time>
      </trkpt>
      <trkpt lat="47.26411" lon="-2.31638">
        <ele>-17.200000762939</ele>
        <time>2022-03-17T11:38:06.000Z</time>
      </trkpt>
      <trkpt lat="47.26411" lon="-2.31624">
        <ele>-17.200000762939</ele>
        <time>2022-03-17T11:38:09.000Z</time>
      </trkpt>
      <trkpt lat="47.26412" lon="-2.31585">
        <ele>-17.200000762939</ele>
        <time>2022-03-17T11:38:17.000Z</time>
      </trkpt>
      <trkpt lat="47.26412" lon="-2.31556">
        <ele>-16.799999237061</ele>
        <time>2022-03-17T11:38:24.000Z</time>
      </trkpt>
      <trkpt lat="47.26413" lon="-2.31553">
        <ele>-16.200000762939</ele>
        <time>2022-03-17T11:38:25.000Z</time>
      </trkpt>
      <trkpt lat="47.26414" lon="-2.31552">
        <ele>-15.800000190735</ele>
        <time>2022-03-17T11:38:26.000Z</time>
      </trkpt>
      <trkpt lat="47.26415" lon="-2.31552">
        <ele>-15</ele>
        <time>2022-03-17T11:38:27.000Z</time>
      </trkpt>
      <trkpt lat="47.26417" lon="-2.31552">
        <ele>-15</ele>
        <time>2022-03-17T11:38:28.000Z</time>
      </trkpt>
      <trkpt lat="47.26417" lon="-2.31553">
        <ele>-15</ele>
        <time>2022-03-17T11:38:30.000Z</time>
      </trkpt>
      <trkpt lat="47.2643" lon="-2.3155">
        <ele>-15</ele>
        <time>2022-03-17T11:39:21.000Z</time>
      </trkpt>
      <trkpt lat="47.26431" lon="-2.31549">
        <ele>-15</ele>
        <time>2022-03-17T11:39:22.000Z</time>
      </trkpt>
      <trkpt lat="47.26431" lon="-2.31549">
        <ele>-15</ele>
        <time>2022-03-17T11:39:24.000Z</time>
      </trkpt>
    </trkseg>
  </trk>
</gpx>